<?xml version="1.0" encoding="UTF-8" standalone="no" ?>
<gpx xmlns="http://www.topografix.com/GPX/1/1" xmlns:xsi="http://www.w3.org/2001/XMLSchema-instance" xsi:schemaLocation="http://www.topografix.com/GPX/1/1 http://www.topografix.com/GPX/1/1/gpx.xsd" version="1.1" creator="VisuGPX - https://www.visugpx.com">
  <metadata>
    <name>FROIDMONT-COHARTILLE</name>
    <desc><![CDATA[Randonnée pédestre du 1-06-2015]]></desc>
  </metadata>
  <trk>
    <name><![CDATA[1 Rue de Grandlup]]></name>
    <desc><![CDATA[]]></desc>
    <trkseg>
      <trkpt lat="49.68585" lon="3.7085">
        <ele>121.5</ele>
        <time>2015-06-01T11:54:13.497Z</time>
      </trkpt>
      <trkpt lat="49.68588" lon="3.70841">
        <ele>115.9</ele>
        <time>2015-06-01T11:55:33.704Z</time>
      </trkpt>
      <trkpt lat="49.6859" lon="3.70838">
        <ele>121.3</ele>
        <time>2015-06-01T11:55:34.456Z</time>
      </trkpt>
      <trkpt lat="49.68589" lon="3.70835">
        <ele>120.1</ele>
        <time>2015-06-01T11:55:49.536Z</time>
      </trkpt>
      <trkpt lat="49.68589" lon="3.70834">
        <ele>120.1</ele>
        <time>2015-06-01T11:55:50.547Z</time>
      </trkpt>
      <trkpt lat="49.68589" lon="3.70834">
        <ele>120.1</ele>
        <time>2015-06-01T11:55:51.463Z</time>
      </trkpt>
      <trkpt lat="49.68586" lon="3.70835">
        <ele>118.5</ele>
        <time>2015-06-01T11:56:03.473Z</time>
      </trkpt>
      <trkpt lat="49.68586" lon="3.70835">
        <ele>118.3</ele>
        <time>2015-06-01T11:56:04.493Z</time>
      </trkpt>
      <trkpt lat="49.68586" lon="3.70835">
        <ele>118.1</ele>
        <time>2015-06-01T11:56:05.496Z</time>
      </trkpt>
      <trkpt lat="49.68586" lon="3.70837">
        <ele>118</ele>
        <time>2015-06-01T11:56:07.521Z</time>
      </trkpt>
      <trkpt lat="49.68586" lon="3.70837">
        <ele>117.9</ele>
        <time>2015-06-01T11:56:08.527Z</time>
      </trkpt>
      <trkpt lat="49.68586" lon="3.70837">
        <ele>118</ele>
        <time>2015-06-01T11:56:09.540Z</time>
      </trkpt>
      <trkpt lat="49.68588" lon="3.70836">
        <ele>117.9</ele>
        <time>2015-06-01T11:56:12.490Z</time>
      </trkpt>
      <trkpt lat="49.68588" lon="3.70836">
        <ele>117.8</ele>
        <time>2015-06-01T11:56:13.473Z</time>
      </trkpt>
      <trkpt lat="49.68588" lon="3.70835">
        <ele>117.6</ele>
        <time>2015-06-01T11:56:23.700Z</time>
      </trkpt>
      <trkpt lat="49.68589" lon="3.70834">
        <ele>118</ele>
        <time>2015-06-01T11:56:24.557Z</time>
      </trkpt>
      <trkpt lat="49.68591" lon="3.70834">
        <ele>117.5</ele>
        <time>2015-06-01T11:57:01.509Z</time>
      </trkpt>
      <trkpt lat="49.6859" lon="3.70834">
        <ele>117.5</ele>
        <time>2015-06-01T11:57:02.516Z</time>
      </trkpt>
      <trkpt lat="49.68591" lon="3.70834">
        <ele>117.5</ele>
        <time>2015-06-01T11:57:19.556Z</time>
      </trkpt>
      <trkpt lat="49.68591" lon="3.70833">
        <ele>117.9</ele>
        <time>2015-06-01T11:57:20.563Z</time>
      </trkpt>
      <trkpt lat="49.68591" lon="3.70833">
        <ele>118</ele>
        <time>2015-06-01T11:57:21.489Z</time>
      </trkpt>
      <trkpt lat="49.68591" lon="3.70833">
        <ele>118.1</ele>
        <time>2015-06-01T11:57:22.492Z</time>
      </trkpt>
      <trkpt lat="49.6859" lon="3.70834">
        <ele>118.1</ele>
        <time>2015-06-01T11:57:23.501Z</time>
      </trkpt>
      <trkpt lat="49.6859" lon="3.70834">
        <ele>118.1</ele>
        <time>2015-06-01T11:57:24.508Z</time>
      </trkpt>
      <trkpt lat="49.6859" lon="3.70834">
        <ele>118.1</ele>
        <time>2015-06-01T11:57:25.520Z</time>
      </trkpt>
      <trkpt lat="49.6859" lon="3.70834">
        <ele>118.2</ele>
        <time>2015-06-01T11:57:27.543Z</time>
      </trkpt>
      <trkpt lat="49.6859" lon="3.70834">
        <ele>118.3</ele>
        <time>2015-06-01T11:57:28.546Z</time>
      </trkpt>
      <trkpt lat="49.6859" lon="3.70834">
        <ele>118.3</ele>
        <time>2015-06-01T11:57:35.532Z</time>
      </trkpt>
      <trkpt lat="49.6859" lon="3.70834">
        <ele>118.7</ele>
        <time>2015-06-01T11:57:36.550Z</time>
      </trkpt>
      <trkpt lat="49.68591" lon="3.70834">
        <ele>121</ele>
        <time>2015-06-01T11:58:55.526Z</time>
      </trkpt>
      <trkpt lat="49.68591" lon="3.70834">
        <ele>121</ele>
        <time>2015-06-01T11:58:56.535Z</time>
      </trkpt>
      <trkpt lat="49.68591" lon="3.70834">
        <ele>121</ele>
        <time>2015-06-01T11:59:03.490Z</time>
      </trkpt>
      <trkpt lat="49.6859" lon="3.70835">
        <ele>121.4</ele>
        <time>2015-06-01T11:59:04.498Z</time>
      </trkpt>
      <trkpt lat="49.6859" lon="3.70836">
        <ele>121.5</ele>
        <time>2015-06-01T11:59:05.508Z</time>
      </trkpt>
      <trkpt lat="49.6859" lon="3.70835">
        <ele>121.7</ele>
        <time>2015-06-01T12:00:06.485Z</time>
      </trkpt>
      <trkpt lat="49.68591" lon="3.70835">
        <ele>121.8</ele>
        <time>2015-06-01T12:00:07.504Z</time>
      </trkpt>
      <trkpt lat="49.68591" lon="3.70835">
        <ele>122</ele>
        <time>2015-06-01T12:00:08.508Z</time>
      </trkpt>
      <trkpt lat="49.68592" lon="3.70835">
        <ele>122.2</ele>
        <time>2015-06-01T12:00:09.526Z</time>
      </trkpt>
      <trkpt lat="49.68595" lon="3.70834">
        <ele>124.4</ele>
        <time>2015-06-01T12:01:46.538Z</time>
      </trkpt>
      <trkpt lat="49.68595" lon="3.70834">
        <ele>124.4</ele>
        <time>2015-06-01T12:01:47.543Z</time>
      </trkpt>
      <trkpt lat="49.68595" lon="3.70834">
        <ele>124.5</ele>
        <time>2015-06-01T12:01:48.462Z</time>
      </trkpt>
      <trkpt lat="49.68595" lon="3.70835">
        <ele>124.8</ele>
        <time>2015-06-01T12:01:57.175Z</time>
      </trkpt>
      <trkpt lat="49.68594" lon="3.70835">
        <ele>124.6</ele>
        <time>2015-06-01T12:01:57.503Z</time>
      </trkpt>
      <trkpt lat="49.68594" lon="3.70835">
        <ele>124.4</ele>
        <time>2015-06-01T12:02:11.537Z</time>
      </trkpt>
      <trkpt lat="49.68595" lon="3.70832">
        <ele>124</ele>
        <time>2015-06-01T12:02:12.542Z</time>
      </trkpt>
      <trkpt lat="49.68595" lon="3.70831">
        <ele>123.9</ele>
        <time>2015-06-01T12:02:13.551Z</time>
      </trkpt>
      <trkpt lat="49.68596" lon="3.70831">
        <ele>123.8</ele>
        <time>2015-06-01T12:02:14.556Z</time>
      </trkpt>
      <trkpt lat="49.68596" lon="3.70831">
        <ele>123.6</ele>
        <time>2015-06-01T12:02:15.481Z</time>
      </trkpt>
      <trkpt lat="49.68596" lon="3.70831">
        <ele>123.4</ele>
        <time>2015-06-01T12:02:39.514Z</time>
      </trkpt>
      <trkpt lat="49.68592" lon="3.70835">
        <ele>122.3</ele>
        <time>2015-06-01T12:02:40.527Z</time>
      </trkpt>
      <trkpt lat="49.68587" lon="3.70825">
        <ele>121</ele>
        <time>2015-06-01T12:03:04.127Z</time>
      </trkpt>
      <trkpt lat="49.68585" lon="3.70824">
        <ele>120.4</ele>
        <time>2015-06-01T12:03:04.527Z</time>
      </trkpt>
      <trkpt lat="49.68577" lon="3.70819">
        <ele>120</ele>
        <time>2015-06-01T12:03:12.517Z</time>
      </trkpt>
      <trkpt lat="49.68576" lon="3.70819">
        <ele>119.9</ele>
        <time>2015-06-01T12:03:13.549Z</time>
      </trkpt>
      <trkpt lat="49.68568" lon="3.70822">
        <ele>118.7</ele>
        <time>2015-06-01T12:03:22.560Z</time>
      </trkpt>
      <trkpt lat="49.68567" lon="3.70822">
        <ele>118.6</ele>
        <time>2015-06-01T12:03:23.574Z</time>
      </trkpt>
      <trkpt lat="49.68558" lon="3.70824">
        <ele>117.9</ele>
        <time>2015-06-01T12:03:30.542Z</time>
      </trkpt>
      <trkpt lat="49.68557" lon="3.70824">
        <ele>117.8</ele>
        <time>2015-06-01T12:03:31.549Z</time>
      </trkpt>
      <trkpt lat="49.68548" lon="3.70826">
        <ele>118.1</ele>
        <time>2015-06-01T12:03:40.550Z</time>
      </trkpt>
      <trkpt lat="49.68547" lon="3.70826">
        <ele>118.2</ele>
        <time>2015-06-01T12:03:41.555Z</time>
      </trkpt>
      <trkpt lat="49.68539" lon="3.70826">
        <ele>119.4</ele>
        <time>2015-06-01T12:03:48.493Z</time>
      </trkpt>
      <trkpt lat="49.68538" lon="3.70827">
        <ele>119.7</ele>
        <time>2015-06-01T12:03:49.499Z</time>
      </trkpt>
      <trkpt lat="49.68538" lon="3.70827">
        <ele>119.8</ele>
        <time>2015-06-01T12:03:50.545Z</time>
      </trkpt>
      <trkpt lat="49.68537" lon="3.70827">
        <ele>119.8</ele>
        <time>2015-06-01T12:03:51.547Z</time>
      </trkpt>
      <trkpt lat="49.68537" lon="3.70827">
        <ele>119.8</ele>
        <time>2015-06-01T12:03:51.217Z</time>
      </trkpt>
      <trkpt lat="49.68537" lon="3.70827">
        <ele>119.7</ele>
        <time>2015-06-01T12:03:52.555Z</time>
      </trkpt>
      <trkpt lat="49.68528" lon="3.70828">
        <ele>120.3</ele>
        <time>2015-06-01T12:04:02.562Z</time>
      </trkpt>
      <trkpt lat="49.68527" lon="3.70829">
        <ele>120.4</ele>
        <time>2015-06-01T12:04:03.465Z</time>
      </trkpt>
      <trkpt lat="49.68519" lon="3.70835">
        <ele>120.5</ele>
        <time>2015-06-01T12:04:11.502Z</time>
      </trkpt>
      <trkpt lat="49.68518" lon="3.70835">
        <ele>120.4</ele>
        <time>2015-06-01T12:04:12.499Z</time>
      </trkpt>
      <trkpt lat="49.68509" lon="3.70838">
        <ele>120.1</ele>
        <time>2015-06-01T12:04:23.538Z</time>
      </trkpt>
      <trkpt lat="49.68508" lon="3.70838">
        <ele>120.1</ele>
        <time>2015-06-01T12:04:24.559Z</time>
      </trkpt>
      <trkpt lat="49.685" lon="3.70839">
        <ele>120.2</ele>
        <time>2015-06-01T12:04:33.511Z</time>
      </trkpt>
      <trkpt lat="49.685" lon="3.70839">
        <ele>120.3</ele>
        <time>2015-06-01T12:04:34.533Z</time>
      </trkpt>
      <trkpt lat="49.68499" lon="3.7084">
        <ele>120.4</ele>
        <time>2015-06-01T12:04:35.547Z</time>
      </trkpt>
      <trkpt lat="49.6849" lon="3.70842">
        <ele>122.1</ele>
        <time>2015-06-01T12:04:48.484Z</time>
      </trkpt>
      <trkpt lat="49.68489" lon="3.70842">
        <ele>122.4</ele>
        <time>2015-06-01T12:04:49.703Z</time>
      </trkpt>
      <trkpt lat="49.68481" lon="3.70845">
        <ele>122.8</ele>
        <time>2015-06-01T12:04:57.485Z</time>
      </trkpt>
      <trkpt lat="49.6848" lon="3.70845">
        <ele>122.9</ele>
        <time>2015-06-01T12:04:58.495Z</time>
      </trkpt>
      <trkpt lat="49.68471" lon="3.70848">
        <ele>123.1</ele>
        <time>2015-06-01T12:05:05.563Z</time>
      </trkpt>
      <trkpt lat="49.6847" lon="3.70849">
        <ele>123</ele>
        <time>2015-06-01T12:05:06.566Z</time>
      </trkpt>
      <trkpt lat="49.68462" lon="3.70848">
        <ele>122.6</ele>
        <time>2015-06-01T12:05:13.550Z</time>
      </trkpt>
      <trkpt lat="49.68461" lon="3.70848">
        <ele>122.6</ele>
        <time>2015-06-01T12:05:14.542Z</time>
      </trkpt>
      <trkpt lat="49.68453" lon="3.70849">
        <ele>123.6</ele>
        <time>2015-06-01T12:05:19.885Z</time>
      </trkpt>
      <trkpt lat="49.68451" lon="3.70849">
        <ele>123.6</ele>
        <time>2015-06-01T12:05:20.935Z</time>
      </trkpt>
      <trkpt lat="49.68443" lon="3.7085">
        <ele>122.8</ele>
        <time>2015-06-01T12:05:27.928Z</time>
      </trkpt>
      <trkpt lat="49.68441" lon="3.7085">
        <ele>122.6</ele>
        <time>2015-06-01T12:05:28.846Z</time>
      </trkpt>
      <trkpt lat="49.68434" lon="3.70849">
        <ele>123.9</ele>
        <time>2015-06-01T12:05:33.909Z</time>
      </trkpt>
      <trkpt lat="49.68432" lon="3.70849">
        <ele>124.1</ele>
        <time>2015-06-01T12:05:34.924Z</time>
      </trkpt>
      <trkpt lat="49.68423" lon="3.70848">
        <ele>124.9</ele>
        <time>2015-06-01T12:05:40.916Z</time>
      </trkpt>
      <trkpt lat="49.68422" lon="3.70848">
        <ele>125.2</ele>
        <time>2015-06-01T12:05:41.915Z</time>
      </trkpt>
      <trkpt lat="49.68414" lon="3.70847">
        <ele>125.5</ele>
        <time>2015-06-01T12:05:46.918Z</time>
      </trkpt>
      <trkpt lat="49.68412" lon="3.70846">
        <ele>125.6</ele>
        <time>2015-06-01T12:05:47.934Z</time>
      </trkpt>
      <trkpt lat="49.68404" lon="3.70847">
        <ele>125.5</ele>
        <time>2015-06-01T12:05:53.109Z</time>
      </trkpt>
      <trkpt lat="49.68403" lon="3.70847">
        <ele>125.4</ele>
        <time>2015-06-01T12:05:53.925Z</time>
      </trkpt>
      <trkpt lat="49.68394" lon="3.70847">
        <ele>126.2</ele>
        <time>2015-06-01T12:05:59.884Z</time>
      </trkpt>
      <trkpt lat="49.68392" lon="3.70847">
        <ele>126.7</ele>
        <time>2015-06-01T12:06:00.900Z</time>
      </trkpt>
      <trkpt lat="49.68384" lon="3.70845">
        <ele>127.9</ele>
        <time>2015-06-01T12:06:05.886Z</time>
      </trkpt>
      <trkpt lat="49.68382" lon="3.70845">
        <ele>128</ele>
        <time>2015-06-01T12:06:06.935Z</time>
      </trkpt>
      <trkpt lat="49.68374" lon="3.70843">
        <ele>128.1</ele>
        <time>2015-06-01T12:06:13.219Z</time>
      </trkpt>
      <trkpt lat="49.68373" lon="3.70843">
        <ele>128.3</ele>
        <time>2015-06-01T12:06:13.902Z</time>
      </trkpt>
      <trkpt lat="49.68364" lon="3.70843">
        <ele>128.4</ele>
        <time>2015-06-01T12:06:21.601Z</time>
      </trkpt>
      <trkpt lat="49.68362" lon="3.70843">
        <ele>128.5</ele>
        <time>2015-06-01T12:06:21.852Z</time>
      </trkpt>
      <trkpt lat="49.68355" lon="3.70842">
        <ele>128.9</ele>
        <time>2015-06-01T12:06:27.897Z</time>
      </trkpt>
      <trkpt lat="49.68353" lon="3.70842">
        <ele>129</ele>
        <time>2015-06-01T12:06:28.926Z</time>
      </trkpt>
      <trkpt lat="49.68345" lon="3.70841">
        <ele>129</ele>
        <time>2015-06-01T12:06:34.929Z</time>
      </trkpt>
      <trkpt lat="49.68344" lon="3.70841">
        <ele>129</ele>
        <time>2015-06-01T12:06:35.926Z</time>
      </trkpt>
      <trkpt lat="49.68335" lon="3.70842">
        <ele>128.9</ele>
        <time>2015-06-01T12:06:42.933Z</time>
      </trkpt>
      <trkpt lat="49.68334" lon="3.70842">
        <ele>128.9</ele>
        <time>2015-06-01T12:06:43.936Z</time>
      </trkpt>
      <trkpt lat="49.68326" lon="3.7084">
        <ele>128.3</ele>
        <time>2015-06-01T12:06:49.891Z</time>
      </trkpt>
      <trkpt lat="49.68324" lon="3.7084">
        <ele>128.3</ele>
        <time>2015-06-01T12:06:50.906Z</time>
      </trkpt>
      <trkpt lat="49.68316" lon="3.70842">
        <ele>127.9</ele>
        <time>2015-06-01T12:06:56.899Z</time>
      </trkpt>
      <trkpt lat="49.68315" lon="3.70843">
        <ele>127.9</ele>
        <time>2015-06-01T12:06:57.873Z</time>
      </trkpt>
      <trkpt lat="49.68307" lon="3.70846">
        <ele>127.7</ele>
        <time>2015-06-01T12:07:03.937Z</time>
      </trkpt>
      <trkpt lat="49.68306" lon="3.70846">
        <ele>127.7</ele>
        <time>2015-06-01T12:07:04.875Z</time>
      </trkpt>
      <trkpt lat="49.68299" lon="3.70851">
        <ele>127.1</ele>
        <time>2015-06-01T12:07:10.914Z</time>
      </trkpt>
      <trkpt lat="49.68297" lon="3.70851">
        <ele>127.1</ele>
        <time>2015-06-01T12:07:11.937Z</time>
      </trkpt>
      <trkpt lat="49.68289" lon="3.70856">
        <ele>126.9</ele>
        <time>2015-06-01T12:07:17.862Z</time>
      </trkpt>
      <trkpt lat="49.68288" lon="3.70857">
        <ele>126.9</ele>
        <time>2015-06-01T12:07:18.878Z</time>
      </trkpt>
      <trkpt lat="49.68281" lon="3.70863">
        <ele>126.7</ele>
        <time>2015-06-01T12:07:24.927Z</time>
      </trkpt>
      <trkpt lat="49.68279" lon="3.70864">
        <ele>126.7</ele>
        <time>2015-06-01T12:07:25.933Z</time>
      </trkpt>
      <trkpt lat="49.68272" lon="3.70871">
        <ele>126.8</ele>
        <time>2015-06-01T12:07:32.916Z</time>
      </trkpt>
      <trkpt lat="49.68271" lon="3.70871">
        <ele>126.8</ele>
        <time>2015-06-01T12:07:33.928Z</time>
      </trkpt>
      <trkpt lat="49.68269" lon="3.70873">
        <ele>126.8</ele>
        <time>2015-06-01T12:07:37.905Z</time>
      </trkpt>
      <trkpt lat="49.68269" lon="3.70873">
        <ele>126.8</ele>
        <time>2015-06-01T12:07:38.918Z</time>
      </trkpt>
      <trkpt lat="49.68269" lon="3.70873">
        <ele>126.9</ele>
        <time>2015-06-01T12:07:39.832Z</time>
      </trkpt>
      <trkpt lat="49.68266" lon="3.70875">
        <ele>126.5</ele>
        <time>2015-06-01T12:08:25.954Z</time>
      </trkpt>
      <trkpt lat="49.68266" lon="3.70875">
        <ele>126.4</ele>
        <time>2015-06-01T12:08:26.948Z</time>
      </trkpt>
      <trkpt lat="49.68265" lon="3.70876">
        <ele>126.5</ele>
        <time>2015-06-01T12:08:27.870Z</time>
      </trkpt>
      <trkpt lat="49.68256" lon="3.70878">
        <ele>126.6</ele>
        <time>2015-06-01T12:08:40.916Z</time>
      </trkpt>
      <trkpt lat="49.68255" lon="3.70877">
        <ele>126.6</ele>
        <time>2015-06-01T12:08:41.913Z</time>
      </trkpt>
      <trkpt lat="49.68247" lon="3.70873">
        <ele>126.8</ele>
        <time>2015-06-01T12:08:48.894Z</time>
      </trkpt>
      <trkpt lat="49.68246" lon="3.70871">
        <ele>126.7</ele>
        <time>2015-06-01T12:08:49.909Z</time>
      </trkpt>
      <trkpt lat="49.68241" lon="3.70861">
        <ele>127.3</ele>
        <time>2015-06-01T12:08:56.871Z</time>
      </trkpt>
      <trkpt lat="49.6824" lon="3.7086">
        <ele>127.4</ele>
        <time>2015-06-01T12:08:57.879Z</time>
      </trkpt>
      <trkpt lat="49.68238" lon="3.70848">
        <ele>128.1</ele>
        <time>2015-06-01T12:09:04.942Z</time>
      </trkpt>
      <trkpt lat="49.68237" lon="3.70846">
        <ele>128</ele>
        <time>2015-06-01T12:09:05.851Z</time>
      </trkpt>
      <trkpt lat="49.68234" lon="3.70834">
        <ele>127.9</ele>
        <time>2015-06-01T12:09:13.911Z</time>
      </trkpt>
      <trkpt lat="49.68234" lon="3.70832">
        <ele>127.9</ele>
        <time>2015-06-01T12:09:14.851Z</time>
      </trkpt>
      <trkpt lat="49.68231" lon="3.70821">
        <ele>128.1</ele>
        <time>2015-06-01T12:09:20.900Z</time>
      </trkpt>
      <trkpt lat="49.6823" lon="3.70819">
        <ele>128</ele>
        <time>2015-06-01T12:09:21.912Z</time>
      </trkpt>
      <trkpt lat="49.68228" lon="3.70807">
        <ele>127.7</ele>
        <time>2015-06-01T12:09:28.931Z</time>
      </trkpt>
      <trkpt lat="49.68228" lon="3.70806">
        <ele>127.6</ele>
        <time>2015-06-01T12:09:29.934Z</time>
      </trkpt>
      <trkpt lat="49.68225" lon="3.70793">
        <ele>127.3</ele>
        <time>2015-06-01T12:09:35.888Z</time>
      </trkpt>
      <trkpt lat="49.68225" lon="3.70791">
        <ele>127.3</ele>
        <time>2015-06-01T12:09:36.890Z</time>
      </trkpt>
      <trkpt lat="49.68222" lon="3.7078">
        <ele>127</ele>
        <time>2015-06-01T12:09:41.855Z</time>
      </trkpt>
      <trkpt lat="49.68221" lon="3.70778">
        <ele>126.9</ele>
        <time>2015-06-01T12:09:42.873Z</time>
      </trkpt>
      <trkpt lat="49.68219" lon="3.70767">
        <ele>127.6</ele>
        <time>2015-06-01T12:09:48.877Z</time>
      </trkpt>
      <trkpt lat="49.68218" lon="3.70765">
        <ele>127.5</ele>
        <time>2015-06-01T12:09:49.984Z</time>
      </trkpt>
      <trkpt lat="49.68216" lon="3.70753">
        <ele>127.2</ele>
        <time>2015-06-01T12:09:54.869Z</time>
      </trkpt>
      <trkpt lat="49.68216" lon="3.7075">
        <ele>127.1</ele>
        <time>2015-06-01T12:09:55.909Z</time>
      </trkpt>
      <trkpt lat="49.68213" lon="3.70738">
        <ele>127.6</ele>
        <time>2015-06-01T12:10:01.906Z</time>
      </trkpt>
      <trkpt lat="49.68212" lon="3.70736">
        <ele>127.6</ele>
        <time>2015-06-01T12:10:02.910Z</time>
      </trkpt>
      <trkpt lat="49.6821" lon="3.70724">
        <ele>126.9</ele>
        <time>2015-06-01T12:10:08.919Z</time>
      </trkpt>
      <trkpt lat="49.6821" lon="3.70721">
        <ele>126.9</ele>
        <time>2015-06-01T12:10:09.940Z</time>
      </trkpt>
      <trkpt lat="49.68207" lon="3.7071">
        <ele>126.8</ele>
        <time>2015-06-01T12:10:14.886Z</time>
      </trkpt>
      <trkpt lat="49.68206" lon="3.70707">
        <ele>126.9</ele>
        <time>2015-06-01T12:10:15.878Z</time>
      </trkpt>
      <trkpt lat="49.68204" lon="3.70696">
        <ele>126.8</ele>
        <time>2015-06-01T12:10:19.985Z</time>
      </trkpt>
      <trkpt lat="49.68203" lon="3.70693">
        <ele>126.8</ele>
        <time>2015-06-01T12:10:20.865Z</time>
      </trkpt>
      <trkpt lat="49.68201" lon="3.70682">
        <ele>126.8</ele>
        <time>2015-06-01T12:10:25.901Z</time>
      </trkpt>
      <trkpt lat="49.682" lon="3.7068">
        <ele>126.9</ele>
        <time>2015-06-01T12:10:26.927Z</time>
      </trkpt>
      <trkpt lat="49.68197" lon="3.70669">
        <ele>127</ele>
        <time>2015-06-01T12:10:32.065Z</time>
      </trkpt>
      <trkpt lat="49.68196" lon="3.70667">
        <ele>126.9</ele>
        <time>2015-06-01T12:10:32.896Z</time>
      </trkpt>
      <trkpt lat="49.68193" lon="3.70654">
        <ele>127.1</ele>
        <time>2015-06-01T12:10:39.869Z</time>
      </trkpt>
      <trkpt lat="49.68192" lon="3.70652">
        <ele>127.1</ele>
        <time>2015-06-01T12:10:40.861Z</time>
      </trkpt>
      <trkpt lat="49.68189" lon="3.7064">
        <ele>127.3</ele>
        <time>2015-06-01T12:10:46.910Z</time>
      </trkpt>
      <trkpt lat="49.68188" lon="3.70638">
        <ele>127.3</ele>
        <time>2015-06-01T12:10:47.920Z</time>
      </trkpt>
      <trkpt lat="49.68186" lon="3.70626">
        <ele>127.3</ele>
        <time>2015-06-01T12:10:52.860Z</time>
      </trkpt>
      <trkpt lat="49.68185" lon="3.70624">
        <ele>127.4</ele>
        <time>2015-06-01T12:10:53.861Z</time>
      </trkpt>
      <trkpt lat="49.68182" lon="3.70612">
        <ele>127.4</ele>
        <time>2015-06-01T12:10:59.929Z</time>
      </trkpt>
      <trkpt lat="49.68182" lon="3.7061">
        <ele>127.3</ele>
        <time>2015-06-01T12:11:00.857Z</time>
      </trkpt>
      <trkpt lat="49.68174" lon="3.70603">
        <ele>127.1</ele>
        <time>2015-06-01T12:11:07.894Z</time>
      </trkpt>
      <trkpt lat="49.68173" lon="3.70602">
        <ele>127</ele>
        <time>2015-06-01T12:11:08.900Z</time>
      </trkpt>
      <trkpt lat="49.68165" lon="3.70601">
        <ele>127</ele>
        <time>2015-06-01T12:11:14.942Z</time>
      </trkpt>
      <trkpt lat="49.68163" lon="3.70601">
        <ele>127</ele>
        <time>2015-06-01T12:11:15.833Z</time>
      </trkpt>
      <trkpt lat="49.68155" lon="3.70599">
        <ele>126.6</ele>
        <time>2015-06-01T12:11:21.901Z</time>
      </trkpt>
      <trkpt lat="49.68153" lon="3.70599">
        <ele>126.4</ele>
        <time>2015-06-01T12:11:22.901Z</time>
      </trkpt>
      <trkpt lat="49.68145" lon="3.70597">
        <ele>126.4</ele>
        <time>2015-06-01T12:11:27.844Z</time>
      </trkpt>
      <trkpt lat="49.68143" lon="3.70597">
        <ele>126.4</ele>
        <time>2015-06-01T12:11:28.858Z</time>
      </trkpt>
      <trkpt lat="49.68135" lon="3.70594">
        <ele>126.3</ele>
        <time>2015-06-01T12:11:34.965Z</time>
      </trkpt>
      <trkpt lat="49.68134" lon="3.70594">
        <ele>126.3</ele>
        <time>2015-06-01T12:11:35.886Z</time>
      </trkpt>
      <trkpt lat="49.68126" lon="3.70589">
        <ele>125.7</ele>
        <time>2015-06-01T12:11:43.935Z</time>
      </trkpt>
      <trkpt lat="49.68126" lon="3.70589">
        <ele>125.8</ele>
        <time>2015-06-01T12:11:44.939Z</time>
      </trkpt>
      <trkpt lat="49.68118" lon="3.70587">
        <ele>125.7</ele>
        <time>2015-06-01T12:11:49.886Z</time>
      </trkpt>
      <trkpt lat="49.68117" lon="3.70586">
        <ele>125.6</ele>
        <time>2015-06-01T12:11:50.886Z</time>
      </trkpt>
      <trkpt lat="49.68109" lon="3.70582">
        <ele>125.5</ele>
        <time>2015-06-01T12:11:55.882Z</time>
      </trkpt>
      <trkpt lat="49.68107" lon="3.70581">
        <ele>125.6</ele>
        <time>2015-06-01T12:11:56.895Z</time>
      </trkpt>
      <trkpt lat="49.68099" lon="3.70577">
        <ele>125.9</ele>
        <time>2015-06-01T12:12:02.887Z</time>
      </trkpt>
      <trkpt lat="49.68098" lon="3.70576">
        <ele>126</ele>
        <time>2015-06-01T12:12:03.884Z</time>
      </trkpt>
      <trkpt lat="49.6809" lon="3.70572">
        <ele>126.4</ele>
        <time>2015-06-01T12:12:08.850Z</time>
      </trkpt>
      <trkpt lat="49.68089" lon="3.70571">
        <ele>126.5</ele>
        <time>2015-06-01T12:12:09.874Z</time>
      </trkpt>
      <trkpt lat="49.68081" lon="3.70566">
        <ele>127.1</ele>
        <time>2015-06-01T12:12:16.932Z</time>
      </trkpt>
      <trkpt lat="49.6808" lon="3.70565">
        <ele>127.1</ele>
        <time>2015-06-01T12:12:17.834Z</time>
      </trkpt>
      <trkpt lat="49.68072" lon="3.7056">
        <ele>127.3</ele>
        <time>2015-06-01T12:12:24.836Z</time>
      </trkpt>
      <trkpt lat="49.6807" lon="3.70559">
        <ele>127.4</ele>
        <time>2015-06-01T12:12:25.868Z</time>
      </trkpt>
      <trkpt lat="49.68062" lon="3.70557">
        <ele>127.9</ele>
        <time>2015-06-01T12:12:30.909Z</time>
      </trkpt>
      <trkpt lat="49.6806" lon="3.70556">
        <ele>128.1</ele>
        <time>2015-06-01T12:12:31.929Z</time>
      </trkpt>
      <trkpt lat="49.68053" lon="3.70553">
        <ele>127.8</ele>
        <time>2015-06-01T12:12:36.868Z</time>
      </trkpt>
      <trkpt lat="49.68051" lon="3.70552">
        <ele>127.6</ele>
        <time>2015-06-01T12:12:37.909Z</time>
      </trkpt>
      <trkpt lat="49.68043" lon="3.70548">
        <ele>127.4</ele>
        <time>2015-06-01T12:12:41.839Z</time>
      </trkpt>
      <trkpt lat="49.68041" lon="3.70547">
        <ele>127.3</ele>
        <time>2015-06-01T12:12:42.840Z</time>
      </trkpt>
      <trkpt lat="49.68033" lon="3.70542">
        <ele>127.2</ele>
        <time>2015-06-01T12:12:48.835Z</time>
      </trkpt>
      <trkpt lat="49.68032" lon="3.70541">
        <ele>127</ele>
        <time>2015-06-01T12:12:49.879Z</time>
      </trkpt>
      <trkpt lat="49.68024" lon="3.70536">
        <ele>125.7</ele>
        <time>2015-06-01T12:12:54.830Z</time>
      </trkpt>
      <trkpt lat="49.68023" lon="3.70535">
        <ele>125.3</ele>
        <time>2015-06-01T12:12:55.847Z</time>
      </trkpt>
      <trkpt lat="49.68015" lon="3.7053">
        <ele>124.2</ele>
        <time>2015-06-01T12:13:01.915Z</time>
      </trkpt>
      <trkpt lat="49.68014" lon="3.70529">
        <ele>124.1</ele>
        <time>2015-06-01T12:13:02.884Z</time>
      </trkpt>
      <trkpt lat="49.68007" lon="3.70525">
        <ele>124.3</ele>
        <time>2015-06-01T12:13:08.888Z</time>
      </trkpt>
      <trkpt lat="49.68006" lon="3.70524">
        <ele>124.3</ele>
        <time>2015-06-01T12:13:09.906Z</time>
      </trkpt>
      <trkpt lat="49.67998" lon="3.7052">
        <ele>124.1</ele>
        <time>2015-06-01T12:13:16.888Z</time>
      </trkpt>
      <trkpt lat="49.67996" lon="3.7052">
        <ele>124.2</ele>
        <time>2015-06-01T12:13:17.896Z</time>
      </trkpt>
      <trkpt lat="49.67989" lon="3.70515">
        <ele>124.4</ele>
        <time>2015-06-01T12:13:23.940Z</time>
      </trkpt>
      <trkpt lat="49.67987" lon="3.70515">
        <ele>124.5</ele>
        <time>2015-06-01T12:13:24.880Z</time>
      </trkpt>
      <trkpt lat="49.6798" lon="3.70511">
        <ele>125</ele>
        <time>2015-06-01T12:13:30.895Z</time>
      </trkpt>
      <trkpt lat="49.67979" lon="3.7051">
        <ele>125.1</ele>
        <time>2015-06-01T12:13:31.926Z</time>
      </trkpt>
      <trkpt lat="49.67971" lon="3.70507">
        <ele>125.4</ele>
        <time>2015-06-01T12:13:37.911Z</time>
      </trkpt>
      <trkpt lat="49.6797" lon="3.70506">
        <ele>125.4</ele>
        <time>2015-06-01T12:13:38.907Z</time>
      </trkpt>
      <trkpt lat="49.67962" lon="3.70502">
        <ele>125.7</ele>
        <time>2015-06-01T12:13:44.941Z</time>
      </trkpt>
      <trkpt lat="49.67961" lon="3.70501">
        <ele>125.8</ele>
        <time>2015-06-01T12:13:45.832Z</time>
      </trkpt>
      <trkpt lat="49.67953" lon="3.70497">
        <ele>126.4</ele>
        <time>2015-06-01T12:13:51.906Z</time>
      </trkpt>
      <trkpt lat="49.67952" lon="3.70496">
        <ele>126.4</ele>
        <time>2015-06-01T12:13:52.918Z</time>
      </trkpt>
      <trkpt lat="49.67944" lon="3.70493">
        <ele>126</ele>
        <time>2015-06-01T12:14:01.886Z</time>
      </trkpt>
      <trkpt lat="49.67943" lon="3.70492">
        <ele>125.8</ele>
        <time>2015-06-01T12:14:02.869Z</time>
      </trkpt>
      <trkpt lat="49.67935" lon="3.70487">
        <ele>125.6</ele>
        <time>2015-06-01T12:14:10.838Z</time>
      </trkpt>
      <trkpt lat="49.67934" lon="3.70487">
        <ele>125.6</ele>
        <time>2015-06-01T12:14:11.845Z</time>
      </trkpt>
      <trkpt lat="49.67926" lon="3.70482">
        <ele>125.9</ele>
        <time>2015-06-01T12:14:18.831Z</time>
      </trkpt>
      <trkpt lat="49.67925" lon="3.70481">
        <ele>125.9</ele>
        <time>2015-06-01T12:14:19.951Z</time>
      </trkpt>
      <trkpt lat="49.67917" lon="3.70476">
        <ele>126.1</ele>
        <time>2015-06-01T12:14:27.916Z</time>
      </trkpt>
      <trkpt lat="49.67916" lon="3.70475">
        <ele>126.1</ele>
        <time>2015-06-01T12:14:28.921Z</time>
      </trkpt>
      <trkpt lat="49.67908" lon="3.70471">
        <ele>126.4</ele>
        <time>2015-06-01T12:14:35.874Z</time>
      </trkpt>
      <trkpt lat="49.67907" lon="3.70471">
        <ele>126.4</ele>
        <time>2015-06-01T12:14:36.866Z</time>
      </trkpt>
      <trkpt lat="49.67899" lon="3.70468">
        <ele>126.5</ele>
        <time>2015-06-01T12:14:42.921Z</time>
      </trkpt>
      <trkpt lat="49.67898" lon="3.70467">
        <ele>126.7</ele>
        <time>2015-06-01T12:14:43.920Z</time>
      </trkpt>
      <trkpt lat="49.6789" lon="3.70465">
        <ele>126.8</ele>
        <time>2015-06-01T12:14:50.901Z</time>
      </trkpt>
      <trkpt lat="49.67888" lon="3.70465">
        <ele>126.8</ele>
        <time>2015-06-01T12:14:51.920Z</time>
      </trkpt>
      <trkpt lat="49.67881" lon="3.70462">
        <ele>127.2</ele>
        <time>2015-06-01T12:14:58.872Z</time>
      </trkpt>
      <trkpt lat="49.67879" lon="3.70462">
        <ele>127.2</ele>
        <time>2015-06-01T12:14:59.882Z</time>
      </trkpt>
      <trkpt lat="49.67871" lon="3.7046">
        <ele>126.8</ele>
        <time>2015-06-01T12:15:05.840Z</time>
      </trkpt>
      <trkpt lat="49.6787" lon="3.7046">
        <ele>126.8</ele>
        <time>2015-06-01T12:15:06.844Z</time>
      </trkpt>
      <trkpt lat="49.67863" lon="3.70456">
        <ele>127.1</ele>
        <time>2015-06-01T12:15:11.838Z</time>
      </trkpt>
      <trkpt lat="49.67861" lon="3.70455">
        <ele>127.2</ele>
        <time>2015-06-01T12:15:12.858Z</time>
      </trkpt>
      <trkpt lat="49.67853" lon="3.70451">
        <ele>126.9</ele>
        <time>2015-06-01T12:15:18.859Z</time>
      </trkpt>
      <trkpt lat="49.67852" lon="3.7045">
        <ele>126.8</ele>
        <time>2015-06-01T12:15:19.901Z</time>
      </trkpt>
      <trkpt lat="49.67845" lon="3.70446">
        <ele>126.5</ele>
        <time>2015-06-01T12:15:25.899Z</time>
      </trkpt>
      <trkpt lat="49.67843" lon="3.70446">
        <ele>126.5</ele>
        <time>2015-06-01T12:15:26.910Z</time>
      </trkpt>
      <trkpt lat="49.67835" lon="3.70441">
        <ele>127</ele>
        <time>2015-06-01T12:15:32.909Z</time>
      </trkpt>
      <trkpt lat="49.67833" lon="3.7044">
        <ele>127.1</ele>
        <time>2015-06-01T12:15:33.911Z</time>
      </trkpt>
      <trkpt lat="49.67825" lon="3.70436">
        <ele>128</ele>
        <time>2015-06-01T12:15:39.907Z</time>
      </trkpt>
      <trkpt lat="49.67823" lon="3.70435">
        <ele>128</ele>
        <time>2015-06-01T12:15:40.918Z</time>
      </trkpt>
      <trkpt lat="49.67815" lon="3.7043">
        <ele>128.2</ele>
        <time>2015-06-01T12:15:46.885Z</time>
      </trkpt>
      <trkpt lat="49.67814" lon="3.70429">
        <ele>128.2</ele>
        <time>2015-06-01T12:15:47.871Z</time>
      </trkpt>
      <trkpt lat="49.67807" lon="3.70424">
        <ele>128.5</ele>
        <time>2015-06-01T12:15:52.860Z</time>
      </trkpt>
      <trkpt lat="49.67805" lon="3.70423">
        <ele>128.6</ele>
        <time>2015-06-01T12:15:53.848Z</time>
      </trkpt>
      <trkpt lat="49.67797" lon="3.7042">
        <ele>130.6</ele>
        <time>2015-06-01T12:15:59.953Z</time>
      </trkpt>
      <trkpt lat="49.67796" lon="3.7042">
        <ele>130.8</ele>
        <time>2015-06-01T12:16:00.863Z</time>
      </trkpt>
      <trkpt lat="49.67788" lon="3.70415">
        <ele>130.9</ele>
        <time>2015-06-01T12:16:07.892Z</time>
      </trkpt>
      <trkpt lat="49.67787" lon="3.70414">
        <ele>130.9</ele>
        <time>2015-06-01T12:16:08.901Z</time>
      </trkpt>
      <trkpt lat="49.6778" lon="3.70411">
        <ele>130.7</ele>
        <time>2015-06-01T12:16:13.951Z</time>
      </trkpt>
      <trkpt lat="49.67778" lon="3.7041">
        <ele>130.6</ele>
        <time>2015-06-01T12:16:14.847Z</time>
      </trkpt>
      <trkpt lat="49.6777" lon="3.70404">
        <ele>130.7</ele>
        <time>2015-06-01T12:16:20.919Z</time>
      </trkpt>
      <trkpt lat="49.67769" lon="3.70403">
        <ele>130.8</ele>
        <time>2015-06-01T12:16:21.932Z</time>
      </trkpt>
      <trkpt lat="49.67761" lon="3.70402">
        <ele>130.5</ele>
        <time>2015-06-01T12:16:27.921Z</time>
      </trkpt>
      <trkpt lat="49.6776" lon="3.70402">
        <ele>130.5</ele>
        <time>2015-06-01T12:16:28.941Z</time>
      </trkpt>
      <trkpt lat="49.67751" lon="3.70402">
        <ele>130.7</ele>
        <time>2015-06-01T12:16:34.892Z</time>
      </trkpt>
      <trkpt lat="49.6775" lon="3.70402">
        <ele>130.7</ele>
        <time>2015-06-01T12:16:35.873Z</time>
      </trkpt>
      <trkpt lat="49.67741" lon="3.70402">
        <ele>131.3</ele>
        <time>2015-06-01T12:16:42.847Z</time>
      </trkpt>
      <trkpt lat="49.6774" lon="3.70402">
        <ele>131.4</ele>
        <time>2015-06-01T12:16:43.909Z</time>
      </trkpt>
      <trkpt lat="49.67733" lon="3.70396">
        <ele>131.6</ele>
        <time>2015-06-01T12:16:50.911Z</time>
      </trkpt>
      <trkpt lat="49.67732" lon="3.70394">
        <ele>131.7</ele>
        <time>2015-06-01T12:16:51.865Z</time>
      </trkpt>
      <trkpt lat="49.67726" lon="3.70386">
        <ele>132</ele>
        <time>2015-06-01T12:16:57.929Z</time>
      </trkpt>
      <trkpt lat="49.67726" lon="3.70384">
        <ele>132</ele>
        <time>2015-06-01T12:16:58.868Z</time>
      </trkpt>
      <trkpt lat="49.67719" lon="3.70376">
        <ele>133.5</ele>
        <time>2015-06-01T12:17:03.926Z</time>
      </trkpt>
      <trkpt lat="49.67718" lon="3.70375">
        <ele>133.7</ele>
        <time>2015-06-01T12:17:04.848Z</time>
      </trkpt>
      <trkpt lat="49.67711" lon="3.70369">
        <ele>134.8</ele>
        <time>2015-06-01T12:17:10.919Z</time>
      </trkpt>
      <trkpt lat="49.6771" lon="3.70368">
        <ele>135</ele>
        <time>2015-06-01T12:17:11.924Z</time>
      </trkpt>
      <trkpt lat="49.67703" lon="3.70363">
        <ele>135.2</ele>
        <time>2015-06-01T12:17:18.893Z</time>
      </trkpt>
      <trkpt lat="49.67702" lon="3.70362">
        <ele>135.2</ele>
        <time>2015-06-01T12:17:19.902Z</time>
      </trkpt>
      <trkpt lat="49.67694" lon="3.70358">
        <ele>135.6</ele>
        <time>2015-06-01T12:17:26.844Z</time>
      </trkpt>
      <trkpt lat="49.67693" lon="3.70357">
        <ele>135.6</ele>
        <time>2015-06-01T12:17:27.855Z</time>
      </trkpt>
      <trkpt lat="49.67684" lon="3.70353">
        <ele>135.5</ele>
        <time>2015-06-01T12:17:35.935Z</time>
      </trkpt>
      <trkpt lat="49.67683" lon="3.70352">
        <ele>135.6</ele>
        <time>2015-06-01T12:17:36.942Z</time>
      </trkpt>
      <trkpt lat="49.67675" lon="3.70347">
        <ele>135.9</ele>
        <time>2015-06-01T12:17:43.904Z</time>
      </trkpt>
      <trkpt lat="49.67674" lon="3.70346">
        <ele>135.9</ele>
        <time>2015-06-01T12:17:44.914Z</time>
      </trkpt>
      <trkpt lat="49.67666" lon="3.70342">
        <ele>135.9</ele>
        <time>2015-06-01T12:17:50.946Z</time>
      </trkpt>
      <trkpt lat="49.67664" lon="3.70341">
        <ele>135.7</ele>
        <time>2015-06-01T12:17:51.889Z</time>
      </trkpt>
      <trkpt lat="49.67656" lon="3.70337">
        <ele>135.6</ele>
        <time>2015-06-01T12:17:57.938Z</time>
      </trkpt>
      <trkpt lat="49.67654" lon="3.70336">
        <ele>135.7</ele>
        <time>2015-06-01T12:17:58.848Z</time>
      </trkpt>
      <trkpt lat="49.67647" lon="3.70332">
        <ele>135.9</ele>
        <time>2015-06-01T12:18:04.929Z</time>
      </trkpt>
      <trkpt lat="49.67645" lon="3.70331">
        <ele>135.9</ele>
        <time>2015-06-01T12:18:05.940Z</time>
      </trkpt>
      <trkpt lat="49.67636" lon="3.70331">
        <ele>136.4</ele>
        <time>2015-06-01T12:18:12.861Z</time>
      </trkpt>
      <trkpt lat="49.67635" lon="3.70331">
        <ele>136.5</ele>
        <time>2015-06-01T12:18:13.903Z</time>
      </trkpt>
      <trkpt lat="49.67628" lon="3.7034">
        <ele>137.3</ele>
        <time>2015-06-01T12:18:20.911Z</time>
      </trkpt>
      <trkpt lat="49.67628" lon="3.70341">
        <ele>137.4</ele>
        <time>2015-06-01T12:18:21.927Z</time>
      </trkpt>
      <trkpt lat="49.67624" lon="3.70353">
        <ele>138.4</ele>
        <time>2015-06-01T12:18:28.843Z</time>
      </trkpt>
      <trkpt lat="49.67624" lon="3.70355">
        <ele>138.4</ele>
        <time>2015-06-01T12:18:29.846Z</time>
      </trkpt>
      <trkpt lat="49.67622" lon="3.70367">
        <ele>138.8</ele>
        <time>2015-06-01T12:18:36.949Z</time>
      </trkpt>
      <trkpt lat="49.67621" lon="3.70369">
        <ele>139</ele>
        <time>2015-06-01T12:18:37.944Z</time>
      </trkpt>
      <trkpt lat="49.67619" lon="3.70382">
        <ele>138.8</ele>
        <time>2015-06-01T12:18:45.953Z</time>
      </trkpt>
      <trkpt lat="49.67619" lon="3.70384">
        <ele>138.8</ele>
        <time>2015-06-01T12:18:46.860Z</time>
      </trkpt>
      <trkpt lat="49.67616" lon="3.70395">
        <ele>139.2</ele>
        <time>2015-06-01T12:18:52.917Z</time>
      </trkpt>
      <trkpt lat="49.67616" lon="3.70397">
        <ele>139.3</ele>
        <time>2015-06-01T12:18:53.920Z</time>
      </trkpt>
      <trkpt lat="49.67613" lon="3.7041">
        <ele>139.6</ele>
        <time>2015-06-01T12:19:00.903Z</time>
      </trkpt>
      <trkpt lat="49.67612" lon="3.70412">
        <ele>139.5</ele>
        <time>2015-06-01T12:19:01.905Z</time>
      </trkpt>
      <trkpt lat="49.67609" lon="3.70423">
        <ele>139.4</ele>
        <time>2015-06-01T12:19:07.897Z</time>
      </trkpt>
      <trkpt lat="49.67609" lon="3.70425">
        <ele>139.5</ele>
        <time>2015-06-01T12:19:08.911Z</time>
      </trkpt>
      <trkpt lat="49.67604" lon="3.70436">
        <ele>139.7</ele>
        <time>2015-06-01T12:19:15.957Z</time>
      </trkpt>
      <trkpt lat="49.67604" lon="3.70438">
        <ele>139.6</ele>
        <time>2015-06-01T12:19:16.910Z</time>
      </trkpt>
      <trkpt lat="49.67599" lon="3.70449">
        <ele>140.1</ele>
        <time>2015-06-01T12:19:24.921Z</time>
      </trkpt>
      <trkpt lat="49.67598" lon="3.70451">
        <ele>140.1</ele>
        <time>2015-06-01T12:19:25.908Z</time>
      </trkpt>
      <trkpt lat="49.67594" lon="3.70461">
        <ele>140</ele>
        <time>2015-06-01T12:19:31.989Z</time>
      </trkpt>
      <trkpt lat="49.67594" lon="3.70463">
        <ele>140.2</ele>
        <time>2015-06-01T12:19:32.851Z</time>
      </trkpt>
      <trkpt lat="49.67589" lon="3.70475">
        <ele>140</ele>
        <time>2015-06-01T12:19:39.839Z</time>
      </trkpt>
      <trkpt lat="49.67589" lon="3.70477">
        <ele>140</ele>
        <time>2015-06-01T12:19:41.103Z</time>
      </trkpt>
      <trkpt lat="49.67585" lon="3.70488">
        <ele>140.4</ele>
        <time>2015-06-01T12:19:48.928Z</time>
      </trkpt>
      <trkpt lat="49.67584" lon="3.7049">
        <ele>140.5</ele>
        <time>2015-06-01T12:19:49.935Z</time>
      </trkpt>
      <trkpt lat="49.67579" lon="3.70499">
        <ele>140</ele>
        <time>2015-06-01T12:19:56.905Z</time>
      </trkpt>
      <trkpt lat="49.67578" lon="3.70501">
        <ele>139.9</ele>
        <time>2015-06-01T12:19:57.919Z</time>
      </trkpt>
      <trkpt lat="49.67575" lon="3.70513">
        <ele>140.2</ele>
        <time>2015-06-01T12:20:04.883Z</time>
      </trkpt>
      <trkpt lat="49.67574" lon="3.70515">
        <ele>140.1</ele>
        <time>2015-06-01T12:20:05.894Z</time>
      </trkpt>
      <trkpt lat="49.67571" lon="3.70527">
        <ele>140.1</ele>
        <time>2015-06-01T12:20:13.897Z</time>
      </trkpt>
      <trkpt lat="49.6757" lon="3.70529">
        <ele>140</ele>
        <time>2015-06-01T12:20:14.895Z</time>
      </trkpt>
      <trkpt lat="49.67566" lon="3.70542">
        <ele>140.5</ele>
        <time>2015-06-01T12:20:22.867Z</time>
      </trkpt>
      <trkpt lat="49.67566" lon="3.70543">
        <ele>140.5</ele>
        <time>2015-06-01T12:20:23.916Z</time>
      </trkpt>
      <trkpt lat="49.67562" lon="3.70555">
        <ele>140.8</ele>
        <time>2015-06-01T12:20:31.909Z</time>
      </trkpt>
      <trkpt lat="49.67561" lon="3.70556">
        <ele>140.3</ele>
        <time>2015-06-01T12:20:32.920Z</time>
      </trkpt>
      <trkpt lat="49.67557" lon="3.70568">
        <ele>140.5</ele>
        <time>2015-06-01T12:20:39.856Z</time>
      </trkpt>
      <trkpt lat="49.67556" lon="3.7057">
        <ele>140.6</ele>
        <time>2015-06-01T12:20:40.865Z</time>
      </trkpt>
      <trkpt lat="49.67552" lon="3.70583">
        <ele>140.8</ele>
        <time>2015-06-01T12:20:47.884Z</time>
      </trkpt>
      <trkpt lat="49.67552" lon="3.70584">
        <ele>140.9</ele>
        <time>2015-06-01T12:20:48.967Z</time>
      </trkpt>
      <trkpt lat="49.6755" lon="3.70596">
        <ele>141.3</ele>
        <time>2015-06-01T12:20:55.929Z</time>
      </trkpt>
      <trkpt lat="49.6755" lon="3.70598">
        <ele>141.2</ele>
        <time>2015-06-01T12:20:56.844Z</time>
      </trkpt>
      <trkpt lat="49.67546" lon="3.7061">
        <ele>141.8</ele>
        <time>2015-06-01T12:21:03.848Z</time>
      </trkpt>
      <trkpt lat="49.67545" lon="3.70612">
        <ele>142</ele>
        <time>2015-06-01T12:21:04.855Z</time>
      </trkpt>
      <trkpt lat="49.67542" lon="3.70624">
        <ele>142.6</ele>
        <time>2015-06-01T12:21:11.859Z</time>
      </trkpt>
      <trkpt lat="49.67542" lon="3.70626">
        <ele>142.6</ele>
        <time>2015-06-01T12:21:12.861Z</time>
      </trkpt>
      <trkpt lat="49.67538" lon="3.70637">
        <ele>142.4</ele>
        <time>2015-06-01T12:21:18.861Z</time>
      </trkpt>
      <trkpt lat="49.67538" lon="3.70639">
        <ele>142.4</ele>
        <time>2015-06-01T12:21:19.957Z</time>
      </trkpt>
      <trkpt lat="49.67534" lon="3.70651">
        <ele>142.6</ele>
        <time>2015-06-01T12:21:26.925Z</time>
      </trkpt>
      <trkpt lat="49.67533" lon="3.70653">
        <ele>142.7</ele>
        <time>2015-06-01T12:21:27.848Z</time>
      </trkpt>
      <trkpt lat="49.6753" lon="3.70664">
        <ele>143.9</ele>
        <time>2015-06-01T12:21:33.920Z</time>
      </trkpt>
      <trkpt lat="49.6753" lon="3.70666">
        <ele>144</ele>
        <time>2015-06-01T12:21:34.934Z</time>
      </trkpt>
      <trkpt lat="49.67526" lon="3.70678">
        <ele>144.3</ele>
        <time>2015-06-01T12:21:40.918Z</time>
      </trkpt>
      <trkpt lat="49.67525" lon="3.70679">
        <ele>144.6</ele>
        <time>2015-06-01T12:21:41.878Z</time>
      </trkpt>
      <trkpt lat="49.67521" lon="3.7069">
        <ele>145</ele>
        <time>2015-06-01T12:21:48.860Z</time>
      </trkpt>
      <trkpt lat="49.67521" lon="3.70692">
        <ele>145</ele>
        <time>2015-06-01T12:21:49.939Z</time>
      </trkpt>
      <trkpt lat="49.67517" lon="3.70704">
        <ele>146</ele>
        <time>2015-06-01T12:21:56.910Z</time>
      </trkpt>
      <trkpt lat="49.67516" lon="3.70706">
        <ele>146.2</ele>
        <time>2015-06-01T12:21:57.919Z</time>
      </trkpt>
      <trkpt lat="49.67513" lon="3.70717">
        <ele>146.4</ele>
        <time>2015-06-01T12:22:04.849Z</time>
      </trkpt>
      <trkpt lat="49.67512" lon="3.70719">
        <ele>146.4</ele>
        <time>2015-06-01T12:22:05.871Z</time>
      </trkpt>
      <trkpt lat="49.67507" lon="3.7073">
        <ele>146.8</ele>
        <time>2015-06-01T12:22:12.869Z</time>
      </trkpt>
      <trkpt lat="49.67506" lon="3.70731">
        <ele>146.8</ele>
        <time>2015-06-01T12:22:13.994Z</time>
      </trkpt>
      <trkpt lat="49.67502" lon="3.70742">
        <ele>147.2</ele>
        <time>2015-06-01T12:22:20.917Z</time>
      </trkpt>
      <trkpt lat="49.67501" lon="3.70743">
        <ele>147.2</ele>
        <time>2015-06-01T12:22:21.958Z</time>
      </trkpt>
      <trkpt lat="49.67496" lon="3.70754">
        <ele>146.8</ele>
        <time>2015-06-01T12:22:28.918Z</time>
      </trkpt>
      <trkpt lat="49.67496" lon="3.70756">
        <ele>146.9</ele>
        <time>2015-06-01T12:22:29.979Z</time>
      </trkpt>
      <trkpt lat="49.67491" lon="3.70765">
        <ele>147.1</ele>
        <time>2015-06-01T12:22:35.871Z</time>
      </trkpt>
      <trkpt lat="49.6749" lon="3.70767">
        <ele>147</ele>
        <time>2015-06-01T12:22:36.877Z</time>
      </trkpt>
      <trkpt lat="49.67485" lon="3.70777">
        <ele>147.8</ele>
        <time>2015-06-01T12:22:43.962Z</time>
      </trkpt>
      <trkpt lat="49.67484" lon="3.70779">
        <ele>147.9</ele>
        <time>2015-06-01T12:22:44.847Z</time>
      </trkpt>
      <trkpt lat="49.67478" lon="3.70789">
        <ele>148.7</ele>
        <time>2015-06-01T12:22:51.867Z</time>
      </trkpt>
      <trkpt lat="49.67477" lon="3.70791">
        <ele>148.9</ele>
        <time>2015-06-01T12:22:52.903Z</time>
      </trkpt>
      <trkpt lat="49.67471" lon="3.70801">
        <ele>148.4</ele>
        <time>2015-06-01T12:22:59.849Z</time>
      </trkpt>
      <trkpt lat="49.6747" lon="3.70802">
        <ele>148.5</ele>
        <time>2015-06-01T12:23:01.029Z</time>
      </trkpt>
      <trkpt lat="49.67465" lon="3.70811">
        <ele>148.4</ele>
        <time>2015-06-01T12:23:06.847Z</time>
      </trkpt>
      <trkpt lat="49.67464" lon="3.70813">
        <ele>148.4</ele>
        <time>2015-06-01T12:23:07.891Z</time>
      </trkpt>
      <trkpt lat="49.67458" lon="3.70824">
        <ele>148.7</ele>
        <time>2015-06-01T12:23:13.933Z</time>
      </trkpt>
      <trkpt lat="49.67458" lon="3.70825">
        <ele>148.7</ele>
        <time>2015-06-01T12:23:14.848Z</time>
      </trkpt>
      <trkpt lat="49.67452" lon="3.70835">
        <ele>148.8</ele>
        <time>2015-06-01T12:23:20.918Z</time>
      </trkpt>
      <trkpt lat="49.67451" lon="3.70836">
        <ele>148.8</ele>
        <time>2015-06-01T12:23:21.945Z</time>
      </trkpt>
      <trkpt lat="49.67446" lon="3.70845">
        <ele>148.8</ele>
        <time>2015-06-01T12:23:27.913Z</time>
      </trkpt>
      <trkpt lat="49.67445" lon="3.70847">
        <ele>148.9</ele>
        <time>2015-06-01T12:23:28.917Z</time>
      </trkpt>
      <trkpt lat="49.67439" lon="3.70857">
        <ele>148.7</ele>
        <time>2015-06-01T12:23:35.883Z</time>
      </trkpt>
      <trkpt lat="49.67438" lon="3.70858">
        <ele>148.8</ele>
        <time>2015-06-01T12:23:36.889Z</time>
      </trkpt>
      <trkpt lat="49.67432" lon="3.70867">
        <ele>148.9</ele>
        <time>2015-06-01T12:23:43.932Z</time>
      </trkpt>
      <trkpt lat="49.67431" lon="3.70869">
        <ele>149</ele>
        <time>2015-06-01T12:23:44.864Z</time>
      </trkpt>
      <trkpt lat="49.67426" lon="3.70878">
        <ele>148.8</ele>
        <time>2015-06-01T12:23:51.921Z</time>
      </trkpt>
      <trkpt lat="49.67425" lon="3.7088">
        <ele>148.8</ele>
        <time>2015-06-01T12:23:52.919Z</time>
      </trkpt>
      <trkpt lat="49.67419" lon="3.70888">
        <ele>148.9</ele>
        <time>2015-06-01T12:23:58.879Z</time>
      </trkpt>
      <trkpt lat="49.67418" lon="3.7089">
        <ele>148.8</ele>
        <time>2015-06-01T12:23:59.877Z</time>
      </trkpt>
      <trkpt lat="49.67413" lon="3.709">
        <ele>148.8</ele>
        <time>2015-06-01T12:24:06.863Z</time>
      </trkpt>
      <trkpt lat="49.67412" lon="3.70901">
        <ele>148.8</ele>
        <time>2015-06-01T12:24:07.889Z</time>
      </trkpt>
      <trkpt lat="49.67406" lon="3.7091">
        <ele>149.1</ele>
        <time>2015-06-01T12:24:13.959Z</time>
      </trkpt>
      <trkpt lat="49.67405" lon="3.70911">
        <ele>149.2</ele>
        <time>2015-06-01T12:24:14.863Z</time>
      </trkpt>
      <trkpt lat="49.674" lon="3.7092">
        <ele>149</ele>
        <time>2015-06-01T12:24:21.855Z</time>
      </trkpt>
      <trkpt lat="49.674" lon="3.70922">
        <ele>149.1</ele>
        <time>2015-06-01T12:24:22.862Z</time>
      </trkpt>
      <trkpt lat="49.67394" lon="3.70931">
        <ele>149.4</ele>
        <time>2015-06-01T12:24:29.886Z</time>
      </trkpt>
      <trkpt lat="49.67393" lon="3.70932">
        <ele>149.4</ele>
        <time>2015-06-01T12:24:30.901Z</time>
      </trkpt>
      <trkpt lat="49.67388" lon="3.70942">
        <ele>150.2</ele>
        <time>2015-06-01T12:24:36.862Z</time>
      </trkpt>
      <trkpt lat="49.67387" lon="3.70944">
        <ele>150.3</ele>
        <time>2015-06-01T12:24:37.909Z</time>
      </trkpt>
      <trkpt lat="49.67381" lon="3.70953">
        <ele>150.5</ele>
        <time>2015-06-01T12:24:43.910Z</time>
      </trkpt>
      <trkpt lat="49.67381" lon="3.70954">
        <ele>150.5</ele>
        <time>2015-06-01T12:24:44.911Z</time>
      </trkpt>
      <trkpt lat="49.67375" lon="3.70964">
        <ele>150.9</ele>
        <time>2015-06-01T12:24:52.850Z</time>
      </trkpt>
      <trkpt lat="49.67374" lon="3.70966">
        <ele>150.9</ele>
        <time>2015-06-01T12:24:53.938Z</time>
      </trkpt>
      <trkpt lat="49.67368" lon="3.70975">
        <ele>150.5</ele>
        <time>2015-06-01T12:24:59.858Z</time>
      </trkpt>
      <trkpt lat="49.67368" lon="3.70977">
        <ele>150.4</ele>
        <time>2015-06-01T12:25:00.848Z</time>
      </trkpt>
      <trkpt lat="49.67363" lon="3.70986">
        <ele>150.5</ele>
        <time>2015-06-01T12:25:06.873Z</time>
      </trkpt>
      <trkpt lat="49.67362" lon="3.70988">
        <ele>150.4</ele>
        <time>2015-06-01T12:25:07.907Z</time>
      </trkpt>
      <trkpt lat="49.67356" lon="3.70998">
        <ele>150.5</ele>
        <time>2015-06-01T12:25:13.910Z</time>
      </trkpt>
      <trkpt lat="49.67355" lon="3.71">
        <ele>150.3</ele>
        <time>2015-06-01T12:25:14.926Z</time>
      </trkpt>
      <trkpt lat="49.6735" lon="3.71009">
        <ele>150</ele>
        <time>2015-06-01T12:25:19.901Z</time>
      </trkpt>
      <trkpt lat="49.67349" lon="3.71011">
        <ele>150</ele>
        <time>2015-06-01T12:25:20.907Z</time>
      </trkpt>
      <trkpt lat="49.67344" lon="3.71021">
        <ele>149.5</ele>
        <time>2015-06-01T12:25:26.897Z</time>
      </trkpt>
      <trkpt lat="49.67343" lon="3.71023">
        <ele>149.5</ele>
        <time>2015-06-01T12:25:27.904Z</time>
      </trkpt>
      <trkpt lat="49.67339" lon="3.71035">
        <ele>149</ele>
        <time>2015-06-01T12:25:35.886Z</time>
      </trkpt>
      <trkpt lat="49.67338" lon="3.71036">
        <ele>149</ele>
        <time>2015-06-01T12:25:36.879Z</time>
      </trkpt>
      <trkpt lat="49.67333" lon="3.71046">
        <ele>150</ele>
        <time>2015-06-01T12:25:43.908Z</time>
      </trkpt>
      <trkpt lat="49.67332" lon="3.71047">
        <ele>150.3</ele>
        <time>2015-06-01T12:25:44.915Z</time>
      </trkpt>
      <trkpt lat="49.67328" lon="3.7106">
        <ele>150.4</ele>
        <time>2015-06-01T12:25:51.900Z</time>
      </trkpt>
      <trkpt lat="49.67327" lon="3.71061">
        <ele>150.3</ele>
        <time>2015-06-01T12:25:52.918Z</time>
      </trkpt>
      <trkpt lat="49.67322" lon="3.71073">
        <ele>149.9</ele>
        <time>2015-06-01T12:25:59.878Z</time>
      </trkpt>
      <trkpt lat="49.67322" lon="3.71074">
        <ele>149.8</ele>
        <time>2015-06-01T12:26:00.888Z</time>
      </trkpt>
      <trkpt lat="49.67317" lon="3.71086">
        <ele>149</ele>
        <time>2015-06-01T12:26:07.931Z</time>
      </trkpt>
      <trkpt lat="49.67316" lon="3.71088">
        <ele>148.9</ele>
        <time>2015-06-01T12:26:08.863Z</time>
      </trkpt>
      <trkpt lat="49.67312" lon="3.71099">
        <ele>149.3</ele>
        <time>2015-06-01T12:26:15.924Z</time>
      </trkpt>
      <trkpt lat="49.67312" lon="3.71101">
        <ele>149.3</ele>
        <time>2015-06-01T12:26:16.950Z</time>
      </trkpt>
      <trkpt lat="49.67308" lon="3.71113">
        <ele>149.3</ele>
        <time>2015-06-01T12:26:22.857Z</time>
      </trkpt>
      <trkpt lat="49.67307" lon="3.71115">
        <ele>149.3</ele>
        <time>2015-06-01T12:26:23.848Z</time>
      </trkpt>
      <trkpt lat="49.67303" lon="3.71127">
        <ele>149.3</ele>
        <time>2015-06-01T12:26:30.858Z</time>
      </trkpt>
      <trkpt lat="49.67302" lon="3.71128">
        <ele>149.2</ele>
        <time>2015-06-01T12:26:31.904Z</time>
      </trkpt>
      <trkpt lat="49.67298" lon="3.71139">
        <ele>148.9</ele>
        <time>2015-06-01T12:26:38.909Z</time>
      </trkpt>
      <trkpt lat="49.67297" lon="3.71141">
        <ele>149</ele>
        <time>2015-06-01T12:26:39.917Z</time>
      </trkpt>
      <trkpt lat="49.67292" lon="3.71151">
        <ele>148.4</ele>
        <time>2015-06-01T12:26:46.927Z</time>
      </trkpt>
      <trkpt lat="49.67291" lon="3.71152">
        <ele>148.3</ele>
        <time>2015-06-01T12:26:47.933Z</time>
      </trkpt>
      <trkpt lat="49.67285" lon="3.7116">
        <ele>146.6</ele>
        <time>2015-06-01T12:26:53.896Z</time>
      </trkpt>
      <trkpt lat="49.67284" lon="3.71161">
        <ele>146.4</ele>
        <time>2015-06-01T12:26:54.922Z</time>
      </trkpt>
      <trkpt lat="49.67279" lon="3.71171">
        <ele>145.6</ele>
        <time>2015-06-01T12:27:01.874Z</time>
      </trkpt>
      <trkpt lat="49.67278" lon="3.71173">
        <ele>145.6</ele>
        <time>2015-06-01T12:27:02.887Z</time>
      </trkpt>
      <trkpt lat="49.67273" lon="3.71184">
        <ele>145.4</ele>
        <time>2015-06-01T12:27:11.859Z</time>
      </trkpt>
      <trkpt lat="49.67272" lon="3.71185">
        <ele>145.5</ele>
        <time>2015-06-01T12:27:12.888Z</time>
      </trkpt>
      <trkpt lat="49.67267" lon="3.71195">
        <ele>145.5</ele>
        <time>2015-06-01T12:27:18.911Z</time>
      </trkpt>
      <trkpt lat="49.67266" lon="3.71197">
        <ele>145.4</ele>
        <time>2015-06-01T12:27:19.927Z</time>
      </trkpt>
      <trkpt lat="49.67261" lon="3.71207">
        <ele>145.1</ele>
        <time>2015-06-01T12:27:26.893Z</time>
      </trkpt>
      <trkpt lat="49.6726" lon="3.71209">
        <ele>145.1</ele>
        <time>2015-06-01T12:27:27.901Z</time>
      </trkpt>
      <trkpt lat="49.67254" lon="3.71219">
        <ele>144.7</ele>
        <time>2015-06-01T12:27:34.860Z</time>
      </trkpt>
      <trkpt lat="49.67253" lon="3.7122">
        <ele>144.7</ele>
        <time>2015-06-01T12:27:35.870Z</time>
      </trkpt>
      <trkpt lat="49.67247" lon="3.7123">
        <ele>144.5</ele>
        <time>2015-06-01T12:27:42.850Z</time>
      </trkpt>
      <trkpt lat="49.67247" lon="3.71231">
        <ele>144.4</ele>
        <time>2015-06-01T12:27:43.891Z</time>
      </trkpt>
      <trkpt lat="49.67241" lon="3.71241">
        <ele>144.2</ele>
        <time>2015-06-01T12:27:50.850Z</time>
      </trkpt>
      <trkpt lat="49.6724" lon="3.71243">
        <ele>144.2</ele>
        <time>2015-06-01T12:27:51.839Z</time>
      </trkpt>
      <trkpt lat="49.67235" lon="3.71252">
        <ele>144.3</ele>
        <time>2015-06-01T12:27:57.909Z</time>
      </trkpt>
      <trkpt lat="49.67234" lon="3.71254">
        <ele>144.3</ele>
        <time>2015-06-01T12:27:58.820Z</time>
      </trkpt>
      <trkpt lat="49.67228" lon="3.71263">
        <ele>144.3</ele>
        <time>2015-06-01T12:28:04.897Z</time>
      </trkpt>
      <trkpt lat="49.67227" lon="3.71264">
        <ele>144.3</ele>
        <time>2015-06-01T12:28:05.907Z</time>
      </trkpt>
      <trkpt lat="49.67221" lon="3.71275">
        <ele>144.5</ele>
        <time>2015-06-01T12:28:12.867Z</time>
      </trkpt>
      <trkpt lat="49.6722" lon="3.71276">
        <ele>144.3</ele>
        <time>2015-06-01T12:28:13.893Z</time>
      </trkpt>
      <trkpt lat="49.67215" lon="3.71285">
        <ele>144</ele>
        <time>2015-06-01T12:28:19.939Z</time>
      </trkpt>
      <trkpt lat="49.67214" lon="3.71286">
        <ele>143.9</ele>
        <time>2015-06-01T12:28:20.852Z</time>
      </trkpt>
      <trkpt lat="49.67209" lon="3.71295">
        <ele>143.8</ele>
        <time>2015-06-01T12:28:26.911Z</time>
      </trkpt>
      <trkpt lat="49.67208" lon="3.71296">
        <ele>143.9</ele>
        <time>2015-06-01T12:28:27.919Z</time>
      </trkpt>
      <trkpt lat="49.672" lon="3.71303">
        <ele>143.9</ele>
        <time>2015-06-01T12:28:35.875Z</time>
      </trkpt>
      <trkpt lat="49.67199" lon="3.71303">
        <ele>143.8</ele>
        <time>2015-06-01T12:28:36.852Z</time>
      </trkpt>
      <trkpt lat="49.67194" lon="3.71313">
        <ele>143.5</ele>
        <time>2015-06-01T12:28:42.856Z</time>
      </trkpt>
      <trkpt lat="49.67194" lon="3.71315">
        <ele>143.6</ele>
        <time>2015-06-01T12:28:43.947Z</time>
      </trkpt>
      <trkpt lat="49.67188" lon="3.71324">
        <ele>143.6</ele>
        <time>2015-06-01T12:28:49.887Z</time>
      </trkpt>
      <trkpt lat="49.67187" lon="3.71325">
        <ele>143.6</ele>
        <time>2015-06-01T12:28:50.927Z</time>
      </trkpt>
      <trkpt lat="49.67182" lon="3.71334">
        <ele>143.7</ele>
        <time>2015-06-01T12:28:56.869Z</time>
      </trkpt>
      <trkpt lat="49.67181" lon="3.71336">
        <ele>143.7</ele>
        <time>2015-06-01T12:28:57.880Z</time>
      </trkpt>
      <trkpt lat="49.67176" lon="3.71346">
        <ele>143.4</ele>
        <time>2015-06-01T12:29:03.856Z</time>
      </trkpt>
      <trkpt lat="49.67176" lon="3.71348">
        <ele>143.3</ele>
        <time>2015-06-01T12:29:04.851Z</time>
      </trkpt>
      <trkpt lat="49.6717" lon="3.71358">
        <ele>143.3</ele>
        <time>2015-06-01T12:29:11.915Z</time>
      </trkpt>
      <trkpt lat="49.67169" lon="3.71359">
        <ele>143.2</ele>
        <time>2015-06-01T12:29:12.955Z</time>
      </trkpt>
      <trkpt lat="49.67164" lon="3.71368">
        <ele>142.9</ele>
        <time>2015-06-01T12:29:17.874Z</time>
      </trkpt>
      <trkpt lat="49.67163" lon="3.71369">
        <ele>142.7</ele>
        <time>2015-06-01T12:29:18.898Z</time>
      </trkpt>
      <trkpt lat="49.67156" lon="3.71379">
        <ele>142.2</ele>
        <time>2015-06-01T12:29:26.885Z</time>
      </trkpt>
      <trkpt lat="49.67156" lon="3.7138">
        <ele>142.2</ele>
        <time>2015-06-01T12:29:27.895Z</time>
      </trkpt>
      <trkpt lat="49.6715" lon="3.71391">
        <ele>142.2</ele>
        <time>2015-06-01T12:29:34.882Z</time>
      </trkpt>
      <trkpt lat="49.67149" lon="3.71392">
        <ele>142.3</ele>
        <time>2015-06-01T12:29:35.902Z</time>
      </trkpt>
      <trkpt lat="49.67144" lon="3.71402">
        <ele>141.8</ele>
        <time>2015-06-01T12:29:42.840Z</time>
      </trkpt>
      <trkpt lat="49.67143" lon="3.71404">
        <ele>141.8</ele>
        <time>2015-06-01T12:29:43.885Z</time>
      </trkpt>
      <trkpt lat="49.67137" lon="3.71414">
        <ele>142.5</ele>
        <time>2015-06-01T12:29:50.881Z</time>
      </trkpt>
      <trkpt lat="49.67136" lon="3.71416">
        <ele>142.5</ele>
        <time>2015-06-01T12:29:51.894Z</time>
      </trkpt>
      <trkpt lat="49.67132" lon="3.71425">
        <ele>142.9</ele>
        <time>2015-06-01T12:29:57.843Z</time>
      </trkpt>
      <trkpt lat="49.67131" lon="3.71427">
        <ele>142.9</ele>
        <time>2015-06-01T12:29:58.871Z</time>
      </trkpt>
      <trkpt lat="49.67126" lon="3.71438">
        <ele>142.6</ele>
        <time>2015-06-01T12:30:05.864Z</time>
      </trkpt>
      <trkpt lat="49.67125" lon="3.71439">
        <ele>142.6</ele>
        <time>2015-06-01T12:30:06.871Z</time>
      </trkpt>
      <trkpt lat="49.6712" lon="3.7145">
        <ele>142.4</ele>
        <time>2015-06-01T12:30:13.947Z</time>
      </trkpt>
      <trkpt lat="49.67119" lon="3.71452">
        <ele>142.4</ele>
        <time>2015-06-01T12:30:14.832Z</time>
      </trkpt>
      <trkpt lat="49.67114" lon="3.71462">
        <ele>142.2</ele>
        <time>2015-06-01T12:30:21.903Z</time>
      </trkpt>
      <trkpt lat="49.67114" lon="3.71464">
        <ele>142.3</ele>
        <time>2015-06-01T12:30:22.917Z</time>
      </trkpt>
      <trkpt lat="49.67109" lon="3.71475">
        <ele>142.3</ele>
        <time>2015-06-01T12:30:29.919Z</time>
      </trkpt>
      <trkpt lat="49.67108" lon="3.71476">
        <ele>142.3</ele>
        <time>2015-06-01T12:30:30.919Z</time>
      </trkpt>
      <trkpt lat="49.67104" lon="3.71486">
        <ele>142.4</ele>
        <time>2015-06-01T12:30:37.878Z</time>
      </trkpt>
      <trkpt lat="49.67103" lon="3.71488">
        <ele>142.4</ele>
        <time>2015-06-01T12:30:38.834Z</time>
      </trkpt>
      <trkpt lat="49.67098" lon="3.71499">
        <ele>142.3</ele>
        <time>2015-06-01T12:30:45.934Z</time>
      </trkpt>
      <trkpt lat="49.67097" lon="3.715">
        <ele>142.4</ele>
        <time>2015-06-01T12:30:46.829Z</time>
      </trkpt>
      <trkpt lat="49.67093" lon="3.7151">
        <ele>142.1</ele>
        <time>2015-06-01T12:30:52.903Z</time>
      </trkpt>
      <trkpt lat="49.67092" lon="3.71511">
        <ele>142</ele>
        <time>2015-06-01T12:30:53.911Z</time>
      </trkpt>
      <trkpt lat="49.67086" lon="3.71522">
        <ele>141.8</ele>
        <time>2015-06-01T12:31:00.870Z</time>
      </trkpt>
      <trkpt lat="49.67086" lon="3.71524">
        <ele>141.7</ele>
        <time>2015-06-01T12:31:01.878Z</time>
      </trkpt>
      <trkpt lat="49.6708" lon="3.71534">
        <ele>141.2</ele>
        <time>2015-06-01T12:31:08.873Z</time>
      </trkpt>
      <trkpt lat="49.6708" lon="3.71535">
        <ele>141.2</ele>
        <time>2015-06-01T12:31:09.879Z</time>
      </trkpt>
      <trkpt lat="49.67073" lon="3.71544">
        <ele>140.8</ele>
        <time>2015-06-01T12:31:16.835Z</time>
      </trkpt>
      <trkpt lat="49.67072" lon="3.71545">
        <ele>140.7</ele>
        <time>2015-06-01T12:31:17.854Z</time>
      </trkpt>
      <trkpt lat="49.67066" lon="3.71554">
        <ele>140.1</ele>
        <time>2015-06-01T12:31:24.836Z</time>
      </trkpt>
      <trkpt lat="49.67065" lon="3.71555">
        <ele>140.1</ele>
        <time>2015-06-01T12:31:25.863Z</time>
      </trkpt>
      <trkpt lat="49.67057" lon="3.71563">
        <ele>139.8</ele>
        <time>2015-06-01T12:31:32.833Z</time>
      </trkpt>
      <trkpt lat="49.67056" lon="3.71563">
        <ele>139.7</ele>
        <time>2015-06-01T12:31:33.832Z</time>
      </trkpt>
      <trkpt lat="49.67048" lon="3.7157">
        <ele>139.5</ele>
        <time>2015-06-01T12:31:40.909Z</time>
      </trkpt>
      <trkpt lat="49.67047" lon="3.7157">
        <ele>139.5</ele>
        <time>2015-06-01T12:31:41.822Z</time>
      </trkpt>
      <trkpt lat="49.6704" lon="3.71576">
        <ele>139.1</ele>
        <time>2015-06-01T12:31:47.856Z</time>
      </trkpt>
      <trkpt lat="49.67038" lon="3.71577">
        <ele>139</ele>
        <time>2015-06-01T12:31:48.853Z</time>
      </trkpt>
      <trkpt lat="49.6703" lon="3.71582">
        <ele>138.6</ele>
        <time>2015-06-01T12:31:55.951Z</time>
      </trkpt>
      <trkpt lat="49.67029" lon="3.71583">
        <ele>138.6</ele>
        <time>2015-06-01T12:31:56.818Z</time>
      </trkpt>
      <trkpt lat="49.67022" lon="3.71588">
        <ele>138.6</ele>
        <time>2015-06-01T12:32:02.896Z</time>
      </trkpt>
      <trkpt lat="49.6702" lon="3.71589">
        <ele>138.6</ele>
        <time>2015-06-01T12:32:03.816Z</time>
      </trkpt>
      <trkpt lat="49.67012" lon="3.71594">
        <ele>138.6</ele>
        <time>2015-06-01T12:32:10.823Z</time>
      </trkpt>
      <trkpt lat="49.67011" lon="3.71595">
        <ele>138.7</ele>
        <time>2015-06-01T12:32:11.832Z</time>
      </trkpt>
      <trkpt lat="49.67004" lon="3.716">
        <ele>138.2</ele>
        <time>2015-06-01T12:32:17.851Z</time>
      </trkpt>
      <trkpt lat="49.67002" lon="3.71601">
        <ele>138.1</ele>
        <time>2015-06-01T12:32:18.859Z</time>
      </trkpt>
      <trkpt lat="49.66995" lon="3.71607">
        <ele>138.1</ele>
        <time>2015-06-01T12:32:24.902Z</time>
      </trkpt>
      <trkpt lat="49.66994" lon="3.71608">
        <ele>138</ele>
        <time>2015-06-01T12:32:25.911Z</time>
      </trkpt>
      <trkpt lat="49.66987" lon="3.71614">
        <ele>138</ele>
        <time>2015-06-01T12:32:31.879Z</time>
      </trkpt>
      <trkpt lat="49.66986" lon="3.71615">
        <ele>138</ele>
        <time>2015-06-01T12:32:32.895Z</time>
      </trkpt>
      <trkpt lat="49.66978" lon="3.71622">
        <ele>137.9</ele>
        <time>2015-06-01T12:32:39.895Z</time>
      </trkpt>
      <trkpt lat="49.66977" lon="3.71623">
        <ele>137.8</ele>
        <time>2015-06-01T12:32:40.900Z</time>
      </trkpt>
      <trkpt lat="49.66971" lon="3.7163">
        <ele>136.6</ele>
        <time>2015-06-01T12:32:47.921Z</time>
      </trkpt>
      <trkpt lat="49.6697" lon="3.71632">
        <ele>136.4</ele>
        <time>2015-06-01T12:32:48.829Z</time>
      </trkpt>
      <trkpt lat="49.66963" lon="3.71639">
        <ele>134.8</ele>
        <time>2015-06-01T12:32:55.878Z</time>
      </trkpt>
      <trkpt lat="49.66962" lon="3.7164">
        <ele>134.5</ele>
        <time>2015-06-01T12:32:56.889Z</time>
      </trkpt>
      <trkpt lat="49.66955" lon="3.71649">
        <ele>134.1</ele>
        <time>2015-06-01T12:33:03.885Z</time>
      </trkpt>
      <trkpt lat="49.66954" lon="3.7165">
        <ele>133.9</ele>
        <time>2015-06-01T12:33:04.884Z</time>
      </trkpt>
      <trkpt lat="49.66947" lon="3.71658">
        <ele>133</ele>
        <time>2015-06-01T12:33:11.844Z</time>
      </trkpt>
      <trkpt lat="49.66946" lon="3.7166">
        <ele>133</ele>
        <time>2015-06-01T12:33:13.058Z</time>
      </trkpt>
      <trkpt lat="49.6694" lon="3.71669">
        <ele>132.6</ele>
        <time>2015-06-01T12:33:19.865Z</time>
      </trkpt>
      <trkpt lat="49.66939" lon="3.7167">
        <ele>132.6</ele>
        <time>2015-06-01T12:33:20.878Z</time>
      </trkpt>
      <trkpt lat="49.66934" lon="3.71679">
        <ele>132.3</ele>
        <time>2015-06-01T12:33:27.878Z</time>
      </trkpt>
      <trkpt lat="49.66933" lon="3.7168">
        <ele>132.3</ele>
        <time>2015-06-01T12:33:28.883Z</time>
      </trkpt>
      <trkpt lat="49.66926" lon="3.71689">
        <ele>131.9</ele>
        <time>2015-06-01T12:33:35.823Z</time>
      </trkpt>
      <trkpt lat="49.66926" lon="3.7169">
        <ele>132</ele>
        <time>2015-06-01T12:33:36.827Z</time>
      </trkpt>
      <trkpt lat="49.6692" lon="3.71698">
        <ele>132</ele>
        <time>2015-06-01T12:33:43.901Z</time>
      </trkpt>
      <trkpt lat="49.66918" lon="3.717">
        <ele>132.2</ele>
        <time>2015-06-01T12:33:44.820Z</time>
      </trkpt>
      <trkpt lat="49.66913" lon="3.7171">
        <ele>132.1</ele>
        <time>2015-06-01T12:33:52.841Z</time>
      </trkpt>
      <trkpt lat="49.66912" lon="3.71711">
        <ele>132.1</ele>
        <time>2015-06-01T12:33:53.864Z</time>
      </trkpt>
      <trkpt lat="49.66906" lon="3.71721">
        <ele>132.1</ele>
        <time>2015-06-01T12:34:00.812Z</time>
      </trkpt>
      <trkpt lat="49.66906" lon="3.71723">
        <ele>132.1</ele>
        <time>2015-06-01T12:34:01.854Z</time>
      </trkpt>
      <trkpt lat="49.66901" lon="3.71733">
        <ele>132.4</ele>
        <time>2015-06-01T12:34:07.910Z</time>
      </trkpt>
      <trkpt lat="49.669" lon="3.71734">
        <ele>132.5</ele>
        <time>2015-06-01T12:34:08.814Z</time>
      </trkpt>
      <trkpt lat="49.66896" lon="3.71745">
        <ele>132.2</ele>
        <time>2015-06-01T12:34:14.872Z</time>
      </trkpt>
      <trkpt lat="49.66895" lon="3.71746">
        <ele>132.2</ele>
        <time>2015-06-01T12:34:15.877Z</time>
      </trkpt>
      <trkpt lat="49.66889" lon="3.71757">
        <ele>132.5</ele>
        <time>2015-06-01T12:34:21.880Z</time>
      </trkpt>
      <trkpt lat="49.66889" lon="3.71758">
        <ele>132.4</ele>
        <time>2015-06-01T12:34:22.887Z</time>
      </trkpt>
      <trkpt lat="49.66883" lon="3.71769">
        <ele>131.5</ele>
        <time>2015-06-01T12:34:30.127Z</time>
      </trkpt>
      <trkpt lat="49.66883" lon="3.71771">
        <ele>131.5</ele>
        <time>2015-06-01T12:34:30.822Z</time>
      </trkpt>
      <trkpt lat="49.66877" lon="3.71782">
        <ele>130.9</ele>
        <time>2015-06-01T12:34:37.915Z</time>
      </trkpt>
      <trkpt lat="49.66877" lon="3.71783">
        <ele>130.8</ele>
        <time>2015-06-01T12:34:38.826Z</time>
      </trkpt>
      <trkpt lat="49.66872" lon="3.71794">
        <ele>130.1</ele>
        <time>2015-06-01T12:34:46.840Z</time>
      </trkpt>
      <trkpt lat="49.66872" lon="3.71795">
        <ele>130.1</ele>
        <time>2015-06-01T12:34:47.842Z</time>
      </trkpt>
      <trkpt lat="49.66866" lon="3.71806">
        <ele>129.8</ele>
        <time>2015-06-01T12:34:54.829Z</time>
      </trkpt>
      <trkpt lat="49.66866" lon="3.71807">
        <ele>129.8</ele>
        <time>2015-06-01T12:34:55.855Z</time>
      </trkpt>
      <trkpt lat="49.66861" lon="3.71818">
        <ele>129.8</ele>
        <time>2015-06-01T12:35:03.830Z</time>
      </trkpt>
      <trkpt lat="49.66861" lon="3.71819">
        <ele>129.7</ele>
        <time>2015-06-01T12:35:04.849Z</time>
      </trkpt>
      <trkpt lat="49.66854" lon="3.71828">
        <ele>128.4</ele>
        <time>2015-06-01T12:35:14.870Z</time>
      </trkpt>
      <trkpt lat="49.66852" lon="3.7183">
        <ele>128.3</ele>
        <time>2015-06-01T12:35:15.871Z</time>
      </trkpt>
      <trkpt lat="49.66847" lon="3.71837">
        <ele>127.4</ele>
        <time>2015-06-01T12:36:28.823Z</time>
      </trkpt>
      <trkpt lat="49.66847" lon="3.71837">
        <ele>127.4</ele>
        <time>2015-06-01T12:36:29.845Z</time>
      </trkpt>
      <trkpt lat="49.66847" lon="3.71837">
        <ele>127.4</ele>
        <time>2015-06-01T12:36:30.885Z</time>
      </trkpt>
      <trkpt lat="49.66849" lon="3.71836">
        <ele>127.7</ele>
        <time>2015-06-01T12:36:39.855Z</time>
      </trkpt>
      <trkpt lat="49.66849" lon="3.71836">
        <ele>127.7</ele>
        <time>2015-06-01T12:36:40.874Z</time>
      </trkpt>
      <trkpt lat="49.66848" lon="3.71836">
        <ele>127.6</ele>
        <time>2015-06-01T12:36:42.924Z</time>
      </trkpt>
      <trkpt lat="49.66849" lon="3.71836">
        <ele>127.7</ele>
        <time>2015-06-01T12:36:44.299Z</time>
      </trkpt>
      <trkpt lat="49.66849" lon="3.71834">
        <ele>128</ele>
        <time>2015-06-01T12:36:49.855Z</time>
      </trkpt>
      <trkpt lat="49.66849" lon="3.71834">
        <ele>128</ele>
        <time>2015-06-01T12:36:50.866Z</time>
      </trkpt>
      <trkpt lat="49.66849" lon="3.71834">
        <ele>128</ele>
        <time>2015-06-01T12:36:51.875Z</time>
      </trkpt>
      <trkpt lat="49.6685" lon="3.71834">
        <ele>128.1</ele>
        <time>2015-06-01T12:36:53.893Z</time>
      </trkpt>
      <trkpt lat="49.6685" lon="3.71835">
        <ele>128.2</ele>
        <time>2015-06-01T12:36:55.074Z</time>
      </trkpt>
      <trkpt lat="49.6685" lon="3.71834">
        <ele>128.4</ele>
        <time>2015-06-01T12:36:55.922Z</time>
      </trkpt>
      <trkpt lat="49.66852" lon="3.71835">
        <ele>128.9</ele>
        <time>2015-06-01T12:36:59.846Z</time>
      </trkpt>
      <trkpt lat="49.66852" lon="3.71835">
        <ele>129</ele>
        <time>2015-06-01T12:37:00.851Z</time>
      </trkpt>
      <trkpt lat="49.66852" lon="3.71835">
        <ele>128.8</ele>
        <time>2015-06-01T12:37:01.873Z</time>
      </trkpt>
      <trkpt lat="49.66852" lon="3.71838">
        <ele>128.8</ele>
        <time>2015-06-01T12:37:06.914Z</time>
      </trkpt>
      <trkpt lat="49.66852" lon="3.71838">
        <ele>128.6</ele>
        <time>2015-06-01T12:37:07.934Z</time>
      </trkpt>
      <trkpt lat="49.66852" lon="3.71838">
        <ele>128.6</ele>
        <time>2015-06-01T12:37:08.843Z</time>
      </trkpt>
      <trkpt lat="49.66851" lon="3.71838">
        <ele>128.5</ele>
        <time>2015-06-01T12:37:09.839Z</time>
      </trkpt>
      <trkpt lat="49.66851" lon="3.71838">
        <ele>128.3</ele>
        <time>2015-06-01T12:37:10.834Z</time>
      </trkpt>
      <trkpt lat="49.66851" lon="3.71837">
        <ele>128.2</ele>
        <time>2015-06-01T12:37:11.878Z</time>
      </trkpt>
      <trkpt lat="49.66852" lon="3.71837">
        <ele>128</ele>
        <time>2015-06-01T12:37:12.869Z</time>
      </trkpt>
      <trkpt lat="49.66851" lon="3.71834">
        <ele>127.5</ele>
        <time>2015-06-01T12:37:38.880Z</time>
      </trkpt>
      <trkpt lat="49.66851" lon="3.71834">
        <ele>127.4</ele>
        <time>2015-06-01T12:37:39.882Z</time>
      </trkpt>
      <trkpt lat="49.66851" lon="3.71835">
        <ele>127.4</ele>
        <time>2015-06-01T12:37:40.917Z</time>
      </trkpt>
      <trkpt lat="49.6685" lon="3.71835">
        <ele>127</ele>
        <time>2015-06-01T12:37:41.819Z</time>
      </trkpt>
      <trkpt lat="49.6685" lon="3.71836">
        <ele>127</ele>
        <time>2015-06-01T12:37:42.832Z</time>
      </trkpt>
      <trkpt lat="49.6685" lon="3.71836">
        <ele>126.9</ele>
        <time>2015-06-01T12:37:43.876Z</time>
      </trkpt>
      <trkpt lat="49.66849" lon="3.71836">
        <ele>126.9</ele>
        <time>2015-06-01T12:37:44.896Z</time>
      </trkpt>
      <trkpt lat="49.66842" lon="3.71841">
        <ele>126.4</ele>
        <time>2015-06-01T12:38:34.849Z</time>
      </trkpt>
      <trkpt lat="49.66842" lon="3.71841">
        <ele>126.5</ele>
        <time>2015-06-01T12:38:35.846Z</time>
      </trkpt>
      <trkpt lat="49.66842" lon="3.71841">
        <ele>126.7</ele>
        <time>2015-06-01T12:38:43.885Z</time>
      </trkpt>
      <trkpt lat="49.66843" lon="3.7184">
        <ele>126.6</ele>
        <time>2015-06-01T12:38:44.886Z</time>
      </trkpt>
      <trkpt lat="49.66843" lon="3.7184">
        <ele>126.6</ele>
        <time>2015-06-01T12:38:45.914Z</time>
      </trkpt>
      <trkpt lat="49.66843" lon="3.7184">
        <ele>126.5</ele>
        <time>2015-06-01T12:39:01.895Z</time>
      </trkpt>
      <trkpt lat="49.66843" lon="3.71836">
        <ele>126.5</ele>
        <time>2015-06-01T12:39:02.902Z</time>
      </trkpt>
      <trkpt lat="49.66844" lon="3.71835">
        <ele>126.2</ele>
        <time>2015-06-01T12:39:03.855Z</time>
      </trkpt>
      <trkpt lat="49.66844" lon="3.71835">
        <ele>126.3</ele>
        <time>2015-06-01T12:39:04.835Z</time>
      </trkpt>
      <trkpt lat="49.66844" lon="3.71835">
        <ele>126.3</ele>
        <time>2015-06-01T12:39:23.913Z</time>
      </trkpt>
      <trkpt lat="49.66845" lon="3.71835">
        <ele>126.9</ele>
        <time>2015-06-01T12:39:24.923Z</time>
      </trkpt>
      <trkpt lat="49.6685" lon="3.71837">
        <ele>128.7</ele>
        <time>2015-06-01T12:39:50.822Z</time>
      </trkpt>
      <trkpt lat="49.6685" lon="3.71838">
        <ele>128.7</ele>
        <time>2015-06-01T12:39:51.831Z</time>
      </trkpt>
      <trkpt lat="49.6685" lon="3.71838">
        <ele>128.6</ele>
        <time>2015-06-01T12:39:54.851Z</time>
      </trkpt>
      <trkpt lat="49.6685" lon="3.71837">
        <ele>128.4</ele>
        <time>2015-06-01T12:39:55.873Z</time>
      </trkpt>
      <trkpt lat="49.66847" lon="3.71837">
        <ele>127.9</ele>
        <time>2015-06-01T12:39:59.921Z</time>
      </trkpt>
      <trkpt lat="49.66847" lon="3.71837">
        <ele>127.8</ele>
        <time>2015-06-01T12:40:00.922Z</time>
      </trkpt>
      <trkpt lat="49.66847" lon="3.71837">
        <ele>127.7</ele>
        <time>2015-06-01T12:40:01.942Z</time>
      </trkpt>
      <trkpt lat="49.66848" lon="3.71837">
        <ele>127.7</ele>
        <time>2015-06-01T12:40:03.842Z</time>
      </trkpt>
      <trkpt lat="49.66848" lon="3.71837">
        <ele>127.7</ele>
        <time>2015-06-01T12:40:04.848Z</time>
      </trkpt>
      <trkpt lat="49.66848" lon="3.71837">
        <ele>128.1</ele>
        <time>2015-06-01T12:40:29.916Z</time>
      </trkpt>
      <trkpt lat="49.6685" lon="3.71838">
        <ele>128.4</ele>
        <time>2015-06-01T12:40:30.842Z</time>
      </trkpt>
      <trkpt lat="49.6685" lon="3.71838">
        <ele>128.4</ele>
        <time>2015-06-01T12:40:31.899Z</time>
      </trkpt>
      <trkpt lat="49.6685" lon="3.71838">
        <ele>128.3</ele>
        <time>2015-06-01T12:40:32.894Z</time>
      </trkpt>
      <trkpt lat="49.6685" lon="3.71838">
        <ele>128.4</ele>
        <time>2015-06-01T12:40:33.901Z</time>
      </trkpt>
      <trkpt lat="49.6685" lon="3.71837">
        <ele>127.5</ele>
        <time>2015-06-01T12:40:54.902Z</time>
      </trkpt>
      <trkpt lat="49.6685" lon="3.71837">
        <ele>127.6</ele>
        <time>2015-06-01T12:40:55.895Z</time>
      </trkpt>
      <trkpt lat="49.6685" lon="3.71837">
        <ele>127.6</ele>
        <time>2015-06-01T12:41:06.083Z</time>
      </trkpt>
      <trkpt lat="49.66849" lon="3.71838">
        <ele>128.6</ele>
        <time>2015-06-01T12:41:06.838Z</time>
      </trkpt>
      <trkpt lat="49.66849" lon="3.71839">
        <ele>128.4</ele>
        <time>2015-06-01T12:41:08.890Z</time>
      </trkpt>
      <trkpt lat="49.66848" lon="3.71838">
        <ele>128.1</ele>
        <time>2015-06-01T12:41:09.905Z</time>
      </trkpt>
      <trkpt lat="49.66848" lon="3.71838">
        <ele>128.2</ele>
        <time>2015-06-01T12:41:31.944Z</time>
      </trkpt>
      <trkpt lat="49.66847" lon="3.71834">
        <ele>127.7</ele>
        <time>2015-06-01T12:41:32.821Z</time>
      </trkpt>
      <trkpt lat="49.66848" lon="3.71835">
        <ele>127.6</ele>
        <time>2015-06-01T12:41:36.854Z</time>
      </trkpt>
      <trkpt lat="49.66848" lon="3.71835">
        <ele>127.5</ele>
        <time>2015-06-01T12:41:37.871Z</time>
      </trkpt>
      <trkpt lat="49.66848" lon="3.71835">
        <ele>127.6</ele>
        <time>2015-06-01T12:41:38.875Z</time>
      </trkpt>
      <trkpt lat="49.66846" lon="3.71827">
        <ele>127.9</ele>
        <time>2015-06-01T12:41:54.840Z</time>
      </trkpt>
      <trkpt lat="49.66845" lon="3.71827">
        <ele>127.9</ele>
        <time>2015-06-01T12:41:55.864Z</time>
      </trkpt>
      <trkpt lat="49.66845" lon="3.71827">
        <ele>127.9</ele>
        <time>2015-06-01T12:41:56.881Z</time>
      </trkpt>
      <trkpt lat="49.66844" lon="3.71828">
        <ele>127.8</ele>
        <time>2015-06-01T12:41:57.896Z</time>
      </trkpt>
      <trkpt lat="49.66844" lon="3.71828">
        <ele>127.7</ele>
        <time>2015-06-01T12:41:58.891Z</time>
      </trkpt>
      <trkpt lat="49.66844" lon="3.71828">
        <ele>127.7</ele>
        <time>2015-06-01T12:41:59.904Z</time>
      </trkpt>
      <trkpt lat="49.66845" lon="3.71827">
        <ele>127.6</ele>
        <time>2015-06-01T12:42:01.925Z</time>
      </trkpt>
      <trkpt lat="49.66845" lon="3.71827">
        <ele>127.5</ele>
        <time>2015-06-01T12:42:02.840Z</time>
      </trkpt>
      <trkpt lat="49.66846" lon="3.71827">
        <ele>127.5</ele>
        <time>2015-06-01T12:42:03.831Z</time>
      </trkpt>
      <trkpt lat="49.66846" lon="3.71828">
        <ele>127.5</ele>
        <time>2015-06-01T12:42:04.841Z</time>
      </trkpt>
      <trkpt lat="49.66846" lon="3.71828">
        <ele>127.5</ele>
        <time>2015-06-01T12:42:05.845Z</time>
      </trkpt>
      <trkpt lat="49.66846" lon="3.71829">
        <ele>127.4</ele>
        <time>2015-06-01T12:42:07.870Z</time>
      </trkpt>
      <trkpt lat="49.66845" lon="3.71829">
        <ele>127.5</ele>
        <time>2015-06-01T12:42:08.877Z</time>
      </trkpt>
      <trkpt lat="49.66845" lon="3.71829">
        <ele>127.6</ele>
        <time>2015-06-01T12:42:09.879Z</time>
      </trkpt>
      <trkpt lat="49.66845" lon="3.71829">
        <ele>127.7</ele>
        <time>2015-06-01T12:42:10.895Z</time>
      </trkpt>
      <trkpt lat="49.66845" lon="3.71831">
        <ele>127.5</ele>
        <time>2015-06-01T12:42:12.870Z</time>
      </trkpt>
      <trkpt lat="49.66846" lon="3.71831">
        <ele>127.5</ele>
        <time>2015-06-01T12:42:13.876Z</time>
      </trkpt>
      <trkpt lat="49.66845" lon="3.7183">
        <ele>127.4</ele>
        <time>2015-06-01T12:42:23.883Z</time>
      </trkpt>
      <trkpt lat="49.66845" lon="3.71833">
        <ele>127.1</ele>
        <time>2015-06-01T12:42:24.813Z</time>
      </trkpt>
      <trkpt lat="49.66837" lon="3.7183">
        <ele>127.6</ele>
        <time>2015-06-01T12:42:33.869Z</time>
      </trkpt>
      <trkpt lat="49.66836" lon="3.71829">
        <ele>127.7</ele>
        <time>2015-06-01T12:42:34.834Z</time>
      </trkpt>
      <trkpt lat="49.66829" lon="3.71823">
        <ele>128.4</ele>
        <time>2015-06-01T12:42:42.838Z</time>
      </trkpt>
      <trkpt lat="49.66829" lon="3.71823">
        <ele>128.4</ele>
        <time>2015-06-01T12:42:43.933Z</time>
      </trkpt>
      <trkpt lat="49.66828" lon="3.71823">
        <ele>128.5</ele>
        <time>2015-06-01T12:42:44.840Z</time>
      </trkpt>
      <trkpt lat="49.6682" lon="3.71818">
        <ele>128.5</ele>
        <time>2015-06-01T12:42:53.860Z</time>
      </trkpt>
      <trkpt lat="49.66819" lon="3.71817">
        <ele>128.4</ele>
        <time>2015-06-01T12:42:54.931Z</time>
      </trkpt>
      <trkpt lat="49.66811" lon="3.71812">
        <ele>128.5</ele>
        <time>2015-06-01T12:43:02.844Z</time>
      </trkpt>
      <trkpt lat="49.6681" lon="3.71812">
        <ele>128.4</ele>
        <time>2015-06-01T12:43:03.894Z</time>
      </trkpt>
      <trkpt lat="49.66802" lon="3.71807">
        <ele>128.4</ele>
        <time>2015-06-01T12:43:11.861Z</time>
      </trkpt>
      <trkpt lat="49.66801" lon="3.71807">
        <ele>128.4</ele>
        <time>2015-06-01T12:43:12.870Z</time>
      </trkpt>
      <trkpt lat="49.66793" lon="3.71802">
        <ele>128.3</ele>
        <time>2015-06-01T12:43:20.894Z</time>
      </trkpt>
      <trkpt lat="49.66792" lon="3.71802">
        <ele>128.1</ele>
        <time>2015-06-01T12:43:21.997Z</time>
      </trkpt>
      <trkpt lat="49.66784" lon="3.71798">
        <ele>128.3</ele>
        <time>2015-06-01T12:43:29.848Z</time>
      </trkpt>
      <trkpt lat="49.66783" lon="3.71797">
        <ele>128.2</ele>
        <time>2015-06-01T12:43:30.863Z</time>
      </trkpt>
      <trkpt lat="49.66775" lon="3.71793">
        <ele>128</ele>
        <time>2015-06-01T12:43:37.911Z</time>
      </trkpt>
      <trkpt lat="49.66774" lon="3.71792">
        <ele>127.9</ele>
        <time>2015-06-01T12:43:38.915Z</time>
      </trkpt>
      <trkpt lat="49.66766" lon="3.71787">
        <ele>127.6</ele>
        <time>2015-06-01T12:43:45.885Z</time>
      </trkpt>
      <trkpt lat="49.66765" lon="3.71787">
        <ele>127.5</ele>
        <time>2015-06-01T12:43:46.887Z</time>
      </trkpt>
      <trkpt lat="49.66757" lon="3.71783">
        <ele>127.1</ele>
        <time>2015-06-01T12:43:55.871Z</time>
      </trkpt>
      <trkpt lat="49.66756" lon="3.71782">
        <ele>126.9</ele>
        <time>2015-06-01T12:43:56.883Z</time>
      </trkpt>
      <trkpt lat="49.66748" lon="3.71777">
        <ele>126.3</ele>
        <time>2015-06-01T12:44:03.930Z</time>
      </trkpt>
      <trkpt lat="49.66747" lon="3.71777">
        <ele>126.3</ele>
        <time>2015-06-01T12:44:04.830Z</time>
      </trkpt>
      <trkpt lat="49.66739" lon="3.71772">
        <ele>125.8</ele>
        <time>2015-06-01T12:44:11.834Z</time>
      </trkpt>
      <trkpt lat="49.66738" lon="3.71772">
        <ele>125.9</ele>
        <time>2015-06-01T12:44:12.829Z</time>
      </trkpt>
      <trkpt lat="49.6673" lon="3.71768">
        <ele>125.6</ele>
        <time>2015-06-01T12:44:20.900Z</time>
      </trkpt>
      <trkpt lat="49.66729" lon="3.71768">
        <ele>125.4</ele>
        <time>2015-06-01T12:44:21.906Z</time>
      </trkpt>
      <trkpt lat="49.66721" lon="3.71763">
        <ele>125.2</ele>
        <time>2015-06-01T12:44:28.899Z</time>
      </trkpt>
      <trkpt lat="49.6672" lon="3.71763">
        <ele>125.2</ele>
        <time>2015-06-01T12:44:29.899Z</time>
      </trkpt>
      <trkpt lat="49.66713" lon="3.71757">
        <ele>125.1</ele>
        <time>2015-06-01T12:44:35.872Z</time>
      </trkpt>
      <trkpt lat="49.66712" lon="3.71756">
        <ele>125.1</ele>
        <time>2015-06-01T12:44:36.880Z</time>
      </trkpt>
      <trkpt lat="49.66704" lon="3.7175">
        <ele>125.1</ele>
        <time>2015-06-01T12:44:43.988Z</time>
      </trkpt>
      <trkpt lat="49.66703" lon="3.71749">
        <ele>125.1</ele>
        <time>2015-06-01T12:44:44.831Z</time>
      </trkpt>
      <trkpt lat="49.66695" lon="3.71744">
        <ele>125.3</ele>
        <time>2015-06-01T12:44:51.908Z</time>
      </trkpt>
      <trkpt lat="49.66694" lon="3.71743">
        <ele>125.4</ele>
        <time>2015-06-01T12:44:52.904Z</time>
      </trkpt>
      <trkpt lat="49.66687" lon="3.71738">
        <ele>125.2</ele>
        <time>2015-06-01T12:44:59.911Z</time>
      </trkpt>
      <trkpt lat="49.66686" lon="3.71737">
        <ele>125.3</ele>
        <time>2015-06-01T12:45:00.839Z</time>
      </trkpt>
      <trkpt lat="49.66677" lon="3.71733">
        <ele>125.6</ele>
        <time>2015-06-01T12:45:13.892Z</time>
      </trkpt>
      <trkpt lat="49.66676" lon="3.71733">
        <ele>125.7</ele>
        <time>2015-06-01T12:45:14.907Z</time>
      </trkpt>
      <trkpt lat="49.66669" lon="3.71729">
        <ele>126.1</ele>
        <time>2015-06-01T12:45:19.922Z</time>
      </trkpt>
      <trkpt lat="49.66667" lon="3.71729">
        <ele>126.3</ele>
        <time>2015-06-01T12:45:20.916Z</time>
      </trkpt>
      <trkpt lat="49.6666" lon="3.71724">
        <ele>127.1</ele>
        <time>2015-06-01T12:45:26.881Z</time>
      </trkpt>
      <trkpt lat="49.66658" lon="3.71723">
        <ele>127.1</ele>
        <time>2015-06-01T12:45:27.902Z</time>
      </trkpt>
      <trkpt lat="49.6665" lon="3.71718">
        <ele>127</ele>
        <time>2015-06-01T12:45:34.905Z</time>
      </trkpt>
      <trkpt lat="49.66649" lon="3.71717">
        <ele>127</ele>
        <time>2015-06-01T12:45:35.921Z</time>
      </trkpt>
      <trkpt lat="49.66641" lon="3.71714">
        <ele>127</ele>
        <time>2015-06-01T12:45:41.870Z</time>
      </trkpt>
      <trkpt lat="49.6664" lon="3.71714">
        <ele>126.9</ele>
        <time>2015-06-01T12:45:42.871Z</time>
      </trkpt>
      <trkpt lat="49.66632" lon="3.7171">
        <ele>126.6</ele>
        <time>2015-06-01T12:45:48.856Z</time>
      </trkpt>
      <trkpt lat="49.66631" lon="3.71708">
        <ele>126.6</ele>
        <time>2015-06-01T12:45:49.877Z</time>
      </trkpt>
      <trkpt lat="49.66624" lon="3.71704">
        <ele>126.7</ele>
        <time>2015-06-01T12:45:55.887Z</time>
      </trkpt>
      <trkpt lat="49.66622" lon="3.71703">
        <ele>126.6</ele>
        <time>2015-06-01T12:45:56.904Z</time>
      </trkpt>
      <trkpt lat="49.66614" lon="3.717">
        <ele>126.8</ele>
        <time>2015-06-01T12:46:03.904Z</time>
      </trkpt>
      <trkpt lat="49.66613" lon="3.71699">
        <ele>126.8</ele>
        <time>2015-06-01T12:46:04.906Z</time>
      </trkpt>
      <trkpt lat="49.66605" lon="3.71695">
        <ele>127.6</ele>
        <time>2015-06-01T12:46:10.842Z</time>
      </trkpt>
      <trkpt lat="49.66604" lon="3.71694">
        <ele>127.8</ele>
        <time>2015-06-01T12:46:11.838Z</time>
      </trkpt>
      <trkpt lat="49.66595" lon="3.71688">
        <ele>128.7</ele>
        <time>2015-06-01T12:46:18.823Z</time>
      </trkpt>
      <trkpt lat="49.66594" lon="3.71688">
        <ele>128.8</ele>
        <time>2015-06-01T12:46:19.882Z</time>
      </trkpt>
      <trkpt lat="49.66586" lon="3.71683">
        <ele>129.3</ele>
        <time>2015-06-01T12:46:26.878Z</time>
      </trkpt>
      <trkpt lat="49.66585" lon="3.71682">
        <ele>129.4</ele>
        <time>2015-06-01T12:46:27.993Z</time>
      </trkpt>
      <trkpt lat="49.66578" lon="3.71677">
        <ele>129.6</ele>
        <time>2015-06-01T12:46:34.847Z</time>
      </trkpt>
      <trkpt lat="49.66577" lon="3.71675">
        <ele>129.6</ele>
        <time>2015-06-01T12:46:35.865Z</time>
      </trkpt>
      <trkpt lat="49.66569" lon="3.71671">
        <ele>129.6</ele>
        <time>2015-06-01T12:46:41.909Z</time>
      </trkpt>
      <trkpt lat="49.66568" lon="3.71671">
        <ele>129.6</ele>
        <time>2015-06-01T12:46:42.834Z</time>
      </trkpt>
      <trkpt lat="49.6656" lon="3.71666">
        <ele>129.4</ele>
        <time>2015-06-01T12:46:48.854Z</time>
      </trkpt>
      <trkpt lat="49.66559" lon="3.71665">
        <ele>129.4</ele>
        <time>2015-06-01T12:46:49.881Z</time>
      </trkpt>
      <trkpt lat="49.66551" lon="3.71661">
        <ele>129.4</ele>
        <time>2015-06-01T12:46:55.905Z</time>
      </trkpt>
      <trkpt lat="49.66549" lon="3.71661">
        <ele>129.4</ele>
        <time>2015-06-01T12:46:56.912Z</time>
      </trkpt>
      <trkpt lat="49.66541" lon="3.71657">
        <ele>129.6</ele>
        <time>2015-06-01T12:47:03.898Z</time>
      </trkpt>
      <trkpt lat="49.6654" lon="3.71657">
        <ele>129.7</ele>
        <time>2015-06-01T12:47:04.915Z</time>
      </trkpt>
      <trkpt lat="49.66531" lon="3.71653">
        <ele>129.6</ele>
        <time>2015-06-01T12:47:10.925Z</time>
      </trkpt>
      <trkpt lat="49.6653" lon="3.71653">
        <ele>129.5</ele>
        <time>2015-06-01T12:47:11.834Z</time>
      </trkpt>
      <trkpt lat="49.66522" lon="3.71648">
        <ele>129.1</ele>
        <time>2015-06-01T12:47:16.923Z</time>
      </trkpt>
      <trkpt lat="49.66521" lon="3.71647">
        <ele>129.1</ele>
        <time>2015-06-01T12:47:17.839Z</time>
      </trkpt>
      <trkpt lat="49.66512" lon="3.71643">
        <ele>128.4</ele>
        <time>2015-06-01T12:47:23.927Z</time>
      </trkpt>
      <trkpt lat="49.66511" lon="3.71642">
        <ele>128.3</ele>
        <time>2015-06-01T12:47:24.837Z</time>
      </trkpt>
      <trkpt lat="49.66503" lon="3.71639">
        <ele>129</ele>
        <time>2015-06-01T12:47:30.905Z</time>
      </trkpt>
      <trkpt lat="49.66501" lon="3.71638">
        <ele>129.1</ele>
        <time>2015-06-01T12:47:31.909Z</time>
      </trkpt>
      <trkpt lat="49.66494" lon="3.71633">
        <ele>129.6</ele>
        <time>2015-06-01T12:47:37.885Z</time>
      </trkpt>
      <trkpt lat="49.66492" lon="3.71632">
        <ele>129.5</ele>
        <time>2015-06-01T12:47:38.899Z</time>
      </trkpt>
      <trkpt lat="49.66485" lon="3.71628">
        <ele>130</ele>
        <time>2015-06-01T12:47:44.830Z</time>
      </trkpt>
      <trkpt lat="49.66483" lon="3.71627">
        <ele>129.9</ele>
        <time>2015-06-01T12:47:45.856Z</time>
      </trkpt>
      <trkpt lat="49.66475" lon="3.71622">
        <ele>130.1</ele>
        <time>2015-06-01T12:47:51.900Z</time>
      </trkpt>
      <trkpt lat="49.66474" lon="3.71621">
        <ele>130.1</ele>
        <time>2015-06-01T12:47:52.906Z</time>
      </trkpt>
      <trkpt lat="49.66467" lon="3.71617">
        <ele>129.6</ele>
        <time>2015-06-01T12:47:57.938Z</time>
      </trkpt>
      <trkpt lat="49.66466" lon="3.71616">
        <ele>129.4</ele>
        <time>2015-06-01T12:47:58.827Z</time>
      </trkpt>
      <trkpt lat="49.66458" lon="3.71612">
        <ele>129.1</ele>
        <time>2015-06-01T12:48:04.916Z</time>
      </trkpt>
      <trkpt lat="49.66456" lon="3.71611">
        <ele>129.2</ele>
        <time>2015-06-01T12:48:05.831Z</time>
      </trkpt>
      <trkpt lat="49.66449" lon="3.71609">
        <ele>129.6</ele>
        <time>2015-06-01T12:48:11.847Z</time>
      </trkpt>
      <trkpt lat="49.66447" lon="3.71609">
        <ele>129.6</ele>
        <time>2015-06-01T12:48:12.875Z</time>
      </trkpt>
      <trkpt lat="49.66443" lon="3.7162">
        <ele>130.3</ele>
        <time>2015-06-01T12:48:20.830Z</time>
      </trkpt>
      <trkpt lat="49.66443" lon="3.71621">
        <ele>130.3</ele>
        <time>2015-06-01T12:48:21.834Z</time>
      </trkpt>
      <trkpt lat="49.6644" lon="3.71633">
        <ele>131</ele>
        <time>2015-06-01T12:48:29.901Z</time>
      </trkpt>
      <trkpt lat="49.66439" lon="3.71635">
        <ele>131</ele>
        <time>2015-06-01T12:48:30.911Z</time>
      </trkpt>
      <trkpt lat="49.66436" lon="3.71647">
        <ele>131.4</ele>
        <time>2015-06-01T12:48:36.897Z</time>
      </trkpt>
      <trkpt lat="49.66435" lon="3.71649">
        <ele>131.4</ele>
        <time>2015-06-01T12:48:37.913Z</time>
      </trkpt>
      <trkpt lat="49.66433" lon="3.71662">
        <ele>131.1</ele>
        <time>2015-06-01T12:48:45.905Z</time>
      </trkpt>
      <trkpt lat="49.66433" lon="3.71664">
        <ele>131.1</ele>
        <time>2015-06-01T12:48:46.912Z</time>
      </trkpt>
      <trkpt lat="49.66431" lon="3.71677">
        <ele>130.6</ele>
        <time>2015-06-01T12:48:53.905Z</time>
      </trkpt>
      <trkpt lat="49.66431" lon="3.71678">
        <ele>130.6</ele>
        <time>2015-06-01T12:48:54.913Z</time>
      </trkpt>
      <trkpt lat="49.66429" lon="3.71689">
        <ele>129.8</ele>
        <time>2015-06-01T12:49:05.915Z</time>
      </trkpt>
      <trkpt lat="49.66428" lon="3.71691">
        <ele>129.6</ele>
        <time>2015-06-01T12:49:06.831Z</time>
      </trkpt>
      <trkpt lat="49.66426" lon="3.71703">
        <ele>129.2</ele>
        <time>2015-06-01T12:49:13.932Z</time>
      </trkpt>
      <trkpt lat="49.66425" lon="3.71705">
        <ele>129.2</ele>
        <time>2015-06-01T12:49:14.837Z</time>
      </trkpt>
      <trkpt lat="49.66423" lon="3.71718">
        <ele>128.7</ele>
        <time>2015-06-01T12:49:21.818Z</time>
      </trkpt>
      <trkpt lat="49.66423" lon="3.7172">
        <ele>128.7</ele>
        <time>2015-06-01T12:49:22.838Z</time>
      </trkpt>
      <trkpt lat="49.66421" lon="3.71732">
        <ele>128.2</ele>
        <time>2015-06-01T12:49:28.901Z</time>
      </trkpt>
      <trkpt lat="49.6642" lon="3.71734">
        <ele>128.2</ele>
        <time>2015-06-01T12:49:29.825Z</time>
      </trkpt>
      <trkpt lat="49.66419" lon="3.71747">
        <ele>128.2</ele>
        <time>2015-06-01T12:49:36.918Z</time>
      </trkpt>
      <trkpt lat="49.66418" lon="3.71749">
        <ele>128.2</ele>
        <time>2015-06-01T12:49:37.919Z</time>
      </trkpt>
      <trkpt lat="49.66416" lon="3.7176">
        <ele>128</ele>
        <time>2015-06-01T12:49:44.908Z</time>
      </trkpt>
      <trkpt lat="49.66416" lon="3.71762">
        <ele>128</ele>
        <time>2015-06-01T12:49:45.924Z</time>
      </trkpt>
      <trkpt lat="49.66414" lon="3.71774">
        <ele>128.4</ele>
        <time>2015-06-01T12:49:51.893Z</time>
      </trkpt>
      <trkpt lat="49.66413" lon="3.71776">
        <ele>128.5</ele>
        <time>2015-06-01T12:49:52.902Z</time>
      </trkpt>
      <trkpt lat="49.66411" lon="3.71788">
        <ele>128.8</ele>
        <time>2015-06-01T12:49:58.914Z</time>
      </trkpt>
      <trkpt lat="49.66411" lon="3.7179">
        <ele>128.8</ele>
        <time>2015-06-01T12:49:59.835Z</time>
      </trkpt>
      <trkpt lat="49.66408" lon="3.71802">
        <ele>129</ele>
        <time>2015-06-01T12:50:05.918Z</time>
      </trkpt>
      <trkpt lat="49.66408" lon="3.71804">
        <ele>129.2</ele>
        <time>2015-06-01T12:50:06.825Z</time>
      </trkpt>
      <trkpt lat="49.66405" lon="3.71817">
        <ele>130.2</ele>
        <time>2015-06-01T12:50:12.859Z</time>
      </trkpt>
      <trkpt lat="49.66404" lon="3.71819">
        <ele>130.8</ele>
        <time>2015-06-01T12:50:13.877Z</time>
      </trkpt>
      <trkpt lat="49.66401" lon="3.71832">
        <ele>132.8</ele>
        <time>2015-06-01T12:50:20.933Z</time>
      </trkpt>
      <trkpt lat="49.66401" lon="3.71834">
        <ele>132.8</ele>
        <time>2015-06-01T12:50:21.839Z</time>
      </trkpt>
      <trkpt lat="49.66399" lon="3.71845">
        <ele>133</ele>
        <time>2015-06-01T12:50:28.896Z</time>
      </trkpt>
      <trkpt lat="49.66398" lon="3.71847">
        <ele>133.1</ele>
        <time>2015-06-01T12:50:29.900Z</time>
      </trkpt>
      <trkpt lat="49.66396" lon="3.71859">
        <ele>132.9</ele>
        <time>2015-06-01T12:50:37.874Z</time>
      </trkpt>
      <trkpt lat="49.66395" lon="3.7186">
        <ele>133</ele>
        <time>2015-06-01T12:50:38.915Z</time>
      </trkpt>
      <trkpt lat="49.66393" lon="3.71872">
        <ele>132.8</ele>
        <time>2015-06-01T12:50:45.900Z</time>
      </trkpt>
      <trkpt lat="49.66392" lon="3.71874">
        <ele>132.8</ele>
        <time>2015-06-01T12:50:46.895Z</time>
      </trkpt>
      <trkpt lat="49.6639" lon="3.71886">
        <ele>133.3</ele>
        <time>2015-06-01T12:50:52.884Z</time>
      </trkpt>
      <trkpt lat="49.6639" lon="3.71888">
        <ele>133.3</ele>
        <time>2015-06-01T12:50:53.893Z</time>
      </trkpt>
      <trkpt lat="49.66387" lon="3.719">
        <ele>133.5</ele>
        <time>2015-06-01T12:51:00.872Z</time>
      </trkpt>
      <trkpt lat="49.66387" lon="3.71902">
        <ele>133.5</ele>
        <time>2015-06-01T12:51:01.880Z</time>
      </trkpt>
      <trkpt lat="49.66384" lon="3.71915">
        <ele>133.8</ele>
        <time>2015-06-01T12:51:08.840Z</time>
      </trkpt>
      <trkpt lat="49.66384" lon="3.71916">
        <ele>133.8</ele>
        <time>2015-06-01T12:51:09.874Z</time>
      </trkpt>
      <trkpt lat="49.66381" lon="3.71929">
        <ele>133.9</ele>
        <time>2015-06-01T12:51:16.826Z</time>
      </trkpt>
      <trkpt lat="49.6638" lon="3.7193">
        <ele>134</ele>
        <time>2015-06-01T12:51:17.841Z</time>
      </trkpt>
      <trkpt lat="49.66378" lon="3.71943">
        <ele>134.6</ele>
        <time>2015-06-01T12:51:25.866Z</time>
      </trkpt>
      <trkpt lat="49.66377" lon="3.71945">
        <ele>134.7</ele>
        <time>2015-06-01T12:51:26.879Z</time>
      </trkpt>
      <trkpt lat="49.66375" lon="3.71958">
        <ele>135.4</ele>
        <time>2015-06-01T12:51:34.857Z</time>
      </trkpt>
      <trkpt lat="49.66375" lon="3.7196">
        <ele>135.5</ele>
        <time>2015-06-01T12:51:35.879Z</time>
      </trkpt>
      <trkpt lat="49.66367" lon="3.71966">
        <ele>135.9</ele>
        <time>2015-06-01T12:51:45.941Z</time>
      </trkpt>
      <trkpt lat="49.66366" lon="3.71966">
        <ele>135.6</ele>
        <time>2015-06-01T12:51:46.843Z</time>
      </trkpt>
      <trkpt lat="49.66358" lon="3.71962">
        <ele>135.7</ele>
        <time>2015-06-01T12:51:54.828Z</time>
      </trkpt>
      <trkpt lat="49.66357" lon="3.71962">
        <ele>135.7</ele>
        <time>2015-06-01T12:51:55.886Z</time>
      </trkpt>
      <trkpt lat="49.66349" lon="3.71958">
        <ele>135.5</ele>
        <time>2015-06-01T12:52:06.924Z</time>
      </trkpt>
      <trkpt lat="49.66348" lon="3.71957">
        <ele>135.5</ele>
        <time>2015-06-01T12:52:07.948Z</time>
      </trkpt>
      <trkpt lat="49.66339" lon="3.71954">
        <ele>135.5</ele>
        <time>2015-06-01T12:52:18.091Z</time>
      </trkpt>
      <trkpt lat="49.66338" lon="3.71953">
        <ele>135.5</ele>
        <time>2015-06-01T12:52:18.867Z</time>
      </trkpt>
      <trkpt lat="49.66331" lon="3.7195">
        <ele>136.2</ele>
        <time>2015-06-01T12:52:26.887Z</time>
      </trkpt>
      <trkpt lat="49.6633" lon="3.7195">
        <ele>136.3</ele>
        <time>2015-06-01T12:52:27.886Z</time>
      </trkpt>
      <trkpt lat="49.66321" lon="3.71945">
        <ele>136.5</ele>
        <time>2015-06-01T12:52:36.887Z</time>
      </trkpt>
      <trkpt lat="49.6632" lon="3.71945">
        <ele>136.6</ele>
        <time>2015-06-01T12:52:37.895Z</time>
      </trkpt>
      <trkpt lat="49.66312" lon="3.71942">
        <ele>137.2</ele>
        <time>2015-06-01T12:52:45.914Z</time>
      </trkpt>
      <trkpt lat="49.66311" lon="3.71942">
        <ele>137.3</ele>
        <time>2015-06-01T12:52:46.831Z</time>
      </trkpt>
      <trkpt lat="49.66304" lon="3.71938">
        <ele>137.6</ele>
        <time>2015-06-01T12:52:54.825Z</time>
      </trkpt>
      <trkpt lat="49.66303" lon="3.71937">
        <ele>137.7</ele>
        <time>2015-06-01T12:52:55.886Z</time>
      </trkpt>
      <trkpt lat="49.66294" lon="3.71934">
        <ele>138.4</ele>
        <time>2015-06-01T12:53:05.826Z</time>
      </trkpt>
      <trkpt lat="49.66293" lon="3.71934">
        <ele>138.5</ele>
        <time>2015-06-01T12:53:06.839Z</time>
      </trkpt>
      <trkpt lat="49.66285" lon="3.71931">
        <ele>138.3</ele>
        <time>2015-06-01T12:53:14.838Z</time>
      </trkpt>
      <trkpt lat="49.66284" lon="3.71931">
        <ele>138.2</ele>
        <time>2015-06-01T12:53:15.844Z</time>
      </trkpt>
      <trkpt lat="49.66275" lon="3.71928">
        <ele>139.1</ele>
        <time>2015-06-01T12:53:24.886Z</time>
      </trkpt>
      <trkpt lat="49.66274" lon="3.71927">
        <ele>139.4</ele>
        <time>2015-06-01T12:53:25.871Z</time>
      </trkpt>
      <trkpt lat="49.66266" lon="3.71924">
        <ele>140.6</ele>
        <time>2015-06-01T12:53:33.857Z</time>
      </trkpt>
      <trkpt lat="49.66265" lon="3.71924">
        <ele>140.8</ele>
        <time>2015-06-01T12:53:34.869Z</time>
      </trkpt>
      <trkpt lat="49.66256" lon="3.71922">
        <ele>140.7</ele>
        <time>2015-06-01T12:53:43.920Z</time>
      </trkpt>
      <trkpt lat="49.66255" lon="3.71922">
        <ele>140.7</ele>
        <time>2015-06-01T12:53:44.929Z</time>
      </trkpt>
      <trkpt lat="49.66246" lon="3.71922">
        <ele>140.8</ele>
        <time>2015-06-01T12:53:53.923Z</time>
      </trkpt>
      <trkpt lat="49.66245" lon="3.71923">
        <ele>140.8</ele>
        <time>2015-06-01T12:53:54.931Z</time>
      </trkpt>
      <trkpt lat="49.66237" lon="3.71926">
        <ele>141.4</ele>
        <time>2015-06-01T12:54:03.908Z</time>
      </trkpt>
      <trkpt lat="49.66236" lon="3.71927">
        <ele>141.4</ele>
        <time>2015-06-01T12:54:04.913Z</time>
      </trkpt>
      <trkpt lat="49.66228" lon="3.71931">
        <ele>142</ele>
        <time>2015-06-01T12:54:13.887Z</time>
      </trkpt>
      <trkpt lat="49.66227" lon="3.71932">
        <ele>142</ele>
        <time>2015-06-01T12:54:14.901Z</time>
      </trkpt>
      <trkpt lat="49.66219" lon="3.71936">
        <ele>142.3</ele>
        <time>2015-06-01T12:54:23.913Z</time>
      </trkpt>
      <trkpt lat="49.66218" lon="3.71936">
        <ele>142.3</ele>
        <time>2015-06-01T12:54:24.965Z</time>
      </trkpt>
      <trkpt lat="49.6621" lon="3.71942">
        <ele>142.7</ele>
        <time>2015-06-01T12:54:35.878Z</time>
      </trkpt>
      <trkpt lat="49.66209" lon="3.71942">
        <ele>142.7</ele>
        <time>2015-06-01T12:54:36.845Z</time>
      </trkpt>
      <trkpt lat="49.66201" lon="3.71948">
        <ele>142.4</ele>
        <time>2015-06-01T12:54:46.841Z</time>
      </trkpt>
      <trkpt lat="49.662" lon="3.71948">
        <ele>142.3</ele>
        <time>2015-06-01T12:54:47.855Z</time>
      </trkpt>
      <trkpt lat="49.66192" lon="3.71953">
        <ele>142.4</ele>
        <time>2015-06-01T12:54:55.952Z</time>
      </trkpt>
      <trkpt lat="49.66191" lon="3.71954">
        <ele>142.3</ele>
        <time>2015-06-01T12:54:56.851Z</time>
      </trkpt>
      <trkpt lat="49.66183" lon="3.71959">
        <ele>142.8</ele>
        <time>2015-06-01T12:55:05.905Z</time>
      </trkpt>
      <trkpt lat="49.66183" lon="3.71959">
        <ele>142.9</ele>
        <time>2015-06-01T12:55:06.907Z</time>
      </trkpt>
      <trkpt lat="49.66175" lon="3.71965">
        <ele>143.2</ele>
        <time>2015-06-01T12:55:15.849Z</time>
      </trkpt>
      <trkpt lat="49.66173" lon="3.71965">
        <ele>143.3</ele>
        <time>2015-06-01T12:55:16.933Z</time>
      </trkpt>
      <trkpt lat="49.66166" lon="3.71971">
        <ele>143.4</ele>
        <time>2015-06-01T12:55:25.895Z</time>
      </trkpt>
      <trkpt lat="49.66165" lon="3.71972">
        <ele>143.5</ele>
        <time>2015-06-01T12:55:26.917Z</time>
      </trkpt>
      <trkpt lat="49.66157" lon="3.71977">
        <ele>143.8</ele>
        <time>2015-06-01T12:55:35.838Z</time>
      </trkpt>
      <trkpt lat="49.66156" lon="3.71977">
        <ele>143.8</ele>
        <time>2015-06-01T12:55:36.849Z</time>
      </trkpt>
      <trkpt lat="49.66148" lon="3.71982">
        <ele>143.9</ele>
        <time>2015-06-01T12:55:46.874Z</time>
      </trkpt>
      <trkpt lat="49.66147" lon="3.71983">
        <ele>143.8</ele>
        <time>2015-06-01T12:55:47.855Z</time>
      </trkpt>
      <trkpt lat="49.66142" lon="3.71986">
        <ele>144</ele>
        <time>2015-06-01T12:55:54.831Z</time>
      </trkpt>
      <trkpt lat="49.66142" lon="3.71986">
        <ele>144</ele>
        <time>2015-06-01T12:55:55.869Z</time>
      </trkpt>
      <trkpt lat="49.66142" lon="3.71986">
        <ele>143.9</ele>
        <time>2015-06-01T12:56:15.864Z</time>
      </trkpt>
      <trkpt lat="49.6614" lon="3.71988">
        <ele>143.4</ele>
        <time>2015-06-01T12:56:16.879Z</time>
      </trkpt>
      <trkpt lat="49.66139" lon="3.71989">
        <ele>143.4</ele>
        <time>2015-06-01T12:56:19.932Z</time>
      </trkpt>
      <trkpt lat="49.66138" lon="3.7199">
        <ele>143.3</ele>
        <time>2015-06-01T12:56:20.833Z</time>
      </trkpt>
      <trkpt lat="49.66139" lon="3.71989">
        <ele>143.3</ele>
        <time>2015-06-01T12:56:23.840Z</time>
      </trkpt>
      <trkpt lat="49.66138" lon="3.71989">
        <ele>143.3</ele>
        <time>2015-06-01T12:56:24.861Z</time>
      </trkpt>
      <trkpt lat="49.6613" lon="3.71995">
        <ele>143.4</ele>
        <time>2015-06-01T12:56:38.929Z</time>
      </trkpt>
      <trkpt lat="49.66129" lon="3.71996">
        <ele>143.4</ele>
        <time>2015-06-01T12:56:39.935Z</time>
      </trkpt>
      <trkpt lat="49.66123" lon="3.72">
        <ele>143.2</ele>
        <time>2015-06-01T12:56:49.878Z</time>
      </trkpt>
      <trkpt lat="49.66123" lon="3.72001">
        <ele>143.2</ele>
        <time>2015-06-01T12:56:50.885Z</time>
      </trkpt>
      <trkpt lat="49.66123" lon="3.72001">
        <ele>143.2</ele>
        <time>2015-06-01T12:56:55.860Z</time>
      </trkpt>
      <trkpt lat="49.66122" lon="3.72001">
        <ele>143.3</ele>
        <time>2015-06-01T12:56:56.892Z</time>
      </trkpt>
      <trkpt lat="49.66114" lon="3.72006">
        <ele>143.3</ele>
        <time>2015-06-01T12:57:06.832Z</time>
      </trkpt>
      <trkpt lat="49.66113" lon="3.72006">
        <ele>143.3</ele>
        <time>2015-06-01T12:57:07.931Z</time>
      </trkpt>
      <trkpt lat="49.66105" lon="3.72011">
        <ele>143.1</ele>
        <time>2015-06-01T12:57:16.918Z</time>
      </trkpt>
      <trkpt lat="49.66105" lon="3.72012">
        <ele>143.2</ele>
        <time>2015-06-01T12:57:17.835Z</time>
      </trkpt>
      <trkpt lat="49.66103" lon="3.72014">
        <ele>143.4</ele>
        <time>2015-06-01T12:57:20.884Z</time>
      </trkpt>
      <trkpt lat="49.66103" lon="3.72014">
        <ele>143.3</ele>
        <time>2015-06-01T12:57:21.897Z</time>
      </trkpt>
      <trkpt lat="49.66103" lon="3.72014">
        <ele>143.3</ele>
        <time>2015-06-01T12:57:22.912Z</time>
      </trkpt>
      <trkpt lat="49.66094" lon="3.72019">
        <ele>143.4</ele>
        <time>2015-06-01T12:57:32.886Z</time>
      </trkpt>
      <trkpt lat="49.66094" lon="3.7202">
        <ele>143.4</ele>
        <time>2015-06-01T12:57:33.896Z</time>
      </trkpt>
      <trkpt lat="49.66086" lon="3.72024">
        <ele>143.3</ele>
        <time>2015-06-01T12:57:42.892Z</time>
      </trkpt>
      <trkpt lat="49.66085" lon="3.72025">
        <ele>143.2</ele>
        <time>2015-06-01T12:57:43.920Z</time>
      </trkpt>
      <trkpt lat="49.66078" lon="3.7203">
        <ele>143.1</ele>
        <time>2015-06-01T12:57:52.892Z</time>
      </trkpt>
      <trkpt lat="49.66077" lon="3.72031">
        <ele>143</ele>
        <time>2015-06-01T12:57:53.913Z</time>
      </trkpt>
      <trkpt lat="49.66069" lon="3.72036">
        <ele>142.7</ele>
        <time>2015-06-01T12:58:03.934Z</time>
      </trkpt>
      <trkpt lat="49.66068" lon="3.72037">
        <ele>142.6</ele>
        <time>2015-06-01T12:58:04.910Z</time>
      </trkpt>
      <trkpt lat="49.6606" lon="3.72042">
        <ele>142.5</ele>
        <time>2015-06-01T12:58:14.866Z</time>
      </trkpt>
      <trkpt lat="49.6606" lon="3.72043">
        <ele>142.5</ele>
        <time>2015-06-01T12:58:15.927Z</time>
      </trkpt>
      <trkpt lat="49.66052" lon="3.72047">
        <ele>142</ele>
        <time>2015-06-01T12:58:24.835Z</time>
      </trkpt>
      <trkpt lat="49.66051" lon="3.72048">
        <ele>142</ele>
        <time>2015-06-01T12:58:25.940Z</time>
      </trkpt>
      <trkpt lat="49.66042" lon="3.72054">
        <ele>141.9</ele>
        <time>2015-06-01T12:58:32.893Z</time>
      </trkpt>
      <trkpt lat="49.66041" lon="3.72055">
        <ele>141.9</ele>
        <time>2015-06-01T12:58:33.908Z</time>
      </trkpt>
      <trkpt lat="49.66033" lon="3.72059">
        <ele>142</ele>
        <time>2015-06-01T12:58:39.917Z</time>
      </trkpt>
      <trkpt lat="49.66032" lon="3.7206">
        <ele>141.9</ele>
        <time>2015-06-01T12:58:40.929Z</time>
      </trkpt>
      <trkpt lat="49.66024" lon="3.72062">
        <ele>141.9</ele>
        <time>2015-06-01T12:58:47.832Z</time>
      </trkpt>
      <trkpt lat="49.66023" lon="3.72063">
        <ele>141.9</ele>
        <time>2015-06-01T12:58:48.849Z</time>
      </trkpt>
      <trkpt lat="49.66015" lon="3.72066">
        <ele>142.3</ele>
        <time>2015-06-01T12:58:55.945Z</time>
      </trkpt>
      <trkpt lat="49.66013" lon="3.72066">
        <ele>142.3</ele>
        <time>2015-06-01T12:58:56.837Z</time>
      </trkpt>
      <trkpt lat="49.66006" lon="3.72072">
        <ele>141.6</ele>
        <time>2015-06-01T12:59:02.887Z</time>
      </trkpt>
      <trkpt lat="49.66005" lon="3.72073">
        <ele>141.7</ele>
        <time>2015-06-01T12:59:03.912Z</time>
      </trkpt>
      <trkpt lat="49.65996" lon="3.72077">
        <ele>141.6</ele>
        <time>2015-06-01T12:59:13.922Z</time>
      </trkpt>
      <trkpt lat="49.65995" lon="3.72077">
        <ele>141.6</ele>
        <time>2015-06-01T12:59:14.941Z</time>
      </trkpt>
      <trkpt lat="49.65987" lon="3.72082">
        <ele>140.7</ele>
        <time>2015-06-01T12:59:24.926Z</time>
      </trkpt>
      <trkpt lat="49.65986" lon="3.72083">
        <ele>140.5</ele>
        <time>2015-06-01T12:59:25.931Z</time>
      </trkpt>
      <trkpt lat="49.65978" lon="3.72088">
        <ele>140.6</ele>
        <time>2015-06-01T12:59:31.881Z</time>
      </trkpt>
      <trkpt lat="49.65976" lon="3.72089">
        <ele>140.5</ele>
        <time>2015-06-01T12:59:32.894Z</time>
      </trkpt>
      <trkpt lat="49.65969" lon="3.72094">
        <ele>140.6</ele>
        <time>2015-06-01T12:59:39.913Z</time>
      </trkpt>
      <trkpt lat="49.65968" lon="3.72095">
        <ele>140.5</ele>
        <time>2015-06-01T12:59:40.955Z</time>
      </trkpt>
      <trkpt lat="49.65961" lon="3.721">
        <ele>140.1</ele>
        <time>2015-06-01T12:59:47.897Z</time>
      </trkpt>
      <trkpt lat="49.65959" lon="3.72101">
        <ele>140</ele>
        <time>2015-06-01T12:59:48.911Z</time>
      </trkpt>
      <trkpt lat="49.65952" lon="3.72106">
        <ele>140.1</ele>
        <time>2015-06-01T12:59:54.877Z</time>
      </trkpt>
      <trkpt lat="49.65951" lon="3.72107">
        <ele>140.1</ele>
        <time>2015-06-01T12:59:55.887Z</time>
      </trkpt>
      <trkpt lat="49.65943" lon="3.72111">
        <ele>139.6</ele>
        <time>2015-06-01T13:00:01.887Z</time>
      </trkpt>
      <trkpt lat="49.65942" lon="3.72112">
        <ele>139.5</ele>
        <time>2015-06-01T13:00:02.897Z</time>
      </trkpt>
      <trkpt lat="49.65934" lon="3.72117">
        <ele>138.7</ele>
        <time>2015-06-01T13:00:09.846Z</time>
      </trkpt>
      <trkpt lat="49.65933" lon="3.72118">
        <ele>138.9</ele>
        <time>2015-06-01T13:00:10.875Z</time>
      </trkpt>
      <trkpt lat="49.65925" lon="3.72124">
        <ele>138.7</ele>
        <time>2015-06-01T13:00:18.915Z</time>
      </trkpt>
      <trkpt lat="49.65925" lon="3.72125">
        <ele>138.6</ele>
        <time>2015-06-01T13:00:20.110Z</time>
      </trkpt>
      <trkpt lat="49.65917" lon="3.7213">
        <ele>137.5</ele>
        <time>2015-06-01T13:00:28.925Z</time>
      </trkpt>
      <trkpt lat="49.65916" lon="3.7213">
        <ele>137.4</ele>
        <time>2015-06-01T13:00:29.847Z</time>
      </trkpt>
      <trkpt lat="49.65909" lon="3.72136">
        <ele>136.9</ele>
        <time>2015-06-01T13:00:35.918Z</time>
      </trkpt>
      <trkpt lat="49.65908" lon="3.72136">
        <ele>136.7</ele>
        <time>2015-06-01T13:00:36.822Z</time>
      </trkpt>
      <trkpt lat="49.659" lon="3.72141">
        <ele>136.3</ele>
        <time>2015-06-01T13:00:45.887Z</time>
      </trkpt>
      <trkpt lat="49.65899" lon="3.72142">
        <ele>136.2</ele>
        <time>2015-06-01T13:00:46.910Z</time>
      </trkpt>
      <trkpt lat="49.65891" lon="3.72146">
        <ele>136</ele>
        <time>2015-06-01T13:00:54.882Z</time>
      </trkpt>
      <trkpt lat="49.6589" lon="3.72146">
        <ele>136</ele>
        <time>2015-06-01T13:00:55.897Z</time>
      </trkpt>
      <trkpt lat="49.65882" lon="3.72151">
        <ele>135.8</ele>
        <time>2015-06-01T13:01:02.884Z</time>
      </trkpt>
      <trkpt lat="49.65881" lon="3.72152">
        <ele>135.8</ele>
        <time>2015-06-01T13:01:03.890Z</time>
      </trkpt>
      <trkpt lat="49.65873" lon="3.72156">
        <ele>135.1</ele>
        <time>2015-06-01T13:01:10.918Z</time>
      </trkpt>
      <trkpt lat="49.65872" lon="3.72157">
        <ele>134.9</ele>
        <time>2015-06-01T13:01:11.934Z</time>
      </trkpt>
      <trkpt lat="49.65865" lon="3.72162">
        <ele>134.8</ele>
        <time>2015-06-01T13:01:19.894Z</time>
      </trkpt>
      <trkpt lat="49.65864" lon="3.72163">
        <ele>134.8</ele>
        <time>2015-06-01T13:01:20.906Z</time>
      </trkpt>
      <trkpt lat="49.65857" lon="3.72168">
        <ele>134.8</ele>
        <time>2015-06-01T13:01:27.886Z</time>
      </trkpt>
      <trkpt lat="49.65856" lon="3.72169">
        <ele>134.7</ele>
        <time>2015-06-01T13:01:28.896Z</time>
      </trkpt>
      <trkpt lat="49.65848" lon="3.72175">
        <ele>134.5</ele>
        <time>2015-06-01T13:01:35.839Z</time>
      </trkpt>
      <trkpt lat="49.65847" lon="3.72175">
        <ele>134.6</ele>
        <time>2015-06-01T13:01:36.864Z</time>
      </trkpt>
      <trkpt lat="49.65841" lon="3.72177">
        <ele>134.3</ele>
        <time>2015-06-01T13:01:43.876Z</time>
      </trkpt>
      <trkpt lat="49.65841" lon="3.72177">
        <ele>134.4</ele>
        <time>2015-06-01T13:01:44.880Z</time>
      </trkpt>
      <trkpt lat="49.65842" lon="3.72177">
        <ele>134.1</ele>
        <time>2015-06-01T13:02:14.873Z</time>
      </trkpt>
      <trkpt lat="49.65843" lon="3.72175">
        <ele>132.1</ele>
        <time>2015-06-01T13:02:15.881Z</time>
      </trkpt>
      <trkpt lat="49.65843" lon="3.72174">
        <ele>132</ele>
        <time>2015-06-01T13:02:16.919Z</time>
      </trkpt>
      <trkpt lat="49.65843" lon="3.72174">
        <ele>131.9</ele>
        <time>2015-06-01T13:02:17.945Z</time>
      </trkpt>
      <trkpt lat="49.65843" lon="3.72174">
        <ele>131.9</ele>
        <time>2015-06-01T13:02:35.820Z</time>
      </trkpt>
      <trkpt lat="49.65843" lon="3.72173">
        <ele>132</ele>
        <time>2015-06-01T13:02:36.827Z</time>
      </trkpt>
      <trkpt lat="49.65839" lon="3.72177">
        <ele>130.7</ele>
        <time>2015-06-01T13:02:46.842Z</time>
      </trkpt>
      <trkpt lat="49.65839" lon="3.72177">
        <ele>130.8</ele>
        <time>2015-06-01T13:02:47.853Z</time>
      </trkpt>
      <trkpt lat="49.65839" lon="3.72178">
        <ele>130.8</ele>
        <time>2015-06-01T13:02:48.868Z</time>
      </trkpt>
      <trkpt lat="49.65839" lon="3.72178">
        <ele>130.8</ele>
        <time>2015-06-01T13:02:49.885Z</time>
      </trkpt>
      <trkpt lat="49.65839" lon="3.72178">
        <ele>130.7</ele>
        <time>2015-06-01T13:02:54.847Z</time>
      </trkpt>
      <trkpt lat="49.65839" lon="3.72178">
        <ele>130.4</ele>
        <time>2015-06-01T13:02:55.882Z</time>
      </trkpt>
      <trkpt lat="49.65842" lon="3.7219">
        <ele>129.1</ele>
        <time>2015-06-01T13:03:07.947Z</time>
      </trkpt>
      <trkpt lat="49.65843" lon="3.72191">
        <ele>129.1</ele>
        <time>2015-06-01T13:03:08.855Z</time>
      </trkpt>
      <trkpt lat="49.65847" lon="3.72202">
        <ele>128.9</ele>
        <time>2015-06-01T13:03:17.829Z</time>
      </trkpt>
      <trkpt lat="49.65848" lon="3.72203">
        <ele>128.8</ele>
        <time>2015-06-01T13:03:18.848Z</time>
      </trkpt>
      <trkpt lat="49.65853" lon="3.72213">
        <ele>127.7</ele>
        <time>2015-06-01T13:03:26.912Z</time>
      </trkpt>
      <trkpt lat="49.65853" lon="3.72214">
        <ele>127.7</ele>
        <time>2015-06-01T13:03:27.928Z</time>
      </trkpt>
      <trkpt lat="49.65857" lon="3.72225">
        <ele>127.7</ele>
        <time>2015-06-01T13:03:35.887Z</time>
      </trkpt>
      <trkpt lat="49.65858" lon="3.72226">
        <ele>127.6</ele>
        <time>2015-06-01T13:03:36.918Z</time>
      </trkpt>
      <trkpt lat="49.65863" lon="3.72238">
        <ele>126.3</ele>
        <time>2015-06-01T13:03:45.910Z</time>
      </trkpt>
      <trkpt lat="49.65863" lon="3.72239">
        <ele>126.1</ele>
        <time>2015-06-01T13:03:46.910Z</time>
      </trkpt>
      <trkpt lat="49.65867" lon="3.7225">
        <ele>125.7</ele>
        <time>2015-06-01T13:03:53.914Z</time>
      </trkpt>
      <trkpt lat="49.65868" lon="3.72252">
        <ele>125.8</ele>
        <time>2015-06-01T13:03:54.834Z</time>
      </trkpt>
      <trkpt lat="49.65871" lon="3.72263">
        <ele>125.7</ele>
        <time>2015-06-01T13:04:01.911Z</time>
      </trkpt>
      <trkpt lat="49.65872" lon="3.72265">
        <ele>125.8</ele>
        <time>2015-06-01T13:04:02.834Z</time>
      </trkpt>
      <trkpt lat="49.65875" lon="3.72275">
        <ele>125.6</ele>
        <time>2015-06-01T13:04:09.872Z</time>
      </trkpt>
      <trkpt lat="49.65876" lon="3.72277">
        <ele>125.6</ele>
        <time>2015-06-01T13:04:10.877Z</time>
      </trkpt>
      <trkpt lat="49.6588" lon="3.72288">
        <ele>125.6</ele>
        <time>2015-06-01T13:04:17.848Z</time>
      </trkpt>
      <trkpt lat="49.65881" lon="3.7229">
        <ele>125.7</ele>
        <time>2015-06-01T13:04:18.858Z</time>
      </trkpt>
      <trkpt lat="49.65884" lon="3.72302">
        <ele>125.8</ele>
        <time>2015-06-01T13:04:26.895Z</time>
      </trkpt>
      <trkpt lat="49.65885" lon="3.72303">
        <ele>125.8</ele>
        <time>2015-06-01T13:04:27.890Z</time>
      </trkpt>
      <trkpt lat="49.65889" lon="3.72313">
        <ele>125.2</ele>
        <time>2015-06-01T13:04:35.922Z</time>
      </trkpt>
      <trkpt lat="49.6589" lon="3.72315">
        <ele>125.4</ele>
        <time>2015-06-01T13:04:36.913Z</time>
      </trkpt>
      <trkpt lat="49.65894" lon="3.72326">
        <ele>124.8</ele>
        <time>2015-06-01T13:04:43.866Z</time>
      </trkpt>
      <trkpt lat="49.65895" lon="3.72328">
        <ele>124.8</ele>
        <time>2015-06-01T13:04:44.868Z</time>
      </trkpt>
      <trkpt lat="49.65898" lon="3.7234">
        <ele>124.4</ele>
        <time>2015-06-01T13:04:51.905Z</time>
      </trkpt>
      <trkpt lat="49.65899" lon="3.72341">
        <ele>124.3</ele>
        <time>2015-06-01T13:04:52.833Z</time>
      </trkpt>
      <trkpt lat="49.65903" lon="3.72353">
        <ele>123.4</ele>
        <time>2015-06-01T13:05:00.828Z</time>
      </trkpt>
      <trkpt lat="49.65904" lon="3.72354">
        <ele>123.4</ele>
        <time>2015-06-01T13:05:01.876Z</time>
      </trkpt>
      <trkpt lat="49.65908" lon="3.72365">
        <ele>123.3</ele>
        <time>2015-06-01T13:05:09.899Z</time>
      </trkpt>
      <trkpt lat="49.65909" lon="3.72366">
        <ele>123.3</ele>
        <time>2015-06-01T13:05:10.941Z</time>
      </trkpt>
      <trkpt lat="49.65912" lon="3.72378">
        <ele>123.3</ele>
        <time>2015-06-01T13:05:17.898Z</time>
      </trkpt>
      <trkpt lat="49.65913" lon="3.72379">
        <ele>123.3</ele>
        <time>2015-06-01T13:05:18.910Z</time>
      </trkpt>
      <trkpt lat="49.65916" lon="3.7239">
        <ele>123.6</ele>
        <time>2015-06-01T13:05:25.880Z</time>
      </trkpt>
      <trkpt lat="49.65917" lon="3.72392">
        <ele>123.8</ele>
        <time>2015-06-01T13:05:26.868Z</time>
      </trkpt>
      <trkpt lat="49.65921" lon="3.72403">
        <ele>124.2</ele>
        <time>2015-06-01T13:05:33.841Z</time>
      </trkpt>
      <trkpt lat="49.65921" lon="3.72405">
        <ele>124.3</ele>
        <time>2015-06-01T13:05:34.848Z</time>
      </trkpt>
      <trkpt lat="49.65926" lon="3.72415">
        <ele>124.6</ele>
        <time>2015-06-01T13:05:42.838Z</time>
      </trkpt>
      <trkpt lat="49.65926" lon="3.72417">
        <ele>124.5</ele>
        <time>2015-06-01T13:05:43.876Z</time>
      </trkpt>
      <trkpt lat="49.6593" lon="3.72428">
        <ele>124.9</ele>
        <time>2015-06-01T13:05:50.879Z</time>
      </trkpt>
      <trkpt lat="49.65931" lon="3.7243">
        <ele>125</ele>
        <time>2015-06-01T13:05:51.886Z</time>
      </trkpt>
      <trkpt lat="49.65935" lon="3.7244">
        <ele>125.2</ele>
        <time>2015-06-01T13:05:58.833Z</time>
      </trkpt>
      <trkpt lat="49.65936" lon="3.72441">
        <ele>124.9</ele>
        <time>2015-06-01T13:05:59.887Z</time>
      </trkpt>
      <trkpt lat="49.65941" lon="3.72451">
        <ele>124.9</ele>
        <time>2015-06-01T13:06:07.870Z</time>
      </trkpt>
      <trkpt lat="49.65942" lon="3.72452">
        <ele>124.9</ele>
        <time>2015-06-01T13:06:08.862Z</time>
      </trkpt>
      <trkpt lat="49.65945" lon="3.72464">
        <ele>125</ele>
        <time>2015-06-01T13:06:15.832Z</time>
      </trkpt>
      <trkpt lat="49.65945" lon="3.72466">
        <ele>125.1</ele>
        <time>2015-06-01T13:06:16.842Z</time>
      </trkpt>
      <trkpt lat="49.65949" lon="3.72478">
        <ele>125.4</ele>
        <time>2015-06-01T13:06:23.842Z</time>
      </trkpt>
      <trkpt lat="49.6595" lon="3.7248">
        <ele>125.6</ele>
        <time>2015-06-01T13:06:24.841Z</time>
      </trkpt>
      <trkpt lat="49.65952" lon="3.72492">
        <ele>127</ele>
        <time>2015-06-01T13:06:30.825Z</time>
      </trkpt>
      <trkpt lat="49.65952" lon="3.72494">
        <ele>127.1</ele>
        <time>2015-06-01T13:06:31.929Z</time>
      </trkpt>
      <trkpt lat="49.65956" lon="3.72504">
        <ele>127.2</ele>
        <time>2015-06-01T13:06:37.895Z</time>
      </trkpt>
      <trkpt lat="49.65957" lon="3.72506">
        <ele>127.3</ele>
        <time>2015-06-01T13:06:38.909Z</time>
      </trkpt>
      <trkpt lat="49.65961" lon="3.72518">
        <ele>127.7</ele>
        <time>2015-06-01T13:06:46.834Z</time>
      </trkpt>
      <trkpt lat="49.65961" lon="3.7252">
        <ele>127.8</ele>
        <time>2015-06-01T13:06:47.831Z</time>
      </trkpt>
      <trkpt lat="49.65965" lon="3.72531">
        <ele>128.4</ele>
        <time>2015-06-01T13:06:54.895Z</time>
      </trkpt>
      <trkpt lat="49.65966" lon="3.72533">
        <ele>128.4</ele>
        <time>2015-06-01T13:06:55.905Z</time>
      </trkpt>
      <trkpt lat="49.65969" lon="3.72544">
        <ele>128.7</ele>
        <time>2015-06-01T13:07:03.885Z</time>
      </trkpt>
      <trkpt lat="49.6597" lon="3.72546">
        <ele>128.5</ele>
        <time>2015-06-01T13:07:04.896Z</time>
      </trkpt>
      <trkpt lat="49.65974" lon="3.72558">
        <ele>128.7</ele>
        <time>2015-06-01T13:07:12.887Z</time>
      </trkpt>
      <trkpt lat="49.65974" lon="3.72559">
        <ele>128.7</ele>
        <time>2015-06-01T13:07:13.914Z</time>
      </trkpt>
      <trkpt lat="49.65978" lon="3.72572">
        <ele>129.1</ele>
        <time>2015-06-01T13:07:21.829Z</time>
      </trkpt>
      <trkpt lat="49.65979" lon="3.72574">
        <ele>129.2</ele>
        <time>2015-06-01T13:07:22.830Z</time>
      </trkpt>
      <trkpt lat="49.65983" lon="3.72585">
        <ele>129.8</ele>
        <time>2015-06-01T13:07:30.845Z</time>
      </trkpt>
      <trkpt lat="49.65984" lon="3.72586">
        <ele>129.8</ele>
        <time>2015-06-01T13:07:31.882Z</time>
      </trkpt>
      <trkpt lat="49.65989" lon="3.72597">
        <ele>129.8</ele>
        <time>2015-06-01T13:07:41.824Z</time>
      </trkpt>
      <trkpt lat="49.6599" lon="3.72599">
        <ele>129.5</ele>
        <time>2015-06-01T13:07:42.834Z</time>
      </trkpt>
      <trkpt lat="49.65993" lon="3.7261">
        <ele>129.6</ele>
        <time>2015-06-01T13:07:50.017Z</time>
      </trkpt>
      <trkpt lat="49.65993" lon="3.72612">
        <ele>129.7</ele>
        <time>2015-06-01T13:07:50.829Z</time>
      </trkpt>
      <trkpt lat="49.65996" lon="3.72623">
        <ele>130</ele>
        <time>2015-06-01T13:07:57.887Z</time>
      </trkpt>
      <trkpt lat="49.65997" lon="3.72625">
        <ele>129.9</ele>
        <time>2015-06-01T13:07:58.894Z</time>
      </trkpt>
      <trkpt lat="49.66001" lon="3.72635">
        <ele>130.2</ele>
        <time>2015-06-01T13:08:04.868Z</time>
      </trkpt>
      <trkpt lat="49.66002" lon="3.72637">
        <ele>130.1</ele>
        <time>2015-06-01T13:08:05.867Z</time>
      </trkpt>
      <trkpt lat="49.66005" lon="3.72647">
        <ele>129.6</ele>
        <time>2015-06-01T13:08:11.846Z</time>
      </trkpt>
      <trkpt lat="49.66006" lon="3.72649">
        <ele>129.6</ele>
        <time>2015-06-01T13:08:12.853Z</time>
      </trkpt>
      <trkpt lat="49.6601" lon="3.72659">
        <ele>130.3</ele>
        <time>2015-06-01T13:08:18.836Z</time>
      </trkpt>
      <trkpt lat="49.6601" lon="3.72661">
        <ele>130.2</ele>
        <time>2015-06-01T13:08:19.884Z</time>
      </trkpt>
      <trkpt lat="49.66014" lon="3.72672">
        <ele>130</ele>
        <time>2015-06-01T13:08:26.872Z</time>
      </trkpt>
      <trkpt lat="49.66015" lon="3.72673">
        <ele>130.1</ele>
        <time>2015-06-01T13:08:27.877Z</time>
      </trkpt>
      <trkpt lat="49.66019" lon="3.72684">
        <ele>129.8</ele>
        <time>2015-06-01T13:08:33.829Z</time>
      </trkpt>
      <trkpt lat="49.6602" lon="3.72685">
        <ele>129.8</ele>
        <time>2015-06-01T13:08:34.840Z</time>
      </trkpt>
      <trkpt lat="49.66023" lon="3.72696">
        <ele>129.9</ele>
        <time>2015-06-01T13:08:39.920Z</time>
      </trkpt>
      <trkpt lat="49.66024" lon="3.72698">
        <ele>130</ele>
        <time>2015-06-01T13:08:40.834Z</time>
      </trkpt>
      <trkpt lat="49.66028" lon="3.72709">
        <ele>130.3</ele>
        <time>2015-06-01T13:08:46.900Z</time>
      </trkpt>
      <trkpt lat="49.66028" lon="3.72711">
        <ele>130.3</ele>
        <time>2015-06-01T13:08:47.909Z</time>
      </trkpt>
      <trkpt lat="49.66033" lon="3.72722">
        <ele>130.6</ele>
        <time>2015-06-01T13:08:54.916Z</time>
      </trkpt>
      <trkpt lat="49.66034" lon="3.72723">
        <ele>130.5</ele>
        <time>2015-06-01T13:08:55.922Z</time>
      </trkpt>
      <trkpt lat="49.66039" lon="3.72735">
        <ele>130.3</ele>
        <time>2015-06-01T13:09:02.885Z</time>
      </trkpt>
      <trkpt lat="49.6604" lon="3.72736">
        <ele>130.3</ele>
        <time>2015-06-01T13:09:03.895Z</time>
      </trkpt>
      <trkpt lat="49.66043" lon="3.72748">
        <ele>130.6</ele>
        <time>2015-06-01T13:09:09.833Z</time>
      </trkpt>
      <trkpt lat="49.66044" lon="3.7275">
        <ele>130.6</ele>
        <time>2015-06-01T13:09:10.847Z</time>
      </trkpt>
      <trkpt lat="49.66048" lon="3.72762">
        <ele>130.4</ele>
        <time>2015-06-01T13:09:16.895Z</time>
      </trkpt>
      <trkpt lat="49.66049" lon="3.72764">
        <ele>130.5</ele>
        <time>2015-06-01T13:09:17.914Z</time>
      </trkpt>
      <trkpt lat="49.66054" lon="3.72774">
        <ele>130.3</ele>
        <time>2015-06-01T13:09:23.913Z</time>
      </trkpt>
      <trkpt lat="49.66055" lon="3.72776">
        <ele>130.3</ele>
        <time>2015-06-01T13:09:24.839Z</time>
      </trkpt>
      <trkpt lat="49.66059" lon="3.72787">
        <ele>130.8</ele>
        <time>2015-06-01T13:09:31.871Z</time>
      </trkpt>
      <trkpt lat="49.6606" lon="3.72789">
        <ele>130.8</ele>
        <time>2015-06-01T13:09:32.894Z</time>
      </trkpt>
      <trkpt lat="49.66063" lon="3.728">
        <ele>130.9</ele>
        <time>2015-06-01T13:09:38.864Z</time>
      </trkpt>
      <trkpt lat="49.66064" lon="3.72801">
        <ele>131</ele>
        <time>2015-06-01T13:09:39.870Z</time>
      </trkpt>
      <trkpt lat="49.66067" lon="3.72812">
        <ele>131.4</ele>
        <time>2015-06-01T13:09:45.840Z</time>
      </trkpt>
      <trkpt lat="49.66068" lon="3.72814">
        <ele>131.4</ele>
        <time>2015-06-01T13:09:46.844Z</time>
      </trkpt>
      <trkpt lat="49.66072" lon="3.72825">
        <ele>131.5</ele>
        <time>2015-06-01T13:09:51.890Z</time>
      </trkpt>
      <trkpt lat="49.66072" lon="3.72828">
        <ele>131.5</ele>
        <time>2015-06-01T13:09:52.833Z</time>
      </trkpt>
      <trkpt lat="49.66077" lon="3.72839">
        <ele>131.5</ele>
        <time>2015-06-01T13:09:58.831Z</time>
      </trkpt>
      <trkpt lat="49.66077" lon="3.72841">
        <ele>131.5</ele>
        <time>2015-06-01T13:09:59.839Z</time>
      </trkpt>
      <trkpt lat="49.66082" lon="3.72852">
        <ele>131.8</ele>
        <time>2015-06-01T13:10:05.842Z</time>
      </trkpt>
      <trkpt lat="49.66083" lon="3.72854">
        <ele>131.6</ele>
        <time>2015-06-01T13:10:06.818Z</time>
      </trkpt>
      <trkpt lat="49.66087" lon="3.72866">
        <ele>131.8</ele>
        <time>2015-06-01T13:10:13.933Z</time>
      </trkpt>
      <trkpt lat="49.66088" lon="3.72867">
        <ele>131.8</ele>
        <time>2015-06-01T13:10:14.901Z</time>
      </trkpt>
      <trkpt lat="49.66091" lon="3.72879">
        <ele>132.3</ele>
        <time>2015-06-01T13:10:18.158Z</time>
      </trkpt>
      <trkpt lat="49.66092" lon="3.72882">
        <ele>132.4</ele>
        <time>2015-06-01T13:10:21.880Z</time>
      </trkpt>
      <trkpt lat="49.66096" lon="3.72893">
        <ele>132.8</ele>
        <time>2015-06-01T13:10:27.931Z</time>
      </trkpt>
      <trkpt lat="49.66096" lon="3.72895">
        <ele>132.9</ele>
        <time>2015-06-01T13:10:28.863Z</time>
      </trkpt>
      <trkpt lat="49.661" lon="3.72907">
        <ele>133.4</ele>
        <time>2015-06-01T13:10:34.863Z</time>
      </trkpt>
      <trkpt lat="49.66101" lon="3.72908">
        <ele>133.5</ele>
        <time>2015-06-01T13:10:35.885Z</time>
      </trkpt>
      <trkpt lat="49.66106" lon="3.72917">
        <ele>133.5</ele>
        <time>2015-06-01T13:10:42.865Z</time>
      </trkpt>
      <trkpt lat="49.66107" lon="3.72919">
        <ele>133.6</ele>
        <time>2015-06-01T13:10:43.887Z</time>
      </trkpt>
      <trkpt lat="49.66111" lon="3.7293">
        <ele>133.3</ele>
        <time>2015-06-01T13:10:49.930Z</time>
      </trkpt>
      <trkpt lat="49.66111" lon="3.72932">
        <ele>133.1</ele>
        <time>2015-06-01T13:10:50.848Z</time>
      </trkpt>
      <trkpt lat="49.66115" lon="3.72944">
        <ele>133</ele>
        <time>2015-06-01T13:10:56.929Z</time>
      </trkpt>
      <trkpt lat="49.66115" lon="3.72946">
        <ele>133.2</ele>
        <time>2015-06-01T13:10:57.871Z</time>
      </trkpt>
      <trkpt lat="49.66119" lon="3.72958">
        <ele>133.7</ele>
        <time>2015-06-01T13:11:04.918Z</time>
      </trkpt>
      <trkpt lat="49.6612" lon="3.7296">
        <ele>133.7</ele>
        <time>2015-06-01T13:11:05.829Z</time>
      </trkpt>
      <trkpt lat="49.66124" lon="3.72972">
        <ele>133.4</ele>
        <time>2015-06-01T13:11:12.879Z</time>
      </trkpt>
      <trkpt lat="49.66124" lon="3.72974">
        <ele>133.3</ele>
        <time>2015-06-01T13:11:13.900Z</time>
      </trkpt>
      <trkpt lat="49.66128" lon="3.72985">
        <ele>133</ele>
        <time>2015-06-01T13:11:20.171Z</time>
      </trkpt>
      <trkpt lat="49.66128" lon="3.72987">
        <ele>133</ele>
        <time>2015-06-01T13:11:20.880Z</time>
      </trkpt>
      <trkpt lat="49.66133" lon="3.72997">
        <ele>132.4</ele>
        <time>2015-06-01T13:11:27.843Z</time>
      </trkpt>
      <trkpt lat="49.66133" lon="3.72999">
        <ele>132.3</ele>
        <time>2015-06-01T13:11:28.858Z</time>
      </trkpt>
      <trkpt lat="49.66138" lon="3.7301">
        <ele>132.2</ele>
        <time>2015-06-01T13:11:35.841Z</time>
      </trkpt>
      <trkpt lat="49.66138" lon="3.73012">
        <ele>132.2</ele>
        <time>2015-06-01T13:11:36.833Z</time>
      </trkpt>
      <trkpt lat="49.66143" lon="3.73024">
        <ele>132.5</ele>
        <time>2015-06-01T13:11:43.910Z</time>
      </trkpt>
      <trkpt lat="49.66144" lon="3.73025">
        <ele>132.6</ele>
        <time>2015-06-01T13:11:44.920Z</time>
      </trkpt>
      <trkpt lat="49.66147" lon="3.73027">
        <ele>133</ele>
        <time>2015-06-01T13:11:47.838Z</time>
      </trkpt>
      <trkpt lat="49.66147" lon="3.73028">
        <ele>133.1</ele>
        <time>2015-06-01T13:11:48.841Z</time>
      </trkpt>
      <trkpt lat="49.66147" lon="3.73028">
        <ele>133.1</ele>
        <time>2015-06-01T13:11:54.916Z</time>
      </trkpt>
      <trkpt lat="49.66148" lon="3.73032">
        <ele>134.7</ele>
        <time>2015-06-01T13:11:55.927Z</time>
      </trkpt>
      <trkpt lat="49.66148" lon="3.73032">
        <ele>134.9</ele>
        <time>2015-06-01T13:11:56.838Z</time>
      </trkpt>
      <trkpt lat="49.66149" lon="3.73033">
        <ele>135.1</ele>
        <time>2015-06-01T13:11:57.843Z</time>
      </trkpt>
      <trkpt lat="49.66151" lon="3.73038">
        <ele>136.1</ele>
        <time>2015-06-01T13:12:33.919Z</time>
      </trkpt>
      <trkpt lat="49.66151" lon="3.73038">
        <ele>136.2</ele>
        <time>2015-06-01T13:12:34.935Z</time>
      </trkpt>
      <trkpt lat="49.66151" lon="3.73038">
        <ele>136</ele>
        <time>2015-06-01T13:12:35.884Z</time>
      </trkpt>
      <trkpt lat="49.66148" lon="3.73039">
        <ele>135</ele>
        <time>2015-06-01T13:13:00.917Z</time>
      </trkpt>
      <trkpt lat="49.66147" lon="3.73039">
        <ele>135</ele>
        <time>2015-06-01T13:13:01.914Z</time>
      </trkpt>
      <trkpt lat="49.66147" lon="3.73039">
        <ele>134.8</ele>
        <time>2015-06-01T13:13:14.887Z</time>
      </trkpt>
      <trkpt lat="49.66146" lon="3.73041">
        <ele>134.7</ele>
        <time>2015-06-01T13:13:15.887Z</time>
      </trkpt>
      <trkpt lat="49.66139" lon="3.7305">
        <ele>134.4</ele>
        <time>2015-06-01T13:13:24.859Z</time>
      </trkpt>
      <trkpt lat="49.66139" lon="3.73051">
        <ele>134.5</ele>
        <time>2015-06-01T13:13:25.874Z</time>
      </trkpt>
      <trkpt lat="49.66131" lon="3.73056">
        <ele>134.7</ele>
        <time>2015-06-01T13:13:32.888Z</time>
      </trkpt>
      <trkpt lat="49.6613" lon="3.73057">
        <ele>134.6</ele>
        <time>2015-06-01T13:13:33.915Z</time>
      </trkpt>
      <trkpt lat="49.66123" lon="3.73063">
        <ele>134.2</ele>
        <time>2015-06-01T13:13:39.830Z</time>
      </trkpt>
      <trkpt lat="49.66122" lon="3.73064">
        <ele>134.2</ele>
        <time>2015-06-01T13:13:40.820Z</time>
      </trkpt>
      <trkpt lat="49.66114" lon="3.7307">
        <ele>134.2</ele>
        <time>2015-06-01T13:13:46.928Z</time>
      </trkpt>
      <trkpt lat="49.66113" lon="3.73071">
        <ele>134.1</ele>
        <time>2015-06-01T13:13:47.850Z</time>
      </trkpt>
      <trkpt lat="49.66105" lon="3.73078">
        <ele>134.1</ele>
        <time>2015-06-01T13:13:53.926Z</time>
      </trkpt>
      <trkpt lat="49.66104" lon="3.73079">
        <ele>134.2</ele>
        <time>2015-06-01T13:13:54.825Z</time>
      </trkpt>
      <trkpt lat="49.66097" lon="3.73086">
        <ele>134.7</ele>
        <time>2015-06-01T13:14:01.875Z</time>
      </trkpt>
      <trkpt lat="49.66096" lon="3.73087">
        <ele>134.7</ele>
        <time>2015-06-01T13:14:02.887Z</time>
      </trkpt>
      <trkpt lat="49.66089" lon="3.73094">
        <ele>134.7</ele>
        <time>2015-06-01T13:14:08.942Z</time>
      </trkpt>
      <trkpt lat="49.66088" lon="3.73095">
        <ele>134.7</ele>
        <time>2015-06-01T13:14:09.855Z</time>
      </trkpt>
      <trkpt lat="49.66082" lon="3.73101">
        <ele>135</ele>
        <time>2015-06-01T13:14:14.890Z</time>
      </trkpt>
      <trkpt lat="49.6608" lon="3.73102">
        <ele>135</ele>
        <time>2015-06-01T13:14:15.902Z</time>
      </trkpt>
      <trkpt lat="49.66073" lon="3.73111">
        <ele>135.2</ele>
        <time>2015-06-01T13:14:24.933Z</time>
      </trkpt>
      <trkpt lat="49.66073" lon="3.73111">
        <ele>135</ele>
        <time>2015-06-01T13:14:25.933Z</time>
      </trkpt>
      <trkpt lat="49.66067" lon="3.73121">
        <ele>135</ele>
        <time>2015-06-01T13:14:33.908Z</time>
      </trkpt>
      <trkpt lat="49.66067" lon="3.73122">
        <ele>135.1</ele>
        <time>2015-06-01T13:14:34.906Z</time>
      </trkpt>
      <trkpt lat="49.66062" lon="3.73133">
        <ele>134.8</ele>
        <time>2015-06-01T13:14:41.857Z</time>
      </trkpt>
      <trkpt lat="49.66062" lon="3.73135">
        <ele>134.7</ele>
        <time>2015-06-01T13:14:42.871Z</time>
      </trkpt>
      <trkpt lat="49.66059" lon="3.73146">
        <ele>134.6</ele>
        <time>2015-06-01T13:14:48.909Z</time>
      </trkpt>
      <trkpt lat="49.66058" lon="3.73148">
        <ele>134.6</ele>
        <time>2015-06-01T13:14:49.918Z</time>
      </trkpt>
      <trkpt lat="49.66056" lon="3.73161">
        <ele>134.9</ele>
        <time>2015-06-01T13:14:56.900Z</time>
      </trkpt>
      <trkpt lat="49.66056" lon="3.73163">
        <ele>135</ele>
        <time>2015-06-01T13:14:57.901Z</time>
      </trkpt>
      <trkpt lat="49.66054" lon="3.73175">
        <ele>135.1</ele>
        <time>2015-06-01T13:15:03.845Z</time>
      </trkpt>
      <trkpt lat="49.66054" lon="3.73177">
        <ele>135.1</ele>
        <time>2015-06-01T13:15:04.856Z</time>
      </trkpt>
      <trkpt lat="49.66053" lon="3.73189">
        <ele>135.2</ele>
        <time>2015-06-01T13:15:11.932Z</time>
      </trkpt>
      <trkpt lat="49.66053" lon="3.73191">
        <ele>135.3</ele>
        <time>2015-06-01T13:15:12.867Z</time>
      </trkpt>
      <trkpt lat="49.66052" lon="3.73205">
        <ele>134.8</ele>
        <time>2015-06-01T13:15:20.918Z</time>
      </trkpt>
      <trkpt lat="49.66052" lon="3.73206">
        <ele>134.9</ele>
        <time>2015-06-01T13:15:21.840Z</time>
      </trkpt>
      <trkpt lat="49.66051" lon="3.73218">
        <ele>134.8</ele>
        <time>2015-06-01T13:15:27.837Z</time>
      </trkpt>
      <trkpt lat="49.66051" lon="3.73221">
        <ele>134.8</ele>
        <time>2015-06-01T13:15:28.839Z</time>
      </trkpt>
      <trkpt lat="49.6605" lon="3.73233">
        <ele>134.5</ele>
        <time>2015-06-01T13:15:34.894Z</time>
      </trkpt>
      <trkpt lat="49.66049" lon="3.73235">
        <ele>134.6</ele>
        <time>2015-06-01T13:15:35.866Z</time>
      </trkpt>
      <trkpt lat="49.66047" lon="3.73247">
        <ele>135</ele>
        <time>2015-06-01T13:15:42.859Z</time>
      </trkpt>
      <trkpt lat="49.66047" lon="3.73249">
        <ele>135.1</ele>
        <time>2015-06-01T13:15:43.955Z</time>
      </trkpt>
      <trkpt lat="49.66045" lon="3.73262">
        <ele>135.4</ele>
        <time>2015-06-01T13:15:50.883Z</time>
      </trkpt>
      <trkpt lat="49.66045" lon="3.73264">
        <ele>135.4</ele>
        <time>2015-06-01T13:15:51.894Z</time>
      </trkpt>
      <trkpt lat="49.66042" lon="3.73277">
        <ele>135.4</ele>
        <time>2015-06-01T13:15:59.886Z</time>
      </trkpt>
      <trkpt lat="49.66042" lon="3.73279">
        <ele>135.4</ele>
        <time>2015-06-01T13:16:00.899Z</time>
      </trkpt>
      <trkpt lat="49.66039" lon="3.73291">
        <ele>136</ele>
        <time>2015-06-01T13:16:08.888Z</time>
      </trkpt>
      <trkpt lat="49.66038" lon="3.73293">
        <ele>136.3</ele>
        <time>2015-06-01T13:16:09.900Z</time>
      </trkpt>
      <trkpt lat="49.66035" lon="3.73304">
        <ele>136.5</ele>
        <time>2015-06-01T13:16:15.877Z</time>
      </trkpt>
      <trkpt lat="49.66035" lon="3.73306">
        <ele>136.7</ele>
        <time>2015-06-01T13:16:16.878Z</time>
      </trkpt>
      <trkpt lat="49.66031" lon="3.73319">
        <ele>136.6</ele>
        <time>2015-06-01T13:16:24.860Z</time>
      </trkpt>
      <trkpt lat="49.66031" lon="3.7332">
        <ele>136.7</ele>
        <time>2015-06-01T13:16:25.871Z</time>
      </trkpt>
      <trkpt lat="49.66027" lon="3.73331">
        <ele>137.4</ele>
        <time>2015-06-01T13:16:31.908Z</time>
      </trkpt>
      <trkpt lat="49.66026" lon="3.73333">
        <ele>137.3</ele>
        <time>2015-06-01T13:16:32.921Z</time>
      </trkpt>
      <trkpt lat="49.66022" lon="3.73344">
        <ele>137.4</ele>
        <time>2015-06-01T13:16:38.893Z</time>
      </trkpt>
      <trkpt lat="49.66022" lon="3.73345">
        <ele>137.5</ele>
        <time>2015-06-01T13:16:39.906Z</time>
      </trkpt>
      <trkpt lat="49.66018" lon="3.73356">
        <ele>137</ele>
        <time>2015-06-01T13:16:46.891Z</time>
      </trkpt>
      <trkpt lat="49.66017" lon="3.73358">
        <ele>136.7</ele>
        <time>2015-06-01T13:16:47.896Z</time>
      </trkpt>
      <trkpt lat="49.66013" lon="3.73369">
        <ele>136.3</ele>
        <time>2015-06-01T13:16:55.878Z</time>
      </trkpt>
      <trkpt lat="49.66013" lon="3.7337">
        <ele>136.2</ele>
        <time>2015-06-01T13:16:56.888Z</time>
      </trkpt>
      <trkpt lat="49.66008" lon="3.73381">
        <ele>136.7</ele>
        <time>2015-06-01T13:17:03.896Z</time>
      </trkpt>
      <trkpt lat="49.66008" lon="3.73382">
        <ele>136.8</ele>
        <time>2015-06-01T13:17:04.902Z</time>
      </trkpt>
      <trkpt lat="49.66004" lon="3.73393">
        <ele>136.8</ele>
        <time>2015-06-01T13:17:11.851Z</time>
      </trkpt>
      <trkpt lat="49.66003" lon="3.73395">
        <ele>136.8</ele>
        <time>2015-06-01T13:17:12.861Z</time>
      </trkpt>
      <trkpt lat="49.65998" lon="3.73406">
        <ele>137.7</ele>
        <time>2015-06-01T13:17:19.861Z</time>
      </trkpt>
      <trkpt lat="49.65998" lon="3.73408">
        <ele>137.7</ele>
        <time>2015-06-01T13:17:20.893Z</time>
      </trkpt>
      <trkpt lat="49.65992" lon="3.73418">
        <ele>137.9</ele>
        <time>2015-06-01T13:17:27.852Z</time>
      </trkpt>
      <trkpt lat="49.65991" lon="3.7342">
        <ele>138</ele>
        <time>2015-06-01T13:17:28.865Z</time>
      </trkpt>
      <trkpt lat="49.65986" lon="3.7343">
        <ele>138.2</ele>
        <time>2015-06-01T13:17:34.844Z</time>
      </trkpt>
      <trkpt lat="49.65985" lon="3.73431">
        <ele>138.2</ele>
        <time>2015-06-01T13:17:35.844Z</time>
      </trkpt>
      <trkpt lat="49.6598" lon="3.7344">
        <ele>138.7</ele>
        <time>2015-06-01T13:17:43.541Z</time>
      </trkpt>
      <trkpt lat="49.65979" lon="3.73442">
        <ele>138.9</ele>
        <time>2015-06-01T13:17:43.860Z</time>
      </trkpt>
      <trkpt lat="49.65973" lon="3.7345">
        <ele>139.7</ele>
        <time>2015-06-01T13:17:49.922Z</time>
      </trkpt>
      <trkpt lat="49.65972" lon="3.73451">
        <ele>139.6</ele>
        <time>2015-06-01T13:17:50.856Z</time>
      </trkpt>
      <trkpt lat="49.65965" lon="3.7346">
        <ele>139.6</ele>
        <time>2015-06-01T13:17:57.887Z</time>
      </trkpt>
      <trkpt lat="49.65964" lon="3.73461">
        <ele>139.6</ele>
        <time>2015-06-01T13:17:58.954Z</time>
      </trkpt>
      <trkpt lat="49.65958" lon="3.73471">
        <ele>139.9</ele>
        <time>2015-06-01T13:18:05.909Z</time>
      </trkpt>
      <trkpt lat="49.65957" lon="3.73472">
        <ele>139.9</ele>
        <time>2015-06-01T13:18:06.920Z</time>
      </trkpt>
      <trkpt lat="49.6595" lon="3.7348">
        <ele>139.9</ele>
        <time>2015-06-01T13:18:12.889Z</time>
      </trkpt>
      <trkpt lat="49.6595" lon="3.73481">
        <ele>140.1</ele>
        <time>2015-06-01T13:18:13.905Z</time>
      </trkpt>
      <trkpt lat="49.65942" lon="3.73489">
        <ele>140.4</ele>
        <time>2015-06-01T13:18:21.540Z</time>
      </trkpt>
      <trkpt lat="49.65941" lon="3.7349">
        <ele>140.4</ele>
        <time>2015-06-01T13:18:21.929Z</time>
      </trkpt>
      <trkpt lat="49.65935" lon="3.73499">
        <ele>140.6</ele>
        <time>2015-06-01T13:18:27.891Z</time>
      </trkpt>
      <trkpt lat="49.65934" lon="3.735">
        <ele>140.6</ele>
        <time>2015-06-01T13:18:28.907Z</time>
      </trkpt>
      <trkpt lat="49.65927" lon="3.73509">
        <ele>140.7</ele>
        <time>2015-06-01T13:18:35.866Z</time>
      </trkpt>
      <trkpt lat="49.65926" lon="3.73511">
        <ele>140.7</ele>
        <time>2015-06-01T13:18:36.866Z</time>
      </trkpt>
      <trkpt lat="49.6592" lon="3.7352">
        <ele>141.3</ele>
        <time>2015-06-01T13:18:42.838Z</time>
      </trkpt>
      <trkpt lat="49.65919" lon="3.73522">
        <ele>141.4</ele>
        <time>2015-06-01T13:18:43.914Z</time>
      </trkpt>
      <trkpt lat="49.65916" lon="3.73531">
        <ele>142.4</ele>
        <time>2015-06-01T13:18:49.918Z</time>
      </trkpt>
      <trkpt lat="49.65916" lon="3.7353">
        <ele>142.1</ele>
        <time>2015-06-01T13:18:50.833Z</time>
      </trkpt>
      <trkpt lat="49.65916" lon="3.7353">
        <ele>142.1</ele>
        <time>2015-06-01T13:18:51.832Z</time>
      </trkpt>
      <trkpt lat="49.65909" lon="3.73537">
        <ele>143.2</ele>
        <time>2015-06-01T13:19:14.895Z</time>
      </trkpt>
      <trkpt lat="49.65909" lon="3.73539">
        <ele>143.2</ele>
        <time>2015-06-01T13:19:15.902Z</time>
      </trkpt>
      <trkpt lat="49.65913" lon="3.7355">
        <ele>143</ele>
        <time>2015-06-01T13:19:22.890Z</time>
      </trkpt>
      <trkpt lat="49.65914" lon="3.73552">
        <ele>142.9</ele>
        <time>2015-06-01T13:19:23.912Z</time>
      </trkpt>
      <trkpt lat="49.65919" lon="3.73561">
        <ele>143.5</ele>
        <time>2015-06-01T13:19:29.949Z</time>
      </trkpt>
      <trkpt lat="49.6592" lon="3.73563">
        <ele>143.6</ele>
        <time>2015-06-01T13:19:30.853Z</time>
      </trkpt>
      <trkpt lat="49.65925" lon="3.73573">
        <ele>144.1</ele>
        <time>2015-06-01T13:19:35.860Z</time>
      </trkpt>
      <trkpt lat="49.65925" lon="3.73574">
        <ele>144.1</ele>
        <time>2015-06-01T13:19:36.880Z</time>
      </trkpt>
      <trkpt lat="49.6593" lon="3.73584">
        <ele>144.6</ele>
        <time>2015-06-01T13:19:42.841Z</time>
      </trkpt>
      <trkpt lat="49.65931" lon="3.73585">
        <ele>144.7</ele>
        <time>2015-06-01T13:19:43.903Z</time>
      </trkpt>
      <trkpt lat="49.65936" lon="3.73596">
        <ele>145.4</ele>
        <time>2015-06-01T13:19:50.883Z</time>
      </trkpt>
      <trkpt lat="49.65936" lon="3.73597">
        <ele>145.4</ele>
        <time>2015-06-01T13:19:51.887Z</time>
      </trkpt>
      <trkpt lat="49.65943" lon="3.73605">
        <ele>145.9</ele>
        <time>2015-06-01T13:19:58.856Z</time>
      </trkpt>
      <trkpt lat="49.65944" lon="3.73606">
        <ele>146</ele>
        <time>2015-06-01T13:19:59.865Z</time>
      </trkpt>
      <trkpt lat="49.65951" lon="3.73613">
        <ele>146.1</ele>
        <time>2015-06-01T13:20:07.254Z</time>
      </trkpt>
      <trkpt lat="49.65952" lon="3.73614">
        <ele>146.1</ele>
        <time>2015-06-01T13:20:08.199Z</time>
      </trkpt>
      <trkpt lat="49.65959" lon="3.73619">
        <ele>146.2</ele>
        <time>2015-06-01T13:20:14.821Z</time>
      </trkpt>
      <trkpt lat="49.65961" lon="3.7362">
        <ele>146.2</ele>
        <time>2015-06-01T13:20:15.831Z</time>
      </trkpt>
      <trkpt lat="49.65966" lon="3.73625">
        <ele>146.3</ele>
        <time>2015-06-01T13:20:20.859Z</time>
      </trkpt>
      <trkpt lat="49.65967" lon="3.73625">
        <ele>146.3</ele>
        <time>2015-06-01T13:20:21.897Z</time>
      </trkpt>
      <trkpt lat="49.65966" lon="3.73624">
        <ele>146.2</ele>
        <time>2015-06-01T13:20:22.880Z</time>
      </trkpt>
      <trkpt lat="49.65972" lon="3.7363">
        <ele>144.5</ele>
        <time>2015-06-01T13:20:39.912Z</time>
      </trkpt>
      <trkpt lat="49.65974" lon="3.73631">
        <ele>144.5</ele>
        <time>2015-06-01T13:20:40.818Z</time>
      </trkpt>
      <trkpt lat="49.65982" lon="3.73638">
        <ele>144.5</ele>
        <time>2015-06-01T13:20:46.914Z</time>
      </trkpt>
      <trkpt lat="49.65984" lon="3.73639">
        <ele>144.6</ele>
        <time>2015-06-01T13:20:47.914Z</time>
      </trkpt>
      <trkpt lat="49.65991" lon="3.73645">
        <ele>144</ele>
        <time>2015-06-01T13:20:53.866Z</time>
      </trkpt>
      <trkpt lat="49.65992" lon="3.73646">
        <ele>144</ele>
        <time>2015-06-01T13:20:54.863Z</time>
      </trkpt>
      <trkpt lat="49.66" lon="3.73651">
        <ele>144.1</ele>
        <time>2015-06-01T13:21:01.880Z</time>
      </trkpt>
      <trkpt lat="49.66001" lon="3.73651">
        <ele>144.1</ele>
        <time>2015-06-01T13:21:02.892Z</time>
      </trkpt>
      <trkpt lat="49.66009" lon="3.73657">
        <ele>145</ele>
        <time>2015-06-01T13:21:09.837Z</time>
      </trkpt>
      <trkpt lat="49.66009" lon="3.73658">
        <ele>145.2</ele>
        <time>2015-06-01T13:21:10.847Z</time>
      </trkpt>
      <trkpt lat="49.6601" lon="3.73658">
        <ele>145.2</ele>
        <time>2015-06-01T13:21:11.875Z</time>
      </trkpt>
      <trkpt lat="49.6601" lon="3.73659">
        <ele>145.3</ele>
        <time>2015-06-01T13:21:12.895Z</time>
      </trkpt>
      <trkpt lat="49.66018" lon="3.73662">
        <ele>145.9</ele>
        <time>2015-06-01T13:21:18.948Z</time>
      </trkpt>
      <trkpt lat="49.66019" lon="3.73663">
        <ele>146</ele>
        <time>2015-06-01T13:21:19.943Z</time>
      </trkpt>
      <trkpt lat="49.66027" lon="3.73666">
        <ele>146.7</ele>
        <time>2015-06-01T13:21:26.862Z</time>
      </trkpt>
      <trkpt lat="49.66029" lon="3.73666">
        <ele>146.8</ele>
        <time>2015-06-01T13:21:27.830Z</time>
      </trkpt>
      <trkpt lat="49.66037" lon="3.73671">
        <ele>146.9</ele>
        <time>2015-06-01T13:21:33.845Z</time>
      </trkpt>
      <trkpt lat="49.66038" lon="3.73672">
        <ele>146.8</ele>
        <time>2015-06-01T13:21:34.879Z</time>
      </trkpt>
      <trkpt lat="49.66046" lon="3.73677">
        <ele>147.1</ele>
        <time>2015-06-01T13:21:40.828Z</time>
      </trkpt>
      <trkpt lat="49.66048" lon="3.73677">
        <ele>146.9</ele>
        <time>2015-06-01T13:21:41.840Z</time>
      </trkpt>
      <trkpt lat="49.66056" lon="3.7368">
        <ele>146.7</ele>
        <time>2015-06-01T13:21:45.905Z</time>
      </trkpt>
      <trkpt lat="49.66057" lon="3.73681">
        <ele>146.6</ele>
        <time>2015-06-01T13:21:46.925Z</time>
      </trkpt>
      <trkpt lat="49.66066" lon="3.73685">
        <ele>146.3</ele>
        <time>2015-06-01T13:21:53.920Z</time>
      </trkpt>
      <trkpt lat="49.66067" lon="3.73685">
        <ele>146.4</ele>
        <time>2015-06-01T13:21:54.823Z</time>
      </trkpt>
      <trkpt lat="49.66076" lon="3.73688">
        <ele>146.5</ele>
        <time>2015-06-01T13:22:02.877Z</time>
      </trkpt>
      <trkpt lat="49.66077" lon="3.73688">
        <ele>146.1</ele>
        <time>2015-06-01T13:22:03.899Z</time>
      </trkpt>
      <trkpt lat="49.66084" lon="3.7369">
        <ele>146</ele>
        <time>2015-06-01T13:22:08.902Z</time>
      </trkpt>
      <trkpt lat="49.66086" lon="3.7369">
        <ele>146</ele>
        <time>2015-06-01T13:22:09.940Z</time>
      </trkpt>
      <trkpt lat="49.66094" lon="3.73693">
        <ele>145.8</ele>
        <time>2015-06-01T13:22:15.876Z</time>
      </trkpt>
      <trkpt lat="49.66095" lon="3.73693">
        <ele>145.5</ele>
        <time>2015-06-01T13:22:16.880Z</time>
      </trkpt>
      <trkpt lat="49.66103" lon="3.73697">
        <ele>144.9</ele>
        <time>2015-06-01T13:22:23.860Z</time>
      </trkpt>
      <trkpt lat="49.66105" lon="3.73698">
        <ele>144.8</ele>
        <time>2015-06-01T13:22:24.870Z</time>
      </trkpt>
      <trkpt lat="49.66112" lon="3.73702">
        <ele>144.6</ele>
        <time>2015-06-01T13:22:30.833Z</time>
      </trkpt>
      <trkpt lat="49.66113" lon="3.73703">
        <ele>144.8</ele>
        <time>2015-06-01T13:22:31.880Z</time>
      </trkpt>
      <trkpt lat="49.66121" lon="3.73706">
        <ele>144</ele>
        <time>2015-06-01T13:22:37.878Z</time>
      </trkpt>
      <trkpt lat="49.66123" lon="3.73707">
        <ele>144</ele>
        <time>2015-06-01T13:22:38.887Z</time>
      </trkpt>
      <trkpt lat="49.66131" lon="3.73712">
        <ele>143.5</ele>
        <time>2015-06-01T13:22:45.843Z</time>
      </trkpt>
      <trkpt lat="49.66132" lon="3.73713">
        <ele>143.4</ele>
        <time>2015-06-01T13:22:46.845Z</time>
      </trkpt>
      <trkpt lat="49.6614" lon="3.73718">
        <ele>143.3</ele>
        <time>2015-06-01T13:22:53.839Z</time>
      </trkpt>
      <trkpt lat="49.66141" lon="3.73718">
        <ele>143.3</ele>
        <time>2015-06-01T13:22:54.838Z</time>
      </trkpt>
      <trkpt lat="49.66149" lon="3.73722">
        <ele>143.1</ele>
        <time>2015-06-01T13:23:01.933Z</time>
      </trkpt>
      <trkpt lat="49.66151" lon="3.73722">
        <ele>143.1</ele>
        <time>2015-06-01T13:23:02.858Z</time>
      </trkpt>
      <trkpt lat="49.66159" lon="3.73725">
        <ele>143.1</ele>
        <time>2015-06-01T13:23:09.911Z</time>
      </trkpt>
      <trkpt lat="49.66161" lon="3.73726">
        <ele>143.2</ele>
        <time>2015-06-01T13:23:10.918Z</time>
      </trkpt>
      <trkpt lat="49.66169" lon="3.73729">
        <ele>142.6</ele>
        <time>2015-06-01T13:23:17.883Z</time>
      </trkpt>
      <trkpt lat="49.6617" lon="3.73729">
        <ele>142.4</ele>
        <time>2015-06-01T13:23:18.895Z</time>
      </trkpt>
      <trkpt lat="49.66178" lon="3.7373">
        <ele>142.2</ele>
        <time>2015-06-01T13:23:24.878Z</time>
      </trkpt>
      <trkpt lat="49.6618" lon="3.7373">
        <ele>142.2</ele>
        <time>2015-06-01T13:23:25.899Z</time>
      </trkpt>
      <trkpt lat="49.66188" lon="3.73733">
        <ele>141.6</ele>
        <time>2015-06-01T13:23:31.901Z</time>
      </trkpt>
      <trkpt lat="49.66189" lon="3.73733">
        <ele>141.6</ele>
        <time>2015-06-01T13:23:32.915Z</time>
      </trkpt>
      <trkpt lat="49.66197" lon="3.73734">
        <ele>140.8</ele>
        <time>2015-06-01T13:23:39.911Z</time>
      </trkpt>
      <trkpt lat="49.66198" lon="3.73734">
        <ele>140.8</ele>
        <time>2015-06-01T13:23:40.906Z</time>
      </trkpt>
      <trkpt lat="49.66206" lon="3.73735">
        <ele>140.6</ele>
        <time>2015-06-01T13:23:47.871Z</time>
      </trkpt>
      <trkpt lat="49.66207" lon="3.73735">
        <ele>140.6</ele>
        <time>2015-06-01T13:23:48.879Z</time>
      </trkpt>
      <trkpt lat="49.66216" lon="3.73736">
        <ele>140.5</ele>
        <time>2015-06-01T13:23:55.946Z</time>
      </trkpt>
      <trkpt lat="49.66217" lon="3.73736">
        <ele>140.6</ele>
        <time>2015-06-01T13:23:56.892Z</time>
      </trkpt>
      <trkpt lat="49.66226" lon="3.73737">
        <ele>140.7</ele>
        <time>2015-06-01T13:24:04.011Z</time>
      </trkpt>
      <trkpt lat="49.66227" lon="3.73738">
        <ele>140.7</ele>
        <time>2015-06-01T13:24:04.878Z</time>
      </trkpt>
      <trkpt lat="49.66235" lon="3.73739">
        <ele>140.1</ele>
        <time>2015-06-01T13:24:11.842Z</time>
      </trkpt>
      <trkpt lat="49.66237" lon="3.73739">
        <ele>140.1</ele>
        <time>2015-06-01T13:24:12.848Z</time>
      </trkpt>
      <trkpt lat="49.66245" lon="3.73739">
        <ele>139.7</ele>
        <time>2015-06-01T13:24:19.886Z</time>
      </trkpt>
      <trkpt lat="49.66247" lon="3.73739">
        <ele>139.7</ele>
        <time>2015-06-01T13:24:20.895Z</time>
      </trkpt>
      <trkpt lat="49.66255" lon="3.73741">
        <ele>139.4</ele>
        <time>2015-06-01T13:24:27.932Z</time>
      </trkpt>
      <trkpt lat="49.66256" lon="3.73741">
        <ele>139.4</ele>
        <time>2015-06-01T13:24:28.844Z</time>
      </trkpt>
      <trkpt lat="49.66265" lon="3.73743">
        <ele>139.1</ele>
        <time>2015-06-01T13:24:34.843Z</time>
      </trkpt>
      <trkpt lat="49.66266" lon="3.73743">
        <ele>139</ele>
        <time>2015-06-01T13:24:35.860Z</time>
      </trkpt>
      <trkpt lat="49.66275" lon="3.73744">
        <ele>138.8</ele>
        <time>2015-06-01T13:24:42.849Z</time>
      </trkpt>
      <trkpt lat="49.66276" lon="3.73744">
        <ele>138.8</ele>
        <time>2015-06-01T13:24:43.884Z</time>
      </trkpt>
      <trkpt lat="49.66285" lon="3.73744">
        <ele>138.9</ele>
        <time>2015-06-01T13:24:50.853Z</time>
      </trkpt>
      <trkpt lat="49.66286" lon="3.73745">
        <ele>139</ele>
        <time>2015-06-01T13:24:51.855Z</time>
      </trkpt>
      <trkpt lat="49.66294" lon="3.73747">
        <ele>139.3</ele>
        <time>2015-06-01T13:24:58.925Z</time>
      </trkpt>
      <trkpt lat="49.66295" lon="3.73747">
        <ele>139.4</ele>
        <time>2015-06-01T13:24:59.942Z</time>
      </trkpt>
      <trkpt lat="49.66303" lon="3.73748">
        <ele>139.2</ele>
        <time>2015-06-01T13:25:06.852Z</time>
      </trkpt>
      <trkpt lat="49.66305" lon="3.73748">
        <ele>139.2</ele>
        <time>2015-06-01T13:25:07.962Z</time>
      </trkpt>
      <trkpt lat="49.66313" lon="3.73749">
        <ele>139</ele>
        <time>2015-06-01T13:25:13.904Z</time>
      </trkpt>
      <trkpt lat="49.66314" lon="3.7375">
        <ele>138.9</ele>
        <time>2015-06-01T13:25:14.923Z</time>
      </trkpt>
      <trkpt lat="49.66322" lon="3.73751">
        <ele>139</ele>
        <time>2015-06-01T13:25:20.888Z</time>
      </trkpt>
      <trkpt lat="49.66324" lon="3.73751">
        <ele>138.9</ele>
        <time>2015-06-01T13:25:21.897Z</time>
      </trkpt>
      <trkpt lat="49.66332" lon="3.73752">
        <ele>138.9</ele>
        <time>2015-06-01T13:25:27.853Z</time>
      </trkpt>
      <trkpt lat="49.66334" lon="3.73752">
        <ele>138.9</ele>
        <time>2015-06-01T13:25:28.864Z</time>
      </trkpt>
      <trkpt lat="49.66342" lon="3.73754">
        <ele>138.9</ele>
        <time>2015-06-01T13:25:34.839Z</time>
      </trkpt>
      <trkpt lat="49.66344" lon="3.73754">
        <ele>138.9</ele>
        <time>2015-06-01T13:25:35.848Z</time>
      </trkpt>
      <trkpt lat="49.66351" lon="3.73757">
        <ele>138.4</ele>
        <time>2015-06-01T13:25:40.912Z</time>
      </trkpt>
      <trkpt lat="49.66353" lon="3.73757">
        <ele>138.4</ele>
        <time>2015-06-01T13:25:41.935Z</time>
      </trkpt>
      <trkpt lat="49.6636" lon="3.7376">
        <ele>138.1</ele>
        <time>2015-06-01T13:25:46.916Z</time>
      </trkpt>
      <trkpt lat="49.66362" lon="3.73761">
        <ele>138.1</ele>
        <time>2015-06-01T13:25:47.925Z</time>
      </trkpt>
      <trkpt lat="49.66369" lon="3.73765">
        <ele>138.5</ele>
        <time>2015-06-01T13:25:52.862Z</time>
      </trkpt>
      <trkpt lat="49.6637" lon="3.73766">
        <ele>138.7</ele>
        <time>2015-06-01T13:25:53.857Z</time>
      </trkpt>
      <trkpt lat="49.66379" lon="3.73771">
        <ele>138.6</ele>
        <time>2015-06-01T13:25:59.903Z</time>
      </trkpt>
      <trkpt lat="49.6638" lon="3.73771">
        <ele>138.6</ele>
        <time>2015-06-01T13:26:00.840Z</time>
      </trkpt>
      <trkpt lat="49.66388" lon="3.73777">
        <ele>138.4</ele>
        <time>2015-06-01T13:26:06.913Z</time>
      </trkpt>
      <trkpt lat="49.66389" lon="3.73778">
        <ele>138.4</ele>
        <time>2015-06-01T13:26:07.940Z</time>
      </trkpt>
      <trkpt lat="49.66396" lon="3.73785">
        <ele>138.2</ele>
        <time>2015-06-01T13:26:14.909Z</time>
      </trkpt>
      <trkpt lat="49.66397" lon="3.73786">
        <ele>138.1</ele>
        <time>2015-06-01T13:26:15.911Z</time>
      </trkpt>
      <trkpt lat="49.66404" lon="3.73793">
        <ele>138.2</ele>
        <time>2015-06-01T13:26:21.890Z</time>
      </trkpt>
      <trkpt lat="49.66405" lon="3.73794">
        <ele>138.3</ele>
        <time>2015-06-01T13:26:22.904Z</time>
      </trkpt>
      <trkpt lat="49.66413" lon="3.73801">
        <ele>138.4</ele>
        <time>2015-06-01T13:26:29.867Z</time>
      </trkpt>
      <trkpt lat="49.66414" lon="3.73802">
        <ele>138.2</ele>
        <time>2015-06-01T13:26:30.872Z</time>
      </trkpt>
      <trkpt lat="49.66422" lon="3.73807">
        <ele>137.2</ele>
        <time>2015-06-01T13:26:37.880Z</time>
      </trkpt>
      <trkpt lat="49.66423" lon="3.73807">
        <ele>137.3</ele>
        <time>2015-06-01T13:26:38.908Z</time>
      </trkpt>
      <trkpt lat="49.6643" lon="3.73815">
        <ele>137</ele>
        <time>2015-06-01T13:26:46.889Z</time>
      </trkpt>
      <trkpt lat="49.66431" lon="3.73815">
        <ele>136.8</ele>
        <time>2015-06-01T13:26:47.894Z</time>
      </trkpt>
      <trkpt lat="49.66439" lon="3.73819">
        <ele>136.8</ele>
        <time>2015-06-01T13:26:54.847Z</time>
      </trkpt>
      <trkpt lat="49.6644" lon="3.7382">
        <ele>136.9</ele>
        <time>2015-06-01T13:26:55.883Z</time>
      </trkpt>
      <trkpt lat="49.66447" lon="3.73824">
        <ele>136.7</ele>
        <time>2015-06-01T13:27:01.895Z</time>
      </trkpt>
      <trkpt lat="49.66449" lon="3.73825">
        <ele>136.6</ele>
        <time>2015-06-01T13:27:02.880Z</time>
      </trkpt>
      <trkpt lat="49.66456" lon="3.73828">
        <ele>136.6</ele>
        <time>2015-06-01T13:27:08.868Z</time>
      </trkpt>
      <trkpt lat="49.66457" lon="3.73829">
        <ele>136.6</ele>
        <time>2015-06-01T13:27:09.865Z</time>
      </trkpt>
      <trkpt lat="49.66465" lon="3.73834">
        <ele>136.8</ele>
        <time>2015-06-01T13:27:16.841Z</time>
      </trkpt>
      <trkpt lat="49.66466" lon="3.73834">
        <ele>136.8</ele>
        <time>2015-06-01T13:27:17.850Z</time>
      </trkpt>
      <trkpt lat="49.66473" lon="3.73838">
        <ele>136.6</ele>
        <time>2015-06-01T13:27:26.895Z</time>
      </trkpt>
      <trkpt lat="49.66473" lon="3.73838">
        <ele>136.6</ele>
        <time>2015-06-01T13:27:27.900Z</time>
      </trkpt>
      <trkpt lat="49.66473" lon="3.73839">
        <ele>136.6</ele>
        <time>2015-06-01T13:27:28.916Z</time>
      </trkpt>
      <trkpt lat="49.66473" lon="3.73839">
        <ele>136.7</ele>
        <time>2015-06-01T13:27:29.917Z</time>
      </trkpt>
      <trkpt lat="49.66478" lon="3.73841">
        <ele>136.1</ele>
        <time>2015-06-01T13:27:41.848Z</time>
      </trkpt>
      <trkpt lat="49.66478" lon="3.73842">
        <ele>136</ele>
        <time>2015-06-01T13:27:42.874Z</time>
      </trkpt>
      <trkpt lat="49.66477" lon="3.73841">
        <ele>135.9</ele>
        <time>2015-06-01T13:27:43.910Z</time>
      </trkpt>
      <trkpt lat="49.6647" lon="3.73835">
        <ele>135.7</ele>
        <time>2015-06-01T13:27:54.950Z</time>
      </trkpt>
      <trkpt lat="49.6647" lon="3.73835">
        <ele>135.6</ele>
        <time>2015-06-01T13:27:55.950Z</time>
      </trkpt>
      <trkpt lat="49.66469" lon="3.73835">
        <ele>135.5</ele>
        <time>2015-06-01T13:27:56.846Z</time>
      </trkpt>
      <trkpt lat="49.66461" lon="3.73839">
        <ele>134.5</ele>
        <time>2015-06-01T13:28:05.876Z</time>
      </trkpt>
      <trkpt lat="49.66461" lon="3.7384">
        <ele>134.5</ele>
        <time>2015-06-01T13:28:06.877Z</time>
      </trkpt>
      <trkpt lat="49.66453" lon="3.73844">
        <ele>134.4</ele>
        <time>2015-06-01T13:28:15.880Z</time>
      </trkpt>
      <trkpt lat="49.66452" lon="3.73844">
        <ele>134.4</ele>
        <time>2015-06-01T13:28:16.885Z</time>
      </trkpt>
      <trkpt lat="49.66452" lon="3.73844">
        <ele>134.4</ele>
        <time>2015-06-01T13:28:45.880Z</time>
      </trkpt>
      <trkpt lat="49.66453" lon="3.73843">
        <ele>134.7</ele>
        <time>2015-06-01T13:28:46.886Z</time>
      </trkpt>
      <trkpt lat="49.66455" lon="3.73843">
        <ele>134.9</ele>
        <time>2015-06-01T13:28:53.964Z</time>
      </trkpt>
      <trkpt lat="49.66455" lon="3.73843">
        <ele>135.2</ele>
        <time>2015-06-01T13:28:54.838Z</time>
      </trkpt>
      <trkpt lat="49.66456" lon="3.73843">
        <ele>135.3</ele>
        <time>2015-06-01T13:28:55.896Z</time>
      </trkpt>
      <trkpt lat="49.66463" lon="3.73836">
        <ele>135.8</ele>
        <time>2015-06-01T13:29:10.914Z</time>
      </trkpt>
      <trkpt lat="49.66464" lon="3.73836">
        <ele>135.8</ele>
        <time>2015-06-01T13:29:11.925Z</time>
      </trkpt>
      <trkpt lat="49.66472" lon="3.73839">
        <ele>134.8</ele>
        <time>2015-06-01T13:29:32.850Z</time>
      </trkpt>
      <trkpt lat="49.66472" lon="3.73839">
        <ele>134.8</ele>
        <time>2015-06-01T13:29:33.857Z</time>
      </trkpt>
      <trkpt lat="49.66472" lon="3.73839">
        <ele>134.8</ele>
        <time>2015-06-01T13:29:44.916Z</time>
      </trkpt>
      <trkpt lat="49.66471" lon="3.73841">
        <ele>134.8</ele>
        <time>2015-06-01T13:29:46.174Z</time>
      </trkpt>
      <trkpt lat="49.66471" lon="3.7384">
        <ele>134.8</ele>
        <time>2015-06-01T13:29:46.912Z</time>
      </trkpt>
      <trkpt lat="49.66472" lon="3.73841">
        <ele>134.9</ele>
        <time>2015-06-01T13:29:47.923Z</time>
      </trkpt>
      <trkpt lat="49.66472" lon="3.73841">
        <ele>134.8</ele>
        <time>2015-06-01T13:29:48.831Z</time>
      </trkpt>
      <trkpt lat="49.66472" lon="3.73841">
        <ele>134.9</ele>
        <time>2015-06-01T13:29:49.882Z</time>
      </trkpt>
      <trkpt lat="49.66472" lon="3.73841">
        <ele>134.9</ele>
        <time>2015-06-01T13:29:50.915Z</time>
      </trkpt>
      <trkpt lat="49.66472" lon="3.73833">
        <ele>135</ele>
        <time>2015-06-01T13:29:58.834Z</time>
      </trkpt>
      <trkpt lat="49.66472" lon="3.73833">
        <ele>135</ele>
        <time>2015-06-01T13:29:59.870Z</time>
      </trkpt>
      <trkpt lat="49.66472" lon="3.73834">
        <ele>135</ele>
        <time>2015-06-01T13:30:01.895Z</time>
      </trkpt>
      <trkpt lat="49.66473" lon="3.73834">
        <ele>135.1</ele>
        <time>2015-06-01T13:30:02.896Z</time>
      </trkpt>
      <trkpt lat="49.66471" lon="3.73831">
        <ele>134.9</ele>
        <time>2015-06-01T13:30:21.924Z</time>
      </trkpt>
      <trkpt lat="49.66471" lon="3.73831">
        <ele>134.9</ele>
        <time>2015-06-01T13:30:22.932Z</time>
      </trkpt>
      <trkpt lat="49.66471" lon="3.7383">
        <ele>134.8</ele>
        <time>2015-06-01T13:30:23.849Z</time>
      </trkpt>
      <trkpt lat="49.66468" lon="3.73832">
        <ele>134.8</ele>
        <time>2015-06-01T13:31:43.948Z</time>
      </trkpt>
      <trkpt lat="49.66468" lon="3.73832">
        <ele>134.7</ele>
        <time>2015-06-01T13:31:44.956Z</time>
      </trkpt>
      <trkpt lat="49.66468" lon="3.73832">
        <ele>134.7</ele>
        <time>2015-06-01T13:33:00.942Z</time>
      </trkpt>
      <trkpt lat="49.66466" lon="3.7383">
        <ele>135.9</ele>
        <time>2015-06-01T13:33:01.937Z</time>
      </trkpt>
      <trkpt lat="49.66466" lon="3.73829">
        <ele>135.8</ele>
        <time>2015-06-01T13:33:05.877Z</time>
      </trkpt>
      <trkpt lat="49.66466" lon="3.73829">
        <ele>135.8</ele>
        <time>2015-06-01T13:33:06.878Z</time>
      </trkpt>
      <trkpt lat="49.66466" lon="3.73829">
        <ele>135.8</ele>
        <time>2015-06-01T13:33:09.938Z</time>
      </trkpt>
      <trkpt lat="49.66467" lon="3.7383">
        <ele>135.8</ele>
        <time>2015-06-01T13:33:10.849Z</time>
      </trkpt>
      <trkpt lat="49.66467" lon="3.73833">
        <ele>135.8</ele>
        <time>2015-06-01T13:33:19.972Z</time>
      </trkpt>
      <trkpt lat="49.66467" lon="3.73833">
        <ele>135.6</ele>
        <time>2015-06-01T13:33:20.862Z</time>
      </trkpt>
      <trkpt lat="49.66468" lon="3.73833">
        <ele>135.5</ele>
        <time>2015-06-01T13:33:27.870Z</time>
      </trkpt>
      <trkpt lat="49.66468" lon="3.73833">
        <ele>135.4</ele>
        <time>2015-06-01T13:33:28.892Z</time>
      </trkpt>
      <trkpt lat="49.66474" lon="3.73841">
        <ele>135.6</ele>
        <time>2015-06-01T13:33:34.866Z</time>
      </trkpt>
      <trkpt lat="49.66475" lon="3.73843">
        <ele>135.6</ele>
        <time>2015-06-01T13:33:35.855Z</time>
      </trkpt>
      <trkpt lat="49.66483" lon="3.73847">
        <ele>134.6</ele>
        <time>2015-06-01T13:33:57.922Z</time>
      </trkpt>
      <trkpt lat="49.66483" lon="3.73848">
        <ele>134.8</ele>
        <time>2015-06-01T13:33:58.925Z</time>
      </trkpt>
      <trkpt lat="49.66481" lon="3.73855">
        <ele>135.3</ele>
        <time>2015-06-01T13:34:12.850Z</time>
      </trkpt>
      <trkpt lat="49.66481" lon="3.73855">
        <ele>135.3</ele>
        <time>2015-06-01T13:34:13.976Z</time>
      </trkpt>
      <trkpt lat="49.66481" lon="3.73855">
        <ele>135.2</ele>
        <time>2015-06-01T13:34:14.848Z</time>
      </trkpt>
      <trkpt lat="49.66476" lon="3.73862">
        <ele>136.7</ele>
        <time>2015-06-01T13:34:28.911Z</time>
      </trkpt>
      <trkpt lat="49.66476" lon="3.7386">
        <ele>136.1</ele>
        <time>2015-06-01T13:34:29.925Z</time>
      </trkpt>
      <trkpt lat="49.66475" lon="3.73856">
        <ele>135.3</ele>
        <time>2015-06-01T13:34:30.930Z</time>
      </trkpt>
      <trkpt lat="49.66474" lon="3.73853">
        <ele>136.1</ele>
        <time>2015-06-01T13:34:31.935Z</time>
      </trkpt>
      <trkpt lat="49.66473" lon="3.73851">
        <ele>136.4</ele>
        <time>2015-06-01T13:34:32.868Z</time>
      </trkpt>
      <trkpt lat="49.66473" lon="3.7385">
        <ele>136.5</ele>
        <time>2015-06-01T13:34:37.985Z</time>
      </trkpt>
      <trkpt lat="49.66472" lon="3.73848">
        <ele>136.6</ele>
        <time>2015-06-01T13:34:38.917Z</time>
      </trkpt>
      <trkpt lat="49.66472" lon="3.73848">
        <ele>136.5</ele>
        <time>2015-06-01T13:34:39.925Z</time>
      </trkpt>
      <trkpt lat="49.66472" lon="3.73847">
        <ele>136.3</ele>
        <time>2015-06-01T13:34:40.939Z</time>
      </trkpt>
      <trkpt lat="49.66471" lon="3.73847">
        <ele>136.4</ele>
        <time>2015-06-01T13:34:41.842Z</time>
      </trkpt>
      <trkpt lat="49.66471" lon="3.73847">
        <ele>136.5</ele>
        <time>2015-06-01T13:34:42.842Z</time>
      </trkpt>
      <trkpt lat="49.66471" lon="3.73846">
        <ele>136.6</ele>
        <time>2015-06-01T13:34:52.853Z</time>
      </trkpt>
      <trkpt lat="49.66471" lon="3.73845">
        <ele>136.9</ele>
        <time>2015-06-01T13:34:53.860Z</time>
      </trkpt>
      <trkpt lat="49.66479" lon="3.73846">
        <ele>136.2</ele>
        <time>2015-06-01T13:35:06.619Z</time>
      </trkpt>
      <trkpt lat="49.6648" lon="3.73846">
        <ele>136.2</ele>
        <time>2015-06-01T13:35:07.602Z</time>
      </trkpt>
      <trkpt lat="49.66488" lon="3.73847">
        <ele>136.3</ele>
        <time>2015-06-01T13:35:14.641Z</time>
      </trkpt>
      <trkpt lat="49.66489" lon="3.73848">
        <ele>136.4</ele>
        <time>2015-06-01T13:35:15.641Z</time>
      </trkpt>
      <trkpt lat="49.66497" lon="3.73853">
        <ele>135.9</ele>
        <time>2015-06-01T13:35:23.617Z</time>
      </trkpt>
      <trkpt lat="49.66498" lon="3.73853">
        <ele>135.9</ele>
        <time>2015-06-01T13:35:24.618Z</time>
      </trkpt>
      <trkpt lat="49.66505" lon="3.73858">
        <ele>136.2</ele>
        <time>2015-06-01T13:35:32.689Z</time>
      </trkpt>
      <trkpt lat="49.66506" lon="3.73859">
        <ele>136.1</ele>
        <time>2015-06-01T13:35:33.591Z</time>
      </trkpt>
      <trkpt lat="49.66513" lon="3.73863">
        <ele>136.5</ele>
        <time>2015-06-01T13:35:40.656Z</time>
      </trkpt>
      <trkpt lat="49.66515" lon="3.73863">
        <ele>135.8</ele>
        <time>2015-06-01T13:35:41.905Z</time>
      </trkpt>
      <trkpt lat="49.66523" lon="3.7387">
        <ele>135.8</ele>
        <time>2015-06-01T13:35:48.602Z</time>
      </trkpt>
      <trkpt lat="49.66524" lon="3.7387">
        <ele>135.9</ele>
        <time>2015-06-01T13:35:49.607Z</time>
      </trkpt>
      <trkpt lat="49.66531" lon="3.73877">
        <ele>135.8</ele>
        <time>2015-06-01T13:35:56.641Z</time>
      </trkpt>
      <trkpt lat="49.66532" lon="3.73877">
        <ele>135.8</ele>
        <time>2015-06-01T13:35:57.644Z</time>
      </trkpt>
      <trkpt lat="49.66539" lon="3.73882">
        <ele>136</ele>
        <time>2015-06-01T13:36:02.690Z</time>
      </trkpt>
      <trkpt lat="49.66541" lon="3.73883">
        <ele>136.1</ele>
        <time>2015-06-01T13:36:03.590Z</time>
      </trkpt>
      <trkpt lat="49.66547" lon="3.73891">
        <ele>136.9</ele>
        <time>2015-06-01T13:36:12.594Z</time>
      </trkpt>
      <trkpt lat="49.66548" lon="3.73893">
        <ele>136.9</ele>
        <time>2015-06-01T13:36:13.604Z</time>
      </trkpt>
      <trkpt lat="49.66556" lon="3.73898">
        <ele>137</ele>
        <time>2015-06-01T13:36:20.703Z</time>
      </trkpt>
      <trkpt lat="49.66557" lon="3.73898">
        <ele>137.1</ele>
        <time>2015-06-01T13:36:21.610Z</time>
      </trkpt>
      <trkpt lat="49.66563" lon="3.73906">
        <ele>137.1</ele>
        <time>2015-06-01T13:36:28.684Z</time>
      </trkpt>
      <trkpt lat="49.66564" lon="3.73907">
        <ele>137.1</ele>
        <time>2015-06-01T13:36:29.591Z</time>
      </trkpt>
      <trkpt lat="49.6657" lon="3.73914">
        <ele>136.9</ele>
        <time>2015-06-01T13:36:36.673Z</time>
      </trkpt>
      <trkpt lat="49.66571" lon="3.73915">
        <ele>136.8</ele>
        <time>2015-06-01T13:36:37.709Z</time>
      </trkpt>
      <trkpt lat="49.66577" lon="3.73926">
        <ele>136.6</ele>
        <time>2015-06-01T13:36:44.641Z</time>
      </trkpt>
      <trkpt lat="49.66577" lon="3.73927">
        <ele>136.6</ele>
        <time>2015-06-01T13:36:45.653Z</time>
      </trkpt>
      <trkpt lat="49.66585" lon="3.73934">
        <ele>136</ele>
        <time>2015-06-01T13:36:53.594Z</time>
      </trkpt>
      <trkpt lat="49.66586" lon="3.73936">
        <ele>135.9</ele>
        <time>2015-06-01T13:36:54.594Z</time>
      </trkpt>
      <trkpt lat="49.66593" lon="3.73943">
        <ele>136.2</ele>
        <time>2015-06-01T13:37:02.457Z</time>
      </trkpt>
      <trkpt lat="49.66594" lon="3.73945">
        <ele>136.2</ele>
        <time>2015-06-01T13:37:02.631Z</time>
      </trkpt>
      <trkpt lat="49.666" lon="3.73951">
        <ele>135.8</ele>
        <time>2015-06-01T13:37:08.643Z</time>
      </trkpt>
      <trkpt lat="49.66602" lon="3.73952">
        <ele>135.8</ele>
        <time>2015-06-01T13:37:09.635Z</time>
      </trkpt>
      <trkpt lat="49.66608" lon="3.73959">
        <ele>135.7</ele>
        <time>2015-06-01T13:37:15.688Z</time>
      </trkpt>
      <trkpt lat="49.66609" lon="3.7396">
        <ele>135.6</ele>
        <time>2015-06-01T13:37:16.591Z</time>
      </trkpt>
      <trkpt lat="49.66615" lon="3.73968">
        <ele>135.5</ele>
        <time>2015-06-01T13:37:22.686Z</time>
      </trkpt>
      <trkpt lat="49.66616" lon="3.7397">
        <ele>135.4</ele>
        <time>2015-06-01T13:37:23.595Z</time>
      </trkpt>
      <trkpt lat="49.66622" lon="3.73979">
        <ele>135</ele>
        <time>2015-06-01T13:37:29.591Z</time>
      </trkpt>
      <trkpt lat="49.66623" lon="3.7398">
        <ele>135</ele>
        <time>2015-06-01T13:37:30.595Z</time>
      </trkpt>
      <trkpt lat="49.6663" lon="3.73986">
        <ele>135.2</ele>
        <time>2015-06-01T13:37:38.646Z</time>
      </trkpt>
      <trkpt lat="49.66631" lon="3.73987">
        <ele>135.3</ele>
        <time>2015-06-01T13:37:39.660Z</time>
      </trkpt>
      <trkpt lat="49.66635" lon="3.73998">
        <ele>135.7</ele>
        <time>2015-06-01T13:37:45.650Z</time>
      </trkpt>
      <trkpt lat="49.66636" lon="3.73999">
        <ele>135.6</ele>
        <time>2015-06-01T13:37:46.664Z</time>
      </trkpt>
      <trkpt lat="49.66643" lon="3.74006">
        <ele>135.2</ele>
        <time>2015-06-01T13:37:53.591Z</time>
      </trkpt>
      <trkpt lat="49.66644" lon="3.74008">
        <ele>135.3</ele>
        <time>2015-06-01T13:37:54.595Z</time>
      </trkpt>
      <trkpt lat="49.6665" lon="3.74017">
        <ele>135.3</ele>
        <time>2015-06-01T13:38:02.179Z</time>
      </trkpt>
      <trkpt lat="49.66651" lon="3.74018">
        <ele>135.4</ele>
        <time>2015-06-01T13:38:02.654Z</time>
      </trkpt>
      <trkpt lat="49.66657" lon="3.74028">
        <ele>134.9</ele>
        <time>2015-06-01T13:38:09.646Z</time>
      </trkpt>
      <trkpt lat="49.66658" lon="3.7403">
        <ele>135</ele>
        <time>2015-06-01T13:38:10.659Z</time>
      </trkpt>
      <trkpt lat="49.66664" lon="3.74038">
        <ele>135.1</ele>
        <time>2015-06-01T13:38:16.591Z</time>
      </trkpt>
      <trkpt lat="49.66665" lon="3.74039">
        <ele>135.2</ele>
        <time>2015-06-01T13:38:17.603Z</time>
      </trkpt>
      <trkpt lat="49.66671" lon="3.74048">
        <ele>134.8</ele>
        <time>2015-06-01T13:38:24.685Z</time>
      </trkpt>
      <trkpt lat="49.66672" lon="3.7405">
        <ele>134.9</ele>
        <time>2015-06-01T13:38:25.591Z</time>
      </trkpt>
      <trkpt lat="49.66678" lon="3.74059">
        <ele>134.4</ele>
        <time>2015-06-01T13:38:32.640Z</time>
      </trkpt>
      <trkpt lat="49.66679" lon="3.7406">
        <ele>134.5</ele>
        <time>2015-06-01T13:38:33.648Z</time>
      </trkpt>
      <trkpt lat="49.66685" lon="3.74069">
        <ele>134</ele>
        <time>2015-06-01T13:38:39.645Z</time>
      </trkpt>
      <trkpt lat="49.66686" lon="3.74071">
        <ele>134</ele>
        <time>2015-06-01T13:38:40.649Z</time>
      </trkpt>
      <trkpt lat="49.66692" lon="3.74081">
        <ele>133.8</ele>
        <time>2015-06-01T13:38:47.679Z</time>
      </trkpt>
      <trkpt lat="49.66693" lon="3.74082">
        <ele>133.9</ele>
        <time>2015-06-01T13:38:48.664Z</time>
      </trkpt>
      <trkpt lat="49.66699" lon="3.74091">
        <ele>133.8</ele>
        <time>2015-06-01T13:38:55.610Z</time>
      </trkpt>
      <trkpt lat="49.667" lon="3.74092">
        <ele>133.7</ele>
        <time>2015-06-01T13:38:56.641Z</time>
      </trkpt>
      <trkpt lat="49.66705" lon="3.74102">
        <ele>133.9</ele>
        <time>2015-06-01T13:39:02.701Z</time>
      </trkpt>
      <trkpt lat="49.66705" lon="3.74104">
        <ele>134</ele>
        <time>2015-06-01T13:39:03.603Z</time>
      </trkpt>
      <trkpt lat="49.66711" lon="3.74114">
        <ele>134</ele>
        <time>2015-06-01T13:39:09.657Z</time>
      </trkpt>
      <trkpt lat="49.66712" lon="3.74115">
        <ele>134</ele>
        <time>2015-06-01T13:39:10.668Z</time>
      </trkpt>
      <trkpt lat="49.66718" lon="3.74123">
        <ele>133.9</ele>
        <time>2015-06-01T13:39:17.608Z</time>
      </trkpt>
      <trkpt lat="49.66719" lon="3.74124">
        <ele>134</ele>
        <time>2015-06-01T13:39:18.620Z</time>
      </trkpt>
      <trkpt lat="49.66726" lon="3.74132">
        <ele>134.3</ele>
        <time>2015-06-01T13:39:26.637Z</time>
      </trkpt>
      <trkpt lat="49.66726" lon="3.74133">
        <ele>134.4</ele>
        <time>2015-06-01T13:39:27.660Z</time>
      </trkpt>
      <trkpt lat="49.66733" lon="3.74142">
        <ele>134.6</ele>
        <time>2015-06-01T13:39:36.607Z</time>
      </trkpt>
      <trkpt lat="49.66734" lon="3.74143">
        <ele>134.6</ele>
        <time>2015-06-01T13:39:37.615Z</time>
      </trkpt>
      <trkpt lat="49.6674" lon="3.7415">
        <ele>134.1</ele>
        <time>2015-06-01T13:39:44.616Z</time>
      </trkpt>
      <trkpt lat="49.66741" lon="3.74151">
        <ele>134.1</ele>
        <time>2015-06-01T13:39:45.629Z</time>
      </trkpt>
      <trkpt lat="49.66748" lon="3.74157">
        <ele>133.7</ele>
        <time>2015-06-01T13:39:52.582Z</time>
      </trkpt>
      <trkpt lat="49.66749" lon="3.74158">
        <ele>133.7</ele>
        <time>2015-06-01T13:39:53.584Z</time>
      </trkpt>
      <trkpt lat="49.66755" lon="3.74166">
        <ele>133.4</ele>
        <time>2015-06-01T13:39:58.625Z</time>
      </trkpt>
      <trkpt lat="49.66756" lon="3.74168">
        <ele>133.4</ele>
        <time>2015-06-01T13:39:59.635Z</time>
      </trkpt>
      <trkpt lat="49.66762" lon="3.74177">
        <ele>132.6</ele>
        <time>2015-06-01T13:40:05.603Z</time>
      </trkpt>
      <trkpt lat="49.66763" lon="3.74179">
        <ele>132.6</ele>
        <time>2015-06-01T13:40:06.613Z</time>
      </trkpt>
      <trkpt lat="49.66769" lon="3.74187">
        <ele>132.2</ele>
        <time>2015-06-01T13:40:13.687Z</time>
      </trkpt>
      <trkpt lat="49.6677" lon="3.74189">
        <ele>132.1</ele>
        <time>2015-06-01T13:40:14.706Z</time>
      </trkpt>
      <trkpt lat="49.66777" lon="3.74196">
        <ele>131.8</ele>
        <time>2015-06-01T13:40:22.327Z</time>
      </trkpt>
      <trkpt lat="49.66778" lon="3.74197">
        <ele>131.9</ele>
        <time>2015-06-01T13:40:22.582Z</time>
      </trkpt>
      <trkpt lat="49.66784" lon="3.74207">
        <ele>131.6</ele>
        <time>2015-06-01T13:40:29.591Z</time>
      </trkpt>
      <trkpt lat="49.66785" lon="3.74209">
        <ele>131.4</ele>
        <time>2015-06-01T13:40:30.595Z</time>
      </trkpt>
      <trkpt lat="49.66792" lon="3.74217">
        <ele>130.6</ele>
        <time>2015-06-01T13:40:37.672Z</time>
      </trkpt>
      <trkpt lat="49.66793" lon="3.74218">
        <ele>130.6</ele>
        <time>2015-06-01T13:40:38.680Z</time>
      </trkpt>
      <trkpt lat="49.66799" lon="3.74226">
        <ele>130.5</ele>
        <time>2015-06-01T13:40:44.629Z</time>
      </trkpt>
      <trkpt lat="49.668" lon="3.74227">
        <ele>130.5</ele>
        <time>2015-06-01T13:40:45.656Z</time>
      </trkpt>
      <trkpt lat="49.66806" lon="3.74235">
        <ele>130.2</ele>
        <time>2015-06-01T13:40:51.657Z</time>
      </trkpt>
      <trkpt lat="49.66807" lon="3.74236">
        <ele>130.2</ele>
        <time>2015-06-01T13:40:52.670Z</time>
      </trkpt>
      <trkpt lat="49.66814" lon="3.74245">
        <ele>130.4</ele>
        <time>2015-06-01T13:40:57.628Z</time>
      </trkpt>
      <trkpt lat="49.66815" lon="3.74246">
        <ele>130.4</ele>
        <time>2015-06-01T13:40:58.640Z</time>
      </trkpt>
      <trkpt lat="49.66822" lon="3.74254">
        <ele>130.4</ele>
        <time>2015-06-01T13:41:04.583Z</time>
      </trkpt>
      <trkpt lat="49.66823" lon="3.74255">
        <ele>130.5</ele>
        <time>2015-06-01T13:41:05.590Z</time>
      </trkpt>
      <trkpt lat="49.66829" lon="3.74264">
        <ele>130.4</ele>
        <time>2015-06-01T13:41:11.578Z</time>
      </trkpt>
      <trkpt lat="49.66831" lon="3.74266">
        <ele>130.4</ele>
        <time>2015-06-01T13:41:12.586Z</time>
      </trkpt>
      <trkpt lat="49.66837" lon="3.74273">
        <ele>130.4</ele>
        <time>2015-06-01T13:41:17.645Z</time>
      </trkpt>
      <trkpt lat="49.66838" lon="3.74274">
        <ele>130.4</ele>
        <time>2015-06-01T13:41:18.649Z</time>
      </trkpt>
      <trkpt lat="49.66844" lon="3.74282">
        <ele>130.6</ele>
        <time>2015-06-01T13:41:24.595Z</time>
      </trkpt>
      <trkpt lat="49.66846" lon="3.74283">
        <ele>130.7</ele>
        <time>2015-06-01T13:41:25.611Z</time>
      </trkpt>
      <trkpt lat="49.66852" lon="3.74291">
        <ele>130.4</ele>
        <time>2015-06-01T13:41:31.585Z</time>
      </trkpt>
      <trkpt lat="49.66853" lon="3.74292">
        <ele>130.6</ele>
        <time>2015-06-01T13:41:32.685Z</time>
      </trkpt>
      <trkpt lat="49.66858" lon="3.74301">
        <ele>130.3</ele>
        <time>2015-06-01T13:41:38.625Z</time>
      </trkpt>
      <trkpt lat="49.66859" lon="3.74303">
        <ele>130.4</ele>
        <time>2015-06-01T13:41:39.635Z</time>
      </trkpt>
      <trkpt lat="49.66866" lon="3.74312">
        <ele>130.2</ele>
        <time>2015-06-01T13:41:45.621Z</time>
      </trkpt>
      <trkpt lat="49.66867" lon="3.74313">
        <ele>130</ele>
        <time>2015-06-01T13:41:46.633Z</time>
      </trkpt>
      <trkpt lat="49.66873" lon="3.7432">
        <ele>129.8</ele>
        <time>2015-06-01T13:41:52.591Z</time>
      </trkpt>
      <trkpt lat="49.66874" lon="3.74322">
        <ele>129.8</ele>
        <time>2015-06-01T13:41:53.830Z</time>
      </trkpt>
      <trkpt lat="49.6688" lon="3.7433">
        <ele>129.7</ele>
        <time>2015-06-01T13:41:59.654Z</time>
      </trkpt>
      <trkpt lat="49.66881" lon="3.74331">
        <ele>129.7</ele>
        <time>2015-06-01T13:42:00.665Z</time>
      </trkpt>
      <trkpt lat="49.66888" lon="3.74339">
        <ele>130.1</ele>
        <time>2015-06-01T13:42:06.593Z</time>
      </trkpt>
      <trkpt lat="49.66889" lon="3.7434">
        <ele>130.3</ele>
        <time>2015-06-01T13:42:07.607Z</time>
      </trkpt>
      <trkpt lat="49.66895" lon="3.74348">
        <ele>130.3</ele>
        <time>2015-06-01T13:42:14.628Z</time>
      </trkpt>
      <trkpt lat="49.66896" lon="3.74349">
        <ele>130.2</ele>
        <time>2015-06-01T13:42:15.626Z</time>
      </trkpt>
      <trkpt lat="49.66902" lon="3.74359">
        <ele>130</ele>
        <time>2015-06-01T13:42:22.570Z</time>
      </trkpt>
      <trkpt lat="49.66903" lon="3.74361">
        <ele>129.9</ele>
        <time>2015-06-01T13:42:23.593Z</time>
      </trkpt>
      <trkpt lat="49.66909" lon="3.74369">
        <ele>129.6</ele>
        <time>2015-06-01T13:42:29.653Z</time>
      </trkpt>
      <trkpt lat="49.6691" lon="3.74371">
        <ele>129.5</ele>
        <time>2015-06-01T13:42:30.674Z</time>
      </trkpt>
      <trkpt lat="49.66918" lon="3.74379">
        <ele>129</ele>
        <time>2015-06-01T13:42:36.604Z</time>
      </trkpt>
      <trkpt lat="49.66918" lon="3.7438">
        <ele>128.9</ele>
        <time>2015-06-01T13:42:37.611Z</time>
      </trkpt>
      <trkpt lat="49.66924" lon="3.7439">
        <ele>127.8</ele>
        <time>2015-06-01T13:42:44.662Z</time>
      </trkpt>
      <trkpt lat="49.66925" lon="3.74392">
        <ele>127.8</ele>
        <time>2015-06-01T13:42:45.664Z</time>
      </trkpt>
      <trkpt lat="49.66932" lon="3.744">
        <ele>127.9</ele>
        <time>2015-06-01T13:42:52.655Z</time>
      </trkpt>
      <trkpt lat="49.66933" lon="3.74402">
        <ele>127.9</ele>
        <time>2015-06-01T13:42:53.663Z</time>
      </trkpt>
      <trkpt lat="49.66939" lon="3.74409">
        <ele>127.7</ele>
        <time>2015-06-01T13:42:59.602Z</time>
      </trkpt>
      <trkpt lat="49.6694" lon="3.74411">
        <ele>127.7</ele>
        <time>2015-06-01T13:43:00.604Z</time>
      </trkpt>
      <trkpt lat="49.66946" lon="3.7442">
        <ele>127.4</ele>
        <time>2015-06-01T13:43:07.679Z</time>
      </trkpt>
      <trkpt lat="49.66947" lon="3.74422">
        <ele>127.4</ele>
        <time>2015-06-01T13:43:08.669Z</time>
      </trkpt>
      <trkpt lat="49.66953" lon="3.74429">
        <ele>127.6</ele>
        <time>2015-06-01T13:43:14.640Z</time>
      </trkpt>
      <trkpt lat="49.66954" lon="3.74431">
        <ele>127.5</ele>
        <time>2015-06-01T13:43:15.640Z</time>
      </trkpt>
      <trkpt lat="49.66959" lon="3.7444">
        <ele>126.7</ele>
        <time>2015-06-01T13:43:22.596Z</time>
      </trkpt>
      <trkpt lat="49.6696" lon="3.74441">
        <ele>126.5</ele>
        <time>2015-06-01T13:43:23.588Z</time>
      </trkpt>
      <trkpt lat="49.66966" lon="3.74449">
        <ele>125.7</ele>
        <time>2015-06-01T13:43:32.631Z</time>
      </trkpt>
      <trkpt lat="49.66967" lon="3.74451">
        <ele>125.6</ele>
        <time>2015-06-01T13:43:33.630Z</time>
      </trkpt>
      <trkpt lat="49.66972" lon="3.74462">
        <ele>125.8</ele>
        <time>2015-06-01T13:43:40.593Z</time>
      </trkpt>
      <trkpt lat="49.66973" lon="3.74463">
        <ele>125.8</ele>
        <time>2015-06-01T13:43:41.591Z</time>
      </trkpt>
      <trkpt lat="49.66979" lon="3.74472">
        <ele>125.7</ele>
        <time>2015-06-01T13:43:47.658Z</time>
      </trkpt>
      <trkpt lat="49.6698" lon="3.74474">
        <ele>125.8</ele>
        <time>2015-06-01T13:43:48.679Z</time>
      </trkpt>
      <trkpt lat="49.66986" lon="3.74483">
        <ele>125.2</ele>
        <time>2015-06-01T13:43:54.661Z</time>
      </trkpt>
      <trkpt lat="49.66987" lon="3.74484">
        <ele>124.9</ele>
        <time>2015-06-01T13:43:55.684Z</time>
      </trkpt>
      <trkpt lat="49.66992" lon="3.74493">
        <ele>124.2</ele>
        <time>2015-06-01T13:44:01.630Z</time>
      </trkpt>
      <trkpt lat="49.66993" lon="3.74495">
        <ele>124.2</ele>
        <time>2015-06-01T13:44:02.644Z</time>
      </trkpt>
      <trkpt lat="49.66999" lon="3.74503">
        <ele>124.3</ele>
        <time>2015-06-01T13:44:08.618Z</time>
      </trkpt>
      <trkpt lat="49.67" lon="3.74505">
        <ele>124.4</ele>
        <time>2015-06-01T13:44:09.625Z</time>
      </trkpt>
      <trkpt lat="49.67006" lon="3.74513">
        <ele>124.9</ele>
        <time>2015-06-01T13:44:15.695Z</time>
      </trkpt>
      <trkpt lat="49.67007" lon="3.74515">
        <ele>124.9</ele>
        <time>2015-06-01T13:44:16.588Z</time>
      </trkpt>
      <trkpt lat="49.67012" lon="3.74523">
        <ele>124.9</ele>
        <time>2015-06-01T13:44:21.636Z</time>
      </trkpt>
      <trkpt lat="49.67014" lon="3.74525">
        <ele>124.9</ele>
        <time>2015-06-01T13:44:22.648Z</time>
      </trkpt>
      <trkpt lat="49.6702" lon="3.74534">
        <ele>125.2</ele>
        <time>2015-06-01T13:44:28.584Z</time>
      </trkpt>
      <trkpt lat="49.67021" lon="3.74536">
        <ele>125.2</ele>
        <time>2015-06-01T13:44:29.597Z</time>
      </trkpt>
      <trkpt lat="49.67028" lon="3.74543">
        <ele>125.3</ele>
        <time>2015-06-01T13:44:35.652Z</time>
      </trkpt>
      <trkpt lat="49.67029" lon="3.74544">
        <ele>125.3</ele>
        <time>2015-06-01T13:44:36.658Z</time>
      </trkpt>
      <trkpt lat="49.67035" lon="3.74553">
        <ele>125.3</ele>
        <time>2015-06-01T13:44:43.018Z</time>
      </trkpt>
      <trkpt lat="49.67036" lon="3.74555">
        <ele>125.4</ele>
        <time>2015-06-01T13:44:43.615Z</time>
      </trkpt>
      <trkpt lat="49.67042" lon="3.74564">
        <ele>125.3</ele>
        <time>2015-06-01T13:44:49.579Z</time>
      </trkpt>
      <trkpt lat="49.67043" lon="3.74565">
        <ele>125.4</ele>
        <time>2015-06-01T13:44:50.609Z</time>
      </trkpt>
      <trkpt lat="49.6705" lon="3.74572">
        <ele>125.4</ele>
        <time>2015-06-01T13:44:55.644Z</time>
      </trkpt>
      <trkpt lat="49.67051" lon="3.74573">
        <ele>125.4</ele>
        <time>2015-06-01T13:44:56.652Z</time>
      </trkpt>
      <trkpt lat="49.67057" lon="3.74581">
        <ele>126</ele>
        <time>2015-06-01T13:45:03.031Z</time>
      </trkpt>
      <trkpt lat="49.67059" lon="3.74582">
        <ele>125.9</ele>
        <time>2015-06-01T13:45:03.642Z</time>
      </trkpt>
      <trkpt lat="49.67065" lon="3.74591">
        <ele>126.6</ele>
        <time>2015-06-01T13:45:08.613Z</time>
      </trkpt>
      <trkpt lat="49.67066" lon="3.74592">
        <ele>126.4</ele>
        <time>2015-06-01T13:45:09.633Z</time>
      </trkpt>
      <trkpt lat="49.67072" lon="3.74602">
        <ele>126.5</ele>
        <time>2015-06-01T13:45:16.578Z</time>
      </trkpt>
      <trkpt lat="49.67073" lon="3.74603">
        <ele>126.5</ele>
        <time>2015-06-01T13:45:17.586Z</time>
      </trkpt>
      <trkpt lat="49.67078" lon="3.74611">
        <ele>126.7</ele>
        <time>2015-06-01T13:45:23.649Z</time>
      </trkpt>
      <trkpt lat="49.67079" lon="3.74613">
        <ele>126.8</ele>
        <time>2015-06-01T13:45:24.646Z</time>
      </trkpt>
      <trkpt lat="49.67086" lon="3.74621">
        <ele>126.9</ele>
        <time>2015-06-01T13:45:31.618Z</time>
      </trkpt>
      <trkpt lat="49.67086" lon="3.74623">
        <ele>126.8</ele>
        <time>2015-06-01T13:45:32.630Z</time>
      </trkpt>
      <trkpt lat="49.67093" lon="3.74631">
        <ele>126.6</ele>
        <time>2015-06-01T13:45:40.637Z</time>
      </trkpt>
      <trkpt lat="49.67094" lon="3.74632">
        <ele>126.3</ele>
        <time>2015-06-01T13:45:41.642Z</time>
      </trkpt>
      <trkpt lat="49.67101" lon="3.7464">
        <ele>125.3</ele>
        <time>2015-06-01T13:45:48.644Z</time>
      </trkpt>
      <trkpt lat="49.67102" lon="3.74641">
        <ele>125.1</ele>
        <time>2015-06-01T13:45:49.660Z</time>
      </trkpt>
      <trkpt lat="49.67108" lon="3.74648">
        <ele>124.5</ele>
        <time>2015-06-01T13:45:55.608Z</time>
      </trkpt>
      <trkpt lat="49.67109" lon="3.74649">
        <ele>124.4</ele>
        <time>2015-06-01T13:45:56.619Z</time>
      </trkpt>
      <trkpt lat="49.67116" lon="3.74657">
        <ele>124.3</ele>
        <time>2015-06-01T13:46:03.334Z</time>
      </trkpt>
      <trkpt lat="49.67117" lon="3.74658">
        <ele>124.2</ele>
        <time>2015-06-01T13:46:03.584Z</time>
      </trkpt>
      <trkpt lat="49.67123" lon="3.74666">
        <ele>124.1</ele>
        <time>2015-06-01T13:46:11.644Z</time>
      </trkpt>
      <trkpt lat="49.67124" lon="3.74668">
        <ele>124.2</ele>
        <time>2015-06-01T13:46:12.651Z</time>
      </trkpt>
      <trkpt lat="49.6713" lon="3.74678">
        <ele>124.6</ele>
        <time>2015-06-01T13:46:20.678Z</time>
      </trkpt>
      <trkpt lat="49.67131" lon="3.74678">
        <ele>124.6</ele>
        <time>2015-06-01T13:46:21.574Z</time>
      </trkpt>
      <trkpt lat="49.67139" lon="3.74686">
        <ele>124.6</ele>
        <time>2015-06-01T13:46:28.655Z</time>
      </trkpt>
      <trkpt lat="49.6714" lon="3.74687">
        <ele>124.6</ele>
        <time>2015-06-01T13:46:29.666Z</time>
      </trkpt>
      <trkpt lat="49.67146" lon="3.74695">
        <ele>125.4</ele>
        <time>2015-06-01T13:46:35.635Z</time>
      </trkpt>
      <trkpt lat="49.67147" lon="3.74697">
        <ele>125.4</ele>
        <time>2015-06-01T13:46:36.655Z</time>
      </trkpt>
      <trkpt lat="49.67154" lon="3.74706">
        <ele>125.4</ele>
        <time>2015-06-01T13:46:43.378Z</time>
      </trkpt>
      <trkpt lat="49.67155" lon="3.74707">
        <ele>125.3</ele>
        <time>2015-06-01T13:46:43.717Z</time>
      </trkpt>
      <trkpt lat="49.67161" lon="3.74715">
        <ele>125.1</ele>
        <time>2015-06-01T13:46:50.615Z</time>
      </trkpt>
      <trkpt lat="49.67162" lon="3.74716">
        <ele>125.1</ele>
        <time>2015-06-01T13:46:51.624Z</time>
      </trkpt>
      <trkpt lat="49.67169" lon="3.74724">
        <ele>124.8</ele>
        <time>2015-06-01T13:46:58.579Z</time>
      </trkpt>
      <trkpt lat="49.6717" lon="3.74725">
        <ele>124.6</ele>
        <time>2015-06-01T13:46:59.574Z</time>
      </trkpt>
      <trkpt lat="49.67177" lon="3.74732">
        <ele>124.5</ele>
        <time>2015-06-01T13:47:06.657Z</time>
      </trkpt>
      <trkpt lat="49.67178" lon="3.74733">
        <ele>124.4</ele>
        <time>2015-06-01T13:47:07.660Z</time>
      </trkpt>
      <trkpt lat="49.67185" lon="3.7474">
        <ele>124.4</ele>
        <time>2015-06-01T13:47:14.602Z</time>
      </trkpt>
      <trkpt lat="49.67186" lon="3.74741">
        <ele>124.5</ele>
        <time>2015-06-01T13:47:15.611Z</time>
      </trkpt>
      <trkpt lat="49.67192" lon="3.74749">
        <ele>124.2</ele>
        <time>2015-06-01T13:47:21.576Z</time>
      </trkpt>
      <trkpt lat="49.67194" lon="3.7475">
        <ele>124.2</ele>
        <time>2015-06-01T13:47:22.573Z</time>
      </trkpt>
      <trkpt lat="49.67201" lon="3.74757">
        <ele>124.1</ele>
        <time>2015-06-01T13:47:28.624Z</time>
      </trkpt>
      <trkpt lat="49.67202" lon="3.74758">
        <ele>124.3</ele>
        <time>2015-06-01T13:47:29.628Z</time>
      </trkpt>
      <trkpt lat="49.67209" lon="3.74766">
        <ele>123.9</ele>
        <time>2015-06-01T13:47:35.609Z</time>
      </trkpt>
      <trkpt lat="49.6721" lon="3.74767">
        <ele>123.8</ele>
        <time>2015-06-01T13:47:36.614Z</time>
      </trkpt>
      <trkpt lat="49.67217" lon="3.74773">
        <ele>123.5</ele>
        <time>2015-06-01T13:47:43.560Z</time>
      </trkpt>
      <trkpt lat="49.67218" lon="3.74775">
        <ele>123.4</ele>
        <time>2015-06-01T13:47:44.612Z</time>
      </trkpt>
      <trkpt lat="49.67225" lon="3.7478">
        <ele>122.6</ele>
        <time>2015-06-01T13:47:52.577Z</time>
      </trkpt>
      <trkpt lat="49.67226" lon="3.7478">
        <ele>122.6</ele>
        <time>2015-06-01T13:47:53.572Z</time>
      </trkpt>
      <trkpt lat="49.67232" lon="3.74787">
        <ele>122.4</ele>
        <time>2015-06-01T13:47:59.633Z</time>
      </trkpt>
      <trkpt lat="49.67234" lon="3.74788">
        <ele>122.5</ele>
        <time>2015-06-01T13:48:00.646Z</time>
      </trkpt>
      <trkpt lat="49.6724" lon="3.74794">
        <ele>122.1</ele>
        <time>2015-06-01T13:48:07.600Z</time>
      </trkpt>
      <trkpt lat="49.67241" lon="3.74795">
        <ele>122</ele>
        <time>2015-06-01T13:48:08.618Z</time>
      </trkpt>
      <trkpt lat="49.67248" lon="3.74804">
        <ele>121.4</ele>
        <time>2015-06-01T13:48:15.662Z</time>
      </trkpt>
      <trkpt lat="49.67249" lon="3.74805">
        <ele>121.3</ele>
        <time>2015-06-01T13:48:16.568Z</time>
      </trkpt>
      <trkpt lat="49.67256" lon="3.74811">
        <ele>121.4</ele>
        <time>2015-06-01T13:48:23.501Z</time>
      </trkpt>
      <trkpt lat="49.67257" lon="3.74812">
        <ele>121.6</ele>
        <time>2015-06-01T13:48:23.622Z</time>
      </trkpt>
      <trkpt lat="49.67264" lon="3.74819">
        <ele>121.2</ele>
        <time>2015-06-01T13:48:29.626Z</time>
      </trkpt>
      <trkpt lat="49.67265" lon="3.7482">
        <ele>121.2</ele>
        <time>2015-06-01T13:48:30.634Z</time>
      </trkpt>
      <trkpt lat="49.67273" lon="3.74824">
        <ele>121.5</ele>
        <time>2015-06-01T13:48:37.602Z</time>
      </trkpt>
      <trkpt lat="49.67274" lon="3.74825">
        <ele>121.6</ele>
        <time>2015-06-01T13:48:38.614Z</time>
      </trkpt>
      <trkpt lat="49.67283" lon="3.74831">
        <ele>120.9</ele>
        <time>2015-06-01T13:48:45.581Z</time>
      </trkpt>
      <trkpt lat="49.67284" lon="3.74832">
        <ele>120.9</ele>
        <time>2015-06-01T13:48:46.593Z</time>
      </trkpt>
      <trkpt lat="49.67291" lon="3.74836">
        <ele>120.4</ele>
        <time>2015-06-01T13:48:53.660Z</time>
      </trkpt>
      <trkpt lat="49.67292" lon="3.74837">
        <ele>120.4</ele>
        <time>2015-06-01T13:48:54.672Z</time>
      </trkpt>
      <trkpt lat="49.67299" lon="3.74843">
        <ele>119.8</ele>
        <time>2015-06-01T13:49:00.630Z</time>
      </trkpt>
      <trkpt lat="49.673" lon="3.74843">
        <ele>119.7</ele>
        <time>2015-06-01T13:49:01.639Z</time>
      </trkpt>
      <trkpt lat="49.67308" lon="3.74847">
        <ele>120.1</ele>
        <time>2015-06-01T13:49:08.615Z</time>
      </trkpt>
      <trkpt lat="49.67309" lon="3.74848">
        <ele>120.2</ele>
        <time>2015-06-01T13:49:09.627Z</time>
      </trkpt>
      <trkpt lat="49.67317" lon="3.74855">
        <ele>119.9</ele>
        <time>2015-06-01T13:49:16.578Z</time>
      </trkpt>
      <trkpt lat="49.67318" lon="3.74856">
        <ele>119.8</ele>
        <time>2015-06-01T13:49:17.587Z</time>
      </trkpt>
      <trkpt lat="49.67326" lon="3.74862">
        <ele>119.8</ele>
        <time>2015-06-01T13:49:24.654Z</time>
      </trkpt>
      <trkpt lat="49.67327" lon="3.74863">
        <ele>119.9</ele>
        <time>2015-06-01T13:49:25.654Z</time>
      </trkpt>
      <trkpt lat="49.67335" lon="3.74868">
        <ele>120.5</ele>
        <time>2015-06-01T13:49:32.618Z</time>
      </trkpt>
      <trkpt lat="49.67336" lon="3.74868">
        <ele>120.5</ele>
        <time>2015-06-01T13:49:33.625Z</time>
      </trkpt>
      <trkpt lat="49.67343" lon="3.74876">
        <ele>119.8</ele>
        <time>2015-06-01T13:49:41.597Z</time>
      </trkpt>
      <trkpt lat="49.67344" lon="3.74876">
        <ele>119.7</ele>
        <time>2015-06-01T13:49:42.604Z</time>
      </trkpt>
      <trkpt lat="49.67352" lon="3.74883">
        <ele>119.1</ele>
        <time>2015-06-01T13:49:49.581Z</time>
      </trkpt>
      <trkpt lat="49.67353" lon="3.74884">
        <ele>119.1</ele>
        <time>2015-06-01T13:49:50.627Z</time>
      </trkpt>
      <trkpt lat="49.6736" lon="3.74889">
        <ele>118.7</ele>
        <time>2015-06-01T13:49:56.673Z</time>
      </trkpt>
      <trkpt lat="49.67361" lon="3.7489">
        <ele>118.6</ele>
        <time>2015-06-01T13:49:57.586Z</time>
      </trkpt>
      <trkpt lat="49.67369" lon="3.74896">
        <ele>118.7</ele>
        <time>2015-06-01T13:50:03.649Z</time>
      </trkpt>
      <trkpt lat="49.6737" lon="3.74897">
        <ele>118.7</ele>
        <time>2015-06-01T13:50:04.667Z</time>
      </trkpt>
      <trkpt lat="49.67377" lon="3.74904">
        <ele>118.8</ele>
        <time>2015-06-01T13:50:10.649Z</time>
      </trkpt>
      <trkpt lat="49.67379" lon="3.74905">
        <ele>118.8</ele>
        <time>2015-06-01T13:50:11.658Z</time>
      </trkpt>
      <trkpt lat="49.67386" lon="3.74912">
        <ele>118.9</ele>
        <time>2015-06-01T13:50:17.651Z</time>
      </trkpt>
      <trkpt lat="49.67387" lon="3.74913">
        <ele>118.9</ele>
        <time>2015-06-01T13:50:18.662Z</time>
      </trkpt>
      <trkpt lat="49.67395" lon="3.74919">
        <ele>119.4</ele>
        <time>2015-06-01T13:50:24.630Z</time>
      </trkpt>
      <trkpt lat="49.67396" lon="3.7492">
        <ele>119.2</ele>
        <time>2015-06-01T13:50:25.646Z</time>
      </trkpt>
      <trkpt lat="49.67403" lon="3.74926">
        <ele>118.3</ele>
        <time>2015-06-01T13:50:31.606Z</time>
      </trkpt>
      <trkpt lat="49.67405" lon="3.74926">
        <ele>118.1</ele>
        <time>2015-06-01T13:50:32.630Z</time>
      </trkpt>
      <trkpt lat="49.67411" lon="3.74934">
        <ele>117.3</ele>
        <time>2015-06-01T13:50:38.680Z</time>
      </trkpt>
      <trkpt lat="49.67412" lon="3.74935">
        <ele>117.2</ele>
        <time>2015-06-01T13:50:39.583Z</time>
      </trkpt>
      <trkpt lat="49.67419" lon="3.74943">
        <ele>116.5</ele>
        <time>2015-06-01T13:50:45.624Z</time>
      </trkpt>
      <trkpt lat="49.6742" lon="3.74944">
        <ele>116.2</ele>
        <time>2015-06-01T13:50:46.635Z</time>
      </trkpt>
      <trkpt lat="49.67427" lon="3.7495">
        <ele>116.3</ele>
        <time>2015-06-01T13:50:52.586Z</time>
      </trkpt>
      <trkpt lat="49.67428" lon="3.74951">
        <ele>116.2</ele>
        <time>2015-06-01T13:50:53.600Z</time>
      </trkpt>
      <trkpt lat="49.67436" lon="3.74958">
        <ele>115.7</ele>
        <time>2015-06-01T13:50:59.672Z</time>
      </trkpt>
      <trkpt lat="49.67437" lon="3.74959">
        <ele>115.6</ele>
        <time>2015-06-01T13:51:00.676Z</time>
      </trkpt>
      <trkpt lat="49.67443" lon="3.74965">
        <ele>115.5</ele>
        <time>2015-06-01T13:51:06.605Z</time>
      </trkpt>
      <trkpt lat="49.67445" lon="3.74966">
        <ele>115.5</ele>
        <time>2015-06-01T13:51:07.618Z</time>
      </trkpt>
      <trkpt lat="49.67451" lon="3.74973">
        <ele>115.3</ele>
        <time>2015-06-01T13:51:13.585Z</time>
      </trkpt>
      <trkpt lat="49.67452" lon="3.74974">
        <ele>115.2</ele>
        <time>2015-06-01T13:51:14.638Z</time>
      </trkpt>
      <trkpt lat="49.67459" lon="3.74981">
        <ele>115.3</ele>
        <time>2015-06-01T13:51:20.691Z</time>
      </trkpt>
      <trkpt lat="49.6746" lon="3.74982">
        <ele>115.3</ele>
        <time>2015-06-01T13:51:21.583Z</time>
      </trkpt>
      <trkpt lat="49.67467" lon="3.74989">
        <ele>115.3</ele>
        <time>2015-06-01T13:51:28.633Z</time>
      </trkpt>
      <trkpt lat="49.67468" lon="3.7499">
        <ele>115.3</ele>
        <time>2015-06-01T13:51:29.733Z</time>
      </trkpt>
      <trkpt lat="49.67475" lon="3.74997">
        <ele>115.3</ele>
        <time>2015-06-01T13:51:35.598Z</time>
      </trkpt>
      <trkpt lat="49.67476" lon="3.74999">
        <ele>115.3</ele>
        <time>2015-06-01T13:51:36.603Z</time>
      </trkpt>
      <trkpt lat="49.67482" lon="3.75006">
        <ele>115.5</ele>
        <time>2015-06-01T13:51:42.594Z</time>
      </trkpt>
      <trkpt lat="49.67483" lon="3.75007">
        <ele>115.5</ele>
        <time>2015-06-01T13:51:43.583Z</time>
      </trkpt>
      <trkpt lat="49.6749" lon="3.75014">
        <ele>115.8</ele>
        <time>2015-06-01T13:51:50.773Z</time>
      </trkpt>
      <trkpt lat="49.67492" lon="3.75015">
        <ele>115.8</ele>
        <time>2015-06-01T13:51:51.584Z</time>
      </trkpt>
      <trkpt lat="49.67498" lon="3.75022">
        <ele>116</ele>
        <time>2015-06-01T13:51:57.631Z</time>
      </trkpt>
      <trkpt lat="49.675" lon="3.75023">
        <ele>116.1</ele>
        <time>2015-06-01T13:51:58.654Z</time>
      </trkpt>
      <trkpt lat="49.67506" lon="3.75029">
        <ele>116.2</ele>
        <time>2015-06-01T13:52:04.583Z</time>
      </trkpt>
      <trkpt lat="49.67507" lon="3.7503">
        <ele>116.2</ele>
        <time>2015-06-01T13:52:05.598Z</time>
      </trkpt>
      <trkpt lat="49.67514" lon="3.75037">
        <ele>116.3</ele>
        <time>2015-06-01T13:52:11.703Z</time>
      </trkpt>
      <trkpt lat="49.67515" lon="3.75038">
        <ele>116.4</ele>
        <time>2015-06-01T13:52:12.582Z</time>
      </trkpt>
      <trkpt lat="49.67522" lon="3.75044">
        <ele>116.6</ele>
        <time>2015-06-01T13:52:18.651Z</time>
      </trkpt>
      <trkpt lat="49.67523" lon="3.75046">
        <ele>116.7</ele>
        <time>2015-06-01T13:52:19.661Z</time>
      </trkpt>
      <trkpt lat="49.6753" lon="3.75052">
        <ele>116.5</ele>
        <time>2015-06-01T13:52:24.607Z</time>
      </trkpt>
      <trkpt lat="49.67531" lon="3.75053">
        <ele>116.5</ele>
        <time>2015-06-01T13:52:25.638Z</time>
      </trkpt>
      <trkpt lat="49.67538" lon="3.75059">
        <ele>116.6</ele>
        <time>2015-06-01T13:52:31.582Z</time>
      </trkpt>
      <trkpt lat="49.67539" lon="3.7506">
        <ele>116.6</ele>
        <time>2015-06-01T13:52:32.622Z</time>
      </trkpt>
      <trkpt lat="49.67545" lon="3.75067">
        <ele>116.3</ele>
        <time>2015-06-01T13:52:38.629Z</time>
      </trkpt>
      <trkpt lat="49.67547" lon="3.75068">
        <ele>116.3</ele>
        <time>2015-06-01T13:52:39.633Z</time>
      </trkpt>
      <trkpt lat="49.67554" lon="3.75075">
        <ele>116.3</ele>
        <time>2015-06-01T13:52:46.592Z</time>
      </trkpt>
      <trkpt lat="49.67555" lon="3.75076">
        <ele>116.3</ele>
        <time>2015-06-01T13:52:47.606Z</time>
      </trkpt>
      <trkpt lat="49.67563" lon="3.75082">
        <ele>116.1</ele>
        <time>2015-06-01T13:52:54.660Z</time>
      </trkpt>
      <trkpt lat="49.67564" lon="3.75083">
        <ele>116.1</ele>
        <time>2015-06-01T13:52:55.668Z</time>
      </trkpt>
      <trkpt lat="49.67571" lon="3.7509">
        <ele>116.1</ele>
        <time>2015-06-01T13:53:02.623Z</time>
      </trkpt>
      <trkpt lat="49.67572" lon="3.75091">
        <ele>116.2</ele>
        <time>2015-06-01T13:53:03.628Z</time>
      </trkpt>
      <trkpt lat="49.67579" lon="3.75098">
        <ele>116.6</ele>
        <time>2015-06-01T13:53:09.566Z</time>
      </trkpt>
      <trkpt lat="49.6758" lon="3.75099">
        <ele>116.7</ele>
        <time>2015-06-01T13:53:10.584Z</time>
      </trkpt>
      <trkpt lat="49.67587" lon="3.75105">
        <ele>116.6</ele>
        <time>2015-06-01T13:53:16.641Z</time>
      </trkpt>
      <trkpt lat="49.67588" lon="3.75106">
        <ele>116.5</ele>
        <time>2015-06-01T13:53:17.650Z</time>
      </trkpt>
      <trkpt lat="49.67596" lon="3.75112">
        <ele>116.7</ele>
        <time>2015-06-01T13:53:25.605Z</time>
      </trkpt>
      <trkpt lat="49.67597" lon="3.75113">
        <ele>116.8</ele>
        <time>2015-06-01T13:53:26.624Z</time>
      </trkpt>
      <trkpt lat="49.67604" lon="3.7512">
        <ele>116.3</ele>
        <time>2015-06-01T13:53:33.622Z</time>
      </trkpt>
      <trkpt lat="49.67606" lon="3.75121">
        <ele>116.4</ele>
        <time>2015-06-01T13:53:34.631Z</time>
      </trkpt>
      <trkpt lat="49.67613" lon="3.75128">
        <ele>116.6</ele>
        <time>2015-06-01T13:53:40.584Z</time>
      </trkpt>
      <trkpt lat="49.67614" lon="3.75129">
        <ele>116.6</ele>
        <time>2015-06-01T13:53:41.590Z</time>
      </trkpt>
      <trkpt lat="49.67621" lon="3.75134">
        <ele>116.9</ele>
        <time>2015-06-01T13:53:47.648Z</time>
      </trkpt>
      <trkpt lat="49.67622" lon="3.75135">
        <ele>116.9</ele>
        <time>2015-06-01T13:53:48.657Z</time>
      </trkpt>
      <trkpt lat="49.6763" lon="3.75142">
        <ele>117.1</ele>
        <time>2015-06-01T13:53:55.609Z</time>
      </trkpt>
      <trkpt lat="49.67631" lon="3.75143">
        <ele>117.1</ele>
        <time>2015-06-01T13:53:56.628Z</time>
      </trkpt>
      <trkpt lat="49.67639" lon="3.75149">
        <ele>117.6</ele>
        <time>2015-06-01T13:54:03.607Z</time>
      </trkpt>
      <trkpt lat="49.6764" lon="3.7515">
        <ele>117.6</ele>
        <time>2015-06-01T13:54:04.588Z</time>
      </trkpt>
      <trkpt lat="49.67647" lon="3.75156">
        <ele>117.8</ele>
        <time>2015-06-01T13:54:10.643Z</time>
      </trkpt>
      <trkpt lat="49.67648" lon="3.75157">
        <ele>118</ele>
        <time>2015-06-01T13:54:11.654Z</time>
      </trkpt>
      <trkpt lat="49.67654" lon="3.75163">
        <ele>118.3</ele>
        <time>2015-06-01T13:54:17.595Z</time>
      </trkpt>
      <trkpt lat="49.67656" lon="3.75164">
        <ele>118.3</ele>
        <time>2015-06-01T13:54:18.597Z</time>
      </trkpt>
      <trkpt lat="49.67663" lon="3.7517">
        <ele>118.6</ele>
        <time>2015-06-01T13:54:24.668Z</time>
      </trkpt>
      <trkpt lat="49.67664" lon="3.75171">
        <ele>118.6</ele>
        <time>2015-06-01T13:54:25.670Z</time>
      </trkpt>
      <trkpt lat="49.67671" lon="3.75177">
        <ele>118.8</ele>
        <time>2015-06-01T13:54:31.632Z</time>
      </trkpt>
      <trkpt lat="49.67673" lon="3.75178">
        <ele>118.8</ele>
        <time>2015-06-01T13:54:32.634Z</time>
      </trkpt>
      <trkpt lat="49.6768" lon="3.75184">
        <ele>119.2</ele>
        <time>2015-06-01T13:54:38.664Z</time>
      </trkpt>
      <trkpt lat="49.67682" lon="3.75185">
        <ele>119.2</ele>
        <time>2015-06-01T13:54:39.589Z</time>
      </trkpt>
      <trkpt lat="49.6769" lon="3.75192">
        <ele>120</ele>
        <time>2015-06-01T13:54:45.617Z</time>
      </trkpt>
      <trkpt lat="49.67691" lon="3.75193">
        <ele>120</ele>
        <time>2015-06-01T13:54:46.633Z</time>
      </trkpt>
      <trkpt lat="49.67699" lon="3.75199">
        <ele>120.2</ele>
        <time>2015-06-01T13:54:52.584Z</time>
      </trkpt>
      <trkpt lat="49.677" lon="3.752">
        <ele>120.1</ele>
        <time>2015-06-01T13:54:53.578Z</time>
      </trkpt>
      <trkpt lat="49.67707" lon="3.75207">
        <ele>120.6</ele>
        <time>2015-06-01T13:54:59.643Z</time>
      </trkpt>
      <trkpt lat="49.67708" lon="3.75208">
        <ele>120.7</ele>
        <time>2015-06-01T13:55:00.594Z</time>
      </trkpt>
      <trkpt lat="49.67714" lon="3.75215">
        <ele>121.2</ele>
        <time>2015-06-01T13:55:06.577Z</time>
      </trkpt>
      <trkpt lat="49.67715" lon="3.75216">
        <ele>121.4</ele>
        <time>2015-06-01T13:55:07.581Z</time>
      </trkpt>
      <trkpt lat="49.67723" lon="3.75223">
        <ele>122.1</ele>
        <time>2015-06-01T13:55:13.651Z</time>
      </trkpt>
      <trkpt lat="49.67724" lon="3.75224">
        <ele>122.1</ele>
        <time>2015-06-01T13:55:14.664Z</time>
      </trkpt>
      <trkpt lat="49.67732" lon="3.75231">
        <ele>122.4</ele>
        <time>2015-06-01T13:55:20.831Z</time>
      </trkpt>
      <trkpt lat="49.67733" lon="3.75232">
        <ele>122.1</ele>
        <time>2015-06-01T13:55:21.628Z</time>
      </trkpt>
      <trkpt lat="49.6774" lon="3.75239">
        <ele>122.2</ele>
        <time>2015-06-01T13:55:27.618Z</time>
      </trkpt>
      <trkpt lat="49.67742" lon="3.7524">
        <ele>122.1</ele>
        <time>2015-06-01T13:55:28.620Z</time>
      </trkpt>
      <trkpt lat="49.67749" lon="3.75247">
        <ele>121.4</ele>
        <time>2015-06-01T13:55:34.588Z</time>
      </trkpt>
      <trkpt lat="49.67751" lon="3.75248">
        <ele>121.3</ele>
        <time>2015-06-01T13:55:35.590Z</time>
      </trkpt>
      <trkpt lat="49.67756" lon="3.75255">
        <ele>121.1</ele>
        <time>2015-06-01T13:55:40.623Z</time>
      </trkpt>
      <trkpt lat="49.67758" lon="3.75257">
        <ele>121.3</ele>
        <time>2015-06-01T13:55:41.641Z</time>
      </trkpt>
      <trkpt lat="49.67765" lon="3.75264">
        <ele>121.3</ele>
        <time>2015-06-01T13:55:47.591Z</time>
      </trkpt>
      <trkpt lat="49.67766" lon="3.75265">
        <ele>121.2</ele>
        <time>2015-06-01T13:55:48.601Z</time>
      </trkpt>
      <trkpt lat="49.67773" lon="3.75271">
        <ele>121.4</ele>
        <time>2015-06-01T13:55:55.595Z</time>
      </trkpt>
      <trkpt lat="49.67774" lon="3.75272">
        <ele>121.5</ele>
        <time>2015-06-01T13:55:56.618Z</time>
      </trkpt>
      <trkpt lat="49.67781" lon="3.75279">
        <ele>121.3</ele>
        <time>2015-06-01T13:56:02.659Z</time>
      </trkpt>
      <trkpt lat="49.67783" lon="3.7528">
        <ele>121.4</ele>
        <time>2015-06-01T13:56:03.673Z</time>
      </trkpt>
      <trkpt lat="49.6779" lon="3.75288">
        <ele>121.4</ele>
        <time>2015-06-01T13:56:10.713Z</time>
      </trkpt>
      <trkpt lat="49.67791" lon="3.75289">
        <ele>121.4</ele>
        <time>2015-06-01T13:56:11.561Z</time>
      </trkpt>
      <trkpt lat="49.67798" lon="3.75295">
        <ele>122.1</ele>
        <time>2015-06-01T13:56:18.636Z</time>
      </trkpt>
      <trkpt lat="49.67799" lon="3.75296">
        <ele>121.9</ele>
        <time>2015-06-01T13:56:19.579Z</time>
      </trkpt>
      <trkpt lat="49.67806" lon="3.75301">
        <ele>121.8</ele>
        <time>2015-06-01T13:56:28.628Z</time>
      </trkpt>
      <trkpt lat="49.67807" lon="3.75302">
        <ele>121.8</ele>
        <time>2015-06-01T13:56:29.639Z</time>
      </trkpt>
      <trkpt lat="49.67814" lon="3.7531">
        <ele>122.1</ele>
        <time>2015-06-01T13:56:55.675Z</time>
      </trkpt>
      <trkpt lat="49.67815" lon="3.75311">
        <ele>122.1</ele>
        <time>2015-06-01T13:56:56.686Z</time>
      </trkpt>
      <trkpt lat="49.67814" lon="3.75311">
        <ele>122.1</ele>
        <time>2015-06-01T13:56:58.589Z</time>
      </trkpt>
      <trkpt lat="49.67814" lon="3.75311">
        <ele>122.2</ele>
        <time>2015-06-01T13:56:59.596Z</time>
      </trkpt>
      <trkpt lat="49.67814" lon="3.7531">
        <ele>122.2</ele>
        <time>2015-06-01T13:57:00.598Z</time>
      </trkpt>
      <trkpt lat="49.67813" lon="3.75309">
        <ele>122.2</ele>
        <time>2015-06-01T13:57:03.638Z</time>
      </trkpt>
      <trkpt lat="49.67813" lon="3.75309">
        <ele>122.3</ele>
        <time>2015-06-01T13:57:04.675Z</time>
      </trkpt>
      <trkpt lat="49.67813" lon="3.75308">
        <ele>122.3</ele>
        <time>2015-06-01T13:57:08.803Z</time>
      </trkpt>
      <trkpt lat="49.67813" lon="3.75309">
        <ele>122.5</ele>
        <time>2015-06-01T13:57:09.598Z</time>
      </trkpt>
      <trkpt lat="49.6781" lon="3.75311">
        <ele>122.5</ele>
        <time>2015-06-01T13:57:15.660Z</time>
      </trkpt>
      <trkpt lat="49.6781" lon="3.75311">
        <ele>122.5</ele>
        <time>2015-06-01T13:57:16.662Z</time>
      </trkpt>
      <trkpt lat="49.67809" lon="3.75311">
        <ele>122.4</ele>
        <time>2015-06-01T13:57:17.672Z</time>
      </trkpt>
      <trkpt lat="49.67809" lon="3.75314">
        <ele>121.9</ele>
        <time>2015-06-01T13:57:28.632Z</time>
      </trkpt>
      <trkpt lat="49.67809" lon="3.75314">
        <ele>121.9</ele>
        <time>2015-06-01T13:57:29.655Z</time>
      </trkpt>
      <trkpt lat="49.6781" lon="3.75313">
        <ele>121.6</ele>
        <time>2015-06-01T13:57:34.573Z</time>
      </trkpt>
      <trkpt lat="49.67809" lon="3.75313">
        <ele>121.4</ele>
        <time>2015-06-01T13:57:35.593Z</time>
      </trkpt>
      <trkpt lat="49.6781" lon="3.75313">
        <ele>121.3</ele>
        <time>2015-06-01T13:57:36.604Z</time>
      </trkpt>
      <trkpt lat="49.6781" lon="3.75313">
        <ele>121.2</ele>
        <time>2015-06-01T13:57:37.622Z</time>
      </trkpt>
      <trkpt lat="49.6781" lon="3.75312">
        <ele>121.2</ele>
        <time>2015-06-01T13:57:41.573Z</time>
      </trkpt>
      <trkpt lat="49.67811" lon="3.75312">
        <ele>121.2</ele>
        <time>2015-06-01T13:57:42.582Z</time>
      </trkpt>
      <trkpt lat="49.67816" lon="3.75301">
        <ele>122.6</ele>
        <time>2015-06-01T13:58:01.572Z</time>
      </trkpt>
      <trkpt lat="49.67817" lon="3.75301">
        <ele>122.8</ele>
        <time>2015-06-01T13:58:02.618Z</time>
      </trkpt>
      <trkpt lat="49.67817" lon="3.753">
        <ele>122.8</ele>
        <time>2015-06-01T13:58:03.617Z</time>
      </trkpt>
      <trkpt lat="49.67817" lon="3.753">
        <ele>122.8</ele>
        <time>2015-06-01T13:58:04.635Z</time>
      </trkpt>
      <trkpt lat="49.67817" lon="3.75299">
        <ele>122.6</ele>
        <time>2015-06-01T13:58:17.633Z</time>
      </trkpt>
      <trkpt lat="49.67816" lon="3.753">
        <ele>122.5</ele>
        <time>2015-06-01T13:58:18.645Z</time>
      </trkpt>
      <trkpt lat="49.6782" lon="3.75296">
        <ele>121.9</ele>
        <time>2015-06-01T13:58:24.638Z</time>
      </trkpt>
      <trkpt lat="49.6782" lon="3.75296">
        <ele>121.8</ele>
        <time>2015-06-01T13:58:25.563Z</time>
      </trkpt>
      <trkpt lat="49.6782" lon="3.75295">
        <ele>121.8</ele>
        <time>2015-06-01T13:58:26.598Z</time>
      </trkpt>
      <trkpt lat="49.67823" lon="3.7529">
        <ele>121.6</ele>
        <time>2015-06-01T13:58:36.657Z</time>
      </trkpt>
      <trkpt lat="49.67823" lon="3.7529">
        <ele>121.6</ele>
        <time>2015-06-01T13:58:37.571Z</time>
      </trkpt>
      <trkpt lat="49.67823" lon="3.7529">
        <ele>121.7</ele>
        <time>2015-06-01T13:58:52.702Z</time>
      </trkpt>
      <trkpt lat="49.67823" lon="3.7529">
        <ele>121.7</ele>
        <time>2015-06-01T13:58:53.640Z</time>
      </trkpt>
      <trkpt lat="49.67825" lon="3.75288">
        <ele>121.7</ele>
        <time>2015-06-01T13:58:56.700Z</time>
      </trkpt>
      <trkpt lat="49.67825" lon="3.75288">
        <ele>121.8</ele>
        <time>2015-06-01T13:58:57.580Z</time>
      </trkpt>
      <trkpt lat="49.67825" lon="3.75288">
        <ele>122</ele>
        <time>2015-06-01T13:59:07.661Z</time>
      </trkpt>
      <trkpt lat="49.67826" lon="3.75286">
        <ele>121.6</ele>
        <time>2015-06-01T13:59:08.675Z</time>
      </trkpt>
      <trkpt lat="49.67831" lon="3.75275">
        <ele>122</ele>
        <time>2015-06-01T13:59:21.582Z</time>
      </trkpt>
      <trkpt lat="49.67832" lon="3.75274">
        <ele>122.1</ele>
        <time>2015-06-01T13:59:22.581Z</time>
      </trkpt>
      <trkpt lat="49.6784" lon="3.75268">
        <ele>122.5</ele>
        <time>2015-06-01T13:59:30.656Z</time>
      </trkpt>
      <trkpt lat="49.67841" lon="3.75267">
        <ele>122.7</ele>
        <time>2015-06-01T13:59:31.661Z</time>
      </trkpt>
      <trkpt lat="49.67847" lon="3.75259">
        <ele>123</ele>
        <time>2015-06-01T13:59:38.638Z</time>
      </trkpt>
      <trkpt lat="49.67848" lon="3.75258">
        <ele>123.1</ele>
        <time>2015-06-01T13:59:39.648Z</time>
      </trkpt>
      <trkpt lat="49.67855" lon="3.7525">
        <ele>123.4</ele>
        <time>2015-06-01T13:59:47.611Z</time>
      </trkpt>
      <trkpt lat="49.67855" lon="3.7525">
        <ele>123.4</ele>
        <time>2015-06-01T13:59:48.604Z</time>
      </trkpt>
      <trkpt lat="49.67861" lon="3.75239">
        <ele>123.4</ele>
        <time>2015-06-01T13:59:56.684Z</time>
      </trkpt>
      <trkpt lat="49.67862" lon="3.75238">
        <ele>123.4</ele>
        <time>2015-06-01T13:59:57.823Z</time>
      </trkpt>
      <trkpt lat="49.67867" lon="3.75227">
        <ele>123</ele>
        <time>2015-06-01T14:00:04.651Z</time>
      </trkpt>
      <trkpt lat="49.67868" lon="3.75226">
        <ele>122.9</ele>
        <time>2015-06-01T14:00:05.676Z</time>
      </trkpt>
      <trkpt lat="49.67874" lon="3.75215">
        <ele>122.9</ele>
        <time>2015-06-01T14:00:13.589Z</time>
      </trkpt>
      <trkpt lat="49.67875" lon="3.75214">
        <ele>122.9</ele>
        <time>2015-06-01T14:00:14.628Z</time>
      </trkpt>
      <trkpt lat="49.67881" lon="3.75205">
        <ele>123.2</ele>
        <time>2015-06-01T14:00:21.620Z</time>
      </trkpt>
      <trkpt lat="49.67881" lon="3.75204">
        <ele>123.2</ele>
        <time>2015-06-01T14:00:22.629Z</time>
      </trkpt>
      <trkpt lat="49.67886" lon="3.75194">
        <ele>124</ele>
        <time>2015-06-01T14:00:29.587Z</time>
      </trkpt>
      <trkpt lat="49.67887" lon="3.75193">
        <ele>124</ele>
        <time>2015-06-01T14:00:30.594Z</time>
      </trkpt>
      <trkpt lat="49.67892" lon="3.75183">
        <ele>124</ele>
        <time>2015-06-01T14:00:38.695Z</time>
      </trkpt>
      <trkpt lat="49.67893" lon="3.75182">
        <ele>124</ele>
        <time>2015-06-01T14:00:39.594Z</time>
      </trkpt>
      <trkpt lat="49.67899" lon="3.75173">
        <ele>124</ele>
        <time>2015-06-01T14:00:47.669Z</time>
      </trkpt>
      <trkpt lat="49.679" lon="3.75172">
        <ele>123.9</ele>
        <time>2015-06-01T14:00:48.685Z</time>
      </trkpt>
      <trkpt lat="49.67906" lon="3.75163">
        <ele>123.9</ele>
        <time>2015-06-01T14:00:56.685Z</time>
      </trkpt>
      <trkpt lat="49.67907" lon="3.75162">
        <ele>123.9</ele>
        <time>2015-06-01T14:00:57.596Z</time>
      </trkpt>
      <trkpt lat="49.67913" lon="3.75151">
        <ele>123.6</ele>
        <time>2015-06-01T14:01:05.671Z</time>
      </trkpt>
      <trkpt lat="49.67914" lon="3.7515">
        <ele>123.6</ele>
        <time>2015-06-01T14:01:06.677Z</time>
      </trkpt>
      <trkpt lat="49.6792" lon="3.7514">
        <ele>123.6</ele>
        <time>2015-06-01T14:01:13.679Z</time>
      </trkpt>
      <trkpt lat="49.67921" lon="3.75139">
        <ele>123.6</ele>
        <time>2015-06-01T14:01:14.682Z</time>
      </trkpt>
      <trkpt lat="49.67927" lon="3.7513">
        <ele>123.5</ele>
        <time>2015-06-01T14:01:23.951Z</time>
      </trkpt>
      <trkpt lat="49.67928" lon="3.75129">
        <ele>123.5</ele>
        <time>2015-06-01T14:01:24.682Z</time>
      </trkpt>
      <trkpt lat="49.67934" lon="3.75119">
        <ele>123.7</ele>
        <time>2015-06-01T14:01:30.630Z</time>
      </trkpt>
      <trkpt lat="49.67935" lon="3.75117">
        <ele>123.7</ele>
        <time>2015-06-01T14:01:31.604Z</time>
      </trkpt>
      <trkpt lat="49.67941" lon="3.75108">
        <ele>123.7</ele>
        <time>2015-06-01T14:01:38.672Z</time>
      </trkpt>
      <trkpt lat="49.67942" lon="3.75107">
        <ele>123.5</ele>
        <time>2015-06-01T14:01:39.675Z</time>
      </trkpt>
      <trkpt lat="49.67947" lon="3.75097">
        <ele>122.9</ele>
        <time>2015-06-01T14:01:47.681Z</time>
      </trkpt>
      <trkpt lat="49.67947" lon="3.75096">
        <ele>122.9</ele>
        <time>2015-06-01T14:01:48.598Z</time>
      </trkpt>
      <trkpt lat="49.67953" lon="3.75087">
        <ele>122.6</ele>
        <time>2015-06-01T14:01:55.594Z</time>
      </trkpt>
      <trkpt lat="49.67953" lon="3.75086">
        <ele>122.6</ele>
        <time>2015-06-01T14:01:56.668Z</time>
      </trkpt>
      <trkpt lat="49.67959" lon="3.75077">
        <ele>122.4</ele>
        <time>2015-06-01T14:02:03.985Z</time>
      </trkpt>
      <trkpt lat="49.6796" lon="3.75075">
        <ele>122.4</ele>
        <time>2015-06-01T14:02:05.049Z</time>
      </trkpt>
      <trkpt lat="49.67964" lon="3.75066">
        <ele>122.4</ele>
        <time>2015-06-01T14:02:11.608Z</time>
      </trkpt>
      <trkpt lat="49.67965" lon="3.75064">
        <ele>122.4</ele>
        <time>2015-06-01T14:02:12.606Z</time>
      </trkpt>
      <trkpt lat="49.67972" lon="3.75056">
        <ele>122.3</ele>
        <time>2015-06-01T14:02:18.653Z</time>
      </trkpt>
      <trkpt lat="49.67973" lon="3.75055">
        <ele>122.5</ele>
        <time>2015-06-01T14:02:19.661Z</time>
      </trkpt>
      <trkpt lat="49.67979" lon="3.75046">
        <ele>122.7</ele>
        <time>2015-06-01T14:02:26.648Z</time>
      </trkpt>
      <trkpt lat="49.6798" lon="3.75045">
        <ele>122.8</ele>
        <time>2015-06-01T14:02:27.658Z</time>
      </trkpt>
      <trkpt lat="49.67985" lon="3.75037">
        <ele>123</ele>
        <time>2015-06-01T14:02:34.670Z</time>
      </trkpt>
      <trkpt lat="49.67986" lon="3.75035">
        <ele>122.8</ele>
        <time>2015-06-01T14:02:35.685Z</time>
      </trkpt>
      <trkpt lat="49.67992" lon="3.75027">
        <ele>122.7</ele>
        <time>2015-06-01T14:02:42.682Z</time>
      </trkpt>
      <trkpt lat="49.67993" lon="3.75025">
        <ele>122.8</ele>
        <time>2015-06-01T14:02:43.683Z</time>
      </trkpt>
      <trkpt lat="49.67998" lon="3.75017">
        <ele>123</ele>
        <time>2015-06-01T14:02:50.651Z</time>
      </trkpt>
      <trkpt lat="49.67999" lon="3.75015">
        <ele>122.9</ele>
        <time>2015-06-01T14:02:51.650Z</time>
      </trkpt>
      <trkpt lat="49.68005" lon="3.75006">
        <ele>122.7</ele>
        <time>2015-06-01T14:02:58.595Z</time>
      </trkpt>
      <trkpt lat="49.68006" lon="3.75005">
        <ele>122.6</ele>
        <time>2015-06-01T14:02:59.602Z</time>
      </trkpt>
      <trkpt lat="49.68012" lon="3.74995">
        <ele>122.2</ele>
        <time>2015-06-01T14:03:06.667Z</time>
      </trkpt>
      <trkpt lat="49.68013" lon="3.74994">
        <ele>122.3</ele>
        <time>2015-06-01T14:03:07.593Z</time>
      </trkpt>
      <trkpt lat="49.68019" lon="3.74984">
        <ele>122.3</ele>
        <time>2015-06-01T14:03:14.641Z</time>
      </trkpt>
      <trkpt lat="49.6802" lon="3.74983">
        <ele>122.3</ele>
        <time>2015-06-01T14:03:15.651Z</time>
      </trkpt>
      <trkpt lat="49.68026" lon="3.74974">
        <ele>122.3</ele>
        <time>2015-06-01T14:03:22.605Z</time>
      </trkpt>
      <trkpt lat="49.68027" lon="3.74973">
        <ele>122.1</ele>
        <time>2015-06-01T14:03:23.610Z</time>
      </trkpt>
      <trkpt lat="49.68033" lon="3.74964">
        <ele>121.3</ele>
        <time>2015-06-01T14:03:30.608Z</time>
      </trkpt>
      <trkpt lat="49.68033" lon="3.74963">
        <ele>121.3</ele>
        <time>2015-06-01T14:03:31.598Z</time>
      </trkpt>
      <trkpt lat="49.68039" lon="3.74953">
        <ele>121.1</ele>
        <time>2015-06-01T14:03:38.643Z</time>
      </trkpt>
      <trkpt lat="49.6804" lon="3.74952">
        <ele>121</ele>
        <time>2015-06-01T14:03:39.657Z</time>
      </trkpt>
      <trkpt lat="49.68047" lon="3.74943">
        <ele>120.8</ele>
        <time>2015-06-01T14:03:46.614Z</time>
      </trkpt>
      <trkpt lat="49.68047" lon="3.74941">
        <ele>120.8</ele>
        <time>2015-06-01T14:03:47.625Z</time>
      </trkpt>
      <trkpt lat="49.68054" lon="3.74931">
        <ele>120.3</ele>
        <time>2015-06-01T14:03:54.676Z</time>
      </trkpt>
      <trkpt lat="49.68054" lon="3.7493">
        <ele>120.2</ele>
        <time>2015-06-01T14:03:55.679Z</time>
      </trkpt>
      <trkpt lat="49.68061" lon="3.74921">
        <ele>119.8</ele>
        <time>2015-06-01T14:04:02.649Z</time>
      </trkpt>
      <trkpt lat="49.68062" lon="3.7492">
        <ele>119.9</ele>
        <time>2015-06-01T14:04:03.640Z</time>
      </trkpt>
      <trkpt lat="49.68068" lon="3.74911">
        <ele>119.7</ele>
        <time>2015-06-01T14:04:10.603Z</time>
      </trkpt>
      <trkpt lat="49.68069" lon="3.7491">
        <ele>119.7</ele>
        <time>2015-06-01T14:04:11.611Z</time>
      </trkpt>
      <trkpt lat="49.68074" lon="3.74901">
        <ele>119</ele>
        <time>2015-06-01T14:04:18.668Z</time>
      </trkpt>
      <trkpt lat="49.68075" lon="3.74899">
        <ele>118.8</ele>
        <time>2015-06-01T14:04:19.679Z</time>
      </trkpt>
      <trkpt lat="49.68081" lon="3.7489">
        <ele>118</ele>
        <time>2015-06-01T14:04:26.663Z</time>
      </trkpt>
      <trkpt lat="49.68082" lon="3.74889">
        <ele>118</ele>
        <time>2015-06-01T14:04:27.688Z</time>
      </trkpt>
      <trkpt lat="49.68088" lon="3.7488">
        <ele>117.4</ele>
        <time>2015-06-01T14:04:34.647Z</time>
      </trkpt>
      <trkpt lat="49.68089" lon="3.74879">
        <ele>117.3</ele>
        <time>2015-06-01T14:04:35.665Z</time>
      </trkpt>
      <trkpt lat="49.68095" lon="3.7487">
        <ele>116.9</ele>
        <time>2015-06-01T14:04:42.605Z</time>
      </trkpt>
      <trkpt lat="49.68096" lon="3.74869">
        <ele>116.7</ele>
        <time>2015-06-01T14:04:43.615Z</time>
      </trkpt>
      <trkpt lat="49.68102" lon="3.7486">
        <ele>116.5</ele>
        <time>2015-06-01T14:04:50.647Z</time>
      </trkpt>
      <trkpt lat="49.68102" lon="3.74858">
        <ele>116.6</ele>
        <time>2015-06-01T14:04:51.632Z</time>
      </trkpt>
      <trkpt lat="49.68108" lon="3.74849">
        <ele>116.6</ele>
        <time>2015-06-01T14:04:58.597Z</time>
      </trkpt>
      <trkpt lat="49.68109" lon="3.74848">
        <ele>116.6</ele>
        <time>2015-06-01T14:04:59.624Z</time>
      </trkpt>
      <trkpt lat="49.68114" lon="3.74838">
        <ele>116.4</ele>
        <time>2015-06-01T14:05:06.608Z</time>
      </trkpt>
      <trkpt lat="49.68115" lon="3.74837">
        <ele>116.5</ele>
        <time>2015-06-01T14:05:07.603Z</time>
      </trkpt>
      <trkpt lat="49.68121" lon="3.74828">
        <ele>116</ele>
        <time>2015-06-01T14:05:14.685Z</time>
      </trkpt>
      <trkpt lat="49.68122" lon="3.74826">
        <ele>116</ele>
        <time>2015-06-01T14:05:15.596Z</time>
      </trkpt>
      <trkpt lat="49.68127" lon="3.74817">
        <ele>115.7</ele>
        <time>2015-06-01T14:05:22.659Z</time>
      </trkpt>
      <trkpt lat="49.68128" lon="3.74816">
        <ele>115.7</ele>
        <time>2015-06-01T14:05:23.668Z</time>
      </trkpt>
      <trkpt lat="49.68133" lon="3.74806">
        <ele>115.6</ele>
        <time>2015-06-01T14:05:30.695Z</time>
      </trkpt>
      <trkpt lat="49.68134" lon="3.74805">
        <ele>115.7</ele>
        <time>2015-06-01T14:05:31.585Z</time>
      </trkpt>
      <trkpt lat="49.68139" lon="3.74793">
        <ele>116</ele>
        <time>2015-06-01T14:05:39.668Z</time>
      </trkpt>
      <trkpt lat="49.6814" lon="3.74792">
        <ele>115.8</ele>
        <time>2015-06-01T14:05:40.660Z</time>
      </trkpt>
      <trkpt lat="49.68144" lon="3.74781">
        <ele>116</ele>
        <time>2015-06-01T14:05:48.607Z</time>
      </trkpt>
      <trkpt lat="49.68145" lon="3.74779">
        <ele>115.9</ele>
        <time>2015-06-01T14:05:49.619Z</time>
      </trkpt>
      <trkpt lat="49.68147" lon="3.74767">
        <ele>115.9</ele>
        <time>2015-06-01T14:05:56.649Z</time>
      </trkpt>
      <trkpt lat="49.68148" lon="3.74765">
        <ele>115.8</ele>
        <time>2015-06-01T14:05:57.653Z</time>
      </trkpt>
      <trkpt lat="49.68149" lon="3.74752">
        <ele>114.7</ele>
        <time>2015-06-01T14:06:05.592Z</time>
      </trkpt>
      <trkpt lat="49.68149" lon="3.74751">
        <ele>114.6</ele>
        <time>2015-06-01T14:06:06.594Z</time>
      </trkpt>
      <trkpt lat="49.6815" lon="3.74738">
        <ele>114.7</ele>
        <time>2015-06-01T14:06:14.684Z</time>
      </trkpt>
      <trkpt lat="49.6815" lon="3.74737">
        <ele>114.6</ele>
        <time>2015-06-01T14:06:15.583Z</time>
      </trkpt>
      <trkpt lat="49.68151" lon="3.74724">
        <ele>114.6</ele>
        <time>2015-06-01T14:06:23.677Z</time>
      </trkpt>
      <trkpt lat="49.68151" lon="3.74722">
        <ele>114.7</ele>
        <time>2015-06-01T14:06:24.636Z</time>
      </trkpt>
      <trkpt lat="49.6815" lon="3.74709">
        <ele>114</ele>
        <time>2015-06-01T14:06:33.663Z</time>
      </trkpt>
      <trkpt lat="49.6815" lon="3.74708">
        <ele>113.9</ele>
        <time>2015-06-01T14:06:34.668Z</time>
      </trkpt>
      <trkpt lat="49.68152" lon="3.74695">
        <ele>113</ele>
        <time>2015-06-01T14:06:43.692Z</time>
      </trkpt>
      <trkpt lat="49.68153" lon="3.74693">
        <ele>112.9</ele>
        <time>2015-06-01T14:06:44.707Z</time>
      </trkpt>
      <trkpt lat="49.68156" lon="3.74681">
        <ele>112.1</ele>
        <time>2015-06-01T14:06:53.690Z</time>
      </trkpt>
      <trkpt lat="49.68156" lon="3.7468">
        <ele>111.9</ele>
        <time>2015-06-01T14:06:54.582Z</time>
      </trkpt>
      <trkpt lat="49.68159" lon="3.74668">
        <ele>111.3</ele>
        <time>2015-06-01T14:07:01.592Z</time>
      </trkpt>
      <trkpt lat="49.68159" lon="3.74666">
        <ele>111.3</ele>
        <time>2015-06-01T14:07:02.646Z</time>
      </trkpt>
      <trkpt lat="49.68162" lon="3.74654">
        <ele>110.1</ele>
        <time>2015-06-01T14:07:09.665Z</time>
      </trkpt>
      <trkpt lat="49.68162" lon="3.74653">
        <ele>110.1</ele>
        <time>2015-06-01T14:07:10.668Z</time>
      </trkpt>
      <trkpt lat="49.68164" lon="3.7464">
        <ele>109.7</ele>
        <time>2015-06-01T14:07:18.681Z</time>
      </trkpt>
      <trkpt lat="49.68164" lon="3.74637">
        <ele>109.9</ele>
        <time>2015-06-01T14:07:19.591Z</time>
      </trkpt>
      <trkpt lat="49.68164" lon="3.74624">
        <ele>111</ele>
        <time>2015-06-01T14:07:26.648Z</time>
      </trkpt>
      <trkpt lat="49.68164" lon="3.74622">
        <ele>111.2</ele>
        <time>2015-06-01T14:07:27.643Z</time>
      </trkpt>
      <trkpt lat="49.68165" lon="3.74609">
        <ele>111.4</ele>
        <time>2015-06-01T14:07:35.658Z</time>
      </trkpt>
      <trkpt lat="49.68165" lon="3.74608">
        <ele>111.4</ele>
        <time>2015-06-01T14:07:36.676Z</time>
      </trkpt>
      <trkpt lat="49.68167" lon="3.74595">
        <ele>111.6</ele>
        <time>2015-06-01T14:07:43.597Z</time>
      </trkpt>
      <trkpt lat="49.68168" lon="3.74594">
        <ele>111.4</ele>
        <time>2015-06-01T14:07:44.638Z</time>
      </trkpt>
      <trkpt lat="49.68172" lon="3.74584">
        <ele>111.2</ele>
        <time>2015-06-01T14:07:50.654Z</time>
      </trkpt>
      <trkpt lat="49.68173" lon="3.74582">
        <ele>111.2</ele>
        <time>2015-06-01T14:07:51.668Z</time>
      </trkpt>
      <trkpt lat="49.68179" lon="3.74573">
        <ele>110.1</ele>
        <time>2015-06-01T14:07:57.689Z</time>
      </trkpt>
      <trkpt lat="49.6818" lon="3.74571">
        <ele>110</ele>
        <time>2015-06-01T14:07:58.672Z</time>
      </trkpt>
      <trkpt lat="49.68186" lon="3.74563">
        <ele>108.7</ele>
        <time>2015-06-01T14:08:06.676Z</time>
      </trkpt>
      <trkpt lat="49.68186" lon="3.74561">
        <ele>108.8</ele>
        <time>2015-06-01T14:08:07.680Z</time>
      </trkpt>
      <trkpt lat="49.68192" lon="3.74552">
        <ele>109.8</ele>
        <time>2015-06-01T14:08:13.618Z</time>
      </trkpt>
      <trkpt lat="49.68193" lon="3.74551">
        <ele>109.9</ele>
        <time>2015-06-01T14:08:14.638Z</time>
      </trkpt>
      <trkpt lat="49.68202" lon="3.74548">
        <ele>110.2</ele>
        <time>2015-06-01T14:08:20.703Z</time>
      </trkpt>
      <trkpt lat="49.68203" lon="3.74547">
        <ele>110.3</ele>
        <time>2015-06-01T14:08:21.609Z</time>
      </trkpt>
      <trkpt lat="49.6821" lon="3.74542">
        <ele>110.4</ele>
        <time>2015-06-01T14:08:29.684Z</time>
      </trkpt>
      <trkpt lat="49.68211" lon="3.74541">
        <ele>110.5</ele>
        <time>2015-06-01T14:08:30.600Z</time>
      </trkpt>
      <trkpt lat="49.68218" lon="3.74534">
        <ele>110.5</ele>
        <time>2015-06-01T14:08:38.660Z</time>
      </trkpt>
      <trkpt lat="49.68219" lon="3.74534">
        <ele>110.5</ele>
        <time>2015-06-01T14:08:39.671Z</time>
      </trkpt>
      <trkpt lat="49.68227" lon="3.74529">
        <ele>110.9</ele>
        <time>2015-06-01T14:08:47.642Z</time>
      </trkpt>
      <trkpt lat="49.68228" lon="3.74528">
        <ele>110.9</ele>
        <time>2015-06-01T14:08:48.656Z</time>
      </trkpt>
      <trkpt lat="49.68235" lon="3.74519">
        <ele>110.8</ele>
        <time>2015-06-01T14:08:58.625Z</time>
      </trkpt>
      <trkpt lat="49.68236" lon="3.74519">
        <ele>110.8</ele>
        <time>2015-06-01T14:08:59.636Z</time>
      </trkpt>
      <trkpt lat="49.68243" lon="3.74513">
        <ele>110.9</ele>
        <time>2015-06-01T14:09:05.575Z</time>
      </trkpt>
      <trkpt lat="49.68244" lon="3.74512">
        <ele>110.9</ele>
        <time>2015-06-01T14:09:06.583Z</time>
      </trkpt>
      <trkpt lat="49.68251" lon="3.74508">
        <ele>110.2</ele>
        <time>2015-06-01T14:09:13.579Z</time>
      </trkpt>
      <trkpt lat="49.68252" lon="3.74507">
        <ele>110.2</ele>
        <time>2015-06-01T14:09:14.871Z</time>
      </trkpt>
      <trkpt lat="49.6826" lon="3.74503">
        <ele>110</ele>
        <time>2015-06-01T14:09:21.626Z</time>
      </trkpt>
      <trkpt lat="49.68261" lon="3.74502">
        <ele>110.1</ele>
        <time>2015-06-01T14:09:22.629Z</time>
      </trkpt>
      <trkpt lat="49.68268" lon="3.74496">
        <ele>110.6</ele>
        <time>2015-06-01T14:09:29.576Z</time>
      </trkpt>
      <trkpt lat="49.6827" lon="3.74495">
        <ele>110.7</ele>
        <time>2015-06-01T14:09:30.593Z</time>
      </trkpt>
      <trkpt lat="49.68276" lon="3.74486">
        <ele>111.1</ele>
        <time>2015-06-01T14:09:36.633Z</time>
      </trkpt>
      <trkpt lat="49.68277" lon="3.74485">
        <ele>110.7</ele>
        <time>2015-06-01T14:09:37.643Z</time>
      </trkpt>
      <trkpt lat="49.68285" lon="3.7448">
        <ele>111.2</ele>
        <time>2015-06-01T14:09:43.590Z</time>
      </trkpt>
      <trkpt lat="49.68286" lon="3.74479">
        <ele>111.1</ele>
        <time>2015-06-01T14:09:44.638Z</time>
      </trkpt>
      <trkpt lat="49.68293" lon="3.74472">
        <ele>111</ele>
        <time>2015-06-01T14:09:51.633Z</time>
      </trkpt>
      <trkpt lat="49.68294" lon="3.74471">
        <ele>110.8</ele>
        <time>2015-06-01T14:09:52.630Z</time>
      </trkpt>
      <trkpt lat="49.683" lon="3.74463">
        <ele>111</ele>
        <time>2015-06-01T14:09:59.672Z</time>
      </trkpt>
      <trkpt lat="49.68301" lon="3.74461">
        <ele>110.9</ele>
        <time>2015-06-01T14:10:00.589Z</time>
      </trkpt>
      <trkpt lat="49.68308" lon="3.74453">
        <ele>111.8</ele>
        <time>2015-06-01T14:10:07.672Z</time>
      </trkpt>
      <trkpt lat="49.68309" lon="3.74452">
        <ele>111.8</ele>
        <time>2015-06-01T14:10:08.680Z</time>
      </trkpt>
      <trkpt lat="49.68314" lon="3.74443">
        <ele>112</ele>
        <time>2015-06-01T14:10:15.656Z</time>
      </trkpt>
      <trkpt lat="49.68315" lon="3.74442">
        <ele>112.1</ele>
        <time>2015-06-01T14:10:16.655Z</time>
      </trkpt>
      <trkpt lat="49.68321" lon="3.74433">
        <ele>112.1</ele>
        <time>2015-06-01T14:10:22.650Z</time>
      </trkpt>
      <trkpt lat="49.68322" lon="3.74432">
        <ele>112</ele>
        <time>2015-06-01T14:10:23.658Z</time>
      </trkpt>
      <trkpt lat="49.68328" lon="3.74425">
        <ele>112.7</ele>
        <time>2015-06-01T14:10:29.667Z</time>
      </trkpt>
      <trkpt lat="49.68329" lon="3.74423">
        <ele>112.7</ele>
        <time>2015-06-01T14:10:30.676Z</time>
      </trkpt>
      <trkpt lat="49.68335" lon="3.74415">
        <ele>113</ele>
        <time>2015-06-01T14:10:36.654Z</time>
      </trkpt>
      <trkpt lat="49.68336" lon="3.74413">
        <ele>113.2</ele>
        <time>2015-06-01T14:10:37.671Z</time>
      </trkpt>
      <trkpt lat="49.68342" lon="3.74405">
        <ele>113.2</ele>
        <time>2015-06-01T14:10:43.638Z</time>
      </trkpt>
      <trkpt lat="49.68343" lon="3.74403">
        <ele>113.2</ele>
        <time>2015-06-01T14:10:44.640Z</time>
      </trkpt>
      <trkpt lat="49.68349" lon="3.74394">
        <ele>113.5</ele>
        <time>2015-06-01T14:10:51.601Z</time>
      </trkpt>
      <trkpt lat="49.6835" lon="3.74393">
        <ele>113.6</ele>
        <time>2015-06-01T14:10:52.595Z</time>
      </trkpt>
      <trkpt lat="49.68357" lon="3.74384">
        <ele>113.9</ele>
        <time>2015-06-01T14:10:59.660Z</time>
      </trkpt>
      <trkpt lat="49.68358" lon="3.74383">
        <ele>113.8</ele>
        <time>2015-06-01T14:11:00.688Z</time>
      </trkpt>
      <trkpt lat="49.68365" lon="3.74376">
        <ele>113.8</ele>
        <time>2015-06-01T14:11:07.650Z</time>
      </trkpt>
      <trkpt lat="49.68365" lon="3.74374">
        <ele>113.9</ele>
        <time>2015-06-01T14:11:08.658Z</time>
      </trkpt>
      <trkpt lat="49.68372" lon="3.74366">
        <ele>113.9</ele>
        <time>2015-06-01T14:11:15.638Z</time>
      </trkpt>
      <trkpt lat="49.68372" lon="3.74364">
        <ele>114</ele>
        <time>2015-06-01T14:11:16.653Z</time>
      </trkpt>
      <trkpt lat="49.68379" lon="3.74355">
        <ele>114.8</ele>
        <time>2015-06-01T14:11:23.671Z</time>
      </trkpt>
      <trkpt lat="49.68379" lon="3.74354">
        <ele>114.8</ele>
        <time>2015-06-01T14:11:24.586Z</time>
      </trkpt>
      <trkpt lat="49.68385" lon="3.74345">
        <ele>114.8</ele>
        <time>2015-06-01T14:11:31.598Z</time>
      </trkpt>
      <trkpt lat="49.68386" lon="3.74344">
        <ele>114.7</ele>
        <time>2015-06-01T14:11:32.639Z</time>
      </trkpt>
      <trkpt lat="49.68393" lon="3.74336">
        <ele>114.4</ele>
        <time>2015-06-01T14:11:39.600Z</time>
      </trkpt>
      <trkpt lat="49.68394" lon="3.74335">
        <ele>114.5</ele>
        <time>2015-06-01T14:11:40.610Z</time>
      </trkpt>
      <trkpt lat="49.68401" lon="3.74327">
        <ele>114.9</ele>
        <time>2015-06-01T14:11:46.682Z</time>
      </trkpt>
      <trkpt lat="49.68402" lon="3.74325">
        <ele>115</ele>
        <time>2015-06-01T14:11:47.686Z</time>
      </trkpt>
      <trkpt lat="49.68408" lon="3.74317">
        <ele>115.3</ele>
        <time>2015-06-01T14:11:54.665Z</time>
      </trkpt>
      <trkpt lat="49.6841" lon="3.74316">
        <ele>115.2</ele>
        <time>2015-06-01T14:11:55.668Z</time>
      </trkpt>
      <trkpt lat="49.68416" lon="3.74309">
        <ele>115.7</ele>
        <time>2015-06-01T14:12:01.605Z</time>
      </trkpt>
      <trkpt lat="49.68417" lon="3.74308">
        <ele>115.8</ele>
        <time>2015-06-01T14:12:02.645Z</time>
      </trkpt>
      <trkpt lat="49.68424" lon="3.74299">
        <ele>116.8</ele>
        <time>2015-06-01T14:12:09.632Z</time>
      </trkpt>
      <trkpt lat="49.68425" lon="3.74298">
        <ele>116.9</ele>
        <time>2015-06-01T14:12:10.636Z</time>
      </trkpt>
      <trkpt lat="49.68432" lon="3.74289">
        <ele>117.1</ele>
        <time>2015-06-01T14:12:17.591Z</time>
      </trkpt>
      <trkpt lat="49.68433" lon="3.74288">
        <ele>117</ele>
        <time>2015-06-01T14:12:18.601Z</time>
      </trkpt>
      <trkpt lat="49.68439" lon="3.74281">
        <ele>117.3</ele>
        <time>2015-06-01T14:12:24.684Z</time>
      </trkpt>
      <trkpt lat="49.6844" lon="3.7428">
        <ele>117.1</ele>
        <time>2015-06-01T14:12:25.606Z</time>
      </trkpt>
      <trkpt lat="49.68447" lon="3.74274">
        <ele>117.8</ele>
        <time>2015-06-01T14:12:32.699Z</time>
      </trkpt>
      <trkpt lat="49.68448" lon="3.74272">
        <ele>117.8</ele>
        <time>2015-06-01T14:12:33.603Z</time>
      </trkpt>
      <trkpt lat="49.68454" lon="3.74263">
        <ele>117.4</ele>
        <time>2015-06-01T14:12:39.655Z</time>
      </trkpt>
      <trkpt lat="49.68456" lon="3.74262">
        <ele>117.4</ele>
        <time>2015-06-01T14:12:40.705Z</time>
      </trkpt>
      <trkpt lat="49.68463" lon="3.74255">
        <ele>117.8</ele>
        <time>2015-06-01T14:12:46.659Z</time>
      </trkpt>
      <trkpt lat="49.68464" lon="3.74254">
        <ele>117.7</ele>
        <time>2015-06-01T14:12:47.665Z</time>
      </trkpt>
      <trkpt lat="49.68471" lon="3.74246">
        <ele>117.5</ele>
        <time>2015-06-01T14:12:54.607Z</time>
      </trkpt>
      <trkpt lat="49.68472" lon="3.74245">
        <ele>117.5</ele>
        <time>2015-06-01T14:12:55.618Z</time>
      </trkpt>
      <trkpt lat="49.68476" lon="3.74235">
        <ele>117.8</ele>
        <time>2015-06-01T14:13:02.688Z</time>
      </trkpt>
      <trkpt lat="49.68477" lon="3.74234">
        <ele>117.8</ele>
        <time>2015-06-01T14:13:03.600Z</time>
      </trkpt>
      <trkpt lat="49.68484" lon="3.74225">
        <ele>118.3</ele>
        <time>2015-06-01T14:13:09.656Z</time>
      </trkpt>
      <trkpt lat="49.68485" lon="3.74224">
        <ele>118.3</ele>
        <time>2015-06-01T14:13:10.658Z</time>
      </trkpt>
      <trkpt lat="49.68491" lon="3.74215">
        <ele>118.5</ele>
        <time>2015-06-01T14:13:16.646Z</time>
      </trkpt>
      <trkpt lat="49.68492" lon="3.74214">
        <ele>118.6</ele>
        <time>2015-06-01T14:13:17.657Z</time>
      </trkpt>
      <trkpt lat="49.68498" lon="3.74207">
        <ele>119</ele>
        <time>2015-06-01T14:13:22.606Z</time>
      </trkpt>
      <trkpt lat="49.68499" lon="3.74205">
        <ele>119</ele>
        <time>2015-06-01T14:13:23.645Z</time>
      </trkpt>
      <trkpt lat="49.68505" lon="3.74196">
        <ele>120</ele>
        <time>2015-06-01T14:13:28.611Z</time>
      </trkpt>
      <trkpt lat="49.68506" lon="3.74194">
        <ele>120</ele>
        <time>2015-06-01T14:13:29.612Z</time>
      </trkpt>
      <trkpt lat="49.68513" lon="3.74187">
        <ele>120.7</ele>
        <time>2015-06-01T14:13:35.590Z</time>
      </trkpt>
      <trkpt lat="49.68513" lon="3.74186">
        <ele>120.5</ele>
        <time>2015-06-01T14:13:36.602Z</time>
      </trkpt>
      <trkpt lat="49.68521" lon="3.74181">
        <ele>120.4</ele>
        <time>2015-06-01T14:13:42.645Z</time>
      </trkpt>
      <trkpt lat="49.68523" lon="3.7418">
        <ele>120.4</ele>
        <time>2015-06-01T14:13:43.662Z</time>
      </trkpt>
      <trkpt lat="49.6853" lon="3.74174">
        <ele>120.3</ele>
        <time>2015-06-01T14:13:49.644Z</time>
      </trkpt>
      <trkpt lat="49.6853" lon="3.74172">
        <ele>120.3</ele>
        <time>2015-06-01T14:13:50.656Z</time>
      </trkpt>
      <trkpt lat="49.68537" lon="3.74165">
        <ele>120.2</ele>
        <time>2015-06-01T14:13:56.657Z</time>
      </trkpt>
      <trkpt lat="49.68538" lon="3.74164">
        <ele>120.2</ele>
        <time>2015-06-01T14:13:57.643Z</time>
      </trkpt>
      <trkpt lat="49.68543" lon="3.74156">
        <ele>120.1</ele>
        <time>2015-06-01T14:14:04.683Z</time>
      </trkpt>
      <trkpt lat="49.68545" lon="3.74154">
        <ele>120</ele>
        <time>2015-06-01T14:14:05.680Z</time>
      </trkpt>
      <trkpt lat="49.68551" lon="3.74147">
        <ele>119.8</ele>
        <time>2015-06-01T14:14:11.690Z</time>
      </trkpt>
      <trkpt lat="49.68553" lon="3.74146">
        <ele>119.7</ele>
        <time>2015-06-01T14:14:12.759Z</time>
      </trkpt>
      <trkpt lat="49.6856" lon="3.74141">
        <ele>119.3</ele>
        <time>2015-06-01T14:14:18.659Z</time>
      </trkpt>
      <trkpt lat="49.68561" lon="3.74139">
        <ele>119.4</ele>
        <time>2015-06-01T14:14:19.666Z</time>
      </trkpt>
      <trkpt lat="49.68567" lon="3.7413">
        <ele>120.4</ele>
        <time>2015-06-01T14:14:24.614Z</time>
      </trkpt>
      <trkpt lat="49.68568" lon="3.74128">
        <ele>120.4</ele>
        <time>2015-06-01T14:14:25.607Z</time>
      </trkpt>
      <trkpt lat="49.68575" lon="3.7412">
        <ele>119.5</ele>
        <time>2015-06-01T14:14:32.723Z</time>
      </trkpt>
      <trkpt lat="49.68576" lon="3.7412">
        <ele>119.4</ele>
        <time>2015-06-01T14:14:33.588Z</time>
      </trkpt>
      <trkpt lat="49.68583" lon="3.74111">
        <ele>119.2</ele>
        <time>2015-06-01T14:14:40.609Z</time>
      </trkpt>
      <trkpt lat="49.68583" lon="3.74109">
        <ele>119.1</ele>
        <time>2015-06-01T14:14:41.624Z</time>
      </trkpt>
      <trkpt lat="49.6859" lon="3.741">
        <ele>119.7</ele>
        <time>2015-06-01T14:14:49.710Z</time>
      </trkpt>
      <trkpt lat="49.68591" lon="3.741">
        <ele>119.7</ele>
        <time>2015-06-01T14:14:50.711Z</time>
      </trkpt>
      <trkpt lat="49.68598" lon="3.74093">
        <ele>119.9</ele>
        <time>2015-06-01T14:14:56.655Z</time>
      </trkpt>
      <trkpt lat="49.68599" lon="3.74093">
        <ele>120.1</ele>
        <time>2015-06-01T14:14:57.659Z</time>
      </trkpt>
      <trkpt lat="49.68606" lon="3.74085">
        <ele>120.4</ele>
        <time>2015-06-01T14:15:06.057Z</time>
      </trkpt>
      <trkpt lat="49.68606" lon="3.74084">
        <ele>120.6</ele>
        <time>2015-06-01T14:15:06.622Z</time>
      </trkpt>
      <trkpt lat="49.68614" lon="3.74078">
        <ele>120.3</ele>
        <time>2015-06-01T14:15:13.611Z</time>
      </trkpt>
      <trkpt lat="49.68614" lon="3.74077">
        <ele>120.3</ele>
        <time>2015-06-01T14:15:14.657Z</time>
      </trkpt>
      <trkpt lat="49.6862" lon="3.74067">
        <ele>120.5</ele>
        <time>2015-06-01T14:15:20.668Z</time>
      </trkpt>
      <trkpt lat="49.68622" lon="3.74066">
        <ele>120.4</ele>
        <time>2015-06-01T14:15:21.648Z</time>
      </trkpt>
      <trkpt lat="49.68628" lon="3.74059">
        <ele>120.1</ele>
        <time>2015-06-01T14:15:28.605Z</time>
      </trkpt>
      <trkpt lat="49.68629" lon="3.74058">
        <ele>120.2</ele>
        <time>2015-06-01T14:15:29.610Z</time>
      </trkpt>
      <trkpt lat="49.68635" lon="3.74048">
        <ele>120.3</ele>
        <time>2015-06-01T14:15:36.606Z</time>
      </trkpt>
      <trkpt lat="49.68636" lon="3.74046">
        <ele>120</ele>
        <time>2015-06-01T14:15:37.612Z</time>
      </trkpt>
      <trkpt lat="49.68642" lon="3.74038">
        <ele>120.2</ele>
        <time>2015-06-01T14:15:43.689Z</time>
      </trkpt>
      <trkpt lat="49.68643" lon="3.74037">
        <ele>120.4</ele>
        <time>2015-06-01T14:15:44.694Z</time>
      </trkpt>
      <trkpt lat="49.68649" lon="3.74027">
        <ele>121.2</ele>
        <time>2015-06-01T14:15:52.677Z</time>
      </trkpt>
      <trkpt lat="49.6865" lon="3.74026">
        <ele>121.2</ele>
        <time>2015-06-01T14:15:53.678Z</time>
      </trkpt>
      <trkpt lat="49.68656" lon="3.74018">
        <ele>121.3</ele>
        <time>2015-06-01T14:16:00.599Z</time>
      </trkpt>
      <trkpt lat="49.68657" lon="3.74016">
        <ele>121.4</ele>
        <time>2015-06-01T14:16:01.604Z</time>
      </trkpt>
      <trkpt lat="49.68664" lon="3.74009">
        <ele>120.9</ele>
        <time>2015-06-01T14:16:08.656Z</time>
      </trkpt>
      <trkpt lat="49.68665" lon="3.74008">
        <ele>120.9</ele>
        <time>2015-06-01T14:16:09.650Z</time>
      </trkpt>
      <trkpt lat="49.68672" lon="3.73999">
        <ele>121.9</ele>
        <time>2015-06-01T14:16:16.612Z</time>
      </trkpt>
      <trkpt lat="49.68673" lon="3.73999">
        <ele>122</ele>
        <time>2015-06-01T14:16:17.611Z</time>
      </trkpt>
      <trkpt lat="49.68678" lon="3.7399">
        <ele>122.7</ele>
        <time>2015-06-01T14:16:23.675Z</time>
      </trkpt>
      <trkpt lat="49.68679" lon="3.73988">
        <ele>122.7</ele>
        <time>2015-06-01T14:16:24.683Z</time>
      </trkpt>
      <trkpt lat="49.68685" lon="3.7398">
        <ele>122.6</ele>
        <time>2015-06-01T14:16:32.666Z</time>
      </trkpt>
      <trkpt lat="49.68685" lon="3.73979">
        <ele>122.5</ele>
        <time>2015-06-01T14:16:33.673Z</time>
      </trkpt>
      <trkpt lat="49.68692" lon="3.73971">
        <ele>122</ele>
        <time>2015-06-01T14:16:39.654Z</time>
      </trkpt>
      <trkpt lat="49.68693" lon="3.7397">
        <ele>122.1</ele>
        <time>2015-06-01T14:16:40.658Z</time>
      </trkpt>
      <trkpt lat="49.68699" lon="3.7396">
        <ele>122.1</ele>
        <time>2015-06-01T14:16:47.656Z</time>
      </trkpt>
      <trkpt lat="49.687" lon="3.73958">
        <ele>122.2</ele>
        <time>2015-06-01T14:16:48.662Z</time>
      </trkpt>
      <trkpt lat="49.68705" lon="3.73947">
        <ele>121.9</ele>
        <time>2015-06-01T14:16:55.624Z</time>
      </trkpt>
      <trkpt lat="49.68706" lon="3.73946">
        <ele>122.1</ele>
        <time>2015-06-01T14:16:56.652Z</time>
      </trkpt>
      <trkpt lat="49.68711" lon="3.73936">
        <ele>122.6</ele>
        <time>2015-06-01T14:17:02.710Z</time>
      </trkpt>
      <trkpt lat="49.68712" lon="3.73934">
        <ele>122.8</ele>
        <time>2015-06-01T14:17:03.595Z</time>
      </trkpt>
      <trkpt lat="49.68716" lon="3.73923">
        <ele>122.8</ele>
        <time>2015-06-01T14:17:09.652Z</time>
      </trkpt>
      <trkpt lat="49.68717" lon="3.73921">
        <ele>122.8</ele>
        <time>2015-06-01T14:17:10.659Z</time>
      </trkpt>
      <trkpt lat="49.6872" lon="3.7391">
        <ele>122.3</ele>
        <time>2015-06-01T14:17:16.647Z</time>
      </trkpt>
      <trkpt lat="49.68721" lon="3.73908">
        <ele>122.3</ele>
        <time>2015-06-01T14:17:17.642Z</time>
      </trkpt>
      <trkpt lat="49.68721" lon="3.73906">
        <ele>121.7</ele>
        <time>2015-06-01T14:17:18.654Z</time>
      </trkpt>
      <trkpt lat="49.68721" lon="3.73906">
        <ele>121.8</ele>
        <time>2015-06-01T14:17:19.679Z</time>
      </trkpt>
      <trkpt lat="49.68721" lon="3.73905">
        <ele>122</ele>
        <time>2015-06-01T14:17:26.470Z</time>
      </trkpt>
      <trkpt lat="49.68721" lon="3.73902">
        <ele>122.3</ele>
        <time>2015-06-01T14:17:26.635Z</time>
      </trkpt>
      <trkpt lat="49.68725" lon="3.7389">
        <ele>122.6</ele>
        <time>2015-06-01T14:17:35.657Z</time>
      </trkpt>
      <trkpt lat="49.68725" lon="3.73888">
        <ele>122.6</ele>
        <time>2015-06-01T14:17:36.649Z</time>
      </trkpt>
      <trkpt lat="49.68728" lon="3.73876">
        <ele>122.6</ele>
        <time>2015-06-01T14:17:44.618Z</time>
      </trkpt>
      <trkpt lat="49.68728" lon="3.73874">
        <ele>122.6</ele>
        <time>2015-06-01T14:17:45.640Z</time>
      </trkpt>
      <trkpt lat="49.6873" lon="3.73861">
        <ele>122.9</ele>
        <time>2015-06-01T14:17:52.580Z</time>
      </trkpt>
      <trkpt lat="49.68731" lon="3.73859">
        <ele>123</ele>
        <time>2015-06-01T14:17:53.593Z</time>
      </trkpt>
      <trkpt lat="49.68733" lon="3.73847">
        <ele>123.4</ele>
        <time>2015-06-01T14:17:59.662Z</time>
      </trkpt>
      <trkpt lat="49.68733" lon="3.73845">
        <ele>123.6</ele>
        <time>2015-06-01T14:18:00.664Z</time>
      </trkpt>
      <trkpt lat="49.68736" lon="3.73834">
        <ele>123.5</ele>
        <time>2015-06-01T14:18:06.602Z</time>
      </trkpt>
      <trkpt lat="49.68736" lon="3.73832">
        <ele>123.5</ele>
        <time>2015-06-01T14:18:07.614Z</time>
      </trkpt>
      <trkpt lat="49.68739" lon="3.7382">
        <ele>123.5</ele>
        <time>2015-06-01T14:18:14.679Z</time>
      </trkpt>
      <trkpt lat="49.68739" lon="3.73818">
        <ele>123.5</ele>
        <time>2015-06-01T14:18:15.598Z</time>
      </trkpt>
      <trkpt lat="49.68741" lon="3.73806">
        <ele>123.2</ele>
        <time>2015-06-01T14:18:22.644Z</time>
      </trkpt>
      <trkpt lat="49.68741" lon="3.73804">
        <ele>123.1</ele>
        <time>2015-06-01T14:18:23.690Z</time>
      </trkpt>
      <trkpt lat="49.68743" lon="3.73792">
        <ele>122.4</ele>
        <time>2015-06-01T14:18:30.653Z</time>
      </trkpt>
      <trkpt lat="49.68743" lon="3.7379">
        <ele>122.5</ele>
        <time>2015-06-01T14:18:31.698Z</time>
      </trkpt>
      <trkpt lat="49.68745" lon="3.73777">
        <ele>122.6</ele>
        <time>2015-06-01T14:18:39.643Z</time>
      </trkpt>
      <trkpt lat="49.68745" lon="3.73776">
        <ele>122.5</ele>
        <time>2015-06-01T14:18:40.650Z</time>
      </trkpt>
      <trkpt lat="49.68745" lon="3.7377">
        <ele>119.9</ele>
        <time>2015-06-01T14:21:51.604Z</time>
      </trkpt>
      <trkpt lat="49.68745" lon="3.7377">
        <ele>119.9</ele>
        <time>2015-06-01T14:21:52.608Z</time>
      </trkpt>
      <trkpt lat="49.68745" lon="3.7377">
        <ele>119.8</ele>
        <time>2015-06-01T14:21:58.672Z</time>
      </trkpt>
      <trkpt lat="49.68744" lon="3.73769">
        <ele>119.2</ele>
        <time>2015-06-01T14:21:59.682Z</time>
      </trkpt>
      <trkpt lat="49.68744" lon="3.73769">
        <ele>119.1</ele>
        <time>2015-06-01T14:22:00.587Z</time>
      </trkpt>
      <trkpt lat="49.68744" lon="3.73768">
        <ele>119</ele>
        <time>2015-06-01T14:22:01.605Z</time>
      </trkpt>
      <trkpt lat="49.68744" lon="3.73768">
        <ele>118.9</ele>
        <time>2015-06-01T14:22:43.615Z</time>
      </trkpt>
      <trkpt lat="49.68745" lon="3.73767">
        <ele>117.5</ele>
        <time>2015-06-01T14:22:44.632Z</time>
      </trkpt>
      <trkpt lat="49.68747" lon="3.73753">
        <ele>118.1</ele>
        <time>2015-06-01T14:23:00.576Z</time>
      </trkpt>
      <trkpt lat="49.68748" lon="3.73752">
        <ele>118</ele>
        <time>2015-06-01T14:23:01.586Z</time>
      </trkpt>
      <trkpt lat="49.6875" lon="3.73739">
        <ele>117.9</ele>
        <time>2015-06-01T14:23:11.600Z</time>
      </trkpt>
      <trkpt lat="49.6875" lon="3.73737">
        <ele>117.9</ele>
        <time>2015-06-01T14:23:12.603Z</time>
      </trkpt>
      <trkpt lat="49.68752" lon="3.73725">
        <ele>117.7</ele>
        <time>2015-06-01T14:23:21.641Z</time>
      </trkpt>
      <trkpt lat="49.68752" lon="3.73723">
        <ele>117.6</ele>
        <time>2015-06-01T14:23:22.646Z</time>
      </trkpt>
      <trkpt lat="49.68754" lon="3.73711">
        <ele>117.6</ele>
        <time>2015-06-01T14:23:29.635Z</time>
      </trkpt>
      <trkpt lat="49.68754" lon="3.73709">
        <ele>117.4</ele>
        <time>2015-06-01T14:23:30.639Z</time>
      </trkpt>
      <trkpt lat="49.68757" lon="3.73697">
        <ele>117.1</ele>
        <time>2015-06-01T14:23:38.638Z</time>
      </trkpt>
      <trkpt lat="49.68757" lon="3.73695">
        <ele>117.1</ele>
        <time>2015-06-01T14:23:39.627Z</time>
      </trkpt>
      <trkpt lat="49.6876" lon="3.73683">
        <ele>117.1</ele>
        <time>2015-06-01T14:23:45.644Z</time>
      </trkpt>
      <trkpt lat="49.6876" lon="3.73681">
        <ele>117</ele>
        <time>2015-06-01T14:23:46.659Z</time>
      </trkpt>
      <trkpt lat="49.68762" lon="3.73668">
        <ele>116.5</ele>
        <time>2015-06-01T14:23:53.661Z</time>
      </trkpt>
      <trkpt lat="49.68762" lon="3.73667">
        <ele>116.5</ele>
        <time>2015-06-01T14:23:54.671Z</time>
      </trkpt>
      <trkpt lat="49.68766" lon="3.73655">
        <ele>116.3</ele>
        <time>2015-06-01T14:24:01.617Z</time>
      </trkpt>
      <trkpt lat="49.68767" lon="3.73653">
        <ele>116.1</ele>
        <time>2015-06-01T14:24:02.638Z</time>
      </trkpt>
      <trkpt lat="49.68768" lon="3.7364">
        <ele>115.7</ele>
        <time>2015-06-01T14:24:09.586Z</time>
      </trkpt>
      <trkpt lat="49.68769" lon="3.73638">
        <ele>115.6</ele>
        <time>2015-06-01T14:24:10.586Z</time>
      </trkpt>
      <trkpt lat="49.68771" lon="3.73626">
        <ele>115.6</ele>
        <time>2015-06-01T14:24:17.314Z</time>
      </trkpt>
      <trkpt lat="49.68771" lon="3.73624">
        <ele>115.5</ele>
        <time>2015-06-01T14:24:17.598Z</time>
      </trkpt>
      <trkpt lat="49.68773" lon="3.73611">
        <ele>115.6</ele>
        <time>2015-06-01T14:24:24.608Z</time>
      </trkpt>
      <trkpt lat="49.68774" lon="3.73609">
        <ele>115.7</ele>
        <time>2015-06-01T14:24:25.614Z</time>
      </trkpt>
      <trkpt lat="49.68776" lon="3.73597">
        <ele>115.8</ele>
        <time>2015-06-01T14:24:32.618Z</time>
      </trkpt>
      <trkpt lat="49.68776" lon="3.73595">
        <ele>115.8</ele>
        <time>2015-06-01T14:24:33.622Z</time>
      </trkpt>
      <trkpt lat="49.68779" lon="3.73582">
        <ele>115.9</ele>
        <time>2015-06-01T14:24:39.668Z</time>
      </trkpt>
      <trkpt lat="49.68779" lon="3.7358">
        <ele>115.9</ele>
        <time>2015-06-01T14:24:40.641Z</time>
      </trkpt>
      <trkpt lat="49.68781" lon="3.73568">
        <ele>115.6</ele>
        <time>2015-06-01T14:24:47.623Z</time>
      </trkpt>
      <trkpt lat="49.68781" lon="3.73567">
        <ele>115.6</ele>
        <time>2015-06-01T14:24:48.642Z</time>
      </trkpt>
      <trkpt lat="49.68784" lon="3.73556">
        <ele>115.7</ele>
        <time>2015-06-01T14:24:55.164Z</time>
      </trkpt>
      <trkpt lat="49.68784" lon="3.73554">
        <ele>115.8</ele>
        <time>2015-06-01T14:24:55.614Z</time>
      </trkpt>
      <trkpt lat="49.68787" lon="3.73541">
        <ele>115.9</ele>
        <time>2015-06-01T14:25:01.600Z</time>
      </trkpt>
      <trkpt lat="49.68787" lon="3.73539">
        <ele>115.7</ele>
        <time>2015-06-01T14:25:02.652Z</time>
      </trkpt>
      <trkpt lat="49.68789" lon="3.73528">
        <ele>114.8</ele>
        <time>2015-06-01T14:25:08.713Z</time>
      </trkpt>
      <trkpt lat="49.68789" lon="3.73526">
        <ele>114.8</ele>
        <time>2015-06-01T14:25:09.592Z</time>
      </trkpt>
      <trkpt lat="49.68792" lon="3.73515">
        <ele>114.5</ele>
        <time>2015-06-01T14:25:15.185Z</time>
      </trkpt>
      <trkpt lat="49.68792" lon="3.73512">
        <ele>114.4</ele>
        <time>2015-06-01T14:25:15.659Z</time>
      </trkpt>
      <trkpt lat="49.68794" lon="3.73499">
        <ele>114.5</ele>
        <time>2015-06-01T14:25:23.688Z</time>
      </trkpt>
      <trkpt lat="49.68794" lon="3.73497">
        <ele>114.2</ele>
        <time>2015-06-01T14:25:24.685Z</time>
      </trkpt>
      <trkpt lat="49.68796" lon="3.73486">
        <ele>113.6</ele>
        <time>2015-06-01T14:25:30.627Z</time>
      </trkpt>
      <trkpt lat="49.68797" lon="3.73484">
        <ele>113.3</ele>
        <time>2015-06-01T14:25:31.636Z</time>
      </trkpt>
      <trkpt lat="49.68799" lon="3.73471">
        <ele>112.5</ele>
        <time>2015-06-01T14:25:37.622Z</time>
      </trkpt>
      <trkpt lat="49.68799" lon="3.7347">
        <ele>112.6</ele>
        <time>2015-06-01T14:25:38.652Z</time>
      </trkpt>
      <trkpt lat="49.68801" lon="3.73457">
        <ele>112.6</ele>
        <time>2015-06-01T14:25:46.620Z</time>
      </trkpt>
      <trkpt lat="49.68802" lon="3.73455">
        <ele>112.4</ele>
        <time>2015-06-01T14:25:47.626Z</time>
      </trkpt>
      <trkpt lat="49.68804" lon="3.73442">
        <ele>112</ele>
        <time>2015-06-01T14:25:55.235Z</time>
      </trkpt>
      <trkpt lat="49.68804" lon="3.7344">
        <ele>112</ele>
        <time>2015-06-01T14:25:55.687Z</time>
      </trkpt>
      <trkpt lat="49.68807" lon="3.73427">
        <ele>111.7</ele>
        <time>2015-06-01T14:26:01.655Z</time>
      </trkpt>
      <trkpt lat="49.68807" lon="3.73426">
        <ele>111.7</ele>
        <time>2015-06-01T14:26:02.664Z</time>
      </trkpt>
      <trkpt lat="49.6881" lon="3.73413">
        <ele>111.8</ele>
        <time>2015-06-01T14:26:09.694Z</time>
      </trkpt>
      <trkpt lat="49.68811" lon="3.73411">
        <ele>111.9</ele>
        <time>2015-06-01T14:26:10.654Z</time>
      </trkpt>
      <trkpt lat="49.68813" lon="3.73399">
        <ele>111.4</ele>
        <time>2015-06-01T14:26:17.609Z</time>
      </trkpt>
      <trkpt lat="49.68813" lon="3.73397">
        <ele>111.3</ele>
        <time>2015-06-01T14:26:18.611Z</time>
      </trkpt>
      <trkpt lat="49.68815" lon="3.73385">
        <ele>110.9</ele>
        <time>2015-06-01T14:26:24.598Z</time>
      </trkpt>
      <trkpt lat="49.68815" lon="3.73383">
        <ele>111</ele>
        <time>2015-06-01T14:26:25.597Z</time>
      </trkpt>
      <trkpt lat="49.68817" lon="3.7337">
        <ele>111</ele>
        <time>2015-06-01T14:26:33.654Z</time>
      </trkpt>
      <trkpt lat="49.68818" lon="3.73368">
        <ele>110.5</ele>
        <time>2015-06-01T14:26:34.661Z</time>
      </trkpt>
      <trkpt lat="49.68821" lon="3.73357">
        <ele>110.6</ele>
        <time>2015-06-01T14:26:41.671Z</time>
      </trkpt>
      <trkpt lat="49.68821" lon="3.73355">
        <ele>110.5</ele>
        <time>2015-06-01T14:26:42.672Z</time>
      </trkpt>
      <trkpt lat="49.68823" lon="3.73342">
        <ele>110.9</ele>
        <time>2015-06-01T14:26:49.619Z</time>
      </trkpt>
      <trkpt lat="49.68823" lon="3.7334">
        <ele>111</ele>
        <time>2015-06-01T14:26:50.643Z</time>
      </trkpt>
      <trkpt lat="49.68825" lon="3.73327">
        <ele>110.6</ele>
        <time>2015-06-01T14:26:58.657Z</time>
      </trkpt>
      <trkpt lat="49.68826" lon="3.73325">
        <ele>110.6</ele>
        <time>2015-06-01T14:26:59.670Z</time>
      </trkpt>
      <trkpt lat="49.68827" lon="3.73313">
        <ele>110.6</ele>
        <time>2015-06-01T14:27:06.612Z</time>
      </trkpt>
      <trkpt lat="49.68827" lon="3.73311">
        <ele>110.5</ele>
        <time>2015-06-01T14:27:07.618Z</time>
      </trkpt>
      <trkpt lat="49.68829" lon="3.73299">
        <ele>110.8</ele>
        <time>2015-06-01T14:27:15.348Z</time>
      </trkpt>
      <trkpt lat="49.6883" lon="3.73297">
        <ele>110.8</ele>
        <time>2015-06-01T14:27:15.651Z</time>
      </trkpt>
      <trkpt lat="49.68832" lon="3.73285">
        <ele>110.4</ele>
        <time>2015-06-01T14:27:21.643Z</time>
      </trkpt>
      <trkpt lat="49.68832" lon="3.73283">
        <ele>110.4</ele>
        <time>2015-06-01T14:27:22.648Z</time>
      </trkpt>
      <trkpt lat="49.68834" lon="3.73271">
        <ele>109.9</ele>
        <time>2015-06-01T14:27:28.640Z</time>
      </trkpt>
      <trkpt lat="49.68834" lon="3.73269">
        <ele>110.3</ele>
        <time>2015-06-01T14:27:29.647Z</time>
      </trkpt>
      <trkpt lat="49.68833" lon="3.73257">
        <ele>111.3</ele>
        <time>2015-06-01T14:27:35.617Z</time>
      </trkpt>
      <trkpt lat="49.68833" lon="3.73254">
        <ele>111.5</ele>
        <time>2015-06-01T14:27:36.632Z</time>
      </trkpt>
      <trkpt lat="49.68835" lon="3.73241">
        <ele>111.7</ele>
        <time>2015-06-01T14:27:43.588Z</time>
      </trkpt>
      <trkpt lat="49.68835" lon="3.73239">
        <ele>111.8</ele>
        <time>2015-06-01T14:27:44.630Z</time>
      </trkpt>
      <trkpt lat="49.68836" lon="3.73226">
        <ele>111.8</ele>
        <time>2015-06-01T14:27:50.630Z</time>
      </trkpt>
      <trkpt lat="49.68836" lon="3.73224">
        <ele>111.7</ele>
        <time>2015-06-01T14:27:51.642Z</time>
      </trkpt>
      <trkpt lat="49.68836" lon="3.73211">
        <ele>112.2</ele>
        <time>2015-06-01T14:27:57.641Z</time>
      </trkpt>
      <trkpt lat="49.68836" lon="3.73209">
        <ele>112.4</ele>
        <time>2015-06-01T14:27:58.653Z</time>
      </trkpt>
      <trkpt lat="49.68837" lon="3.73197">
        <ele>111.8</ele>
        <time>2015-06-01T14:28:07.596Z</time>
      </trkpt>
      <trkpt lat="49.68837" lon="3.73195">
        <ele>111.8</ele>
        <time>2015-06-01T14:28:08.638Z</time>
      </trkpt>
      <trkpt lat="49.68838" lon="3.73183">
        <ele>111.7</ele>
        <time>2015-06-01T14:28:13.584Z</time>
      </trkpt>
      <trkpt lat="49.68838" lon="3.7318">
        <ele>111.8</ele>
        <time>2015-06-01T14:28:14.647Z</time>
      </trkpt>
      <trkpt lat="49.68838" lon="3.73169">
        <ele>112</ele>
        <time>2015-06-01T14:28:19.706Z</time>
      </trkpt>
      <trkpt lat="49.68838" lon="3.73166">
        <ele>112.1</ele>
        <time>2015-06-01T14:28:20.712Z</time>
      </trkpt>
      <trkpt lat="49.68839" lon="3.73154">
        <ele>112</ele>
        <time>2015-06-01T14:28:25.655Z</time>
      </trkpt>
      <trkpt lat="49.6884" lon="3.73152">
        <ele>111.9</ele>
        <time>2015-06-01T14:28:26.664Z</time>
      </trkpt>
      <trkpt lat="49.68841" lon="3.73139">
        <ele>112.2</ele>
        <time>2015-06-01T14:28:32.656Z</time>
      </trkpt>
      <trkpt lat="49.6884" lon="3.73138">
        <ele>112.4</ele>
        <time>2015-06-01T14:28:33.669Z</time>
      </trkpt>
      <trkpt lat="49.68842" lon="3.73125">
        <ele>113</ele>
        <time>2015-06-01T14:28:40.671Z</time>
      </trkpt>
      <trkpt lat="49.68843" lon="3.73123">
        <ele>112.7</ele>
        <time>2015-06-01T14:28:41.679Z</time>
      </trkpt>
      <trkpt lat="49.68844" lon="3.7311">
        <ele>113.5</ele>
        <time>2015-06-01T14:28:47.626Z</time>
      </trkpt>
      <trkpt lat="49.68844" lon="3.73108">
        <ele>113.5</ele>
        <time>2015-06-01T14:28:48.634Z</time>
      </trkpt>
      <trkpt lat="49.68845" lon="3.73095">
        <ele>114.5</ele>
        <time>2015-06-01T14:28:55.698Z</time>
      </trkpt>
      <trkpt lat="49.68845" lon="3.73093">
        <ele>114.6</ele>
        <time>2015-06-01T14:28:56.698Z</time>
      </trkpt>
      <trkpt lat="49.68847" lon="3.7308">
        <ele>115.4</ele>
        <time>2015-06-01T14:29:02.645Z</time>
      </trkpt>
      <trkpt lat="49.68847" lon="3.73078">
        <ele>115.3</ele>
        <time>2015-06-01T14:29:03.654Z</time>
      </trkpt>
      <trkpt lat="49.68846" lon="3.73066">
        <ele>115.5</ele>
        <time>2015-06-01T14:29:09.645Z</time>
      </trkpt>
      <trkpt lat="49.68846" lon="3.73064">
        <ele>115.3</ele>
        <time>2015-06-01T14:29:10.652Z</time>
      </trkpt>
      <trkpt lat="49.68846" lon="3.73051">
        <ele>115.5</ele>
        <time>2015-06-01T14:29:17.630Z</time>
      </trkpt>
      <trkpt lat="49.68846" lon="3.73049">
        <ele>115.5</ele>
        <time>2015-06-01T14:29:18.641Z</time>
      </trkpt>
      <trkpt lat="49.68846" lon="3.73036">
        <ele>115.8</ele>
        <time>2015-06-01T14:29:26.643Z</time>
      </trkpt>
      <trkpt lat="49.68846" lon="3.73034">
        <ele>115.7</ele>
        <time>2015-06-01T14:29:27.659Z</time>
      </trkpt>
      <trkpt lat="49.68846" lon="3.7302">
        <ele>116.4</ele>
        <time>2015-06-01T14:29:35.602Z</time>
      </trkpt>
      <trkpt lat="49.68846" lon="3.73018">
        <ele>116.4</ele>
        <time>2015-06-01T14:29:35.690Z</time>
      </trkpt>
      <trkpt lat="49.68848" lon="3.73006">
        <ele>116</ele>
        <time>2015-06-01T14:29:41.675Z</time>
      </trkpt>
      <trkpt lat="49.68848" lon="3.73004">
        <ele>116.1</ele>
        <time>2015-06-01T14:29:42.680Z</time>
      </trkpt>
      <trkpt lat="49.6885" lon="3.7299">
        <ele>115.6</ele>
        <time>2015-06-01T14:29:49.646Z</time>
      </trkpt>
      <trkpt lat="49.6885" lon="3.72988">
        <ele>115.7</ele>
        <time>2015-06-01T14:29:50.647Z</time>
      </trkpt>
      <trkpt lat="49.68851" lon="3.72975">
        <ele>116</ele>
        <time>2015-06-01T14:29:56.649Z</time>
      </trkpt>
      <trkpt lat="49.68851" lon="3.72972">
        <ele>116.1</ele>
        <time>2015-06-01T14:29:57.648Z</time>
      </trkpt>
      <trkpt lat="49.68852" lon="3.72959">
        <ele>116.2</ele>
        <time>2015-06-01T14:30:04.585Z</time>
      </trkpt>
      <trkpt lat="49.68852" lon="3.72957">
        <ele>116.2</ele>
        <time>2015-06-01T14:30:05.596Z</time>
      </trkpt>
      <trkpt lat="49.68853" lon="3.72943">
        <ele>116</ele>
        <time>2015-06-01T14:30:12.680Z</time>
      </trkpt>
      <trkpt lat="49.68853" lon="3.72941">
        <ele>116.1</ele>
        <time>2015-06-01T14:30:13.599Z</time>
      </trkpt>
      <trkpt lat="49.68854" lon="3.72928">
        <ele>116.2</ele>
        <time>2015-06-01T14:30:18.615Z</time>
      </trkpt>
      <trkpt lat="49.68854" lon="3.72926">
        <ele>116.2</ele>
        <time>2015-06-01T14:30:19.626Z</time>
      </trkpt>
      <trkpt lat="49.68855" lon="3.72914">
        <ele>116.8</ele>
        <time>2015-06-01T14:30:24.617Z</time>
      </trkpt>
      <trkpt lat="49.68855" lon="3.72912">
        <ele>116.8</ele>
        <time>2015-06-01T14:30:25.642Z</time>
      </trkpt>
      <trkpt lat="49.68855" lon="3.72898">
        <ele>117.5</ele>
        <time>2015-06-01T14:30:31.596Z</time>
      </trkpt>
      <trkpt lat="49.68855" lon="3.72896">
        <ele>117.6</ele>
        <time>2015-06-01T14:30:32.638Z</time>
      </trkpt>
      <trkpt lat="49.68854" lon="3.72882">
        <ele>118.1</ele>
        <time>2015-06-01T14:30:38.628Z</time>
      </trkpt>
      <trkpt lat="49.68854" lon="3.7288">
        <ele>118.2</ele>
        <time>2015-06-01T14:30:39.628Z</time>
      </trkpt>
      <trkpt lat="49.68854" lon="3.72868">
        <ele>118.4</ele>
        <time>2015-06-01T14:30:45.586Z</time>
      </trkpt>
      <trkpt lat="49.68854" lon="3.72866">
        <ele>118.4</ele>
        <time>2015-06-01T14:30:46.595Z</time>
      </trkpt>
      <trkpt lat="49.68854" lon="3.72854">
        <ele>118.6</ele>
        <time>2015-06-01T14:30:52.645Z</time>
      </trkpt>
      <trkpt lat="49.68854" lon="3.72851">
        <ele>118.7</ele>
        <time>2015-06-01T14:30:53.651Z</time>
      </trkpt>
      <trkpt lat="49.68853" lon="3.72838">
        <ele>119</ele>
        <time>2015-06-01T14:31:00.604Z</time>
      </trkpt>
      <trkpt lat="49.68853" lon="3.72837">
        <ele>119</ele>
        <time>2015-06-01T14:31:01.608Z</time>
      </trkpt>
      <trkpt lat="49.68852" lon="3.72825">
        <ele>119.3</ele>
        <time>2015-06-01T14:31:07.685Z</time>
      </trkpt>
      <trkpt lat="49.68852" lon="3.72823">
        <ele>119.5</ele>
        <time>2015-06-01T14:31:08.697Z</time>
      </trkpt>
      <trkpt lat="49.68852" lon="3.7281">
        <ele>120.3</ele>
        <time>2015-06-01T14:31:14.660Z</time>
      </trkpt>
      <trkpt lat="49.68852" lon="3.72808">
        <ele>120.4</ele>
        <time>2015-06-01T14:31:15.668Z</time>
      </trkpt>
      <trkpt lat="49.68851" lon="3.72794">
        <ele>120.3</ele>
        <time>2015-06-01T14:31:22.672Z</time>
      </trkpt>
      <trkpt lat="49.68851" lon="3.72792">
        <ele>120.3</ele>
        <time>2015-06-01T14:31:23.680Z</time>
      </trkpt>
      <trkpt lat="49.68849" lon="3.7278">
        <ele>120.3</ele>
        <time>2015-06-01T14:31:29.608Z</time>
      </trkpt>
      <trkpt lat="49.68849" lon="3.72778">
        <ele>120.3</ele>
        <time>2015-06-01T14:31:30.612Z</time>
      </trkpt>
      <trkpt lat="49.68848" lon="3.72765">
        <ele>120.3</ele>
        <time>2015-06-01T14:31:37.679Z</time>
      </trkpt>
      <trkpt lat="49.68847" lon="3.72763">
        <ele>120.4</ele>
        <time>2015-06-01T14:31:38.687Z</time>
      </trkpt>
      <trkpt lat="49.68846" lon="3.7275">
        <ele>120.6</ele>
        <time>2015-06-01T14:31:45.655Z</time>
      </trkpt>
      <trkpt lat="49.68846" lon="3.72748">
        <ele>120.4</ele>
        <time>2015-06-01T14:31:46.672Z</time>
      </trkpt>
      <trkpt lat="49.68849" lon="3.72736">
        <ele>121.6</ele>
        <time>2015-06-01T14:31:54.667Z</time>
      </trkpt>
      <trkpt lat="49.68849" lon="3.72734">
        <ele>121.7</ele>
        <time>2015-06-01T14:31:55.653Z</time>
      </trkpt>
      <trkpt lat="49.68852" lon="3.72722">
        <ele>122.4</ele>
        <time>2015-06-01T14:32:04.604Z</time>
      </trkpt>
      <trkpt lat="49.68852" lon="3.7272">
        <ele>122.5</ele>
        <time>2015-06-01T14:32:05.606Z</time>
      </trkpt>
      <trkpt lat="49.68853" lon="3.72708">
        <ele>122.5</ele>
        <time>2015-06-01T14:32:11.601Z</time>
      </trkpt>
      <trkpt lat="49.68852" lon="3.72705">
        <ele>122.1</ele>
        <time>2015-06-01T14:32:12.604Z</time>
      </trkpt>
      <trkpt lat="49.68851" lon="3.72692">
        <ele>120.7</ele>
        <time>2015-06-01T14:32:17.583Z</time>
      </trkpt>
      <trkpt lat="49.68851" lon="3.7269">
        <ele>120.4</ele>
        <time>2015-06-01T14:32:18.594Z</time>
      </trkpt>
      <trkpt lat="49.68849" lon="3.72677">
        <ele>119</ele>
        <time>2015-06-01T14:32:25.577Z</time>
      </trkpt>
      <trkpt lat="49.68849" lon="3.72675">
        <ele>118.9</ele>
        <time>2015-06-01T14:32:26.615Z</time>
      </trkpt>
      <trkpt lat="49.68847" lon="3.72663">
        <ele>117.8</ele>
        <time>2015-06-01T14:32:32.657Z</time>
      </trkpt>
      <trkpt lat="49.68847" lon="3.7266">
        <ele>117.7</ele>
        <time>2015-06-01T14:32:33.666Z</time>
      </trkpt>
      <trkpt lat="49.68847" lon="3.72648">
        <ele>117.3</ele>
        <time>2015-06-01T14:32:39.638Z</time>
      </trkpt>
      <trkpt lat="49.68846" lon="3.72646">
        <ele>117.2</ele>
        <time>2015-06-01T14:32:40.647Z</time>
      </trkpt>
      <trkpt lat="49.68845" lon="3.72634">
        <ele>117.1</ele>
        <time>2015-06-01T14:32:46.621Z</time>
      </trkpt>
      <trkpt lat="49.68844" lon="3.72632">
        <ele>117.1</ele>
        <time>2015-06-01T14:32:47.639Z</time>
      </trkpt>
      <trkpt lat="49.68845" lon="3.7262">
        <ele>116.9</ele>
        <time>2015-06-01T14:32:53.588Z</time>
      </trkpt>
      <trkpt lat="49.68844" lon="3.72618">
        <ele>117</ele>
        <time>2015-06-01T14:32:54.592Z</time>
      </trkpt>
      <trkpt lat="49.68841" lon="3.72606">
        <ele>117.3</ele>
        <time>2015-06-01T14:33:00.587Z</time>
      </trkpt>
      <trkpt lat="49.68841" lon="3.72604">
        <ele>117.4</ele>
        <time>2015-06-01T14:33:01.595Z</time>
      </trkpt>
      <trkpt lat="49.6884" lon="3.72591">
        <ele>116.8</ele>
        <time>2015-06-01T14:33:08.664Z</time>
      </trkpt>
      <trkpt lat="49.6884" lon="3.72589">
        <ele>116.6</ele>
        <time>2015-06-01T14:33:09.587Z</time>
      </trkpt>
      <trkpt lat="49.68841" lon="3.72576">
        <ele>116</ele>
        <time>2015-06-01T14:33:16.073Z</time>
      </trkpt>
      <trkpt lat="49.68841" lon="3.72574">
        <ele>116</ele>
        <time>2015-06-01T14:33:16.652Z</time>
      </trkpt>
      <trkpt lat="49.68839" lon="3.72562">
        <ele>116.7</ele>
        <time>2015-06-01T14:33:22.645Z</time>
      </trkpt>
      <trkpt lat="49.68839" lon="3.7256">
        <ele>116.8</ele>
        <time>2015-06-01T14:33:23.752Z</time>
      </trkpt>
      <trkpt lat="49.68841" lon="3.72549">
        <ele>116.6</ele>
        <time>2015-06-01T14:33:29.626Z</time>
      </trkpt>
      <trkpt lat="49.68841" lon="3.72547">
        <ele>116.6</ele>
        <time>2015-06-01T14:33:30.622Z</time>
      </trkpt>
      <trkpt lat="49.68844" lon="3.72534">
        <ele>116.6</ele>
        <time>2015-06-01T14:33:36.690Z</time>
      </trkpt>
      <trkpt lat="49.68844" lon="3.72531">
        <ele>116.6</ele>
        <time>2015-06-01T14:33:37.595Z</time>
      </trkpt>
      <trkpt lat="49.68843" lon="3.72519">
        <ele>116.8</ele>
        <time>2015-06-01T14:33:43.660Z</time>
      </trkpt>
      <trkpt lat="49.68844" lon="3.72516">
        <ele>116.8</ele>
        <time>2015-06-01T14:33:44.678Z</time>
      </trkpt>
      <trkpt lat="49.68845" lon="3.72503">
        <ele>116.8</ele>
        <time>2015-06-01T14:33:50.630Z</time>
      </trkpt>
      <trkpt lat="49.68845" lon="3.72501">
        <ele>116.8</ele>
        <time>2015-06-01T14:33:51.653Z</time>
      </trkpt>
      <trkpt lat="49.68845" lon="3.72488">
        <ele>117.9</ele>
        <time>2015-06-01T14:33:56.688Z</time>
      </trkpt>
      <trkpt lat="49.68845" lon="3.72486">
        <ele>118.1</ele>
        <time>2015-06-01T14:33:57.581Z</time>
      </trkpt>
      <trkpt lat="49.68844" lon="3.72473">
        <ele>118.8</ele>
        <time>2015-06-01T14:34:03.659Z</time>
      </trkpt>
      <trkpt lat="49.68844" lon="3.72471">
        <ele>118.8</ele>
        <time>2015-06-01T14:34:04.667Z</time>
      </trkpt>
      <trkpt lat="49.68845" lon="3.72457">
        <ele>118.6</ele>
        <time>2015-06-01T14:34:11.655Z</time>
      </trkpt>
      <trkpt lat="49.68845" lon="3.72455">
        <ele>118.5</ele>
        <time>2015-06-01T14:34:12.658Z</time>
      </trkpt>
      <trkpt lat="49.68845" lon="3.72442">
        <ele>119.3</ele>
        <time>2015-06-01T14:34:18.623Z</time>
      </trkpt>
      <trkpt lat="49.68845" lon="3.7244">
        <ele>119.4</ele>
        <time>2015-06-01T14:34:19.630Z</time>
      </trkpt>
      <trkpt lat="49.68845" lon="3.72427">
        <ele>119.6</ele>
        <time>2015-06-01T14:34:26.681Z</time>
      </trkpt>
      <trkpt lat="49.68845" lon="3.72425">
        <ele>119.6</ele>
        <time>2015-06-01T14:34:27.599Z</time>
      </trkpt>
      <trkpt lat="49.68846" lon="3.72412">
        <ele>119.7</ele>
        <time>2015-06-01T14:34:33.656Z</time>
      </trkpt>
      <trkpt lat="49.68846" lon="3.7241">
        <ele>119.7</ele>
        <time>2015-06-01T14:34:34.661Z</time>
      </trkpt>
      <trkpt lat="49.68847" lon="3.72398">
        <ele>120</ele>
        <time>2015-06-01T14:34:40.606Z</time>
      </trkpt>
      <trkpt lat="49.68847" lon="3.72396">
        <ele>119.9</ele>
        <time>2015-06-01T14:34:41.609Z</time>
      </trkpt>
      <trkpt lat="49.68848" lon="3.72382">
        <ele>120.3</ele>
        <time>2015-06-01T14:34:47.661Z</time>
      </trkpt>
      <trkpt lat="49.68849" lon="3.7238">
        <ele>120.1</ele>
        <time>2015-06-01T14:34:48.665Z</time>
      </trkpt>
      <trkpt lat="49.68849" lon="3.72368">
        <ele>120.1</ele>
        <time>2015-06-01T14:34:53.626Z</time>
      </trkpt>
      <trkpt lat="49.6885" lon="3.72366">
        <ele>120.1</ele>
        <time>2015-06-01T14:34:54.627Z</time>
      </trkpt>
      <trkpt lat="49.6885" lon="3.72353">
        <ele>120.2</ele>
        <time>2015-06-01T14:35:00.685Z</time>
      </trkpt>
      <trkpt lat="49.6885" lon="3.72351">
        <ele>120.1</ele>
        <time>2015-06-01T14:35:01.603Z</time>
      </trkpt>
      <trkpt lat="49.6885" lon="3.72339">
        <ele>120</ele>
        <time>2015-06-01T14:35:07.621Z</time>
      </trkpt>
      <trkpt lat="49.6885" lon="3.72337">
        <ele>120.1</ele>
        <time>2015-06-01T14:35:08.658Z</time>
      </trkpt>
      <trkpt lat="49.6885" lon="3.72324">
        <ele>120.4</ele>
        <time>2015-06-01T14:35:14.711Z</time>
      </trkpt>
      <trkpt lat="49.6885" lon="3.72322">
        <ele>120.3</ele>
        <time>2015-06-01T14:35:15.605Z</time>
      </trkpt>
      <trkpt lat="49.6885" lon="3.72309">
        <ele>119.8</ele>
        <time>2015-06-01T14:35:22.679Z</time>
      </trkpt>
      <trkpt lat="49.6885" lon="3.72306">
        <ele>119.7</ele>
        <time>2015-06-01T14:35:23.682Z</time>
      </trkpt>
      <trkpt lat="49.6885" lon="3.72293">
        <ele>119.5</ele>
        <time>2015-06-01T14:35:29.613Z</time>
      </trkpt>
      <trkpt lat="49.6885" lon="3.72291">
        <ele>119.6</ele>
        <time>2015-06-01T14:35:30.624Z</time>
      </trkpt>
      <trkpt lat="49.6885" lon="3.72279">
        <ele>119.2</ele>
        <time>2015-06-01T14:35:36.600Z</time>
      </trkpt>
      <trkpt lat="49.6885" lon="3.72277">
        <ele>119.3</ele>
        <time>2015-06-01T14:35:37.612Z</time>
      </trkpt>
      <trkpt lat="49.6885" lon="3.72264">
        <ele>119.2</ele>
        <time>2015-06-01T14:35:43.603Z</time>
      </trkpt>
      <trkpt lat="49.6885" lon="3.72262">
        <ele>119.2</ele>
        <time>2015-06-01T14:35:44.652Z</time>
      </trkpt>
      <trkpt lat="49.68851" lon="3.72249">
        <ele>119.3</ele>
        <time>2015-06-01T14:35:51.632Z</time>
      </trkpt>
      <trkpt lat="49.68851" lon="3.72247">
        <ele>119.2</ele>
        <time>2015-06-01T14:35:52.640Z</time>
      </trkpt>
      <trkpt lat="49.68851" lon="3.72235">
        <ele>118.9</ele>
        <time>2015-06-01T14:35:58.605Z</time>
      </trkpt>
      <trkpt lat="49.6885" lon="3.72233">
        <ele>118.7</ele>
        <time>2015-06-01T14:35:59.600Z</time>
      </trkpt>
      <trkpt lat="49.68851" lon="3.72219">
        <ele>118.6</ele>
        <time>2015-06-01T14:36:05.672Z</time>
      </trkpt>
      <trkpt lat="49.68851" lon="3.72217">
        <ele>118.6</ele>
        <time>2015-06-01T14:36:06.679Z</time>
      </trkpt>
      <trkpt lat="49.68851" lon="3.72205">
        <ele>117.9</ele>
        <time>2015-06-01T14:36:12.621Z</time>
      </trkpt>
      <trkpt lat="49.68851" lon="3.72203">
        <ele>117.6</ele>
        <time>2015-06-01T14:36:13.633Z</time>
      </trkpt>
      <trkpt lat="49.68851" lon="3.7219">
        <ele>117.7</ele>
        <time>2015-06-01T14:36:19.606Z</time>
      </trkpt>
      <trkpt lat="49.68851" lon="3.72188">
        <ele>117.5</ele>
        <time>2015-06-01T14:36:20.631Z</time>
      </trkpt>
      <trkpt lat="49.6885" lon="3.72174">
        <ele>117.8</ele>
        <time>2015-06-01T14:36:27.650Z</time>
      </trkpt>
      <trkpt lat="49.6885" lon="3.72172">
        <ele>118</ele>
        <time>2015-06-01T14:36:28.654Z</time>
      </trkpt>
      <trkpt lat="49.6885" lon="3.72159">
        <ele>118.8</ele>
        <time>2015-06-01T14:36:34.599Z</time>
      </trkpt>
      <trkpt lat="49.6885" lon="3.72156">
        <ele>119</ele>
        <time>2015-06-01T14:36:35.613Z</time>
      </trkpt>
      <trkpt lat="49.68848" lon="3.72144">
        <ele>119.6</ele>
        <time>2015-06-01T14:36:40.667Z</time>
      </trkpt>
      <trkpt lat="49.68848" lon="3.72141">
        <ele>119.9</ele>
        <time>2015-06-01T14:36:41.669Z</time>
      </trkpt>
      <trkpt lat="49.68847" lon="3.72128">
        <ele>120.7</ele>
        <time>2015-06-01T14:36:46.610Z</time>
      </trkpt>
      <trkpt lat="49.68847" lon="3.72126">
        <ele>120.9</ele>
        <time>2015-06-01T14:36:47.606Z</time>
      </trkpt>
      <trkpt lat="49.68847" lon="3.72112">
        <ele>120.4</ele>
        <time>2015-06-01T14:36:53.691Z</time>
      </trkpt>
      <trkpt lat="49.68846" lon="3.7211">
        <ele>120.2</ele>
        <time>2015-06-01T14:36:54.691Z</time>
      </trkpt>
      <trkpt lat="49.68846" lon="3.72098">
        <ele>119.6</ele>
        <time>2015-06-01T14:37:00.591Z</time>
      </trkpt>
      <trkpt lat="49.68846" lon="3.72096">
        <ele>119.6</ele>
        <time>2015-06-01T14:37:01.611Z</time>
      </trkpt>
      <trkpt lat="49.68847" lon="3.72084">
        <ele>118.9</ele>
        <time>2015-06-01T14:37:07.604Z</time>
      </trkpt>
      <trkpt lat="49.68847" lon="3.72082">
        <ele>118.7</ele>
        <time>2015-06-01T14:37:08.649Z</time>
      </trkpt>
      <trkpt lat="49.68848" lon="3.72068">
        <ele>118</ele>
        <time>2015-06-01T14:37:15.607Z</time>
      </trkpt>
      <trkpt lat="49.68848" lon="3.72066">
        <ele>118</ele>
        <time>2015-06-01T14:37:16.617Z</time>
      </trkpt>
      <trkpt lat="49.68848" lon="3.72053">
        <ele>117.7</ele>
        <time>2015-06-01T14:37:22.861Z</time>
      </trkpt>
      <trkpt lat="49.68848" lon="3.72051">
        <ele>117.6</ele>
        <time>2015-06-01T14:37:24.113Z</time>
      </trkpt>
      <trkpt lat="49.68848" lon="3.72038">
        <ele>117.3</ele>
        <time>2015-06-01T14:37:31.881Z</time>
      </trkpt>
      <trkpt lat="49.68848" lon="3.72036">
        <ele>117.2</ele>
        <time>2015-06-01T14:37:32.891Z</time>
      </trkpt>
      <trkpt lat="49.68848" lon="3.72023">
        <ele>118.2</ele>
        <time>2015-06-01T14:37:37.977Z</time>
      </trkpt>
      <trkpt lat="49.68848" lon="3.72021">
        <ele>118.3</ele>
        <time>2015-06-01T14:37:38.838Z</time>
      </trkpt>
      <trkpt lat="49.68849" lon="3.72009">
        <ele>118.3</ele>
        <time>2015-06-01T14:37:43.881Z</time>
      </trkpt>
      <trkpt lat="49.68849" lon="3.72007">
        <ele>118.4</ele>
        <time>2015-06-01T14:37:44.887Z</time>
      </trkpt>
      <trkpt lat="49.68851" lon="3.71994">
        <ele>118.6</ele>
        <time>2015-06-01T14:37:50.839Z</time>
      </trkpt>
      <trkpt lat="49.68851" lon="3.71992">
        <ele>118.6</ele>
        <time>2015-06-01T14:37:51.827Z</time>
      </trkpt>
      <trkpt lat="49.68855" lon="3.71982">
        <ele>119.1</ele>
        <time>2015-06-01T14:37:58.908Z</time>
      </trkpt>
      <trkpt lat="49.68856" lon="3.71981">
        <ele>119.2</ele>
        <time>2015-06-01T14:37:59.920Z</time>
      </trkpt>
      <trkpt lat="49.68865" lon="3.71978">
        <ele>119.5</ele>
        <time>2015-06-01T14:38:06.911Z</time>
      </trkpt>
      <trkpt lat="49.68866" lon="3.71978">
        <ele>119.4</ele>
        <time>2015-06-01T14:38:07.924Z</time>
      </trkpt>
      <trkpt lat="49.68874" lon="3.71979">
        <ele>119.1</ele>
        <time>2015-06-01T14:38:13.893Z</time>
      </trkpt>
      <trkpt lat="49.68876" lon="3.71979">
        <ele>119.1</ele>
        <time>2015-06-01T14:38:14.884Z</time>
      </trkpt>
      <trkpt lat="49.68884" lon="3.7198">
        <ele>119.2</ele>
        <time>2015-06-01T14:38:20.892Z</time>
      </trkpt>
      <trkpt lat="49.68885" lon="3.7198">
        <ele>119.1</ele>
        <time>2015-06-01T14:38:21.896Z</time>
      </trkpt>
      <trkpt lat="49.68893" lon="3.71982">
        <ele>119.3</ele>
        <time>2015-06-01T14:38:27.836Z</time>
      </trkpt>
      <trkpt lat="49.68894" lon="3.71982">
        <ele>119.2</ele>
        <time>2015-06-01T14:38:28.848Z</time>
      </trkpt>
      <trkpt lat="49.68902" lon="3.71984">
        <ele>119</ele>
        <time>2015-06-01T14:38:36.876Z</time>
      </trkpt>
      <trkpt lat="49.68903" lon="3.71984">
        <ele>119</ele>
        <time>2015-06-01T14:38:37.885Z</time>
      </trkpt>
      <trkpt lat="49.68912" lon="3.71988">
        <ele>119.1</ele>
        <time>2015-06-01T14:38:43.901Z</time>
      </trkpt>
      <trkpt lat="49.68913" lon="3.71988">
        <ele>119</ele>
        <time>2015-06-01T14:38:44.910Z</time>
      </trkpt>
      <trkpt lat="49.68922" lon="3.7199">
        <ele>118.8</ele>
        <time>2015-06-01T14:38:51.892Z</time>
      </trkpt>
      <trkpt lat="49.68923" lon="3.71991">
        <ele>118.8</ele>
        <time>2015-06-01T14:38:52.909Z</time>
      </trkpt>
      <trkpt lat="49.68931" lon="3.71995">
        <ele>118.6</ele>
        <time>2015-06-01T14:38:59.864Z</time>
      </trkpt>
      <trkpt lat="49.68932" lon="3.71996">
        <ele>118.7</ele>
        <time>2015-06-01T14:39:00.863Z</time>
      </trkpt>
      <trkpt lat="49.6894" lon="3.71999">
        <ele>118.4</ele>
        <time>2015-06-01T14:39:06.833Z</time>
      </trkpt>
      <trkpt lat="49.68942" lon="3.71999">
        <ele>118.4</ele>
        <time>2015-06-01T14:39:07.888Z</time>
      </trkpt>
      <trkpt lat="49.6895" lon="3.72002">
        <ele>118.1</ele>
        <time>2015-06-01T14:39:13.886Z</time>
      </trkpt>
      <trkpt lat="49.68951" lon="3.72003">
        <ele>118.1</ele>
        <time>2015-06-01T14:39:14.885Z</time>
      </trkpt>
      <trkpt lat="49.68958" lon="3.72005">
        <ele>118.1</ele>
        <time>2015-06-01T14:39:19.937Z</time>
      </trkpt>
      <trkpt lat="49.6896" lon="3.72006">
        <ele>118.1</ele>
        <time>2015-06-01T14:39:20.833Z</time>
      </trkpt>
      <trkpt lat="49.68968" lon="3.72009">
        <ele>117.9</ele>
        <time>2015-06-01T14:39:26.902Z</time>
      </trkpt>
      <trkpt lat="49.68969" lon="3.72009">
        <ele>118</ele>
        <time>2015-06-01T14:39:27.905Z</time>
      </trkpt>
      <trkpt lat="49.68977" lon="3.72012">
        <ele>118.1</ele>
        <time>2015-06-01T14:39:33.915Z</time>
      </trkpt>
      <trkpt lat="49.68978" lon="3.72013">
        <ele>118.2</ele>
        <time>2015-06-01T14:39:34.929Z</time>
      </trkpt>
      <trkpt lat="49.68987" lon="3.72016">
        <ele>118.2</ele>
        <time>2015-06-01T14:39:40.897Z</time>
      </trkpt>
      <trkpt lat="49.68988" lon="3.72017">
        <ele>118.2</ele>
        <time>2015-06-01T14:39:41.906Z</time>
      </trkpt>
      <trkpt lat="49.68996" lon="3.72019">
        <ele>118.1</ele>
        <time>2015-06-01T14:39:47.848Z</time>
      </trkpt>
      <trkpt lat="49.68998" lon="3.7202">
        <ele>118.2</ele>
        <time>2015-06-01T14:39:48.857Z</time>
      </trkpt>
      <trkpt lat="49.69006" lon="3.72023">
        <ele>118</ele>
        <time>2015-06-01T14:39:58.896Z</time>
      </trkpt>
      <trkpt lat="49.69007" lon="3.72023">
        <ele>117.8</ele>
        <time>2015-06-01T14:39:59.904Z</time>
      </trkpt>
      <trkpt lat="49.69015" lon="3.72027">
        <ele>117.4</ele>
        <time>2015-06-01T14:40:05.854Z</time>
      </trkpt>
      <trkpt lat="49.69017" lon="3.72027">
        <ele>117.3</ele>
        <time>2015-06-01T14:40:06.860Z</time>
      </trkpt>
      <trkpt lat="49.69024" lon="3.72029">
        <ele>116.6</ele>
        <time>2015-06-01T14:40:14.832Z</time>
      </trkpt>
      <trkpt lat="49.69026" lon="3.7203">
        <ele>116.5</ele>
        <time>2015-06-01T14:40:15.862Z</time>
      </trkpt>
      <trkpt lat="49.69034" lon="3.72032">
        <ele>116.5</ele>
        <time>2015-06-01T14:40:20.834Z</time>
      </trkpt>
      <trkpt lat="49.69036" lon="3.72033">
        <ele>116.6</ele>
        <time>2015-06-01T14:40:21.836Z</time>
      </trkpt>
      <trkpt lat="49.69044" lon="3.72035">
        <ele>117</ele>
        <time>2015-06-01T14:40:27.897Z</time>
      </trkpt>
      <trkpt lat="49.69046" lon="3.72035">
        <ele>117</ele>
        <time>2015-06-01T14:40:28.836Z</time>
      </trkpt>
      <trkpt lat="49.69053" lon="3.72036">
        <ele>116.9</ele>
        <time>2015-06-01T14:40:35.091Z</time>
      </trkpt>
      <trkpt lat="49.69055" lon="3.72036">
        <ele>116.9</ele>
        <time>2015-06-01T14:40:35.822Z</time>
      </trkpt>
      <trkpt lat="49.69062" lon="3.72036">
        <ele>117.1</ele>
        <time>2015-06-01T14:40:40.907Z</time>
      </trkpt>
      <trkpt lat="49.69064" lon="3.72036">
        <ele>117.1</ele>
        <time>2015-06-01T14:40:41.837Z</time>
      </trkpt>
      <trkpt lat="49.69072" lon="3.72033">
        <ele>117.1</ele>
        <time>2015-06-01T14:40:47.909Z</time>
      </trkpt>
      <trkpt lat="49.69074" lon="3.72033">
        <ele>117</ele>
        <time>2015-06-01T14:40:48.832Z</time>
      </trkpt>
      <trkpt lat="49.69082" lon="3.72031">
        <ele>116.7</ele>
        <time>2015-06-01T14:40:53.899Z</time>
      </trkpt>
      <trkpt lat="49.69083" lon="3.72031">
        <ele>116.7</ele>
        <time>2015-06-01T14:40:54.891Z</time>
      </trkpt>
      <trkpt lat="49.69091" lon="3.72028">
        <ele>116.2</ele>
        <time>2015-06-01T14:40:59.867Z</time>
      </trkpt>
      <trkpt lat="49.69092" lon="3.72027">
        <ele>116.2</ele>
        <time>2015-06-01T14:41:00.867Z</time>
      </trkpt>
      <trkpt lat="49.691" lon="3.72022">
        <ele>116.8</ele>
        <time>2015-06-01T14:41:06.837Z</time>
      </trkpt>
      <trkpt lat="49.69101" lon="3.72021">
        <ele>116.7</ele>
        <time>2015-06-01T14:41:07.939Z</time>
      </trkpt>
      <trkpt lat="49.69109" lon="3.72015">
        <ele>116.5</ele>
        <time>2015-06-01T14:41:13.884Z</time>
      </trkpt>
      <trkpt lat="49.6911" lon="3.72014">
        <ele>116.4</ele>
        <time>2015-06-01T14:41:14.898Z</time>
      </trkpt>
      <trkpt lat="49.69117" lon="3.72009">
        <ele>116.2</ele>
        <time>2015-06-01T14:41:19.870Z</time>
      </trkpt>
      <trkpt lat="49.69118" lon="3.72008">
        <ele>116.3</ele>
        <time>2015-06-01T14:41:20.889Z</time>
      </trkpt>
      <trkpt lat="49.69124" lon="3.72">
        <ele>116.8</ele>
        <time>2015-06-01T14:41:25.932Z</time>
      </trkpt>
      <trkpt lat="49.69126" lon="3.71999">
        <ele>116.8</ele>
        <time>2015-06-01T14:41:26.933Z</time>
      </trkpt>
      <trkpt lat="49.69132" lon="3.7199">
        <ele>117.1</ele>
        <time>2015-06-01T14:41:32.916Z</time>
      </trkpt>
      <trkpt lat="49.69133" lon="3.71989">
        <ele>117.2</ele>
        <time>2015-06-01T14:41:33.932Z</time>
      </trkpt>
      <trkpt lat="49.6914" lon="3.7198">
        <ele>117.5</ele>
        <time>2015-06-01T14:41:39.921Z</time>
      </trkpt>
      <trkpt lat="49.69141" lon="3.71979">
        <ele>117.7</ele>
        <time>2015-06-01T14:41:40.883Z</time>
      </trkpt>
      <trkpt lat="49.69147" lon="3.71969">
        <ele>118</ele>
        <time>2015-06-01T14:41:46.847Z</time>
      </trkpt>
      <trkpt lat="49.69148" lon="3.71968">
        <ele>118</ele>
        <time>2015-06-01T14:41:47.843Z</time>
      </trkpt>
      <trkpt lat="49.69154" lon="3.7196">
        <ele>118.1</ele>
        <time>2015-06-01T14:41:52.916Z</time>
      </trkpt>
      <trkpt lat="49.69155" lon="3.71958">
        <ele>118.2</ele>
        <time>2015-06-01T14:41:53.923Z</time>
      </trkpt>
      <trkpt lat="49.69161" lon="3.7195">
        <ele>118.4</ele>
        <time>2015-06-01T14:41:58.844Z</time>
      </trkpt>
      <trkpt lat="49.69162" lon="3.71949">
        <ele>118.4</ele>
        <time>2015-06-01T14:41:59.871Z</time>
      </trkpt>
      <trkpt lat="49.69168" lon="3.71941">
        <ele>118.3</ele>
        <time>2015-06-01T14:42:05.927Z</time>
      </trkpt>
      <trkpt lat="49.69169" lon="3.71939">
        <ele>118.3</ele>
        <time>2015-06-01T14:42:06.844Z</time>
      </trkpt>
      <trkpt lat="49.69174" lon="3.7193">
        <ele>118.7</ele>
        <time>2015-06-01T14:42:12.832Z</time>
      </trkpt>
      <trkpt lat="49.69175" lon="3.71929">
        <ele>118.8</ele>
        <time>2015-06-01T14:42:13.900Z</time>
      </trkpt>
      <trkpt lat="49.69182" lon="3.71921">
        <ele>118.8</ele>
        <time>2015-06-01T14:42:19.963Z</time>
      </trkpt>
      <trkpt lat="49.69183" lon="3.71919">
        <ele>118.8</ele>
        <time>2015-06-01T14:42:20.843Z</time>
      </trkpt>
      <trkpt lat="49.69189" lon="3.7191">
        <ele>119.3</ele>
        <time>2015-06-01T14:42:26.907Z</time>
      </trkpt>
      <trkpt lat="49.69189" lon="3.71909">
        <ele>119.3</ele>
        <time>2015-06-01T14:42:27.915Z</time>
      </trkpt>
      <trkpt lat="49.69195" lon="3.719">
        <ele>119.3</ele>
        <time>2015-06-01T14:42:34.925Z</time>
      </trkpt>
      <trkpt lat="49.69196" lon="3.71899">
        <ele>119.3</ele>
        <time>2015-06-01T14:42:35.841Z</time>
      </trkpt>
      <trkpt lat="49.69201" lon="3.71888">
        <ele>118.7</ele>
        <time>2015-06-01T14:42:42.847Z</time>
      </trkpt>
      <trkpt lat="49.69202" lon="3.71887">
        <ele>118.6</ele>
        <time>2015-06-01T14:42:43.900Z</time>
      </trkpt>
      <trkpt lat="49.69208" lon="3.71879">
        <ele>118.2</ele>
        <time>2015-06-01T14:42:49.928Z</time>
      </trkpt>
      <trkpt lat="49.69209" lon="3.71877">
        <ele>118.3</ele>
        <time>2015-06-01T14:42:50.844Z</time>
      </trkpt>
      <trkpt lat="49.69214" lon="3.71869">
        <ele>117.8</ele>
        <time>2015-06-01T14:42:57.924Z</time>
      </trkpt>
      <trkpt lat="49.69215" lon="3.71867">
        <ele>117.8</ele>
        <time>2015-06-01T14:42:58.930Z</time>
      </trkpt>
      <trkpt lat="49.69222" lon="3.71858">
        <ele>116.5</ele>
        <time>2015-06-01T14:43:05.926Z</time>
      </trkpt>
      <trkpt lat="49.69223" lon="3.71857">
        <ele>116.3</ele>
        <time>2015-06-01T14:43:06.872Z</time>
      </trkpt>
      <trkpt lat="49.6923" lon="3.71848">
        <ele>115.8</ele>
        <time>2015-06-01T14:43:13.905Z</time>
      </trkpt>
      <trkpt lat="49.69231" lon="3.71847">
        <ele>115.8</ele>
        <time>2015-06-01T14:43:14.924Z</time>
      </trkpt>
      <trkpt lat="49.69237" lon="3.71838">
        <ele>115.6</ele>
        <time>2015-06-01T14:43:21.924Z</time>
      </trkpt>
      <trkpt lat="49.69238" lon="3.71837">
        <ele>115.5</ele>
        <time>2015-06-01T14:43:22.928Z</time>
      </trkpt>
      <trkpt lat="49.69245" lon="3.71828">
        <ele>115.9</ele>
        <time>2015-06-01T14:43:28.842Z</time>
      </trkpt>
      <trkpt lat="49.69246" lon="3.71827">
        <ele>116</ele>
        <time>2015-06-01T14:43:29.848Z</time>
      </trkpt>
      <trkpt lat="49.69251" lon="3.71816">
        <ele>116.2</ele>
        <time>2015-06-01T14:43:36.847Z</time>
      </trkpt>
      <trkpt lat="49.69252" lon="3.71814">
        <ele>115.9</ele>
        <time>2015-06-01T14:43:37.899Z</time>
      </trkpt>
      <trkpt lat="49.69258" lon="3.71805">
        <ele>115.3</ele>
        <time>2015-06-01T14:43:42.836Z</time>
      </trkpt>
      <trkpt lat="49.69258" lon="3.71803">
        <ele>115.1</ele>
        <time>2015-06-01T14:43:43.955Z</time>
      </trkpt>
      <trkpt lat="49.6926" lon="3.7179">
        <ele>113.6</ele>
        <time>2015-06-01T14:43:50.897Z</time>
      </trkpt>
      <trkpt lat="49.69259" lon="3.71787">
        <ele>113.2</ele>
        <time>2015-06-01T14:43:51.829Z</time>
      </trkpt>
      <trkpt lat="49.69257" lon="3.71774">
        <ele>112</ele>
        <time>2015-06-01T14:43:57.822Z</time>
      </trkpt>
      <trkpt lat="49.69256" lon="3.71772">
        <ele>111.8</ele>
        <time>2015-06-01T14:43:58.878Z</time>
      </trkpt>
      <trkpt lat="49.69254" lon="3.71759">
        <ele>110.9</ele>
        <time>2015-06-01T14:44:07.545Z</time>
      </trkpt>
      <trkpt lat="49.69253" lon="3.71757">
        <ele>110.9</ele>
        <time>2015-06-01T14:44:07.926Z</time>
      </trkpt>
      <trkpt lat="49.69249" lon="3.71745">
        <ele>109.6</ele>
        <time>2015-06-01T14:44:14.898Z</time>
      </trkpt>
      <trkpt lat="49.69249" lon="3.71743">
        <ele>109.3</ele>
        <time>2015-06-01T14:44:15.906Z</time>
      </trkpt>
      <trkpt lat="49.69248" lon="3.7173">
        <ele>109.2</ele>
        <time>2015-06-01T14:44:23.009Z</time>
      </trkpt>
      <trkpt lat="49.69247" lon="3.71729">
        <ele>109.2</ele>
        <time>2015-06-01T14:44:24.056Z</time>
      </trkpt>
      <trkpt lat="49.69245" lon="3.71716">
        <ele>110.1</ele>
        <time>2015-06-01T14:44:33.908Z</time>
      </trkpt>
      <trkpt lat="49.69244" lon="3.71714">
        <ele>110.4</ele>
        <time>2015-06-01T14:44:34.979Z</time>
      </trkpt>
      <trkpt lat="49.69239" lon="3.71704">
        <ele>111.4</ele>
        <time>2015-06-01T14:44:41.815Z</time>
      </trkpt>
      <trkpt lat="49.69237" lon="3.71703">
        <ele>111.2</ele>
        <time>2015-06-01T14:44:42.887Z</time>
      </trkpt>
      <trkpt lat="49.69231" lon="3.71694">
        <ele>111</ele>
        <time>2015-06-01T14:44:49.957Z</time>
      </trkpt>
      <trkpt lat="49.6923" lon="3.71692">
        <ele>110.8</ele>
        <time>2015-06-01T14:44:50.803Z</time>
      </trkpt>
      <trkpt lat="49.69224" lon="3.71682">
        <ele>109.1</ele>
        <time>2015-06-01T14:44:59.224Z</time>
      </trkpt>
      <trkpt lat="49.69223" lon="3.7168">
        <ele>109</ele>
        <time>2015-06-01T14:44:59.805Z</time>
      </trkpt>
      <trkpt lat="49.69217" lon="3.71669">
        <ele>109</ele>
        <time>2015-06-01T14:45:05.898Z</time>
      </trkpt>
      <trkpt lat="49.69216" lon="3.71668">
        <ele>108.8</ele>
        <time>2015-06-01T14:45:06.832Z</time>
      </trkpt>
      <trkpt lat="49.6921" lon="3.7166">
        <ele>108.8</ele>
        <time>2015-06-01T14:45:13.880Z</time>
      </trkpt>
      <trkpt lat="49.69209" lon="3.71659">
        <ele>108.8</ele>
        <time>2015-06-01T14:45:14.812Z</time>
      </trkpt>
      <trkpt lat="49.69204" lon="3.71649">
        <ele>109.2</ele>
        <time>2015-06-01T14:45:21.996Z</time>
      </trkpt>
      <trkpt lat="49.69203" lon="3.71648">
        <ele>109.2</ele>
        <time>2015-06-01T14:45:22.814Z</time>
      </trkpt>
      <trkpt lat="49.69197" lon="3.71638">
        <ele>109.6</ele>
        <time>2015-06-01T14:45:29.818Z</time>
      </trkpt>
      <trkpt lat="49.69196" lon="3.71636">
        <ele>109.6</ele>
        <time>2015-06-01T14:45:30.841Z</time>
      </trkpt>
      <trkpt lat="49.69191" lon="3.71626">
        <ele>110.1</ele>
        <time>2015-06-01T14:45:35.881Z</time>
      </trkpt>
      <trkpt lat="49.6919" lon="3.71624">
        <ele>110.2</ele>
        <time>2015-06-01T14:45:36.810Z</time>
      </trkpt>
      <trkpt lat="49.69185" lon="3.71615">
        <ele>110.4</ele>
        <time>2015-06-01T14:45:42.815Z</time>
      </trkpt>
      <trkpt lat="49.69184" lon="3.71614">
        <ele>110.4</ele>
        <time>2015-06-01T14:45:44.020Z</time>
      </trkpt>
      <trkpt lat="49.69178" lon="3.71604">
        <ele>111</ele>
        <time>2015-06-01T14:45:49.921Z</time>
      </trkpt>
      <trkpt lat="49.69177" lon="3.71603">
        <ele>111</ele>
        <time>2015-06-01T14:45:50.814Z</time>
      </trkpt>
      <trkpt lat="49.69171" lon="3.71594">
        <ele>111.8</ele>
        <time>2015-06-01T14:45:58.806Z</time>
      </trkpt>
      <trkpt lat="49.69171" lon="3.71592">
        <ele>112.2</ele>
        <time>2015-06-01T14:45:59.812Z</time>
      </trkpt>
      <trkpt lat="49.69166" lon="3.71581">
        <ele>113.8</ele>
        <time>2015-06-01T14:46:05.813Z</time>
      </trkpt>
      <trkpt lat="49.69165" lon="3.7158">
        <ele>114</ele>
        <time>2015-06-01T14:46:06.863Z</time>
      </trkpt>
      <trkpt lat="49.69161" lon="3.7157">
        <ele>114.7</ele>
        <time>2015-06-01T14:46:11.916Z</time>
      </trkpt>
      <trkpt lat="49.6916" lon="3.71568">
        <ele>114.9</ele>
        <time>2015-06-01T14:46:12.833Z</time>
      </trkpt>
      <trkpt lat="49.69154" lon="3.71558">
        <ele>115.5</ele>
        <time>2015-06-01T14:46:18.838Z</time>
      </trkpt>
      <trkpt lat="49.69154" lon="3.71557">
        <ele>115.5</ele>
        <time>2015-06-01T14:46:19.873Z</time>
      </trkpt>
      <trkpt lat="49.69149" lon="3.71546">
        <ele>116.4</ele>
        <time>2015-06-01T14:46:26.923Z</time>
      </trkpt>
      <trkpt lat="49.69149" lon="3.71545">
        <ele>116.5</ele>
        <time>2015-06-01T14:46:27.893Z</time>
      </trkpt>
      <trkpt lat="49.69143" lon="3.71534">
        <ele>117.4</ele>
        <time>2015-06-01T14:46:34.828Z</time>
      </trkpt>
      <trkpt lat="49.69142" lon="3.71532">
        <ele>117.4</ele>
        <time>2015-06-01T14:46:35.862Z</time>
      </trkpt>
      <trkpt lat="49.69136" lon="3.71523">
        <ele>117.6</ele>
        <time>2015-06-01T14:46:41.907Z</time>
      </trkpt>
      <trkpt lat="49.69135" lon="3.71521">
        <ele>117.8</ele>
        <time>2015-06-01T14:46:42.820Z</time>
      </trkpt>
      <trkpt lat="49.6913" lon="3.71511">
        <ele>118.1</ele>
        <time>2015-06-01T14:46:49.886Z</time>
      </trkpt>
      <trkpt lat="49.69129" lon="3.7151">
        <ele>118.2</ele>
        <time>2015-06-01T14:46:50.898Z</time>
      </trkpt>
      <trkpt lat="49.69124" lon="3.715">
        <ele>117.8</ele>
        <time>2015-06-01T14:46:56.874Z</time>
      </trkpt>
      <trkpt lat="49.69123" lon="3.71498">
        <ele>117.9</ele>
        <time>2015-06-01T14:46:57.908Z</time>
      </trkpt>
      <trkpt lat="49.69119" lon="3.71488">
        <ele>117.9</ele>
        <time>2015-06-01T14:47:04.891Z</time>
      </trkpt>
      <trkpt lat="49.69119" lon="3.71486">
        <ele>117.9</ele>
        <time>2015-06-01T14:47:05.901Z</time>
      </trkpt>
      <trkpt lat="49.69113" lon="3.71475">
        <ele>117.3</ele>
        <time>2015-06-01T14:47:13.859Z</time>
      </trkpt>
      <trkpt lat="49.69113" lon="3.71474">
        <ele>117.3</ele>
        <time>2015-06-01T14:47:14.873Z</time>
      </trkpt>
      <trkpt lat="49.69108" lon="3.71463">
        <ele>117</ele>
        <time>2015-06-01T14:47:22.892Z</time>
      </trkpt>
      <trkpt lat="49.69107" lon="3.71461">
        <ele>117</ele>
        <time>2015-06-01T14:47:23.898Z</time>
      </trkpt>
      <trkpt lat="49.69101" lon="3.71451">
        <ele>117.1</ele>
        <time>2015-06-01T14:47:29.867Z</time>
      </trkpt>
      <trkpt lat="49.691" lon="3.7145">
        <ele>117.1</ele>
        <time>2015-06-01T14:47:30.850Z</time>
      </trkpt>
      <trkpt lat="49.69095" lon="3.71439">
        <ele>117.1</ele>
        <time>2015-06-01T14:47:38.875Z</time>
      </trkpt>
      <trkpt lat="49.69094" lon="3.71438">
        <ele>116.9</ele>
        <time>2015-06-01T14:47:39.882Z</time>
      </trkpt>
      <trkpt lat="49.69092" lon="3.71429">
        <ele>116.8</ele>
        <time>2015-06-01T14:47:46.901Z</time>
      </trkpt>
      <trkpt lat="49.69092" lon="3.71428">
        <ele>116.8</ele>
        <time>2015-06-01T14:47:47.907Z</time>
      </trkpt>
      <trkpt lat="49.69092" lon="3.71427">
        <ele>116.8</ele>
        <time>2015-06-01T14:47:48.900Z</time>
      </trkpt>
      <trkpt lat="49.69087" lon="3.71416">
        <ele>117</ele>
        <time>2015-06-01T14:47:55.867Z</time>
      </trkpt>
      <trkpt lat="49.69086" lon="3.71414">
        <ele>117</ele>
        <time>2015-06-01T14:47:56.879Z</time>
      </trkpt>
      <trkpt lat="49.6908" lon="3.71404">
        <ele>117.2</ele>
        <time>2015-06-01T14:48:01.865Z</time>
      </trkpt>
      <trkpt lat="49.69079" lon="3.71402">
        <ele>117.3</ele>
        <time>2015-06-01T14:48:02.856Z</time>
      </trkpt>
      <trkpt lat="49.69072" lon="3.71393">
        <ele>117.4</ele>
        <time>2015-06-01T14:48:07.923Z</time>
      </trkpt>
      <trkpt lat="49.69071" lon="3.71392">
        <ele>117.5</ele>
        <time>2015-06-01T14:48:08.816Z</time>
      </trkpt>
      <trkpt lat="49.69066" lon="3.71382">
        <ele>118.1</ele>
        <time>2015-06-01T14:48:14.870Z</time>
      </trkpt>
      <trkpt lat="49.69064" lon="3.71381">
        <ele>118.3</ele>
        <time>2015-06-01T14:48:15.890Z</time>
      </trkpt>
      <trkpt lat="49.69058" lon="3.71372">
        <ele>118.7</ele>
        <time>2015-06-01T14:48:21.872Z</time>
      </trkpt>
      <trkpt lat="49.69057" lon="3.71371">
        <ele>118.8</ele>
        <time>2015-06-01T14:48:22.881Z</time>
      </trkpt>
      <trkpt lat="49.69052" lon="3.7136">
        <ele>119</ele>
        <time>2015-06-01T14:48:27.811Z</time>
      </trkpt>
      <trkpt lat="49.69051" lon="3.71358">
        <ele>118.9</ele>
        <time>2015-06-01T14:48:28.829Z</time>
      </trkpt>
      <trkpt lat="49.69045" lon="3.71347">
        <ele>118.9</ele>
        <time>2015-06-01T14:48:34.883Z</time>
      </trkpt>
      <trkpt lat="49.69044" lon="3.71345">
        <ele>118.9</ele>
        <time>2015-06-01T14:48:35.895Z</time>
      </trkpt>
      <trkpt lat="49.69038" lon="3.71337">
        <ele>119.2</ele>
        <time>2015-06-01T14:48:40.827Z</time>
      </trkpt>
      <trkpt lat="49.69038" lon="3.71335">
        <ele>119.2</ele>
        <time>2015-06-01T14:48:41.860Z</time>
      </trkpt>
      <trkpt lat="49.69032" lon="3.71326">
        <ele>119.4</ele>
        <time>2015-06-01T14:48:47.813Z</time>
      </trkpt>
      <trkpt lat="49.69031" lon="3.71325">
        <ele>119.5</ele>
        <time>2015-06-01T14:48:48.818Z</time>
      </trkpt>
      <trkpt lat="49.69026" lon="3.71315">
        <ele>120.3</ele>
        <time>2015-06-01T14:48:54.816Z</time>
      </trkpt>
      <trkpt lat="49.69026" lon="3.71314">
        <ele>120.6</ele>
        <time>2015-06-01T14:48:55.861Z</time>
      </trkpt>
      <trkpt lat="49.6902" lon="3.71306">
        <ele>121.2</ele>
        <time>2015-06-01T14:48:59.899Z</time>
      </trkpt>
      <trkpt lat="49.69019" lon="3.71304">
        <ele>121.2</ele>
        <time>2015-06-01T14:49:00.910Z</time>
      </trkpt>
      <trkpt lat="49.69013" lon="3.71293">
        <ele>121.5</ele>
        <time>2015-06-01T14:49:06.873Z</time>
      </trkpt>
      <trkpt lat="49.69012" lon="3.71291">
        <ele>121.9</ele>
        <time>2015-06-01T14:49:07.893Z</time>
      </trkpt>
      <trkpt lat="49.69006" lon="3.71281">
        <ele>123.2</ele>
        <time>2015-06-01T14:49:13.863Z</time>
      </trkpt>
      <trkpt lat="49.69005" lon="3.7128">
        <ele>123.3</ele>
        <time>2015-06-01T14:49:14.875Z</time>
      </trkpt>
      <trkpt lat="49.69" lon="3.71273">
        <ele>124.7</ele>
        <time>2015-06-01T14:49:22.892Z</time>
      </trkpt>
      <trkpt lat="49.68997" lon="3.7127">
        <ele>125.5</ele>
        <time>2015-06-01T14:49:23.899Z</time>
      </trkpt>
      <trkpt lat="49.68997" lon="3.71269">
        <ele>125.8</ele>
        <time>2015-06-01T14:49:24.905Z</time>
      </trkpt>
      <trkpt lat="49.68996" lon="3.71268">
        <ele>126.1</ele>
        <time>2015-06-01T14:49:25.914Z</time>
      </trkpt>
      <trkpt lat="49.68996" lon="3.71263">
        <ele>127</ele>
        <time>2015-06-01T14:49:31.874Z</time>
      </trkpt>
      <trkpt lat="49.68995" lon="3.71262">
        <ele>127.1</ele>
        <time>2015-06-01T14:49:32.885Z</time>
      </trkpt>
      <trkpt lat="49.6899" lon="3.7126">
        <ele>126.2</ele>
        <time>2015-06-01T14:49:33.900Z</time>
      </trkpt>
      <trkpt lat="49.68982" lon="3.71254">
        <ele>124.3</ele>
        <time>2015-06-01T14:49:36.826Z</time>
      </trkpt>
      <trkpt lat="49.6898" lon="3.71252">
        <ele>124</ele>
        <time>2015-06-01T14:49:37.879Z</time>
      </trkpt>
      <trkpt lat="49.68973" lon="3.71244">
        <ele>123</ele>
        <time>2015-06-01T14:49:42.825Z</time>
      </trkpt>
      <trkpt lat="49.68972" lon="3.71243">
        <ele>123</ele>
        <time>2015-06-01T14:49:43.865Z</time>
      </trkpt>
      <trkpt lat="49.68971" lon="3.71237">
        <ele>121.8</ele>
        <time>2015-06-01T14:49:48.916Z</time>
      </trkpt>
      <trkpt lat="49.68971" lon="3.71236">
        <ele>121.7</ele>
        <time>2015-06-01T14:49:49.942Z</time>
      </trkpt>
      <trkpt lat="49.68971" lon="3.71236">
        <ele>121.6</ele>
        <time>2015-06-01T14:49:50.835Z</time>
      </trkpt>
      <trkpt lat="49.68971" lon="3.71234">
        <ele>121.5</ele>
        <time>2015-06-01T14:49:51.858Z</time>
      </trkpt>
      <trkpt lat="49.68965" lon="3.71224">
        <ele>120.9</ele>
        <time>2015-06-01T14:49:59.832Z</time>
      </trkpt>
      <trkpt lat="49.68964" lon="3.71223">
        <ele>121</ele>
        <time>2015-06-01T14:50:00.861Z</time>
      </trkpt>
      <trkpt lat="49.68958" lon="3.71215">
        <ele>120.9</ele>
        <time>2015-06-01T14:50:04.832Z</time>
      </trkpt>
      <trkpt lat="49.68956" lon="3.71213">
        <ele>120.8</ele>
        <time>2015-06-01T14:50:05.862Z</time>
      </trkpt>
      <trkpt lat="49.68951" lon="3.71203">
        <ele>120.6</ele>
        <time>2015-06-01T14:50:11.904Z</time>
      </trkpt>
      <trkpt lat="49.68949" lon="3.71202">
        <ele>120.4</ele>
        <time>2015-06-01T14:50:12.824Z</time>
      </trkpt>
      <trkpt lat="49.68943" lon="3.71193">
        <ele>119.7</ele>
        <time>2015-06-01T14:50:17.908Z</time>
      </trkpt>
      <trkpt lat="49.68942" lon="3.7119">
        <ele>119.6</ele>
        <time>2015-06-01T14:50:18.821Z</time>
      </trkpt>
      <trkpt lat="49.68938" lon="3.71178">
        <ele>118.6</ele>
        <time>2015-06-01T14:50:25.860Z</time>
      </trkpt>
      <trkpt lat="49.68937" lon="3.71176">
        <ele>118.4</ele>
        <time>2015-06-01T14:50:26.865Z</time>
      </trkpt>
      <trkpt lat="49.68931" lon="3.71167">
        <ele>118.6</ele>
        <time>2015-06-01T14:50:30.814Z</time>
      </trkpt>
      <trkpt lat="49.6893" lon="3.71165">
        <ele>118.6</ele>
        <time>2015-06-01T14:50:31.864Z</time>
      </trkpt>
      <trkpt lat="49.68925" lon="3.71156">
        <ele>120.8</ele>
        <time>2015-06-01T14:50:33.883Z</time>
      </trkpt>
      <trkpt lat="49.68924" lon="3.71153">
        <ele>121.8</ele>
        <time>2015-06-01T14:50:34.883Z</time>
      </trkpt>
      <trkpt lat="49.68919" lon="3.71143">
        <ele>123.5</ele>
        <time>2015-06-01T14:50:38.925Z</time>
      </trkpt>
      <trkpt lat="49.68918" lon="3.71142">
        <ele>123.6</ele>
        <time>2015-06-01T14:50:39.833Z</time>
      </trkpt>
      <trkpt lat="49.68912" lon="3.71134">
        <ele>123.8</ele>
        <time>2015-06-01T14:50:45.892Z</time>
      </trkpt>
      <trkpt lat="49.68911" lon="3.71133">
        <ele>123.9</ele>
        <time>2015-06-01T14:50:46.896Z</time>
      </trkpt>
      <trkpt lat="49.68904" lon="3.71124">
        <ele>123.7</ele>
        <time>2015-06-01T14:50:54.880Z</time>
      </trkpt>
      <trkpt lat="49.68903" lon="3.71123">
        <ele>123.8</ele>
        <time>2015-06-01T14:50:55.890Z</time>
      </trkpt>
      <trkpt lat="49.68898" lon="3.71114">
        <ele>123.7</ele>
        <time>2015-06-01T14:51:02.891Z</time>
      </trkpt>
      <trkpt lat="49.68897" lon="3.71113">
        <ele>123.7</ele>
        <time>2015-06-01T14:51:03.816Z</time>
      </trkpt>
      <trkpt lat="49.6889" lon="3.71104">
        <ele>123.6</ele>
        <time>2015-06-01T14:51:11.812Z</time>
      </trkpt>
      <trkpt lat="49.68889" lon="3.71104">
        <ele>123.6</ele>
        <time>2015-06-01T14:51:12.824Z</time>
      </trkpt>
      <trkpt lat="49.68884" lon="3.71095">
        <ele>123.7</ele>
        <time>2015-06-01T14:51:20.854Z</time>
      </trkpt>
      <trkpt lat="49.68883" lon="3.71093">
        <ele>123.7</ele>
        <time>2015-06-01T14:51:21.879Z</time>
      </trkpt>
      <trkpt lat="49.68882" lon="3.71081">
        <ele>124.6</ele>
        <time>2015-06-01T14:51:30.844Z</time>
      </trkpt>
      <trkpt lat="49.68882" lon="3.71079">
        <ele>124.6</ele>
        <time>2015-06-01T14:51:32.011Z</time>
      </trkpt>
      <trkpt lat="49.68887" lon="3.71069">
        <ele>120.3</ele>
        <time>2015-06-01T14:51:37.906Z</time>
      </trkpt>
      <trkpt lat="49.68888" lon="3.71067">
        <ele>120.4</ele>
        <time>2015-06-01T14:51:38.817Z</time>
      </trkpt>
      <trkpt lat="49.6889" lon="3.71055">
        <ele>118</ele>
        <time>2015-06-01T14:51:45.960Z</time>
      </trkpt>
      <trkpt lat="49.68892" lon="3.71053">
        <ele>117.8</ele>
        <time>2015-06-01T14:51:46.843Z</time>
      </trkpt>
      <trkpt lat="49.68893" lon="3.71052">
        <ele>117.5</ele>
        <time>2015-06-01T14:51:47.839Z</time>
      </trkpt>
      <trkpt lat="49.68893" lon="3.71051">
        <ele>117.7</ele>
        <time>2015-06-01T14:51:49.066Z</time>
      </trkpt>
      <trkpt lat="49.68892" lon="3.71047">
        <ele>117.9</ele>
        <time>2015-06-01T14:51:50.863Z</time>
      </trkpt>
      <trkpt lat="49.68892" lon="3.71046">
        <ele>118</ele>
        <time>2015-06-01T14:51:51.877Z</time>
      </trkpt>
      <trkpt lat="49.68893" lon="3.71045">
        <ele>117.9</ele>
        <time>2015-06-01T14:51:52.901Z</time>
      </trkpt>
      <trkpt lat="49.68887" lon="3.71035">
        <ele>113</ele>
        <time>2015-06-01T14:51:56.880Z</time>
      </trkpt>
      <trkpt lat="49.68883" lon="3.71032">
        <ele>110.6</ele>
        <time>2015-06-01T14:51:57.802Z</time>
      </trkpt>
      <trkpt lat="49.68876" lon="3.71026">
        <ele>106.7</ele>
        <time>2015-06-01T14:52:01.222Z</time>
      </trkpt>
      <trkpt lat="49.68874" lon="3.71025">
        <ele>106.8</ele>
        <time>2015-06-01T14:52:01.867Z</time>
      </trkpt>
      <trkpt lat="49.68868" lon="3.71019">
        <ele>106.4</ele>
        <time>2015-06-01T14:52:05.710Z</time>
      </trkpt>
      <trkpt lat="49.68867" lon="3.71017">
        <ele>106.6</ele>
        <time>2015-06-01T14:52:06.811Z</time>
      </trkpt>
      <trkpt lat="49.68862" lon="3.71009">
        <ele>108.8</ele>
        <time>2015-06-01T14:52:09.871Z</time>
      </trkpt>
      <trkpt lat="49.68861" lon="3.71006">
        <ele>109.7</ele>
        <time>2015-06-01T14:52:10.906Z</time>
      </trkpt>
      <trkpt lat="49.68853" lon="3.71">
        <ele>111.7</ele>
        <time>2015-06-01T14:52:19.878Z</time>
      </trkpt>
      <trkpt lat="49.68852" lon="3.70999">
        <ele>111.8</ele>
        <time>2015-06-01T14:52:20.810Z</time>
      </trkpt>
      <trkpt lat="49.68844" lon="3.70992">
        <ele>112.6</ele>
        <time>2015-06-01T14:52:27.899Z</time>
      </trkpt>
      <trkpt lat="49.68842" lon="3.7099">
        <ele>112.6</ele>
        <time>2015-06-01T14:52:28.912Z</time>
      </trkpt>
      <trkpt lat="49.68836" lon="3.70985">
        <ele>113.5</ele>
        <time>2015-06-01T14:52:32.019Z</time>
      </trkpt>
      <trkpt lat="49.68835" lon="3.70983">
        <ele>113.9</ele>
        <time>2015-06-01T14:52:32.868Z</time>
      </trkpt>
      <trkpt lat="49.68829" lon="3.70971">
        <ele>115.6</ele>
        <time>2015-06-01T14:52:39.886Z</time>
      </trkpt>
      <trkpt lat="49.6883" lon="3.7097">
        <ele>115.7</ele>
        <time>2015-06-01T14:52:40.891Z</time>
      </trkpt>
      <trkpt lat="49.68823" lon="3.70967">
        <ele>115.3</ele>
        <time>2015-06-01T14:52:44.875Z</time>
      </trkpt>
      <trkpt lat="49.68821" lon="3.70965">
        <ele>115.3</ele>
        <time>2015-06-01T14:52:45.881Z</time>
      </trkpt>
      <trkpt lat="49.68814" lon="3.70959">
        <ele>115.1</ele>
        <time>2015-06-01T14:52:48.390Z</time>
      </trkpt>
      <trkpt lat="49.68813" lon="3.70958">
        <ele>115.2</ele>
        <time>2015-06-01T14:52:52.818Z</time>
      </trkpt>
      <trkpt lat="49.68806" lon="3.70954">
        <ele>115.3</ele>
        <time>2015-06-01T14:52:53.460Z</time>
      </trkpt>
      <trkpt lat="49.68804" lon="3.70953">
        <ele>115.4</ele>
        <time>2015-06-01T14:52:57.883Z</time>
      </trkpt>
      <trkpt lat="49.68797" lon="3.70947">
        <ele>115.6</ele>
        <time>2015-06-01T14:53:03.887Z</time>
      </trkpt>
      <trkpt lat="49.68795" lon="3.70945">
        <ele>116.2</ele>
        <time>2015-06-01T14:53:04.901Z</time>
      </trkpt>
      <trkpt lat="49.68788" lon="3.70938">
        <ele>116.3</ele>
        <time>2015-06-01T14:53:08.619Z</time>
      </trkpt>
      <trkpt lat="49.68787" lon="3.70937">
        <ele>116.4</ele>
        <time>2015-06-01T14:53:12.911Z</time>
      </trkpt>
      <trkpt lat="49.6878" lon="3.7093">
        <ele>117.8</ele>
        <time>2015-06-01T14:53:18.871Z</time>
      </trkpt>
      <trkpt lat="49.68779" lon="3.7093">
        <ele>117.8</ele>
        <time>2015-06-01T14:53:19.878Z</time>
      </trkpt>
      <trkpt lat="49.68772" lon="3.70923">
        <ele>117.9</ele>
        <time>2015-06-01T14:53:25.977Z</time>
      </trkpt>
      <trkpt lat="49.68771" lon="3.70922">
        <ele>118</ele>
        <time>2015-06-01T14:53:26.836Z</time>
      </trkpt>
      <trkpt lat="49.68764" lon="3.70915">
        <ele>117.9</ele>
        <time>2015-06-01T14:53:32.887Z</time>
      </trkpt>
      <trkpt lat="49.68763" lon="3.70914">
        <ele>118</ele>
        <time>2015-06-01T14:53:33.899Z</time>
      </trkpt>
      <trkpt lat="49.68756" lon="3.70908">
        <ele>118.1</ele>
        <time>2015-06-01T14:53:39.898Z</time>
      </trkpt>
      <trkpt lat="49.68755" lon="3.70907">
        <ele>118</ele>
        <time>2015-06-01T14:53:40.909Z</time>
      </trkpt>
      <trkpt lat="49.68748" lon="3.70901">
        <ele>118.3</ele>
        <time>2015-06-01T14:53:47.901Z</time>
      </trkpt>
      <trkpt lat="49.68747" lon="3.709">
        <ele>118.5</ele>
        <time>2015-06-01T14:53:48.905Z</time>
      </trkpt>
      <trkpt lat="49.68741" lon="3.70892">
        <ele>118.3</ele>
        <time>2015-06-01T14:53:55.886Z</time>
      </trkpt>
      <trkpt lat="49.6874" lon="3.70892">
        <ele>118.4</ele>
        <time>2015-06-01T14:53:56.915Z</time>
      </trkpt>
      <trkpt lat="49.68732" lon="3.70886">
        <ele>119.8</ele>
        <time>2015-06-01T14:54:04.855Z</time>
      </trkpt>
      <trkpt lat="49.68731" lon="3.70885">
        <ele>119.8</ele>
        <time>2015-06-01T14:54:05.864Z</time>
      </trkpt>
      <trkpt lat="49.68724" lon="3.7088">
        <ele>119.3</ele>
        <time>2015-06-01T14:54:10.923Z</time>
      </trkpt>
      <trkpt lat="49.68722" lon="3.70878">
        <ele>119.4</ele>
        <time>2015-06-01T14:54:11.852Z</time>
      </trkpt>
      <trkpt lat="49.68714" lon="3.70873">
        <ele>120</ele>
        <time>2015-06-01T14:54:19.893Z</time>
      </trkpt>
      <trkpt lat="49.68714" lon="3.70874">
        <ele>120</ele>
        <time>2015-06-01T14:54:20.842Z</time>
      </trkpt>
      <trkpt lat="49.68715" lon="3.70875">
        <ele>119.6</ele>
        <time>2015-06-01T14:54:27.909Z</time>
      </trkpt>
      <trkpt lat="49.68716" lon="3.70875">
        <ele>119.5</ele>
        <time>2015-06-01T14:54:28.916Z</time>
      </trkpt>
      <trkpt lat="49.68715" lon="3.70875">
        <ele>119.3</ele>
        <time>2015-06-01T14:54:31.910Z</time>
      </trkpt>
      <trkpt lat="49.68715" lon="3.70875">
        <ele>119.2</ele>
        <time>2015-06-01T14:54:32.935Z</time>
      </trkpt>
      <trkpt lat="49.68715" lon="3.70876">
        <ele>119.1</ele>
        <time>2015-06-01T14:54:33.837Z</time>
      </trkpt>
      <trkpt lat="49.68714" lon="3.70876">
        <ele>119</ele>
        <time>2015-06-01T14:54:34.848Z</time>
      </trkpt>
      <trkpt lat="49.68714" lon="3.70876">
        <ele>119</ele>
        <time>2015-06-01T14:54:39.909Z</time>
      </trkpt>
      <trkpt lat="49.68712" lon="3.70876">
        <ele>118.8</ele>
        <time>2015-06-01T14:54:40.904Z</time>
      </trkpt>
      <trkpt lat="49.68711" lon="3.70876">
        <ele>118.5</ele>
        <time>2015-06-01T14:54:43.921Z</time>
      </trkpt>
      <trkpt lat="49.68712" lon="3.70876">
        <ele>118.5</ele>
        <time>2015-06-01T14:54:44.817Z</time>
      </trkpt>
      <trkpt lat="49.68711" lon="3.70876">
        <ele>118.4</ele>
        <time>2015-06-01T14:54:48.244Z</time>
      </trkpt>
      <trkpt lat="49.6871" lon="3.70875">
        <ele>118.5</ele>
        <time>2015-06-01T14:54:48.825Z</time>
      </trkpt>
      <trkpt lat="49.68706" lon="3.70876">
        <ele>118.3</ele>
        <time>2015-06-01T14:55:00.849Z</time>
      </trkpt>
      <trkpt lat="49.68707" lon="3.70876">
        <ele>118.4</ele>
        <time>2015-06-01T14:55:01.873Z</time>
      </trkpt>
      <trkpt lat="49.68706" lon="3.70875">
        <ele>118.6</ele>
        <time>2015-06-01T14:55:02.890Z</time>
      </trkpt>
      <trkpt lat="49.68699" lon="3.70867">
        <ele>118.6</ele>
        <time>2015-06-01T14:55:08.880Z</time>
      </trkpt>
      <trkpt lat="49.68698" lon="3.70866">
        <ele>118.6</ele>
        <time>2015-06-01T14:55:09.890Z</time>
      </trkpt>
      <trkpt lat="49.6869" lon="3.70864">
        <ele>117.4</ele>
        <time>2015-06-01T14:55:11.921Z</time>
      </trkpt>
      <trkpt lat="49.68688" lon="3.70863">
        <ele>117.2</ele>
        <time>2015-06-01T14:55:12.844Z</time>
      </trkpt>
      <trkpt lat="49.6868" lon="3.70858">
        <ele>117.5</ele>
        <time>2015-06-01T14:55:18.845Z</time>
      </trkpt>
      <trkpt lat="49.68679" lon="3.70858">
        <ele>117.5</ele>
        <time>2015-06-01T14:55:19.878Z</time>
      </trkpt>
      <trkpt lat="49.68672" lon="3.70851">
        <ele>118.7</ele>
        <time>2015-06-01T14:55:27.936Z</time>
      </trkpt>
      <trkpt lat="49.6867" lon="3.70851">
        <ele>118.7</ele>
        <time>2015-06-01T14:55:28.871Z</time>
      </trkpt>
      <trkpt lat="49.68665" lon="3.70839">
        <ele>123.3</ele>
        <time>2015-06-01T14:55:33.338Z</time>
      </trkpt>
      <trkpt lat="49.68664" lon="3.70838">
        <ele>123.8</ele>
        <time>2015-06-01T14:55:37.875Z</time>
      </trkpt>
      <trkpt lat="49.68656" lon="3.70835">
        <ele>125</ele>
        <time>2015-06-01T14:55:43.894Z</time>
      </trkpt>
      <trkpt lat="49.68655" lon="3.70834">
        <ele>125.2</ele>
        <time>2015-06-01T14:55:44.895Z</time>
      </trkpt>
      <trkpt lat="49.68646" lon="3.70832">
        <ele>125.1</ele>
        <time>2015-06-01T14:55:50.893Z</time>
      </trkpt>
      <trkpt lat="49.68645" lon="3.70831">
        <ele>124.9</ele>
        <time>2015-06-01T14:55:51.896Z</time>
      </trkpt>
      <trkpt lat="49.68637" lon="3.70828">
        <ele>124.7</ele>
        <time>2015-06-01T14:55:59.823Z</time>
      </trkpt>
      <trkpt lat="49.68636" lon="3.70827">
        <ele>124.7</ele>
        <time>2015-06-01T14:56:00.822Z</time>
      </trkpt>
      <trkpt lat="49.68629" lon="3.70824">
        <ele>123.7</ele>
        <time>2015-06-01T14:56:08.229Z</time>
      </trkpt>
      <trkpt lat="49.68627" lon="3.70823">
        <ele>123.6</ele>
        <time>2015-06-01T14:56:08.887Z</time>
      </trkpt>
      <trkpt lat="49.68619" lon="3.70825">
        <ele>121.5</ele>
        <time>2015-06-01T14:56:16.899Z</time>
      </trkpt>
      <trkpt lat="49.68618" lon="3.70826">
        <ele>120.6</ele>
        <time>2015-06-01T14:56:17.916Z</time>
      </trkpt>
      <trkpt lat="49.6861" lon="3.70824">
        <ele>119.4</ele>
        <time>2015-06-01T14:56:28.865Z</time>
      </trkpt>
      <trkpt lat="49.68609" lon="3.70825">
        <ele>119.3</ele>
        <time>2015-06-01T14:56:29.890Z</time>
      </trkpt>
      <trkpt lat="49.68604" lon="3.70836">
        <ele>117.7</ele>
        <time>2015-06-01T14:56:40.210Z</time>
      </trkpt>
      <trkpt lat="49.68604" lon="3.70837">
        <ele>117.6</ele>
        <time>2015-06-01T14:56:41.005Z</time>
      </trkpt>
      <trkpt lat="49.68601" lon="3.70839">
        <ele>117.3</ele>
        <time>2015-06-01T14:56:46.989Z</time>
      </trkpt>
      <trkpt lat="49.68601" lon="3.70839">
        <ele>117.3</ele>
        <time>2015-06-01T14:56:47.816Z</time>
      </trkpt>
      <trkpt lat="49.68601" lon="3.70839">
        <ele>117.3</ele>
        <time>2015-06-01T14:56:56.055Z</time>
      </trkpt>
      <trkpt lat="49.68601" lon="3.70838">
        <ele>117.1</ele>
        <time>2015-06-01T14:56:56.853Z</time>
      </trkpt>
      <trkpt lat="49.68601" lon="3.70835">
        <ele>116.9</ele>
        <time>2015-06-01T14:56:59.897Z</time>
      </trkpt>
      <trkpt lat="49.68601" lon="3.70835">
        <ele>116.9</ele>
        <time>2015-06-01T14:57:00.857Z</time>
      </trkpt>
      <trkpt lat="49.68601" lon="3.70835">
        <ele>117</ele>
        <time>2015-06-01T14:57:05.236Z</time>
      </trkpt>
    </trkseg>
  </trk>
</gpx>